<?xml version="1.0" encoding="UTF-8" standalone="no" ?>
<gpx xmlns="http://www.topografix.com/GPX/1/1" xmlns:xsi="http://www.w3.org/2001/XMLSchema-instance" xsi:schemaLocation="http://www.topografix.com/GPX/1/1 http://www.topografix.com/GPX/1/1/gpx.xsd" version="1.1" creator="VisuGPX - https://www.visugpx.com">
  <metadata>
    <name>Pic d'Aulon</name>
    <desc><![CDATA[Ski de randonnée au Pic d'Aulon.]]></desc>
  </metadata>
  <trk>
    <name><![CDATA[Pic d'Aulon_1]]></name>
    <trkseg>
      <trkpt lat="42.85105" lon="0.29364">
        <ele>1203</ele>
        <time>2019-02-25T08:02:13Z</time>
      </trkpt>
      <trkpt lat="42.85104" lon="0.29361">
        <ele>1203</ele>
        <time>2019-02-25T08:02:16Z</time>
      </trkpt>
      <trkpt lat="42.85104" lon="0.29359">
        <ele>1203</ele>
        <time>2019-02-25T08:02:19Z</time>
      </trkpt>
      <trkpt lat="42.85103" lon="0.29356">
        <ele>1203</ele>
        <time>2019-02-25T08:02:22Z</time>
      </trkpt>
      <trkpt lat="42.85102" lon="0.29353">
        <ele>1203</ele>
        <time>2019-02-25T08:02:26Z</time>
      </trkpt>
      <trkpt lat="42.85101" lon="0.29351">
        <ele>1203</ele>
        <time>2019-02-25T08:02:28Z</time>
      </trkpt>
      <trkpt lat="42.85101" lon="0.29347">
        <ele>1203</ele>
        <time>2019-02-25T08:02:31Z</time>
      </trkpt>
      <trkpt lat="42.851" lon="0.29344">
        <ele>1203</ele>
        <time>2019-02-25T08:02:34Z</time>
      </trkpt>
      <trkpt lat="42.85099" lon="0.29342">
        <ele>1203</ele>
        <time>2019-02-25T08:02:36Z</time>
      </trkpt>
      <trkpt lat="42.85098" lon="0.2934">
        <ele>1203</ele>
        <time>2019-02-25T08:02:38Z</time>
      </trkpt>
      <trkpt lat="42.85097" lon="0.29338">
        <ele>1203</ele>
        <time>2019-02-25T08:02:40Z</time>
      </trkpt>
      <trkpt lat="42.85096" lon="0.29335">
        <ele>1203</ele>
        <time>2019-02-25T08:02:42Z</time>
      </trkpt>
      <trkpt lat="42.85096" lon="0.29333">
        <ele>1203</ele>
        <time>2019-02-25T08:02:44Z</time>
      </trkpt>
      <trkpt lat="42.85095" lon="0.2933">
        <ele>1203</ele>
        <time>2019-02-25T08:02:46Z</time>
      </trkpt>
      <trkpt lat="42.85094" lon="0.29328">
        <ele>1203</ele>
        <time>2019-02-25T08:02:48Z</time>
      </trkpt>
      <trkpt lat="42.85094" lon="0.29325">
        <ele>1203</ele>
        <time>2019-02-25T08:02:50Z</time>
      </trkpt>
      <trkpt lat="42.85093" lon="0.29322">
        <ele>1203</ele>
        <time>2019-02-25T08:02:52Z</time>
      </trkpt>
      <trkpt lat="42.85092" lon="0.2932">
        <ele>1203</ele>
        <time>2019-02-25T08:02:54Z</time>
      </trkpt>
      <trkpt lat="42.85091" lon="0.29317">
        <ele>1203</ele>
        <time>2019-02-25T08:02:56Z</time>
      </trkpt>
      <trkpt lat="42.8509" lon="0.29314">
        <ele>1203</ele>
        <time>2019-02-25T08:02:58Z</time>
      </trkpt>
      <trkpt lat="42.85089" lon="0.29311">
        <ele>1203</ele>
        <time>2019-02-25T08:03:00Z</time>
      </trkpt>
      <trkpt lat="42.85088" lon="0.29309">
        <ele>1203</ele>
        <time>2019-02-25T08:03:02Z</time>
      </trkpt>
      <trkpt lat="42.85088" lon="0.29306">
        <ele>1203</ele>
        <time>2019-02-25T08:03:04Z</time>
      </trkpt>
      <trkpt lat="42.85087" lon="0.29303">
        <ele>1203</ele>
        <time>2019-02-25T08:03:06Z</time>
      </trkpt>
      <trkpt lat="42.85085" lon="0.29301">
        <ele>1203</ele>
        <time>2019-02-25T08:03:08Z</time>
      </trkpt>
      <trkpt lat="42.85084" lon="0.29299">
        <ele>1203</ele>
        <time>2019-02-25T08:03:10Z</time>
      </trkpt>
      <trkpt lat="42.85083" lon="0.29297">
        <ele>1203</ele>
        <time>2019-02-25T08:03:12Z</time>
      </trkpt>
      <trkpt lat="42.85082" lon="0.29294">
        <ele>1203</ele>
        <time>2019-02-25T08:03:14Z</time>
      </trkpt>
      <trkpt lat="42.85081" lon="0.29292">
        <ele>1203</ele>
        <time>2019-02-25T08:03:16Z</time>
      </trkpt>
      <trkpt lat="42.8508" lon="0.29289">
        <ele>1203</ele>
        <time>2019-02-25T08:03:18Z</time>
      </trkpt>
      <trkpt lat="42.85079" lon="0.29287">
        <ele>1203</ele>
        <time>2019-02-25T08:03:20Z</time>
      </trkpt>
      <trkpt lat="42.85079" lon="0.29284">
        <ele>1203</ele>
        <time>2019-02-25T08:03:22Z</time>
      </trkpt>
      <trkpt lat="42.85078" lon="0.29281">
        <ele>1203</ele>
        <time>2019-02-25T08:03:26Z</time>
      </trkpt>
      <trkpt lat="42.85077" lon="0.29278">
        <ele>1203</ele>
        <time>2019-02-25T08:03:29Z</time>
      </trkpt>
      <trkpt lat="42.85075" lon="0.29276">
        <ele>1203</ele>
        <time>2019-02-25T08:03:31Z</time>
      </trkpt>
      <trkpt lat="42.85073" lon="0.29276">
        <ele>1203</ele>
        <time>2019-02-25T08:03:33Z</time>
      </trkpt>
      <trkpt lat="42.85071" lon="0.29274">
        <ele>1203</ele>
        <time>2019-02-25T08:03:35Z</time>
      </trkpt>
      <trkpt lat="42.8507" lon="0.29271">
        <ele>1203</ele>
        <time>2019-02-25T08:03:38Z</time>
      </trkpt>
      <trkpt lat="42.85069" lon="0.2927">
        <ele>1203</ele>
        <time>2019-02-25T08:03:40Z</time>
      </trkpt>
      <trkpt lat="42.85067" lon="0.29267">
        <ele>1203</ele>
        <time>2019-02-25T08:03:42Z</time>
      </trkpt>
      <trkpt lat="42.85066" lon="0.29264">
        <ele>1203</ele>
        <time>2019-02-25T08:03:44Z</time>
      </trkpt>
      <trkpt lat="42.85065" lon="0.29261">
        <ele>1203</ele>
        <time>2019-02-25T08:03:46Z</time>
      </trkpt>
      <trkpt lat="42.85064" lon="0.29258">
        <ele>1203</ele>
        <time>2019-02-25T08:03:48Z</time>
      </trkpt>
      <trkpt lat="42.85063" lon="0.29255">
        <ele>1203</ele>
        <time>2019-02-25T08:03:50Z</time>
      </trkpt>
      <trkpt lat="42.85062" lon="0.29253">
        <ele>1203</ele>
        <time>2019-02-25T08:03:52Z</time>
      </trkpt>
      <trkpt lat="42.85061" lon="0.2925">
        <ele>1203</ele>
        <time>2019-02-25T08:03:54Z</time>
      </trkpt>
      <trkpt lat="42.8506" lon="0.29248">
        <ele>1203</ele>
        <time>2019-02-25T08:03:56Z</time>
      </trkpt>
      <trkpt lat="42.85058" lon="0.29245">
        <ele>1203</ele>
        <time>2019-02-25T08:03:58Z</time>
      </trkpt>
      <trkpt lat="42.85057" lon="0.29242">
        <ele>1203</ele>
        <time>2019-02-25T08:04:00Z</time>
      </trkpt>
      <trkpt lat="42.85057" lon="0.2924">
        <ele>1203</ele>
        <time>2019-02-25T08:04:02Z</time>
      </trkpt>
      <trkpt lat="42.85056" lon="0.29238">
        <ele>1203</ele>
        <time>2019-02-25T08:04:04Z</time>
      </trkpt>
      <trkpt lat="42.85056" lon="0.29235">
        <ele>1203</ele>
        <time>2019-02-25T08:04:06Z</time>
      </trkpt>
      <trkpt lat="42.85055" lon="0.29233">
        <ele>1203</ele>
        <time>2019-02-25T08:04:08Z</time>
      </trkpt>
      <trkpt lat="42.85054" lon="0.2923">
        <ele>1203</ele>
        <time>2019-02-25T08:04:10Z</time>
      </trkpt>
      <trkpt lat="42.85053" lon="0.29228">
        <ele>1203</ele>
        <time>2019-02-25T08:04:12Z</time>
      </trkpt>
      <trkpt lat="42.85052" lon="0.29226">
        <ele>1203</ele>
        <time>2019-02-25T08:04:14Z</time>
      </trkpt>
      <trkpt lat="42.8505" lon="0.29224">
        <ele>1203</ele>
        <time>2019-02-25T08:04:16Z</time>
      </trkpt>
      <trkpt lat="42.8505" lon="0.29221">
        <ele>1203</ele>
        <time>2019-02-25T08:04:18Z</time>
      </trkpt>
      <trkpt lat="42.85048" lon="0.29219">
        <ele>1203</ele>
        <time>2019-02-25T08:04:20Z</time>
      </trkpt>
      <trkpt lat="42.85047" lon="0.29216">
        <ele>1203</ele>
        <time>2019-02-25T08:04:23Z</time>
      </trkpt>
      <trkpt lat="42.85046" lon="0.29214">
        <ele>1203</ele>
        <time>2019-02-25T08:04:25Z</time>
      </trkpt>
      <trkpt lat="42.85044" lon="0.29211">
        <ele>1203</ele>
        <time>2019-02-25T08:04:27Z</time>
      </trkpt>
      <trkpt lat="42.85043" lon="0.29208">
        <ele>1203</ele>
        <time>2019-02-25T08:04:30Z</time>
      </trkpt>
      <trkpt lat="42.85042" lon="0.29206">
        <ele>1203</ele>
        <time>2019-02-25T08:04:32Z</time>
      </trkpt>
      <trkpt lat="42.85041" lon="0.29203">
        <ele>1203</ele>
        <time>2019-02-25T08:04:34Z</time>
      </trkpt>
      <trkpt lat="42.85041" lon="0.29201">
        <ele>1203</ele>
        <time>2019-02-25T08:04:36Z</time>
      </trkpt>
      <trkpt lat="42.8504" lon="0.29199">
        <ele>1209</ele>
        <time>2019-02-25T08:04:38Z</time>
      </trkpt>
      <trkpt lat="42.85039" lon="0.29196">
        <ele>1209</ele>
        <time>2019-02-25T08:04:40Z</time>
      </trkpt>
      <trkpt lat="42.85037" lon="0.29194">
        <ele>1208</ele>
        <time>2019-02-25T08:04:42Z</time>
      </trkpt>
      <trkpt lat="42.85036" lon="0.29191">
        <ele>1208</ele>
        <time>2019-02-25T08:04:44Z</time>
      </trkpt>
      <trkpt lat="42.85035" lon="0.29188">
        <ele>1209</ele>
        <time>2019-02-25T08:04:47Z</time>
      </trkpt>
      <trkpt lat="42.85034" lon="0.29185">
        <ele>1209</ele>
        <time>2019-02-25T08:04:49Z</time>
      </trkpt>
      <trkpt lat="42.85034" lon="0.29181">
        <ele>1209</ele>
        <time>2019-02-25T08:04:51Z</time>
      </trkpt>
      <trkpt lat="42.85033" lon="0.29179">
        <ele>1209</ele>
        <time>2019-02-25T08:04:53Z</time>
      </trkpt>
      <trkpt lat="42.85033" lon="0.29176">
        <ele>1209</ele>
        <time>2019-02-25T08:04:56Z</time>
      </trkpt>
      <trkpt lat="42.85032" lon="0.29173">
        <ele>1209</ele>
        <time>2019-02-25T08:04:58Z</time>
      </trkpt>
      <trkpt lat="42.85031" lon="0.2917">
        <ele>1209</ele>
        <time>2019-02-25T08:05:00Z</time>
      </trkpt>
      <trkpt lat="42.8503" lon="0.29168">
        <ele>1210</ele>
        <time>2019-02-25T08:05:02Z</time>
      </trkpt>
      <trkpt lat="42.8503" lon="0.29165">
        <ele>1210</ele>
        <time>2019-02-25T08:05:04Z</time>
      </trkpt>
      <trkpt lat="42.85029" lon="0.29162">
        <ele>1210</ele>
        <time>2019-02-25T08:05:06Z</time>
      </trkpt>
      <trkpt lat="42.85028" lon="0.29159">
        <ele>1210</ele>
        <time>2019-02-25T08:05:08Z</time>
      </trkpt>
      <trkpt lat="42.85027" lon="0.29156">
        <ele>1210</ele>
        <time>2019-02-25T08:05:10Z</time>
      </trkpt>
      <trkpt lat="42.85026" lon="0.29154">
        <ele>1210</ele>
        <time>2019-02-25T08:05:12Z</time>
      </trkpt>
      <trkpt lat="42.85024" lon="0.29151">
        <ele>1211</ele>
        <time>2019-02-25T08:05:15Z</time>
      </trkpt>
      <trkpt lat="42.85024" lon="0.29148">
        <ele>1211</ele>
        <time>2019-02-25T08:05:17Z</time>
      </trkpt>
      <trkpt lat="42.85023" lon="0.29146">
        <ele>1211</ele>
        <time>2019-02-25T08:05:19Z</time>
      </trkpt>
      <trkpt lat="42.85021" lon="0.29143">
        <ele>1211</ele>
        <time>2019-02-25T08:05:22Z</time>
      </trkpt>
      <trkpt lat="42.8502" lon="0.29139">
        <ele>1211</ele>
        <time>2019-02-25T08:05:25Z</time>
      </trkpt>
      <trkpt lat="42.85018" lon="0.29136">
        <ele>1211</ele>
        <time>2019-02-25T08:05:27Z</time>
      </trkpt>
      <trkpt lat="42.85016" lon="0.29134">
        <ele>1212</ele>
        <time>2019-02-25T08:05:29Z</time>
      </trkpt>
      <trkpt lat="42.85015" lon="0.29131">
        <ele>1212</ele>
        <time>2019-02-25T08:05:32Z</time>
      </trkpt>
      <trkpt lat="42.85013" lon="0.29129">
        <ele>1212</ele>
        <time>2019-02-25T08:05:34Z</time>
      </trkpt>
      <trkpt lat="42.85012" lon="0.29127">
        <ele>1212</ele>
        <time>2019-02-25T08:05:36Z</time>
      </trkpt>
      <trkpt lat="42.85012" lon="0.29124">
        <ele>1212</ele>
        <time>2019-02-25T08:05:38Z</time>
      </trkpt>
      <trkpt lat="42.85011" lon="0.29122">
        <ele>1212</ele>
        <time>2019-02-25T08:05:40Z</time>
      </trkpt>
      <trkpt lat="42.8501" lon="0.29119">
        <ele>1212</ele>
        <time>2019-02-25T08:05:42Z</time>
      </trkpt>
      <trkpt lat="42.85008" lon="0.29116">
        <ele>1213</ele>
        <time>2019-02-25T08:05:44Z</time>
      </trkpt>
      <trkpt lat="42.85007" lon="0.29113">
        <ele>1213</ele>
        <time>2019-02-25T08:05:46Z</time>
      </trkpt>
      <trkpt lat="42.85006" lon="0.29111">
        <ele>1213</ele>
        <time>2019-02-25T08:05:48Z</time>
      </trkpt>
      <trkpt lat="42.85005" lon="0.29108">
        <ele>1213</ele>
        <time>2019-02-25T08:05:50Z</time>
      </trkpt>
      <trkpt lat="42.85004" lon="0.29106">
        <ele>1213</ele>
        <time>2019-02-25T08:05:52Z</time>
      </trkpt>
      <trkpt lat="42.85004" lon="0.29104">
        <ele>1213</ele>
        <time>2019-02-25T08:05:54Z</time>
      </trkpt>
      <trkpt lat="42.85003" lon="0.29101">
        <ele>1213</ele>
        <time>2019-02-25T08:05:56Z</time>
      </trkpt>
      <trkpt lat="42.85002" lon="0.29098">
        <ele>1213</ele>
        <time>2019-02-25T08:05:58Z</time>
      </trkpt>
      <trkpt lat="42.85002" lon="0.29095">
        <ele>1214</ele>
        <time>2019-02-25T08:06:00Z</time>
      </trkpt>
      <trkpt lat="42.85001" lon="0.29092">
        <ele>1214</ele>
        <time>2019-02-25T08:06:02Z</time>
      </trkpt>
      <trkpt lat="42.85" lon="0.29089">
        <ele>1214</ele>
        <time>2019-02-25T08:06:04Z</time>
      </trkpt>
      <trkpt lat="42.84999" lon="0.29086">
        <ele>1214</ele>
        <time>2019-02-25T08:06:06Z</time>
      </trkpt>
      <trkpt lat="42.84999" lon="0.29084">
        <ele>1214</ele>
        <time>2019-02-25T08:06:08Z</time>
      </trkpt>
      <trkpt lat="42.84998" lon="0.29081">
        <ele>1214</ele>
        <time>2019-02-25T08:06:10Z</time>
      </trkpt>
      <trkpt lat="42.84997" lon="0.29078">
        <ele>1215</ele>
        <time>2019-02-25T08:06:13Z</time>
      </trkpt>
      <trkpt lat="42.84997" lon="0.29075">
        <ele>1215</ele>
        <time>2019-02-25T08:06:15Z</time>
      </trkpt>
      <trkpt lat="42.84997" lon="0.29066">
        <ele>1215</ele>
        <time>2019-02-25T08:06:21Z</time>
      </trkpt>
      <trkpt lat="42.84997" lon="0.29064">
        <ele>1215</ele>
        <time>2019-02-25T08:06:23Z</time>
      </trkpt>
      <trkpt lat="42.84996" lon="0.2906">
        <ele>1215</ele>
        <time>2019-02-25T08:06:25Z</time>
      </trkpt>
      <trkpt lat="42.84995" lon="0.29058">
        <ele>1215</ele>
        <time>2019-02-25T08:06:27Z</time>
      </trkpt>
      <trkpt lat="42.84995" lon="0.29054">
        <ele>1215</ele>
        <time>2019-02-25T08:06:30Z</time>
      </trkpt>
      <trkpt lat="42.84995" lon="0.29045">
        <ele>1216</ele>
        <time>2019-02-25T08:06:37Z</time>
      </trkpt>
      <trkpt lat="42.84994" lon="0.29042">
        <ele>1216</ele>
        <time>2019-02-25T08:06:39Z</time>
      </trkpt>
      <trkpt lat="42.84993" lon="0.2904">
        <ele>1216</ele>
        <time>2019-02-25T08:06:41Z</time>
      </trkpt>
      <trkpt lat="42.84993" lon="0.29037">
        <ele>1216</ele>
        <time>2019-02-25T08:06:43Z</time>
      </trkpt>
      <trkpt lat="42.84992" lon="0.29034">
        <ele>1217</ele>
        <time>2019-02-25T08:06:45Z</time>
      </trkpt>
      <trkpt lat="42.84992" lon="0.29031">
        <ele>1217</ele>
        <time>2019-02-25T08:06:47Z</time>
      </trkpt>
      <trkpt lat="42.84991" lon="0.29028">
        <ele>1217</ele>
        <time>2019-02-25T08:06:49Z</time>
      </trkpt>
      <trkpt lat="42.8499" lon="0.29025">
        <ele>1217</ele>
        <time>2019-02-25T08:06:51Z</time>
      </trkpt>
      <trkpt lat="42.8499" lon="0.29022">
        <ele>1217</ele>
        <time>2019-02-25T08:06:53Z</time>
      </trkpt>
      <trkpt lat="42.84989" lon="0.29019">
        <ele>1217</ele>
        <time>2019-02-25T08:06:55Z</time>
      </trkpt>
      <trkpt lat="42.84988" lon="0.29016">
        <ele>1217</ele>
        <time>2019-02-25T08:06:57Z</time>
      </trkpt>
      <trkpt lat="42.84988" lon="0.29014">
        <ele>1217</ele>
        <time>2019-02-25T08:06:59Z</time>
      </trkpt>
      <trkpt lat="42.84987" lon="0.2901">
        <ele>1217</ele>
        <time>2019-02-25T08:07:02Z</time>
      </trkpt>
      <trkpt lat="42.84986" lon="0.29008">
        <ele>1217</ele>
        <time>2019-02-25T08:07:04Z</time>
      </trkpt>
      <trkpt lat="42.84985" lon="0.29006">
        <ele>1217</ele>
        <time>2019-02-25T08:07:06Z</time>
      </trkpt>
      <trkpt lat="42.84984" lon="0.29003">
        <ele>1217</ele>
        <time>2019-02-25T08:07:08Z</time>
      </trkpt>
      <trkpt lat="42.84983" lon="0.29001">
        <ele>1218</ele>
        <time>2019-02-25T08:07:10Z</time>
      </trkpt>
      <trkpt lat="42.84982" lon="0.28998">
        <ele>1218</ele>
        <time>2019-02-25T08:07:12Z</time>
      </trkpt>
      <trkpt lat="42.84981" lon="0.28996">
        <ele>1218</ele>
        <time>2019-02-25T08:07:14Z</time>
      </trkpt>
      <trkpt lat="42.8498" lon="0.28993">
        <ele>1218</ele>
        <time>2019-02-25T08:07:17Z</time>
      </trkpt>
      <trkpt lat="42.84979" lon="0.28991">
        <ele>1219</ele>
        <time>2019-02-25T08:07:21Z</time>
      </trkpt>
      <trkpt lat="42.84978" lon="0.28988">
        <ele>1219</ele>
        <time>2019-02-25T08:07:24Z</time>
      </trkpt>
      <trkpt lat="42.84976" lon="0.28986">
        <ele>1219</ele>
        <time>2019-02-25T08:07:27Z</time>
      </trkpt>
      <trkpt lat="42.84975" lon="0.28982">
        <ele>1219</ele>
        <time>2019-02-25T08:07:30Z</time>
      </trkpt>
      <trkpt lat="42.84974" lon="0.2898">
        <ele>1219</ele>
        <time>2019-02-25T08:07:33Z</time>
      </trkpt>
      <trkpt lat="42.84972" lon="0.28977">
        <ele>1219</ele>
        <time>2019-02-25T08:07:36Z</time>
      </trkpt>
      <trkpt lat="42.84971" lon="0.28975">
        <ele>1219</ele>
        <time>2019-02-25T08:07:38Z</time>
      </trkpt>
      <trkpt lat="42.8497" lon="0.28972">
        <ele>1220</ele>
        <time>2019-02-25T08:07:41Z</time>
      </trkpt>
      <trkpt lat="42.84969" lon="0.2897">
        <ele>1220</ele>
        <time>2019-02-25T08:07:43Z</time>
      </trkpt>
      <trkpt lat="42.84969" lon="0.28967">
        <ele>1220</ele>
        <time>2019-02-25T08:07:45Z</time>
      </trkpt>
      <trkpt lat="42.84966" lon="0.28955">
        <ele>1219</ele>
        <time>2019-02-25T08:07:52Z</time>
      </trkpt>
      <trkpt lat="42.84965" lon="0.2895">
        <ele>1219</ele>
        <time>2019-02-25T08:07:55Z</time>
      </trkpt>
      <trkpt lat="42.84963" lon="0.28938">
        <ele>1220</ele>
        <time>2019-02-25T08:08:01Z</time>
      </trkpt>
      <trkpt lat="42.84964" lon="0.28926">
        <ele>1220</ele>
        <time>2019-02-25T08:08:17Z</time>
      </trkpt>
      <trkpt lat="42.84964" lon="0.28924">
        <ele>1220</ele>
        <time>2019-02-25T08:08:20Z</time>
      </trkpt>
      <trkpt lat="42.84965" lon="0.28921">
        <ele>1220</ele>
        <time>2019-02-25T08:08:24Z</time>
      </trkpt>
      <trkpt lat="42.84964" lon="0.28919">
        <ele>1222</ele>
        <time>2019-02-25T08:08:27Z</time>
      </trkpt>
      <trkpt lat="42.84965" lon="0.28916">
        <ele>1222</ele>
        <time>2019-02-25T08:08:30Z</time>
      </trkpt>
      <trkpt lat="42.84968" lon="0.28904">
        <ele>1223</ele>
        <time>2019-02-25T08:08:42Z</time>
      </trkpt>
      <trkpt lat="42.84971" lon="0.28897">
        <ele>1224</ele>
        <time>2019-02-25T08:08:49Z</time>
      </trkpt>
      <trkpt lat="42.84975" lon="0.28892">
        <ele>1224</ele>
        <time>2019-02-25T08:08:55Z</time>
      </trkpt>
      <trkpt lat="42.84976" lon="0.28889">
        <ele>1225</ele>
        <time>2019-02-25T08:09:01Z</time>
      </trkpt>
      <trkpt lat="42.84977" lon="0.28887">
        <ele>1225</ele>
        <time>2019-02-25T08:09:04Z</time>
      </trkpt>
      <trkpt lat="42.84977" lon="0.28884">
        <ele>1226</ele>
        <time>2019-02-25T08:09:08Z</time>
      </trkpt>
      <trkpt lat="42.84975" lon="0.28879">
        <ele>1227</ele>
        <time>2019-02-25T08:09:13Z</time>
      </trkpt>
      <trkpt lat="42.84977" lon="0.28866">
        <ele>1227</ele>
        <time>2019-02-25T08:09:23Z</time>
      </trkpt>
      <trkpt lat="42.84979" lon="0.28855">
        <ele>1227</ele>
        <time>2019-02-25T08:09:35Z</time>
      </trkpt>
      <trkpt lat="42.84983" lon="0.28846">
        <ele>1228</ele>
        <time>2019-02-25T08:09:47Z</time>
      </trkpt>
      <trkpt lat="42.84985" lon="0.28845">
        <ele>1228</ele>
        <time>2019-02-25T08:09:52Z</time>
      </trkpt>
      <trkpt lat="42.84987" lon="0.28844">
        <ele>1229</ele>
        <time>2019-02-25T08:09:55Z</time>
      </trkpt>
      <trkpt lat="42.84988" lon="0.28846">
        <ele>1230</ele>
        <time>2019-02-25T08:09:59Z</time>
      </trkpt>
      <trkpt lat="42.84991" lon="0.28843">
        <ele>1230</ele>
        <time>2019-02-25T08:10:07Z</time>
      </trkpt>
      <trkpt lat="42.84988" lon="0.28846">
        <ele>1230</ele>
        <time>2019-02-25T08:10:18Z</time>
      </trkpt>
      <trkpt lat="42.8499" lon="0.28844">
        <ele>1230</ele>
        <time>2019-02-25T08:10:31Z</time>
      </trkpt>
      <trkpt lat="42.84998" lon="0.2884">
        <ele>1229</ele>
        <time>2019-02-25T08:10:52Z</time>
      </trkpt>
      <trkpt lat="42.84997" lon="0.28844">
        <ele>1230</ele>
        <time>2019-02-25T08:10:59Z</time>
      </trkpt>
      <trkpt lat="42.84988" lon="0.28845">
        <ele>1230</ele>
        <time>2019-02-25T08:11:13Z</time>
      </trkpt>
      <trkpt lat="42.84979" lon="0.28842">
        <ele>1230</ele>
        <time>2019-02-25T08:11:26Z</time>
      </trkpt>
      <trkpt lat="42.84988" lon="0.28845">
        <ele>1229</ele>
        <time>2019-02-25T08:11:43Z</time>
      </trkpt>
      <trkpt lat="42.8499" lon="0.28847">
        <ele>1230</ele>
        <time>2019-02-25T08:11:46Z</time>
      </trkpt>
      <trkpt lat="42.84994" lon="0.28843">
        <ele>1230</ele>
        <time>2019-02-25T08:12:11Z</time>
      </trkpt>
      <trkpt lat="42.84995" lon="0.2884">
        <ele>1230</ele>
        <time>2019-02-25T08:12:14Z</time>
      </trkpt>
      <trkpt lat="42.84993" lon="0.2884">
        <ele>1230</ele>
        <time>2019-02-25T08:12:38Z</time>
      </trkpt>
      <trkpt lat="42.84986" lon="0.28832">
        <ele>1231</ele>
        <time>2019-02-25T08:12:57Z</time>
      </trkpt>
      <trkpt lat="42.84983" lon="0.28831">
        <ele>1231</ele>
        <time>2019-02-25T08:13:04Z</time>
      </trkpt>
      <trkpt lat="42.84983" lon="0.28831">
        <ele>1231</ele>
        <time>2019-02-25T08:13:05Z</time>
      </trkpt>
      <trkpt lat="42.84983" lon="0.28831">
        <ele>1231</ele>
        <time>2019-02-25T08:13:06Z</time>
      </trkpt>
      <trkpt lat="42.84983" lon="0.28831">
        <ele>1231</ele>
        <time>2019-02-25T08:13:07Z</time>
      </trkpt>
      <trkpt lat="42.84983" lon="0.28832">
        <ele>1231</ele>
        <time>2019-02-25T08:13:08Z</time>
      </trkpt>
      <trkpt lat="42.84984" lon="0.28832">
        <ele>1231</ele>
        <time>2019-02-25T08:13:09Z</time>
      </trkpt>
      <trkpt lat="42.84984" lon="0.28832">
        <ele>1231</ele>
        <time>2019-02-25T08:13:10Z</time>
      </trkpt>
      <trkpt lat="42.84984" lon="0.28832">
        <ele>1231</ele>
        <time>2019-02-25T08:13:11Z</time>
      </trkpt>
      <trkpt lat="42.84984" lon="0.28832">
        <ele>1231</ele>
        <time>2019-02-25T08:13:12Z</time>
      </trkpt>
      <trkpt lat="42.84984" lon="0.28832">
        <ele>1231</ele>
        <time>2019-02-25T08:13:13Z</time>
      </trkpt>
      <trkpt lat="42.84985" lon="0.28832">
        <ele>1231</ele>
        <time>2019-02-25T08:13:14Z</time>
      </trkpt>
      <trkpt lat="42.84985" lon="0.28832">
        <ele>1231</ele>
        <time>2019-02-25T08:13:15Z</time>
      </trkpt>
      <trkpt lat="42.84985" lon="0.28832">
        <ele>1231</ele>
        <time>2019-02-25T08:13:16Z</time>
      </trkpt>
      <trkpt lat="42.84985" lon="0.28832">
        <ele>1231</ele>
        <time>2019-02-25T08:13:17Z</time>
      </trkpt>
      <trkpt lat="42.84985" lon="0.28833">
        <ele>1231</ele>
        <time>2019-02-25T08:13:18Z</time>
      </trkpt>
      <trkpt lat="42.84985" lon="0.28833">
        <ele>1231</ele>
        <time>2019-02-25T08:13:19Z</time>
      </trkpt>
      <trkpt lat="42.84986" lon="0.28833">
        <ele>1231</ele>
        <time>2019-02-25T08:13:20Z</time>
      </trkpt>
      <trkpt lat="42.84986" lon="0.28833">
        <ele>1231</ele>
        <time>2019-02-25T08:13:21Z</time>
      </trkpt>
      <trkpt lat="42.84986" lon="0.28833">
        <ele>1231</ele>
        <time>2019-02-25T08:13:22Z</time>
      </trkpt>
      <trkpt lat="42.84986" lon="0.28833">
        <ele>1231</ele>
        <time>2019-02-25T08:13:23Z</time>
      </trkpt>
      <trkpt lat="42.84986" lon="0.28833">
        <ele>1231</ele>
        <time>2019-02-25T08:13:24Z</time>
      </trkpt>
      <trkpt lat="42.84986" lon="0.28833">
        <ele>1231</ele>
        <time>2019-02-25T08:13:25Z</time>
      </trkpt>
      <trkpt lat="42.84987" lon="0.28833">
        <ele>1231</ele>
        <time>2019-02-25T08:13:26Z</time>
      </trkpt>
      <trkpt lat="42.84987" lon="0.28834">
        <ele>1231</ele>
        <time>2019-02-25T08:13:27Z</time>
      </trkpt>
      <trkpt lat="42.84987" lon="0.28834">
        <ele>1231</ele>
        <time>2019-02-25T08:13:28Z</time>
      </trkpt>
      <trkpt lat="42.84987" lon="0.28834">
        <ele>1231</ele>
        <time>2019-02-25T08:13:29Z</time>
      </trkpt>
      <trkpt lat="42.84987" lon="0.28834">
        <ele>1231</ele>
        <time>2019-02-25T08:13:30Z</time>
      </trkpt>
      <trkpt lat="42.84988" lon="0.28834">
        <ele>1231</ele>
        <time>2019-02-25T08:13:31Z</time>
      </trkpt>
      <trkpt lat="42.84992" lon="0.28837">
        <ele>1231</ele>
        <time>2019-02-25T08:13:32Z</time>
      </trkpt>
      <trkpt lat="42.84989" lon="0.28837">
        <ele>1230</ele>
        <time>2019-02-25T08:13:51Z</time>
      </trkpt>
      <trkpt lat="42.84991" lon="0.28836">
        <ele>1230</ele>
        <time>2019-02-25T08:14:11Z</time>
      </trkpt>
      <trkpt lat="42.84992" lon="0.28843">
        <ele>1231</ele>
        <time>2019-02-25T08:14:31Z</time>
      </trkpt>
      <trkpt lat="42.84994" lon="0.28839">
        <ele>1231</ele>
        <time>2019-02-25T08:15:24Z</time>
      </trkpt>
      <trkpt lat="42.84994" lon="0.28835">
        <ele>1231</ele>
        <time>2019-02-25T08:15:32Z</time>
      </trkpt>
      <trkpt lat="42.84995" lon="0.28837">
        <ele>1230</ele>
        <time>2019-02-25T08:15:53Z</time>
      </trkpt>
      <trkpt lat="42.84996" lon="0.28826">
        <ele>1230</ele>
        <time>2019-02-25T08:16:16Z</time>
      </trkpt>
      <trkpt lat="42.84997" lon="0.28819">
        <ele>1230</ele>
        <time>2019-02-25T08:16:21Z</time>
      </trkpt>
      <trkpt lat="42.84996" lon="0.28815">
        <ele>1230</ele>
        <time>2019-02-25T08:16:24Z</time>
      </trkpt>
      <trkpt lat="42.84996" lon="0.28811">
        <ele>1230</ele>
        <time>2019-02-25T08:16:27Z</time>
      </trkpt>
      <trkpt lat="42.84995" lon="0.28806">
        <ele>1230</ele>
        <time>2019-02-25T08:16:31Z</time>
      </trkpt>
      <trkpt lat="42.84995" lon="0.28802">
        <ele>1230</ele>
        <time>2019-02-25T08:16:34Z</time>
      </trkpt>
      <trkpt lat="42.84993" lon="0.2879">
        <ele>1231</ele>
        <time>2019-02-25T08:16:44Z</time>
      </trkpt>
      <trkpt lat="42.84993" lon="0.28777">
        <ele>1231</ele>
        <time>2019-02-25T08:16:52Z</time>
      </trkpt>
      <trkpt lat="42.84993" lon="0.28774">
        <ele>1231</ele>
        <time>2019-02-25T08:16:55Z</time>
      </trkpt>
      <trkpt lat="42.84994" lon="0.28771">
        <ele>1231</ele>
        <time>2019-02-25T08:16:58Z</time>
      </trkpt>
      <trkpt lat="42.84995" lon="0.28768">
        <ele>1231</ele>
        <time>2019-02-25T08:17:01Z</time>
      </trkpt>
      <trkpt lat="42.84996" lon="0.28765">
        <ele>1231</ele>
        <time>2019-02-25T08:17:04Z</time>
      </trkpt>
      <trkpt lat="42.84996" lon="0.28762">
        <ele>1231</ele>
        <time>2019-02-25T08:17:06Z</time>
      </trkpt>
      <trkpt lat="42.84996" lon="0.2876">
        <ele>1231</ele>
        <time>2019-02-25T08:17:08Z</time>
      </trkpt>
      <trkpt lat="42.84997" lon="0.28758">
        <ele>1231</ele>
        <time>2019-02-25T08:17:10Z</time>
      </trkpt>
      <trkpt lat="42.84997" lon="0.28755">
        <ele>1231</ele>
        <time>2019-02-25T08:17:12Z</time>
      </trkpt>
      <trkpt lat="42.84997" lon="0.28751">
        <ele>1232</ele>
        <time>2019-02-25T08:17:15Z</time>
      </trkpt>
      <trkpt lat="42.84998" lon="0.28749">
        <ele>1232</ele>
        <time>2019-02-25T08:17:17Z</time>
      </trkpt>
      <trkpt lat="42.84999" lon="0.28738">
        <ele>1232</ele>
        <time>2019-02-25T08:17:27Z</time>
      </trkpt>
      <trkpt lat="42.84997" lon="0.28735">
        <ele>1232</ele>
        <time>2019-02-25T08:17:31Z</time>
      </trkpt>
      <trkpt lat="42.84996" lon="0.28734">
        <ele>1232</ele>
        <time>2019-02-25T08:17:34Z</time>
      </trkpt>
      <trkpt lat="42.84995" lon="0.28731">
        <ele>1232</ele>
        <time>2019-02-25T08:17:38Z</time>
      </trkpt>
      <trkpt lat="42.84993" lon="0.28728">
        <ele>1231</ele>
        <time>2019-02-25T08:17:42Z</time>
      </trkpt>
      <trkpt lat="42.84992" lon="0.28726">
        <ele>1231</ele>
        <time>2019-02-25T08:17:44Z</time>
      </trkpt>
      <trkpt lat="42.84991" lon="0.28723">
        <ele>1231</ele>
        <time>2019-02-25T08:17:47Z</time>
      </trkpt>
      <trkpt lat="42.8499" lon="0.28721">
        <ele>1231</ele>
        <time>2019-02-25T08:17:49Z</time>
      </trkpt>
      <trkpt lat="42.84991" lon="0.28718">
        <ele>1231</ele>
        <time>2019-02-25T08:17:51Z</time>
      </trkpt>
      <trkpt lat="42.84991" lon="0.28715">
        <ele>1231</ele>
        <time>2019-02-25T08:17:53Z</time>
      </trkpt>
      <trkpt lat="42.84992" lon="0.28711">
        <ele>1231</ele>
        <time>2019-02-25T08:17:56Z</time>
      </trkpt>
      <trkpt lat="42.84992" lon="0.28708">
        <ele>1232</ele>
        <time>2019-02-25T08:17:59Z</time>
      </trkpt>
      <trkpt lat="42.84993" lon="0.28705">
        <ele>1232</ele>
        <time>2019-02-25T08:18:02Z</time>
      </trkpt>
      <trkpt lat="42.84992" lon="0.2869">
        <ele>1232</ele>
        <time>2019-02-25T08:18:21Z</time>
      </trkpt>
      <trkpt lat="42.84991" lon="0.28684">
        <ele>1232</ele>
        <time>2019-02-25T08:18:32Z</time>
      </trkpt>
      <trkpt lat="42.84992" lon="0.28681">
        <ele>1233</ele>
        <time>2019-02-25T08:18:39Z</time>
      </trkpt>
      <trkpt lat="42.84992" lon="0.28678">
        <ele>1233</ele>
        <time>2019-02-25T08:18:45Z</time>
      </trkpt>
      <trkpt lat="42.84993" lon="0.28675">
        <ele>1234</ele>
        <time>2019-02-25T08:18:50Z</time>
      </trkpt>
      <trkpt lat="42.84993" lon="0.28671">
        <ele>1234</ele>
        <time>2019-02-25T08:18:55Z</time>
      </trkpt>
      <trkpt lat="42.84997" lon="0.28665">
        <ele>1235</ele>
        <time>2019-02-25T08:19:04Z</time>
      </trkpt>
      <trkpt lat="42.84996" lon="0.28662">
        <ele>1235</ele>
        <time>2019-02-25T08:19:07Z</time>
      </trkpt>
      <trkpt lat="42.84996" lon="0.28659">
        <ele>1235</ele>
        <time>2019-02-25T08:19:10Z</time>
      </trkpt>
      <trkpt lat="42.84995" lon="0.28655">
        <ele>1235</ele>
        <time>2019-02-25T08:19:13Z</time>
      </trkpt>
      <trkpt lat="42.84995" lon="0.28651">
        <ele>1235</ele>
        <time>2019-02-25T08:19:16Z</time>
      </trkpt>
      <trkpt lat="42.84995" lon="0.28646">
        <ele>1236</ele>
        <time>2019-02-25T08:19:20Z</time>
      </trkpt>
      <trkpt lat="42.84995" lon="0.28643">
        <ele>1236</ele>
        <time>2019-02-25T08:19:23Z</time>
      </trkpt>
      <trkpt lat="42.84994" lon="0.2864">
        <ele>1237</ele>
        <time>2019-02-25T08:19:26Z</time>
      </trkpt>
      <trkpt lat="42.84995" lon="0.28637">
        <ele>1238</ele>
        <time>2019-02-25T08:19:29Z</time>
      </trkpt>
      <trkpt lat="42.84995" lon="0.28634">
        <ele>1238</ele>
        <time>2019-02-25T08:19:32Z</time>
      </trkpt>
      <trkpt lat="42.84995" lon="0.28632">
        <ele>1238</ele>
        <time>2019-02-25T08:19:35Z</time>
      </trkpt>
      <trkpt lat="42.8499" lon="0.2862">
        <ele>1239</ele>
        <time>2019-02-25T08:19:49Z</time>
      </trkpt>
      <trkpt lat="42.84985" lon="0.2861">
        <ele>1242</ele>
        <time>2019-02-25T08:20:02Z</time>
      </trkpt>
      <trkpt lat="42.84984" lon="0.28607">
        <ele>1242</ele>
        <time>2019-02-25T08:20:04Z</time>
      </trkpt>
      <trkpt lat="42.84983" lon="0.28604">
        <ele>1242</ele>
        <time>2019-02-25T08:20:06Z</time>
      </trkpt>
      <trkpt lat="42.84982" lon="0.28602">
        <ele>1243</ele>
        <time>2019-02-25T08:20:08Z</time>
      </trkpt>
      <trkpt lat="42.84982" lon="0.28599">
        <ele>1243</ele>
        <time>2019-02-25T08:20:12Z</time>
      </trkpt>
      <trkpt lat="42.84981" lon="0.28596">
        <ele>1244</ele>
        <time>2019-02-25T08:20:16Z</time>
      </trkpt>
      <trkpt lat="42.84979" lon="0.28594">
        <ele>1244</ele>
        <time>2019-02-25T08:20:19Z</time>
      </trkpt>
      <trkpt lat="42.84978" lon="0.28591">
        <ele>1245</ele>
        <time>2019-02-25T08:20:23Z</time>
      </trkpt>
      <trkpt lat="42.84975" lon="0.28589">
        <ele>1245</ele>
        <time>2019-02-25T08:20:26Z</time>
      </trkpt>
      <trkpt lat="42.84974" lon="0.28587">
        <ele>1245</ele>
        <time>2019-02-25T08:20:28Z</time>
      </trkpt>
      <trkpt lat="42.84972" lon="0.28584">
        <ele>1246</ele>
        <time>2019-02-25T08:20:31Z</time>
      </trkpt>
      <trkpt lat="42.84964" lon="0.28577">
        <ele>1248</ele>
        <time>2019-02-25T08:20:41Z</time>
      </trkpt>
      <trkpt lat="42.84958" lon="0.28568">
        <ele>1249</ele>
        <time>2019-02-25T08:20:55Z</time>
      </trkpt>
      <trkpt lat="42.84955" lon="0.28556">
        <ele>1250</ele>
        <time>2019-02-25T08:21:08Z</time>
      </trkpt>
      <trkpt lat="42.84957" lon="0.28547">
        <ele>1250</ele>
        <time>2019-02-25T08:21:35Z</time>
      </trkpt>
      <trkpt lat="42.8496" lon="0.28559">
        <ele>1251</ele>
        <time>2019-02-25T08:21:59Z</time>
      </trkpt>
      <trkpt lat="42.84958" lon="0.28555">
        <ele>1250</ele>
        <time>2019-02-25T08:22:12Z</time>
      </trkpt>
      <trkpt lat="42.84953" lon="0.28547">
        <ele>1250</ele>
        <time>2019-02-25T08:22:55Z</time>
      </trkpt>
      <trkpt lat="42.84951" lon="0.28546">
        <ele>1250</ele>
        <time>2019-02-25T08:23:41Z</time>
      </trkpt>
      <trkpt lat="42.84945" lon="0.28545">
        <ele>1250</ele>
        <time>2019-02-25T08:23:45Z</time>
      </trkpt>
      <trkpt lat="42.84942" lon="0.28543">
        <ele>1250</ele>
        <time>2019-02-25T08:23:47Z</time>
      </trkpt>
      <trkpt lat="42.84941" lon="0.28541">
        <ele>1251</ele>
        <time>2019-02-25T08:23:49Z</time>
      </trkpt>
      <trkpt lat="42.84939" lon="0.2854">
        <ele>1251</ele>
        <time>2019-02-25T08:23:51Z</time>
      </trkpt>
      <trkpt lat="42.84937" lon="0.28538">
        <ele>1251</ele>
        <time>2019-02-25T08:23:53Z</time>
      </trkpt>
      <trkpt lat="42.84935" lon="0.28537">
        <ele>1251</ele>
        <time>2019-02-25T08:23:55Z</time>
      </trkpt>
      <trkpt lat="42.84932" lon="0.28531">
        <ele>1252</ele>
        <time>2019-02-25T08:23:59Z</time>
      </trkpt>
      <trkpt lat="42.84932" lon="0.28528">
        <ele>1252</ele>
        <time>2019-02-25T08:24:02Z</time>
      </trkpt>
      <trkpt lat="42.84929" lon="0.28515">
        <ele>1253</ele>
        <time>2019-02-25T08:24:10Z</time>
      </trkpt>
      <trkpt lat="42.84928" lon="0.28512">
        <ele>1253</ele>
        <time>2019-02-25T08:24:12Z</time>
      </trkpt>
      <trkpt lat="42.84927" lon="0.28509">
        <ele>1253</ele>
        <time>2019-02-25T08:24:14Z</time>
      </trkpt>
      <trkpt lat="42.84919" lon="0.28505">
        <ele>1253</ele>
        <time>2019-02-25T08:24:21Z</time>
      </trkpt>
      <trkpt lat="42.84917" lon="0.28504">
        <ele>1254</ele>
        <time>2019-02-25T08:24:24Z</time>
      </trkpt>
      <trkpt lat="42.84914" lon="0.28504">
        <ele>1254</ele>
        <time>2019-02-25T08:24:27Z</time>
      </trkpt>
      <trkpt lat="42.84912" lon="0.28504">
        <ele>1254</ele>
        <time>2019-02-25T08:24:30Z</time>
      </trkpt>
      <trkpt lat="42.84911" lon="0.28503">
        <ele>1254</ele>
        <time>2019-02-25T08:24:37Z</time>
      </trkpt>
      <trkpt lat="42.84909" lon="0.28504">
        <ele>1254</ele>
        <time>2019-02-25T08:24:40Z</time>
      </trkpt>
      <trkpt lat="42.84907" lon="0.28504">
        <ele>1254</ele>
        <time>2019-02-25T08:24:43Z</time>
      </trkpt>
      <trkpt lat="42.84904" lon="0.28507">
        <ele>1255</ele>
        <time>2019-02-25T08:24:48Z</time>
      </trkpt>
      <trkpt lat="42.84903" lon="0.28505">
        <ele>1255</ele>
        <time>2019-02-25T08:24:51Z</time>
      </trkpt>
      <trkpt lat="42.84894" lon="0.28501">
        <ele>1256</ele>
        <time>2019-02-25T08:24:59Z</time>
      </trkpt>
      <trkpt lat="42.84888" lon="0.28491">
        <ele>1258</ele>
        <time>2019-02-25T08:25:20Z</time>
      </trkpt>
      <trkpt lat="42.84879" lon="0.28486">
        <ele>1259</ele>
        <time>2019-02-25T08:25:29Z</time>
      </trkpt>
      <trkpt lat="42.84871" lon="0.2848">
        <ele>1260</ele>
        <time>2019-02-25T08:25:41Z</time>
      </trkpt>
      <trkpt lat="42.84862" lon="0.28477">
        <ele>1260</ele>
        <time>2019-02-25T08:25:51Z</time>
      </trkpt>
      <trkpt lat="42.84852" lon="0.28474">
        <ele>1260</ele>
        <time>2019-02-25T08:25:58Z</time>
      </trkpt>
      <trkpt lat="42.84847" lon="0.28464">
        <ele>1261</ele>
        <time>2019-02-25T08:26:14Z</time>
      </trkpt>
      <trkpt lat="42.8484" lon="0.28454">
        <ele>1262</ele>
        <time>2019-02-25T08:26:34Z</time>
      </trkpt>
      <trkpt lat="42.84835" lon="0.28444">
        <ele>1264</ele>
        <time>2019-02-25T08:26:46Z</time>
      </trkpt>
      <trkpt lat="42.84828" lon="0.28435">
        <ele>1265</ele>
        <time>2019-02-25T08:27:00Z</time>
      </trkpt>
      <trkpt lat="42.84822" lon="0.28425">
        <ele>1266</ele>
        <time>2019-02-25T08:27:28Z</time>
      </trkpt>
      <trkpt lat="42.84813" lon="0.28424">
        <ele>1267</ele>
        <time>2019-02-25T08:27:38Z</time>
      </trkpt>
      <trkpt lat="42.84805" lon="0.28417">
        <ele>1267</ele>
        <time>2019-02-25T08:27:59Z</time>
      </trkpt>
      <trkpt lat="42.84798" lon="0.28409">
        <ele>1268</ele>
        <time>2019-02-25T08:28:17Z</time>
      </trkpt>
      <trkpt lat="42.84798" lon="0.28406">
        <ele>1268</ele>
        <time>2019-02-25T08:28:21Z</time>
      </trkpt>
      <trkpt lat="42.84799" lon="0.28402">
        <ele>1268</ele>
        <time>2019-02-25T08:28:27Z</time>
      </trkpt>
      <trkpt lat="42.84797" lon="0.28401">
        <ele>1268</ele>
        <time>2019-02-25T08:28:30Z</time>
      </trkpt>
      <trkpt lat="42.84792" lon="0.2839">
        <ele>1269</ele>
        <time>2019-02-25T08:28:42Z</time>
      </trkpt>
      <trkpt lat="42.84791" lon="0.28386">
        <ele>1269</ele>
        <time>2019-02-25T08:28:45Z</time>
      </trkpt>
      <trkpt lat="42.84791" lon="0.28384">
        <ele>1269</ele>
        <time>2019-02-25T08:28:47Z</time>
      </trkpt>
      <trkpt lat="42.84791" lon="0.2838">
        <ele>1269</ele>
        <time>2019-02-25T08:28:50Z</time>
      </trkpt>
      <trkpt lat="42.84791" lon="0.28378">
        <ele>1269</ele>
        <time>2019-02-25T08:28:53Z</time>
      </trkpt>
      <trkpt lat="42.8479" lon="0.28375">
        <ele>1270</ele>
        <time>2019-02-25T08:28:55Z</time>
      </trkpt>
      <trkpt lat="42.84789" lon="0.2837">
        <ele>1271</ele>
        <time>2019-02-25T08:29:00Z</time>
      </trkpt>
      <trkpt lat="42.84788" lon="0.28366">
        <ele>1271</ele>
        <time>2019-02-25T08:29:04Z</time>
      </trkpt>
      <trkpt lat="42.84789" lon="0.28362">
        <ele>1271</ele>
        <time>2019-02-25T08:29:09Z</time>
      </trkpt>
      <trkpt lat="42.84789" lon="0.28359">
        <ele>1271</ele>
        <time>2019-02-25T08:29:13Z</time>
      </trkpt>
      <trkpt lat="42.84788" lon="0.28356">
        <ele>1271</ele>
        <time>2019-02-25T08:29:16Z</time>
      </trkpt>
      <trkpt lat="42.84788" lon="0.28352">
        <ele>1272</ele>
        <time>2019-02-25T08:29:20Z</time>
      </trkpt>
      <trkpt lat="42.84788" lon="0.28349">
        <ele>1272</ele>
        <time>2019-02-25T08:29:24Z</time>
      </trkpt>
      <trkpt lat="42.84787" lon="0.28346">
        <ele>1273</ele>
        <time>2019-02-25T08:29:27Z</time>
      </trkpt>
      <trkpt lat="42.84787" lon="0.28343">
        <ele>1273</ele>
        <time>2019-02-25T08:29:30Z</time>
      </trkpt>
      <trkpt lat="42.84787" lon="0.28338">
        <ele>1273</ele>
        <time>2019-02-25T08:29:35Z</time>
      </trkpt>
      <trkpt lat="42.84787" lon="0.28332">
        <ele>1274</ele>
        <time>2019-02-25T08:29:43Z</time>
      </trkpt>
      <trkpt lat="42.84786" lon="0.28322">
        <ele>1275</ele>
        <time>2019-02-25T08:29:53Z</time>
      </trkpt>
      <trkpt lat="42.84786" lon="0.28318">
        <ele>1275</ele>
        <time>2019-02-25T08:29:57Z</time>
      </trkpt>
      <trkpt lat="42.84786" lon="0.28315">
        <ele>1276</ele>
        <time>2019-02-25T08:30:00Z</time>
      </trkpt>
      <trkpt lat="42.84786" lon="0.28311">
        <ele>1276</ele>
        <time>2019-02-25T08:30:03Z</time>
      </trkpt>
      <trkpt lat="42.84786" lon="0.28309">
        <ele>1276</ele>
        <time>2019-02-25T08:30:06Z</time>
      </trkpt>
      <trkpt lat="42.84785" lon="0.28305">
        <ele>1277</ele>
        <time>2019-02-25T08:30:11Z</time>
      </trkpt>
      <trkpt lat="42.84786" lon="0.28302">
        <ele>1277</ele>
        <time>2019-02-25T08:30:14Z</time>
      </trkpt>
      <trkpt lat="42.84786" lon="0.28297">
        <ele>1277</ele>
        <time>2019-02-25T08:30:21Z</time>
      </trkpt>
      <trkpt lat="42.84787" lon="0.28295">
        <ele>1278</ele>
        <time>2019-02-25T08:30:24Z</time>
      </trkpt>
      <trkpt lat="42.84787" lon="0.28291">
        <ele>1278</ele>
        <time>2019-02-25T08:30:27Z</time>
      </trkpt>
      <trkpt lat="42.84787" lon="0.28289">
        <ele>1278</ele>
        <time>2019-02-25T08:30:29Z</time>
      </trkpt>
      <trkpt lat="42.84787" lon="0.28285">
        <ele>1278</ele>
        <time>2019-02-25T08:30:32Z</time>
      </trkpt>
      <trkpt lat="42.84787" lon="0.28282">
        <ele>1279</ele>
        <time>2019-02-25T08:30:35Z</time>
      </trkpt>
      <trkpt lat="42.84787" lon="0.28279">
        <ele>1279</ele>
        <time>2019-02-25T08:30:38Z</time>
      </trkpt>
      <trkpt lat="42.84787" lon="0.28276">
        <ele>1279</ele>
        <time>2019-02-25T08:30:42Z</time>
      </trkpt>
      <trkpt lat="42.84787" lon="0.28274">
        <ele>1279</ele>
        <time>2019-02-25T08:30:45Z</time>
      </trkpt>
      <trkpt lat="42.84787" lon="0.28271">
        <ele>1279</ele>
        <time>2019-02-25T08:30:47Z</time>
      </trkpt>
      <trkpt lat="42.84788" lon="0.28268">
        <ele>1280</ele>
        <time>2019-02-25T08:30:51Z</time>
      </trkpt>
      <trkpt lat="42.84789" lon="0.28255">
        <ele>1282</ele>
        <time>2019-02-25T08:31:06Z</time>
      </trkpt>
      <trkpt lat="42.8479" lon="0.28246">
        <ele>1282</ele>
        <time>2019-02-25T08:31:17Z</time>
      </trkpt>
      <trkpt lat="42.84791" lon="0.28243">
        <ele>1282</ele>
        <time>2019-02-25T08:31:20Z</time>
      </trkpt>
      <trkpt lat="42.84791" lon="0.2824">
        <ele>1283</ele>
        <time>2019-02-25T08:31:23Z</time>
      </trkpt>
      <trkpt lat="42.84791" lon="0.28237">
        <ele>1283</ele>
        <time>2019-02-25T08:31:27Z</time>
      </trkpt>
      <trkpt lat="42.84792" lon="0.28235">
        <ele>1283</ele>
        <time>2019-02-25T08:31:30Z</time>
      </trkpt>
      <trkpt lat="42.84792" lon="0.28221">
        <ele>1285</ele>
        <time>2019-02-25T08:31:43Z</time>
      </trkpt>
      <trkpt lat="42.84793" lon="0.28209">
        <ele>1285</ele>
        <time>2019-02-25T08:31:56Z</time>
      </trkpt>
      <trkpt lat="42.84791" lon="0.28196">
        <ele>1286</ele>
        <time>2019-02-25T08:32:10Z</time>
      </trkpt>
      <trkpt lat="42.84796" lon="0.28186">
        <ele>1287</ele>
        <time>2019-02-25T08:32:23Z</time>
      </trkpt>
      <trkpt lat="42.84795" lon="0.28173">
        <ele>1288</ele>
        <time>2019-02-25T08:32:35Z</time>
      </trkpt>
      <trkpt lat="42.84789" lon="0.28163">
        <ele>1287</ele>
        <time>2019-02-25T08:32:48Z</time>
      </trkpt>
      <trkpt lat="42.84798" lon="0.28156">
        <ele>1289</ele>
        <time>2019-02-25T08:32:58Z</time>
      </trkpt>
      <trkpt lat="42.84806" lon="0.28152">
        <ele>1291</ele>
        <time>2019-02-25T08:33:07Z</time>
      </trkpt>
      <trkpt lat="42.84808" lon="0.28139">
        <ele>1292</ele>
        <time>2019-02-25T08:33:16Z</time>
      </trkpt>
      <trkpt lat="42.84808" lon="0.28126">
        <ele>1293</ele>
        <time>2019-02-25T08:33:26Z</time>
      </trkpt>
      <trkpt lat="42.84809" lon="0.28113">
        <ele>1295</ele>
        <time>2019-02-25T08:33:40Z</time>
      </trkpt>
      <trkpt lat="42.84817" lon="0.28104">
        <ele>1296</ele>
        <time>2019-02-25T08:33:58Z</time>
      </trkpt>
      <trkpt lat="42.84817" lon="0.28091">
        <ele>1297</ele>
        <time>2019-02-25T08:34:09Z</time>
      </trkpt>
      <trkpt lat="42.84822" lon="0.28081">
        <ele>1299</ele>
        <time>2019-02-25T08:34:21Z</time>
      </trkpt>
      <trkpt lat="42.84824" lon="0.28068">
        <ele>1298</ele>
        <time>2019-02-25T08:34:34Z</time>
      </trkpt>
      <trkpt lat="42.84826" lon="0.28056">
        <ele>1298</ele>
        <time>2019-02-25T08:34:46Z</time>
      </trkpt>
      <trkpt lat="42.84827" lon="0.28043">
        <ele>1298</ele>
        <time>2019-02-25T08:34:58Z</time>
      </trkpt>
      <trkpt lat="42.84826" lon="0.28029">
        <ele>1298</ele>
        <time>2019-02-25T08:35:07Z</time>
      </trkpt>
      <trkpt lat="42.84831" lon="0.28019">
        <ele>1299</ele>
        <time>2019-02-25T08:35:24Z</time>
      </trkpt>
      <trkpt lat="42.84831" lon="0.28005">
        <ele>1299</ele>
        <time>2019-02-25T08:35:35Z</time>
      </trkpt>
      <trkpt lat="42.84834" lon="0.27994">
        <ele>1299</ele>
        <time>2019-02-25T08:35:42Z</time>
      </trkpt>
      <trkpt lat="42.84836" lon="0.27981">
        <ele>1298</ele>
        <time>2019-02-25T08:35:53Z</time>
      </trkpt>
      <trkpt lat="42.84836" lon="0.2798">
        <ele>1298</ele>
        <time>2019-02-25T08:35:54Z</time>
      </trkpt>
      <trkpt lat="42.84836" lon="0.27979">
        <ele>1298</ele>
        <time>2019-02-25T08:35:55Z</time>
      </trkpt>
      <trkpt lat="42.84836" lon="0.27979">
        <ele>1299</ele>
        <time>2019-02-25T08:35:56Z</time>
      </trkpt>
      <trkpt lat="42.84836" lon="0.27978">
        <ele>1299</ele>
        <time>2019-02-25T08:35:57Z</time>
      </trkpt>
      <trkpt lat="42.84835" lon="0.27978">
        <ele>1299</ele>
        <time>2019-02-25T08:35:58Z</time>
      </trkpt>
      <trkpt lat="42.84835" lon="0.27977">
        <ele>1299</ele>
        <time>2019-02-25T08:35:59Z</time>
      </trkpt>
      <trkpt lat="42.84835" lon="0.27976">
        <ele>1299</ele>
        <time>2019-02-25T08:36:00Z</time>
      </trkpt>
      <trkpt lat="42.84835" lon="0.27976">
        <ele>1299</ele>
        <time>2019-02-25T08:36:01Z</time>
      </trkpt>
      <trkpt lat="42.84835" lon="0.27975">
        <ele>1299</ele>
        <time>2019-02-25T08:36:02Z</time>
      </trkpt>
      <trkpt lat="42.84835" lon="0.27974">
        <ele>1299</ele>
        <time>2019-02-25T08:36:03Z</time>
      </trkpt>
      <trkpt lat="42.84834" lon="0.27967">
        <ele>1299</ele>
        <time>2019-02-25T08:36:04Z</time>
      </trkpt>
      <trkpt lat="42.84842" lon="0.27961">
        <ele>1299</ele>
        <time>2019-02-25T08:36:15Z</time>
      </trkpt>
      <trkpt lat="42.84851" lon="0.27955">
        <ele>1300</ele>
        <time>2019-02-25T08:36:25Z</time>
      </trkpt>
      <trkpt lat="42.84858" lon="0.27946">
        <ele>1300</ele>
        <time>2019-02-25T08:36:39Z</time>
      </trkpt>
      <trkpt lat="42.84861" lon="0.27933">
        <ele>1300</ele>
        <time>2019-02-25T08:36:49Z</time>
      </trkpt>
      <trkpt lat="42.84866" lon="0.27922">
        <ele>1298</ele>
        <time>2019-02-25T08:37:02Z</time>
      </trkpt>
      <trkpt lat="42.84864" lon="0.2791">
        <ele>1299</ele>
        <time>2019-02-25T08:37:14Z</time>
      </trkpt>
      <trkpt lat="42.84865" lon="0.27897">
        <ele>1300</ele>
        <time>2019-02-25T08:37:25Z</time>
      </trkpt>
      <trkpt lat="42.84865" lon="0.27884">
        <ele>1300</ele>
        <time>2019-02-25T08:37:34Z</time>
      </trkpt>
      <trkpt lat="42.84862" lon="0.27871">
        <ele>1301</ele>
        <time>2019-02-25T08:37:43Z</time>
      </trkpt>
      <trkpt lat="42.84861" lon="0.27858">
        <ele>1302</ele>
        <time>2019-02-25T08:38:01Z</time>
      </trkpt>
      <trkpt lat="42.84858" lon="0.27846">
        <ele>1303</ele>
        <time>2019-02-25T08:38:11Z</time>
      </trkpt>
      <trkpt lat="42.84863" lon="0.27835">
        <ele>1304</ele>
        <time>2019-02-25T08:38:21Z</time>
      </trkpt>
      <trkpt lat="42.84861" lon="0.27823">
        <ele>1305</ele>
        <time>2019-02-25T08:38:30Z</time>
      </trkpt>
      <trkpt lat="42.84867" lon="0.27812">
        <ele>1306</ele>
        <time>2019-02-25T08:38:40Z</time>
      </trkpt>
      <trkpt lat="42.84867" lon="0.27798">
        <ele>1307</ele>
        <time>2019-02-25T08:38:52Z</time>
      </trkpt>
      <trkpt lat="42.84867" lon="0.27797">
        <ele>1308</ele>
        <time>2019-02-25T08:38:53Z</time>
      </trkpt>
      <trkpt lat="42.84867" lon="0.27796">
        <ele>1308</ele>
        <time>2019-02-25T08:38:54Z</time>
      </trkpt>
      <trkpt lat="42.84867" lon="0.27796">
        <ele>1308</ele>
        <time>2019-02-25T08:38:55Z</time>
      </trkpt>
      <trkpt lat="42.84868" lon="0.27795">
        <ele>1308</ele>
        <time>2019-02-25T08:38:56Z</time>
      </trkpt>
      <trkpt lat="42.84868" lon="0.27794">
        <ele>1308</ele>
        <time>2019-02-25T08:38:57Z</time>
      </trkpt>
      <trkpt lat="42.84868" lon="0.27793">
        <ele>1309</ele>
        <time>2019-02-25T08:38:58Z</time>
      </trkpt>
      <trkpt lat="42.84869" lon="0.27792">
        <ele>1309</ele>
        <time>2019-02-25T08:38:59Z</time>
      </trkpt>
      <trkpt lat="42.84871" lon="0.27786">
        <ele>1309</ele>
        <time>2019-02-25T08:39:00Z</time>
      </trkpt>
      <trkpt lat="42.84875" lon="0.27775">
        <ele>1312</ele>
        <time>2019-02-25T08:39:14Z</time>
      </trkpt>
      <trkpt lat="42.84883" lon="0.27767">
        <ele>1314</ele>
        <time>2019-02-25T08:39:25Z</time>
      </trkpt>
      <trkpt lat="42.84884" lon="0.27755">
        <ele>1316</ele>
        <time>2019-02-25T08:39:41Z</time>
      </trkpt>
      <trkpt lat="42.84891" lon="0.27746">
        <ele>1318</ele>
        <time>2019-02-25T08:39:54Z</time>
      </trkpt>
      <trkpt lat="42.849" lon="0.27743">
        <ele>1320</ele>
        <time>2019-02-25T08:40:04Z</time>
      </trkpt>
      <trkpt lat="42.84907" lon="0.27735">
        <ele>1320</ele>
        <time>2019-02-25T08:40:13Z</time>
      </trkpt>
      <trkpt lat="42.84912" lon="0.27724">
        <ele>1322</ele>
        <time>2019-02-25T08:40:22Z</time>
      </trkpt>
      <trkpt lat="42.84919" lon="0.27723">
        <ele>1322</ele>
        <time>2019-02-25T08:40:29Z</time>
      </trkpt>
      <trkpt lat="42.84921" lon="0.2772">
        <ele>1322</ele>
        <time>2019-02-25T08:40:32Z</time>
      </trkpt>
      <trkpt lat="42.84922" lon="0.27718">
        <ele>1323</ele>
        <time>2019-02-25T08:40:35Z</time>
      </trkpt>
      <trkpt lat="42.84925" lon="0.27709">
        <ele>1326</ele>
        <time>2019-02-25T08:41:04Z</time>
      </trkpt>
      <trkpt lat="42.84927" lon="0.27707">
        <ele>1326</ele>
        <time>2019-02-25T08:41:06Z</time>
      </trkpt>
      <trkpt lat="42.84928" lon="0.27703">
        <ele>1327</ele>
        <time>2019-02-25T08:41:08Z</time>
      </trkpt>
      <trkpt lat="42.8493" lon="0.277">
        <ele>1327</ele>
        <time>2019-02-25T08:41:10Z</time>
      </trkpt>
      <trkpt lat="42.8493" lon="0.27697">
        <ele>1327</ele>
        <time>2019-02-25T08:41:12Z</time>
      </trkpt>
      <trkpt lat="42.84931" lon="0.27694">
        <ele>1327</ele>
        <time>2019-02-25T08:41:14Z</time>
      </trkpt>
      <trkpt lat="42.84932" lon="0.2769">
        <ele>1327</ele>
        <time>2019-02-25T08:41:16Z</time>
      </trkpt>
      <trkpt lat="42.84932" lon="0.27687">
        <ele>1327</ele>
        <time>2019-02-25T08:41:18Z</time>
      </trkpt>
      <trkpt lat="42.84933" lon="0.27684">
        <ele>1327</ele>
        <time>2019-02-25T08:41:20Z</time>
      </trkpt>
      <trkpt lat="42.84934" lon="0.2768">
        <ele>1327</ele>
        <time>2019-02-25T08:41:22Z</time>
      </trkpt>
      <trkpt lat="42.84935" lon="0.27677">
        <ele>1327</ele>
        <time>2019-02-25T08:41:24Z</time>
      </trkpt>
      <trkpt lat="42.84937" lon="0.27675">
        <ele>1327</ele>
        <time>2019-02-25T08:41:26Z</time>
      </trkpt>
      <trkpt lat="42.84937" lon="0.2767">
        <ele>1327</ele>
        <time>2019-02-25T08:41:28Z</time>
      </trkpt>
      <trkpt lat="42.84936" lon="0.27664">
        <ele>1328</ele>
        <time>2019-02-25T08:41:33Z</time>
      </trkpt>
      <trkpt lat="42.84938" lon="0.27662">
        <ele>1328</ele>
        <time>2019-02-25T08:41:36Z</time>
      </trkpt>
      <trkpt lat="42.84938" lon="0.27658">
        <ele>1329</ele>
        <time>2019-02-25T08:41:39Z</time>
      </trkpt>
      <trkpt lat="42.84941" lon="0.27646">
        <ele>1330</ele>
        <time>2019-02-25T08:41:48Z</time>
      </trkpt>
      <trkpt lat="42.84941" lon="0.27643">
        <ele>1330</ele>
        <time>2019-02-25T08:41:51Z</time>
      </trkpt>
      <trkpt lat="42.84942" lon="0.27639">
        <ele>1330</ele>
        <time>2019-02-25T08:41:53Z</time>
      </trkpt>
      <trkpt lat="42.84943" lon="0.27637">
        <ele>1331</ele>
        <time>2019-02-25T08:41:55Z</time>
      </trkpt>
      <trkpt lat="42.84945" lon="0.27634">
        <ele>1331</ele>
        <time>2019-02-25T08:41:57Z</time>
      </trkpt>
      <trkpt lat="42.84947" lon="0.27633">
        <ele>1331</ele>
        <time>2019-02-25T08:42:00Z</time>
      </trkpt>
      <trkpt lat="42.84949" lon="0.27633">
        <ele>1332</ele>
        <time>2019-02-25T08:42:02Z</time>
      </trkpt>
      <trkpt lat="42.84951" lon="0.27631">
        <ele>1332</ele>
        <time>2019-02-25T08:42:04Z</time>
      </trkpt>
      <trkpt lat="42.84954" lon="0.27629">
        <ele>1332</ele>
        <time>2019-02-25T08:42:06Z</time>
      </trkpt>
      <trkpt lat="42.84956" lon="0.27628">
        <ele>1332</ele>
        <time>2019-02-25T08:42:08Z</time>
      </trkpt>
      <trkpt lat="42.84959" lon="0.27626">
        <ele>1331</ele>
        <time>2019-02-25T08:42:10Z</time>
      </trkpt>
      <trkpt lat="42.8496" lon="0.27626">
        <ele>1332</ele>
        <time>2019-02-25T08:42:11Z</time>
      </trkpt>
      <trkpt lat="42.84962" lon="0.27625">
        <ele>1332</ele>
        <time>2019-02-25T08:42:13Z</time>
      </trkpt>
      <trkpt lat="42.84964" lon="0.27623">
        <ele>1332</ele>
        <time>2019-02-25T08:42:16Z</time>
      </trkpt>
      <trkpt lat="42.84965" lon="0.27619">
        <ele>1332</ele>
        <time>2019-02-25T08:42:19Z</time>
      </trkpt>
      <trkpt lat="42.84966" lon="0.27616">
        <ele>1332</ele>
        <time>2019-02-25T08:42:21Z</time>
      </trkpt>
      <trkpt lat="42.84968" lon="0.27613">
        <ele>1332</ele>
        <time>2019-02-25T08:42:23Z</time>
      </trkpt>
      <trkpt lat="42.84968" lon="0.27611">
        <ele>1332</ele>
        <time>2019-02-25T08:42:25Z</time>
      </trkpt>
      <trkpt lat="42.84969" lon="0.27608">
        <ele>1332</ele>
        <time>2019-02-25T08:42:28Z</time>
      </trkpt>
      <trkpt lat="42.84969" lon="0.27605">
        <ele>1332</ele>
        <time>2019-02-25T08:42:30Z</time>
      </trkpt>
      <trkpt lat="42.84968" lon="0.27603">
        <ele>1332</ele>
        <time>2019-02-25T08:42:32Z</time>
      </trkpt>
      <trkpt lat="42.84969" lon="0.27599">
        <ele>1332</ele>
        <time>2019-02-25T08:42:35Z</time>
      </trkpt>
      <trkpt lat="42.84969" lon="0.27597">
        <ele>1333</ele>
        <time>2019-02-25T08:42:37Z</time>
      </trkpt>
      <trkpt lat="42.84969" lon="0.27594">
        <ele>1333</ele>
        <time>2019-02-25T08:42:39Z</time>
      </trkpt>
      <trkpt lat="42.84969" lon="0.27591">
        <ele>1332</ele>
        <time>2019-02-25T08:42:41Z</time>
      </trkpt>
      <trkpt lat="42.84968" lon="0.27588">
        <ele>1332</ele>
        <time>2019-02-25T08:42:43Z</time>
      </trkpt>
      <trkpt lat="42.84969" lon="0.27586">
        <ele>1332</ele>
        <time>2019-02-25T08:42:45Z</time>
      </trkpt>
      <trkpt lat="42.8497" lon="0.27583">
        <ele>1332</ele>
        <time>2019-02-25T08:42:47Z</time>
      </trkpt>
      <trkpt lat="42.84971" lon="0.2758">
        <ele>1333</ele>
        <time>2019-02-25T08:42:49Z</time>
      </trkpt>
      <trkpt lat="42.84971" lon="0.27577">
        <ele>1333</ele>
        <time>2019-02-25T08:42:52Z</time>
      </trkpt>
      <trkpt lat="42.84971" lon="0.27574">
        <ele>1333</ele>
        <time>2019-02-25T08:42:54Z</time>
      </trkpt>
      <trkpt lat="42.84971" lon="0.27571">
        <ele>1333</ele>
        <time>2019-02-25T08:42:56Z</time>
      </trkpt>
      <trkpt lat="42.84971" lon="0.27569">
        <ele>1333</ele>
        <time>2019-02-25T08:42:58Z</time>
      </trkpt>
      <trkpt lat="42.84972" lon="0.27566">
        <ele>1333</ele>
        <time>2019-02-25T08:43:00Z</time>
      </trkpt>
      <trkpt lat="42.84973" lon="0.27564">
        <ele>1334</ele>
        <time>2019-02-25T08:43:02Z</time>
      </trkpt>
      <trkpt lat="42.84974" lon="0.27562">
        <ele>1334</ele>
        <time>2019-02-25T08:43:04Z</time>
      </trkpt>
      <trkpt lat="42.84975" lon="0.27559">
        <ele>1335</ele>
        <time>2019-02-25T08:43:06Z</time>
      </trkpt>
      <trkpt lat="42.84976" lon="0.27557">
        <ele>1335</ele>
        <time>2019-02-25T08:43:08Z</time>
      </trkpt>
      <trkpt lat="42.84976" lon="0.27554">
        <ele>1335</ele>
        <time>2019-02-25T08:43:10Z</time>
      </trkpt>
      <trkpt lat="42.84976" lon="0.27551">
        <ele>1335</ele>
        <time>2019-02-25T08:43:12Z</time>
      </trkpt>
      <trkpt lat="42.84977" lon="0.27547">
        <ele>1335</ele>
        <time>2019-02-25T08:43:14Z</time>
      </trkpt>
      <trkpt lat="42.84977" lon="0.27544">
        <ele>1335</ele>
        <time>2019-02-25T08:43:16Z</time>
      </trkpt>
      <trkpt lat="42.84978" lon="0.27542">
        <ele>1335</ele>
        <time>2019-02-25T08:43:18Z</time>
      </trkpt>
      <trkpt lat="42.84978" lon="0.27539">
        <ele>1335</ele>
        <time>2019-02-25T08:43:20Z</time>
      </trkpt>
      <trkpt lat="42.84979" lon="0.27536">
        <ele>1335</ele>
        <time>2019-02-25T08:43:23Z</time>
      </trkpt>
      <trkpt lat="42.84976" lon="0.27533">
        <ele>1336</ele>
        <time>2019-02-25T08:43:26Z</time>
      </trkpt>
      <trkpt lat="42.84974" lon="0.27533">
        <ele>1336</ele>
        <time>2019-02-25T08:43:27Z</time>
      </trkpt>
      <trkpt lat="42.84972" lon="0.27532">
        <ele>1336</ele>
        <time>2019-02-25T08:43:29Z</time>
      </trkpt>
      <trkpt lat="42.8497" lon="0.27529">
        <ele>1336</ele>
        <time>2019-02-25T08:43:31Z</time>
      </trkpt>
      <trkpt lat="42.84971" lon="0.27527">
        <ele>1337</ele>
        <time>2019-02-25T08:43:34Z</time>
      </trkpt>
      <trkpt lat="42.84972" lon="0.27524">
        <ele>1337</ele>
        <time>2019-02-25T08:43:37Z</time>
      </trkpt>
      <trkpt lat="42.84973" lon="0.27521">
        <ele>1338</ele>
        <time>2019-02-25T08:43:40Z</time>
      </trkpt>
      <trkpt lat="42.84973" lon="0.27518">
        <ele>1338</ele>
        <time>2019-02-25T08:43:43Z</time>
      </trkpt>
      <trkpt lat="42.84974" lon="0.27515">
        <ele>1339</ele>
        <time>2019-02-25T08:43:46Z</time>
      </trkpt>
      <trkpt lat="42.84974" lon="0.27511">
        <ele>1339</ele>
        <time>2019-02-25T08:43:49Z</time>
      </trkpt>
      <trkpt lat="42.84976" lon="0.27508">
        <ele>1339</ele>
        <time>2019-02-25T08:43:52Z</time>
      </trkpt>
      <trkpt lat="42.84976" lon="0.27505">
        <ele>1339</ele>
        <time>2019-02-25T08:43:55Z</time>
      </trkpt>
      <trkpt lat="42.84976" lon="0.27501">
        <ele>1340</ele>
        <time>2019-02-25T08:43:57Z</time>
      </trkpt>
      <trkpt lat="42.84978" lon="0.27499">
        <ele>1340</ele>
        <time>2019-02-25T08:44:00Z</time>
      </trkpt>
      <trkpt lat="42.84979" lon="0.27497">
        <ele>1340</ele>
        <time>2019-02-25T08:44:02Z</time>
      </trkpt>
      <trkpt lat="42.8498" lon="0.27495">
        <ele>1340</ele>
        <time>2019-02-25T08:44:04Z</time>
      </trkpt>
      <trkpt lat="42.84982" lon="0.27493">
        <ele>1340</ele>
        <time>2019-02-25T08:44:06Z</time>
      </trkpt>
      <trkpt lat="42.84982" lon="0.2749">
        <ele>1340</ele>
        <time>2019-02-25T08:44:08Z</time>
      </trkpt>
      <trkpt lat="42.84984" lon="0.27488">
        <ele>1340</ele>
        <time>2019-02-25T08:44:14Z</time>
      </trkpt>
      <trkpt lat="42.84985" lon="0.27486">
        <ele>1340</ele>
        <time>2019-02-25T08:44:16Z</time>
      </trkpt>
      <trkpt lat="42.84987" lon="0.27484">
        <ele>1340</ele>
        <time>2019-02-25T08:44:18Z</time>
      </trkpt>
      <trkpt lat="42.84989" lon="0.27482">
        <ele>1341</ele>
        <time>2019-02-25T08:44:20Z</time>
      </trkpt>
      <trkpt lat="42.8499" lon="0.27479">
        <ele>1340</ele>
        <time>2019-02-25T08:44:22Z</time>
      </trkpt>
      <trkpt lat="42.84991" lon="0.27476">
        <ele>1340</ele>
        <time>2019-02-25T08:44:24Z</time>
      </trkpt>
      <trkpt lat="42.84991" lon="0.27473">
        <ele>1340</ele>
        <time>2019-02-25T08:44:26Z</time>
      </trkpt>
      <trkpt lat="42.84992" lon="0.27471">
        <ele>1340</ele>
        <time>2019-02-25T08:44:28Z</time>
      </trkpt>
      <trkpt lat="42.84993" lon="0.27469">
        <ele>1341</ele>
        <time>2019-02-25T08:44:30Z</time>
      </trkpt>
      <trkpt lat="42.84995" lon="0.27466">
        <ele>1342</ele>
        <time>2019-02-25T08:44:33Z</time>
      </trkpt>
      <trkpt lat="42.84996" lon="0.27463">
        <ele>1342</ele>
        <time>2019-02-25T08:44:36Z</time>
      </trkpt>
      <trkpt lat="42.84997" lon="0.27461">
        <ele>1342</ele>
        <time>2019-02-25T08:44:39Z</time>
      </trkpt>
      <trkpt lat="42.84998" lon="0.27458">
        <ele>1343</ele>
        <time>2019-02-25T08:44:42Z</time>
      </trkpt>
      <trkpt lat="42.84999" lon="0.27456">
        <ele>1343</ele>
        <time>2019-02-25T08:44:45Z</time>
      </trkpt>
      <trkpt lat="42.84999" lon="0.27453">
        <ele>1343</ele>
        <time>2019-02-25T08:44:52Z</time>
      </trkpt>
      <trkpt lat="42.85001" lon="0.27451">
        <ele>1344</ele>
        <time>2019-02-25T08:46:02Z</time>
      </trkpt>
      <trkpt lat="42.84999" lon="0.27449">
        <ele>1344</ele>
        <time>2019-02-25T08:46:52Z</time>
      </trkpt>
      <trkpt lat="42.84996" lon="0.27442">
        <ele>1345</ele>
        <time>2019-02-25T08:47:32Z</time>
      </trkpt>
      <trkpt lat="42.84997" lon="0.27445">
        <ele>1345</ele>
        <time>2019-02-25T08:47:38Z</time>
      </trkpt>
      <trkpt lat="42.84998" lon="0.27447">
        <ele>1345</ele>
        <time>2019-02-25T08:47:43Z</time>
      </trkpt>
      <trkpt lat="42.84999" lon="0.27449">
        <ele>1345</ele>
        <time>2019-02-25T08:47:56Z</time>
      </trkpt>
      <trkpt lat="42.84997" lon="0.27449">
        <ele>1345</ele>
        <time>2019-02-25T08:48:25Z</time>
      </trkpt>
      <trkpt lat="42.84998" lon="0.27448">
        <ele>1345</ele>
        <time>2019-02-25T08:48:39Z</time>
      </trkpt>
      <trkpt lat="42.85" lon="0.27449">
        <ele>1345</ele>
        <time>2019-02-25T08:48:51Z</time>
      </trkpt>
      <trkpt lat="42.85001" lon="0.27451">
        <ele>1345</ele>
        <time>2019-02-25T08:49:18Z</time>
      </trkpt>
      <trkpt lat="42.84999" lon="0.27451">
        <ele>1345</ele>
        <time>2019-02-25T08:49:29Z</time>
      </trkpt>
      <trkpt lat="42.85" lon="0.27453">
        <ele>1345</ele>
        <time>2019-02-25T08:50:10Z</time>
      </trkpt>
      <trkpt lat="42.85001" lon="0.27449">
        <ele>1345</ele>
        <time>2019-02-25T08:50:24Z</time>
      </trkpt>
      <trkpt lat="42.85003" lon="0.2745">
        <ele>1345</ele>
        <time>2019-02-25T08:50:27Z</time>
      </trkpt>
      <trkpt lat="42.85005" lon="0.27451">
        <ele>1344</ele>
        <time>2019-02-25T08:50:30Z</time>
      </trkpt>
      <trkpt lat="42.85004" lon="0.27453">
        <ele>1344</ele>
        <time>2019-02-25T08:50:41Z</time>
      </trkpt>
      <trkpt lat="42.85002" lon="0.2745">
        <ele>1345</ele>
        <time>2019-02-25T08:50:52Z</time>
      </trkpt>
      <trkpt lat="42.85002" lon="0.27447">
        <ele>1345</ele>
        <time>2019-02-25T08:50:55Z</time>
      </trkpt>
      <trkpt lat="42.85004" lon="0.27445">
        <ele>1345</ele>
        <time>2019-02-25T08:50:58Z</time>
      </trkpt>
      <trkpt lat="42.85006" lon="0.27444">
        <ele>1345</ele>
        <time>2019-02-25T08:51:00Z</time>
      </trkpt>
      <trkpt lat="42.85008" lon="0.27443">
        <ele>1345</ele>
        <time>2019-02-25T08:51:03Z</time>
      </trkpt>
      <trkpt lat="42.8501" lon="0.27442">
        <ele>1346</ele>
        <time>2019-02-25T08:51:05Z</time>
      </trkpt>
      <trkpt lat="42.8501" lon="0.27439">
        <ele>1346</ele>
        <time>2019-02-25T08:51:08Z</time>
      </trkpt>
      <trkpt lat="42.85011" lon="0.27437">
        <ele>1346</ele>
        <time>2019-02-25T08:51:11Z</time>
      </trkpt>
      <trkpt lat="42.85013" lon="0.27434">
        <ele>1346</ele>
        <time>2019-02-25T08:51:14Z</time>
      </trkpt>
      <trkpt lat="42.85015" lon="0.27433">
        <ele>1347</ele>
        <time>2019-02-25T08:51:16Z</time>
      </trkpt>
      <trkpt lat="42.85017" lon="0.27432">
        <ele>1347</ele>
        <time>2019-02-25T08:51:18Z</time>
      </trkpt>
      <trkpt lat="42.85019" lon="0.2743">
        <ele>1347</ele>
        <time>2019-02-25T08:51:21Z</time>
      </trkpt>
      <trkpt lat="42.8502" lon="0.27428">
        <ele>1347</ele>
        <time>2019-02-25T08:51:24Z</time>
      </trkpt>
      <trkpt lat="42.85022" lon="0.27426">
        <ele>1347</ele>
        <time>2019-02-25T08:51:27Z</time>
      </trkpt>
      <trkpt lat="42.85024" lon="0.27423">
        <ele>1348</ele>
        <time>2019-02-25T08:51:30Z</time>
      </trkpt>
      <trkpt lat="42.85026" lon="0.27422">
        <ele>1348</ele>
        <time>2019-02-25T08:51:33Z</time>
      </trkpt>
      <trkpt lat="42.85028" lon="0.2742">
        <ele>1348</ele>
        <time>2019-02-25T08:51:36Z</time>
      </trkpt>
      <trkpt lat="42.8503" lon="0.27419">
        <ele>1348</ele>
        <time>2019-02-25T08:51:38Z</time>
      </trkpt>
      <trkpt lat="42.85032" lon="0.27418">
        <ele>1348</ele>
        <time>2019-02-25T08:51:40Z</time>
      </trkpt>
      <trkpt lat="42.85033" lon="0.27416">
        <ele>1348</ele>
        <time>2019-02-25T08:51:42Z</time>
      </trkpt>
      <trkpt lat="42.85035" lon="0.27415">
        <ele>1348</ele>
        <time>2019-02-25T08:51:44Z</time>
      </trkpt>
      <trkpt lat="42.85037" lon="0.27414">
        <ele>1349</ele>
        <time>2019-02-25T08:51:46Z</time>
      </trkpt>
      <trkpt lat="42.85039" lon="0.27413">
        <ele>1349</ele>
        <time>2019-02-25T08:51:48Z</time>
      </trkpt>
      <trkpt lat="42.8504" lon="0.27411">
        <ele>1349</ele>
        <time>2019-02-25T08:51:50Z</time>
      </trkpt>
      <trkpt lat="42.85043" lon="0.27409">
        <ele>1349</ele>
        <time>2019-02-25T08:51:53Z</time>
      </trkpt>
      <trkpt lat="42.85044" lon="0.27408">
        <ele>1349</ele>
        <time>2019-02-25T08:51:56Z</time>
      </trkpt>
      <trkpt lat="42.85047" lon="0.27406">
        <ele>1350</ele>
        <time>2019-02-25T08:51:59Z</time>
      </trkpt>
      <trkpt lat="42.85049" lon="0.27405">
        <ele>1350</ele>
        <time>2019-02-25T08:52:01Z</time>
      </trkpt>
      <trkpt lat="42.85051" lon="0.27404">
        <ele>1350</ele>
        <time>2019-02-25T08:52:04Z</time>
      </trkpt>
      <trkpt lat="42.85053" lon="0.27403">
        <ele>1351</ele>
        <time>2019-02-25T08:52:06Z</time>
      </trkpt>
      <trkpt lat="42.85055" lon="0.27401">
        <ele>1351</ele>
        <time>2019-02-25T08:52:09Z</time>
      </trkpt>
      <trkpt lat="42.85057" lon="0.27399">
        <ele>1352</ele>
        <time>2019-02-25T08:52:13Z</time>
      </trkpt>
      <trkpt lat="42.85059" lon="0.27398">
        <ele>1352</ele>
        <time>2019-02-25T08:52:15Z</time>
      </trkpt>
      <trkpt lat="42.85062" lon="0.27398">
        <ele>1352</ele>
        <time>2019-02-25T08:52:17Z</time>
      </trkpt>
      <trkpt lat="42.85063" lon="0.27396">
        <ele>1352</ele>
        <time>2019-02-25T08:52:19Z</time>
      </trkpt>
      <trkpt lat="42.85065" lon="0.27395">
        <ele>1353</ele>
        <time>2019-02-25T08:52:22Z</time>
      </trkpt>
      <trkpt lat="42.85067" lon="0.27394">
        <ele>1353</ele>
        <time>2019-02-25T08:52:26Z</time>
      </trkpt>
      <trkpt lat="42.85069" lon="0.27392">
        <ele>1353</ele>
        <time>2019-02-25T08:52:29Z</time>
      </trkpt>
      <trkpt lat="42.85071" lon="0.27391">
        <ele>1354</ele>
        <time>2019-02-25T08:52:31Z</time>
      </trkpt>
      <trkpt lat="42.85073" lon="0.2739">
        <ele>1354</ele>
        <time>2019-02-25T08:52:33Z</time>
      </trkpt>
      <trkpt lat="42.85075" lon="0.27389">
        <ele>1354</ele>
        <time>2019-02-25T08:52:35Z</time>
      </trkpt>
      <trkpt lat="42.85077" lon="0.27388">
        <ele>1355</ele>
        <time>2019-02-25T08:52:37Z</time>
      </trkpt>
      <trkpt lat="42.8508" lon="0.27387">
        <ele>1355</ele>
        <time>2019-02-25T08:52:41Z</time>
      </trkpt>
      <trkpt lat="42.85082" lon="0.27387">
        <ele>1355</ele>
        <time>2019-02-25T08:52:44Z</time>
      </trkpt>
      <trkpt lat="42.85084" lon="0.27386">
        <ele>1355</ele>
        <time>2019-02-25T08:52:47Z</time>
      </trkpt>
      <trkpt lat="42.85086" lon="0.27385">
        <ele>1355</ele>
        <time>2019-02-25T08:52:49Z</time>
      </trkpt>
      <trkpt lat="42.85088" lon="0.27384">
        <ele>1356</ele>
        <time>2019-02-25T08:52:55Z</time>
      </trkpt>
      <trkpt lat="42.8509" lon="0.27383">
        <ele>1356</ele>
        <time>2019-02-25T08:52:58Z</time>
      </trkpt>
      <trkpt lat="42.85092" lon="0.27382">
        <ele>1357</ele>
        <time>2019-02-25T08:53:06Z</time>
      </trkpt>
      <trkpt lat="42.85093" lon="0.27381">
        <ele>1357</ele>
        <time>2019-02-25T08:53:08Z</time>
      </trkpt>
      <trkpt lat="42.85095" lon="0.2738">
        <ele>1357</ele>
        <time>2019-02-25T08:53:13Z</time>
      </trkpt>
      <trkpt lat="42.85097" lon="0.27379">
        <ele>1358</ele>
        <time>2019-02-25T08:53:19Z</time>
      </trkpt>
      <trkpt lat="42.85099" lon="0.27378">
        <ele>1358</ele>
        <time>2019-02-25T08:53:22Z</time>
      </trkpt>
      <trkpt lat="42.85101" lon="0.27376">
        <ele>1359</ele>
        <time>2019-02-25T08:53:27Z</time>
      </trkpt>
      <trkpt lat="42.85102" lon="0.27373">
        <ele>1359</ele>
        <time>2019-02-25T08:53:35Z</time>
      </trkpt>
      <trkpt lat="42.85104" lon="0.27371">
        <ele>1359</ele>
        <time>2019-02-25T08:53:38Z</time>
      </trkpt>
      <trkpt lat="42.85103" lon="0.27368">
        <ele>1359</ele>
        <time>2019-02-25T08:53:43Z</time>
      </trkpt>
      <trkpt lat="42.85102" lon="0.27366">
        <ele>1359</ele>
        <time>2019-02-25T08:53:47Z</time>
      </trkpt>
      <trkpt lat="42.85103" lon="0.27363">
        <ele>1359</ele>
        <time>2019-02-25T08:53:55Z</time>
      </trkpt>
      <trkpt lat="42.85102" lon="0.2736">
        <ele>1359</ele>
        <time>2019-02-25T08:54:09Z</time>
      </trkpt>
      <trkpt lat="42.85102" lon="0.27358">
        <ele>1359</ele>
        <time>2019-02-25T08:54:18Z</time>
      </trkpt>
      <trkpt lat="42.85102" lon="0.27355">
        <ele>1360</ele>
        <time>2019-02-25T08:54:27Z</time>
      </trkpt>
      <trkpt lat="42.85101" lon="0.27353">
        <ele>1360</ele>
        <time>2019-02-25T08:54:30Z</time>
      </trkpt>
      <trkpt lat="42.85101" lon="0.2735">
        <ele>1360</ele>
        <time>2019-02-25T08:54:33Z</time>
      </trkpt>
      <trkpt lat="42.85101" lon="0.27346">
        <ele>1361</ele>
        <time>2019-02-25T08:54:36Z</time>
      </trkpt>
      <trkpt lat="42.85101" lon="0.27344">
        <ele>1361</ele>
        <time>2019-02-25T08:54:38Z</time>
      </trkpt>
      <trkpt lat="42.85102" lon="0.27341">
        <ele>1362</ele>
        <time>2019-02-25T08:54:41Z</time>
      </trkpt>
      <trkpt lat="42.85103" lon="0.27338">
        <ele>1362</ele>
        <time>2019-02-25T08:54:44Z</time>
      </trkpt>
      <trkpt lat="42.85104" lon="0.27336">
        <ele>1363</ele>
        <time>2019-02-25T08:54:47Z</time>
      </trkpt>
      <trkpt lat="42.85105" lon="0.27333">
        <ele>1363</ele>
        <time>2019-02-25T08:54:50Z</time>
      </trkpt>
      <trkpt lat="42.85107" lon="0.27331">
        <ele>1363</ele>
        <time>2019-02-25T08:54:53Z</time>
      </trkpt>
      <trkpt lat="42.85108" lon="0.27329">
        <ele>1363</ele>
        <time>2019-02-25T08:54:56Z</time>
      </trkpt>
      <trkpt lat="42.8511" lon="0.27327">
        <ele>1365</ele>
        <time>2019-02-25T08:54:59Z</time>
      </trkpt>
      <trkpt lat="42.85112" lon="0.27325">
        <ele>1364</ele>
        <time>2019-02-25T08:55:02Z</time>
      </trkpt>
      <trkpt lat="42.85114" lon="0.27323">
        <ele>1364.4</ele>
        <time>2019-02-25T08:55:05Z</time>
      </trkpt>
      <trkpt lat="42.85115" lon="0.27321">
        <ele>1365</ele>
        <time>2019-02-25T08:55:08Z</time>
      </trkpt>
      <trkpt lat="42.85117" lon="0.27319">
        <ele>1365</ele>
        <time>2019-02-25T08:55:11Z</time>
      </trkpt>
      <trkpt lat="42.85119" lon="0.27317">
        <ele>1365</ele>
        <time>2019-02-25T08:55:14Z</time>
      </trkpt>
      <trkpt lat="42.85121" lon="0.27316">
        <ele>1366</ele>
        <time>2019-02-25T08:55:17Z</time>
      </trkpt>
      <trkpt lat="42.85123" lon="0.27314">
        <ele>1366</ele>
        <time>2019-02-25T08:55:20Z</time>
      </trkpt>
      <trkpt lat="42.85125" lon="0.27312">
        <ele>1367</ele>
        <time>2019-02-25T08:55:23Z</time>
      </trkpt>
      <trkpt lat="42.85126" lon="0.27311">
        <ele>1367</ele>
        <time>2019-02-25T08:55:25Z</time>
      </trkpt>
      <trkpt lat="42.85128" lon="0.27309">
        <ele>1367</ele>
        <time>2019-02-25T08:55:27Z</time>
      </trkpt>
      <trkpt lat="42.85131" lon="0.27308">
        <ele>1367</ele>
        <time>2019-02-25T08:55:29Z</time>
      </trkpt>
      <trkpt lat="42.85132" lon="0.27306">
        <ele>1367</ele>
        <time>2019-02-25T08:55:31Z</time>
      </trkpt>
      <trkpt lat="42.85134" lon="0.27304">
        <ele>1367</ele>
        <time>2019-02-25T08:55:34Z</time>
      </trkpt>
      <trkpt lat="42.85135" lon="0.27302">
        <ele>1368</ele>
        <time>2019-02-25T08:55:37Z</time>
      </trkpt>
      <trkpt lat="42.85136" lon="0.273">
        <ele>1368</ele>
        <time>2019-02-25T08:55:41Z</time>
      </trkpt>
      <trkpt lat="42.85138" lon="0.27299">
        <ele>1367</ele>
        <time>2019-02-25T08:55:54Z</time>
      </trkpt>
      <trkpt lat="42.85139" lon="0.27297">
        <ele>1368</ele>
        <time>2019-02-25T08:56:07Z</time>
      </trkpt>
      <trkpt lat="42.8514" lon="0.27294">
        <ele>1369</ele>
        <time>2019-02-25T08:56:17Z</time>
      </trkpt>
      <trkpt lat="42.85139" lon="0.27291">
        <ele>1371</ele>
        <time>2019-02-25T08:56:21Z</time>
      </trkpt>
      <trkpt lat="42.85139" lon="0.27288">
        <ele>1371</ele>
        <time>2019-02-25T08:56:24Z</time>
      </trkpt>
      <trkpt lat="42.85139" lon="0.27286">
        <ele>1370</ele>
        <time>2019-02-25T08:56:56Z</time>
      </trkpt>
      <trkpt lat="42.8514" lon="0.27282">
        <ele>1371</ele>
        <time>2019-02-25T08:57:00Z</time>
      </trkpt>
      <trkpt lat="42.85142" lon="0.2728">
        <ele>1371</ele>
        <time>2019-02-25T08:57:02Z</time>
      </trkpt>
      <trkpt lat="42.85143" lon="0.27277">
        <ele>1371</ele>
        <time>2019-02-25T08:57:05Z</time>
      </trkpt>
      <trkpt lat="42.85144" lon="0.27274">
        <ele>1371</ele>
        <time>2019-02-25T08:57:08Z</time>
      </trkpt>
      <trkpt lat="42.85144" lon="0.27272">
        <ele>1372</ele>
        <time>2019-02-25T08:57:10Z</time>
      </trkpt>
      <trkpt lat="42.85145" lon="0.2727">
        <ele>1372</ele>
        <time>2019-02-25T08:57:12Z</time>
      </trkpt>
      <trkpt lat="42.85147" lon="0.27268">
        <ele>1373</ele>
        <time>2019-02-25T08:57:14Z</time>
      </trkpt>
      <trkpt lat="42.8515" lon="0.27265">
        <ele>1373</ele>
        <time>2019-02-25T08:57:17Z</time>
      </trkpt>
      <trkpt lat="42.85151" lon="0.27263">
        <ele>1374</ele>
        <time>2019-02-25T08:57:20Z</time>
      </trkpt>
      <trkpt lat="42.85153" lon="0.27263">
        <ele>1374</ele>
        <time>2019-02-25T08:57:23Z</time>
      </trkpt>
      <trkpt lat="42.85155" lon="0.27262">
        <ele>1375</ele>
        <time>2019-02-25T08:57:26Z</time>
      </trkpt>
      <trkpt lat="42.85157" lon="0.27259">
        <ele>1375</ele>
        <time>2019-02-25T08:57:29Z</time>
      </trkpt>
      <trkpt lat="42.85158" lon="0.27257">
        <ele>1376</ele>
        <time>2019-02-25T08:57:32Z</time>
      </trkpt>
      <trkpt lat="42.8516" lon="0.27255">
        <ele>1376</ele>
        <time>2019-02-25T08:57:34Z</time>
      </trkpt>
      <trkpt lat="42.8516" lon="0.27251">
        <ele>1377</ele>
        <time>2019-02-25T08:57:37Z</time>
      </trkpt>
      <trkpt lat="42.85162" lon="0.2725">
        <ele>1377</ele>
        <time>2019-02-25T08:57:39Z</time>
      </trkpt>
      <trkpt lat="42.85165" lon="0.27248">
        <ele>1377</ele>
        <time>2019-02-25T08:57:41Z</time>
      </trkpt>
      <trkpt lat="42.85167" lon="0.27249">
        <ele>1377</ele>
        <time>2019-02-25T08:57:43Z</time>
      </trkpt>
      <trkpt lat="42.85169" lon="0.27247">
        <ele>1377</ele>
        <time>2019-02-25T08:57:46Z</time>
      </trkpt>
      <trkpt lat="42.8517" lon="0.27244">
        <ele>1377</ele>
        <time>2019-02-25T08:57:49Z</time>
      </trkpt>
      <trkpt lat="42.85172" lon="0.27241">
        <ele>1377</ele>
        <time>2019-02-25T08:57:52Z</time>
      </trkpt>
      <trkpt lat="42.85173" lon="0.27239">
        <ele>1377</ele>
        <time>2019-02-25T08:57:55Z</time>
      </trkpt>
      <trkpt lat="42.85174" lon="0.27236">
        <ele>1377</ele>
        <time>2019-02-25T08:57:58Z</time>
      </trkpt>
      <trkpt lat="42.85174" lon="0.27233">
        <ele>1377</ele>
        <time>2019-02-25T08:58:01Z</time>
      </trkpt>
      <trkpt lat="42.85176" lon="0.2723">
        <ele>1378</ele>
        <time>2019-02-25T08:58:04Z</time>
      </trkpt>
      <trkpt lat="42.85177" lon="0.27227">
        <ele>1378</ele>
        <time>2019-02-25T08:58:07Z</time>
      </trkpt>
      <trkpt lat="42.85177" lon="0.27224">
        <ele>1379</ele>
        <time>2019-02-25T08:58:10Z</time>
      </trkpt>
      <trkpt lat="42.85179" lon="0.27221">
        <ele>1379</ele>
        <time>2019-02-25T08:58:14Z</time>
      </trkpt>
      <trkpt lat="42.85179" lon="0.27217">
        <ele>1380</ele>
        <time>2019-02-25T08:58:18Z</time>
      </trkpt>
      <trkpt lat="42.8518" lon="0.27214">
        <ele>1380</ele>
        <time>2019-02-25T08:58:21Z</time>
      </trkpt>
      <trkpt lat="42.85181" lon="0.27212">
        <ele>1380</ele>
        <time>2019-02-25T08:58:24Z</time>
      </trkpt>
      <trkpt lat="42.85181" lon="0.27209">
        <ele>1381</ele>
        <time>2019-02-25T08:58:27Z</time>
      </trkpt>
      <trkpt lat="42.85182" lon="0.27206">
        <ele>1381</ele>
        <time>2019-02-25T08:58:30Z</time>
      </trkpt>
      <trkpt lat="42.85183" lon="0.27202">
        <ele>1382</ele>
        <time>2019-02-25T08:58:33Z</time>
      </trkpt>
      <trkpt lat="42.85185" lon="0.272">
        <ele>1382</ele>
        <time>2019-02-25T08:58:36Z</time>
      </trkpt>
      <trkpt lat="42.85187" lon="0.27198">
        <ele>1382</ele>
        <time>2019-02-25T08:58:39Z</time>
      </trkpt>
      <trkpt lat="42.85188" lon="0.27195">
        <ele>1383</ele>
        <time>2019-02-25T08:58:43Z</time>
      </trkpt>
      <trkpt lat="42.85189" lon="0.27193">
        <ele>1383</ele>
        <time>2019-02-25T08:58:46Z</time>
      </trkpt>
      <trkpt lat="42.85191" lon="0.27191">
        <ele>1383</ele>
        <time>2019-02-25T08:58:49Z</time>
      </trkpt>
      <trkpt lat="42.85193" lon="0.27188">
        <ele>1383</ele>
        <time>2019-02-25T08:58:51Z</time>
      </trkpt>
      <trkpt lat="42.85195" lon="0.27181">
        <ele>1384</ele>
        <time>2019-02-25T08:59:00Z</time>
      </trkpt>
      <trkpt lat="42.85197" lon="0.27179">
        <ele>1385</ele>
        <time>2019-02-25T08:59:04Z</time>
      </trkpt>
      <trkpt lat="42.85199" lon="0.27177">
        <ele>1385</ele>
        <time>2019-02-25T08:59:06Z</time>
      </trkpt>
      <trkpt lat="42.85202" lon="0.27168">
        <ele>1386</ele>
        <time>2019-02-25T08:59:16Z</time>
      </trkpt>
      <trkpt lat="42.85203" lon="0.27166">
        <ele>1386</ele>
        <time>2019-02-25T08:59:19Z</time>
      </trkpt>
      <trkpt lat="42.85206" lon="0.2716">
        <ele>1387</ele>
        <time>2019-02-25T08:59:26Z</time>
      </trkpt>
      <trkpt lat="42.85206" lon="0.27157">
        <ele>1387</ele>
        <time>2019-02-25T08:59:29Z</time>
      </trkpt>
      <trkpt lat="42.85208" lon="0.27156">
        <ele>1388</ele>
        <time>2019-02-25T08:59:32Z</time>
      </trkpt>
      <trkpt lat="42.8521" lon="0.27154">
        <ele>1388</ele>
        <time>2019-02-25T08:59:35Z</time>
      </trkpt>
      <trkpt lat="42.85212" lon="0.27152">
        <ele>1388</ele>
        <time>2019-02-25T08:59:38Z</time>
      </trkpt>
      <trkpt lat="42.85213" lon="0.2715">
        <ele>1388</ele>
        <time>2019-02-25T08:59:41Z</time>
      </trkpt>
      <trkpt lat="42.85215" lon="0.27148">
        <ele>1389</ele>
        <time>2019-02-25T08:59:44Z</time>
      </trkpt>
      <trkpt lat="42.85217" lon="0.27146">
        <ele>1389</ele>
        <time>2019-02-25T08:59:47Z</time>
      </trkpt>
      <trkpt lat="42.8522" lon="0.27142">
        <ele>1390</ele>
        <time>2019-02-25T08:59:52Z</time>
      </trkpt>
      <trkpt lat="42.85222" lon="0.2714">
        <ele>1390</ele>
        <time>2019-02-25T08:59:55Z</time>
      </trkpt>
      <trkpt lat="42.85225" lon="0.27138">
        <ele>1391</ele>
        <time>2019-02-25T08:59:58Z</time>
      </trkpt>
      <trkpt lat="42.85227" lon="0.27137">
        <ele>1391</ele>
        <time>2019-02-25T09:00:01Z</time>
      </trkpt>
      <trkpt lat="42.85228" lon="0.27135">
        <ele>1391</ele>
        <time>2019-02-25T09:00:04Z</time>
      </trkpt>
      <trkpt lat="42.8523" lon="0.27133">
        <ele>1392</ele>
        <time>2019-02-25T09:00:08Z</time>
      </trkpt>
      <trkpt lat="42.85232" lon="0.27132">
        <ele>1393</ele>
        <time>2019-02-25T09:00:13Z</time>
      </trkpt>
      <trkpt lat="42.85234" lon="0.27132">
        <ele>1392</ele>
        <time>2019-02-25T09:00:16Z</time>
      </trkpt>
      <trkpt lat="42.85237" lon="0.27131">
        <ele>1393</ele>
        <time>2019-02-25T09:00:19Z</time>
      </trkpt>
      <trkpt lat="42.85238" lon="0.2713">
        <ele>1394</ele>
        <time>2019-02-25T09:00:25Z</time>
      </trkpt>
      <trkpt lat="42.85241" lon="0.27129">
        <ele>1394</ele>
        <time>2019-02-25T09:00:28Z</time>
      </trkpt>
      <trkpt lat="42.85244" lon="0.27128">
        <ele>1394</ele>
        <time>2019-02-25T09:00:32Z</time>
      </trkpt>
      <trkpt lat="42.85249" lon="0.27128">
        <ele>1395</ele>
        <time>2019-02-25T09:00:39Z</time>
      </trkpt>
      <trkpt lat="42.85252" lon="0.27128">
        <ele>1396</ele>
        <time>2019-02-25T09:00:42Z</time>
      </trkpt>
      <trkpt lat="42.85254" lon="0.27129">
        <ele>1396</ele>
        <time>2019-02-25T09:00:45Z</time>
      </trkpt>
      <trkpt lat="42.85256" lon="0.27129">
        <ele>1396</ele>
        <time>2019-02-25T09:00:48Z</time>
      </trkpt>
      <trkpt lat="42.85258" lon="0.27129">
        <ele>1397</ele>
        <time>2019-02-25T09:00:50Z</time>
      </trkpt>
      <trkpt lat="42.85261" lon="0.2713">
        <ele>1398</ele>
        <time>2019-02-25T09:00:53Z</time>
      </trkpt>
      <trkpt lat="42.85263" lon="0.27131">
        <ele>1398</ele>
        <time>2019-02-25T09:00:56Z</time>
      </trkpt>
      <trkpt lat="42.85265" lon="0.27133">
        <ele>1398</ele>
        <time>2019-02-25T09:00:59Z</time>
      </trkpt>
      <trkpt lat="42.85266" lon="0.27135">
        <ele>1399</ele>
        <time>2019-02-25T09:01:02Z</time>
      </trkpt>
      <trkpt lat="42.85268" lon="0.27137">
        <ele>1399</ele>
        <time>2019-02-25T09:01:05Z</time>
      </trkpt>
      <trkpt lat="42.85269" lon="0.27139">
        <ele>1400</ele>
        <time>2019-02-25T09:01:08Z</time>
      </trkpt>
      <trkpt lat="42.85271" lon="0.27141">
        <ele>1401</ele>
        <time>2019-02-25T09:01:11Z</time>
      </trkpt>
      <trkpt lat="42.85272" lon="0.27142">
        <ele>1401</ele>
        <time>2019-02-25T09:01:14Z</time>
      </trkpt>
      <trkpt lat="42.85275" lon="0.27145">
        <ele>1402</ele>
        <time>2019-02-25T09:01:19Z</time>
      </trkpt>
      <trkpt lat="42.85279" lon="0.27141">
        <ele>1403</ele>
        <time>2019-02-25T09:01:26Z</time>
      </trkpt>
      <trkpt lat="42.85281" lon="0.2714">
        <ele>1403</ele>
        <time>2019-02-25T09:01:29Z</time>
      </trkpt>
      <trkpt lat="42.85283" lon="0.27138">
        <ele>1404</ele>
        <time>2019-02-25T09:01:32Z</time>
      </trkpt>
      <trkpt lat="42.8529" lon="0.2713">
        <ele>1405</ele>
        <time>2019-02-25T09:01:42Z</time>
      </trkpt>
      <trkpt lat="42.85297" lon="0.27122">
        <ele>1408</ele>
        <time>2019-02-25T09:02:02Z</time>
      </trkpt>
      <trkpt lat="42.85304" lon="0.27114">
        <ele>1410</ele>
        <time>2019-02-25T09:02:14Z</time>
      </trkpt>
      <trkpt lat="42.85311" lon="0.27107">
        <ele>1412</ele>
        <time>2019-02-25T09:02:24Z</time>
      </trkpt>
      <trkpt lat="42.85318" lon="0.27098">
        <ele>1412</ele>
        <time>2019-02-25T09:02:33Z</time>
      </trkpt>
      <trkpt lat="42.85322" lon="0.27087">
        <ele>1414</ele>
        <time>2019-02-25T09:02:44Z</time>
      </trkpt>
      <trkpt lat="42.85325" lon="0.27074">
        <ele>1416</ele>
        <time>2019-02-25T09:02:57Z</time>
      </trkpt>
      <trkpt lat="42.85333" lon="0.27068">
        <ele>1417</ele>
        <time>2019-02-25T09:03:06Z</time>
      </trkpt>
      <trkpt lat="42.85342" lon="0.27064">
        <ele>1418</ele>
        <time>2019-02-25T09:03:15Z</time>
      </trkpt>
      <trkpt lat="42.8535" lon="0.27059">
        <ele>1420</ele>
        <time>2019-02-25T09:03:32Z</time>
      </trkpt>
      <trkpt lat="42.85359" lon="0.27056">
        <ele>1422</ele>
        <time>2019-02-25T09:03:44Z</time>
      </trkpt>
      <trkpt lat="42.85365" lon="0.27046">
        <ele>1424</ele>
        <time>2019-02-25T09:03:54Z</time>
      </trkpt>
      <trkpt lat="42.85375" lon="0.27041">
        <ele>1424</ele>
        <time>2019-02-25T09:04:06Z</time>
      </trkpt>
      <trkpt lat="42.85384" lon="0.27038">
        <ele>1426</ele>
        <time>2019-02-25T09:04:17Z</time>
      </trkpt>
      <trkpt lat="42.85392" lon="0.2703">
        <ele>1428</ele>
        <time>2019-02-25T09:04:30Z</time>
      </trkpt>
      <trkpt lat="42.854" lon="0.27024">
        <ele>1430</ele>
        <time>2019-02-25T09:04:42Z</time>
      </trkpt>
      <trkpt lat="42.85407" lon="0.27015">
        <ele>1433</ele>
        <time>2019-02-25T09:04:57Z</time>
      </trkpt>
      <trkpt lat="42.85413" lon="0.27006">
        <ele>1435</ele>
        <time>2019-02-25T09:05:09Z</time>
      </trkpt>
      <trkpt lat="42.85416" lon="0.26993">
        <ele>1438</ele>
        <time>2019-02-25T09:05:25Z</time>
      </trkpt>
      <trkpt lat="42.85423" lon="0.26985">
        <ele>1440</ele>
        <time>2019-02-25T09:05:39Z</time>
      </trkpt>
      <trkpt lat="42.85429" lon="0.26975">
        <ele>1442</ele>
        <time>2019-02-25T09:05:50Z</time>
      </trkpt>
      <trkpt lat="42.85434" lon="0.26964">
        <ele>1444</ele>
        <time>2019-02-25T09:06:06Z</time>
      </trkpt>
      <trkpt lat="42.85444" lon="0.26965">
        <ele>1447</ele>
        <time>2019-02-25T09:06:17Z</time>
      </trkpt>
      <trkpt lat="42.85453" lon="0.26971">
        <ele>1449</ele>
        <time>2019-02-25T09:06:35Z</time>
      </trkpt>
      <trkpt lat="42.8546" lon="0.26978">
        <ele>1451</ele>
        <time>2019-02-25T09:06:46Z</time>
      </trkpt>
      <trkpt lat="42.8547" lon="0.26975">
        <ele>1453</ele>
        <time>2019-02-25T09:07:00Z</time>
      </trkpt>
      <trkpt lat="42.8547" lon="0.26974">
        <ele>1453</ele>
        <time>2019-02-25T09:07:01Z</time>
      </trkpt>
      <trkpt lat="42.8547" lon="0.26974">
        <ele>1454</ele>
        <time>2019-02-25T09:07:02Z</time>
      </trkpt>
      <trkpt lat="42.85471" lon="0.26973">
        <ele>1454</ele>
        <time>2019-02-25T09:07:03Z</time>
      </trkpt>
      <trkpt lat="42.85471" lon="0.26973">
        <ele>1454</ele>
        <time>2019-02-25T09:07:04Z</time>
      </trkpt>
      <trkpt lat="42.85471" lon="0.26973">
        <ele>1454</ele>
        <time>2019-02-25T09:07:05Z</time>
      </trkpt>
      <trkpt lat="42.85472" lon="0.26972">
        <ele>1455</ele>
        <time>2019-02-25T09:07:06Z</time>
      </trkpt>
      <trkpt lat="42.85472" lon="0.26972">
        <ele>1455</ele>
        <time>2019-02-25T09:07:07Z</time>
      </trkpt>
      <trkpt lat="42.85472" lon="0.26972">
        <ele>1455</ele>
        <time>2019-02-25T09:07:08Z</time>
      </trkpt>
      <trkpt lat="42.85473" lon="0.26971">
        <ele>1455</ele>
        <time>2019-02-25T09:07:09Z</time>
      </trkpt>
      <trkpt lat="42.85473" lon="0.26971">
        <ele>1456</ele>
        <time>2019-02-25T09:07:10Z</time>
      </trkpt>
      <trkpt lat="42.85473" lon="0.26971">
        <ele>1456</ele>
        <time>2019-02-25T09:07:11Z</time>
      </trkpt>
      <trkpt lat="42.85473" lon="0.2697">
        <ele>1456</ele>
        <time>2019-02-25T09:07:12Z</time>
      </trkpt>
      <trkpt lat="42.85477" lon="0.26966">
        <ele>1456</ele>
        <time>2019-02-25T09:07:13Z</time>
      </trkpt>
      <trkpt lat="42.85483" lon="0.26956">
        <ele>1458</ele>
        <time>2019-02-25T09:07:26Z</time>
      </trkpt>
      <trkpt lat="42.85491" lon="0.26949">
        <ele>1461</ele>
        <time>2019-02-25T09:07:37Z</time>
      </trkpt>
      <trkpt lat="42.85498" lon="0.26942">
        <ele>1463</ele>
        <time>2019-02-25T09:07:51Z</time>
      </trkpt>
      <trkpt lat="42.85506" lon="0.26933">
        <ele>1465</ele>
        <time>2019-02-25T09:08:06Z</time>
      </trkpt>
      <trkpt lat="42.85515" lon="0.26934">
        <ele>1467</ele>
        <time>2019-02-25T09:08:15Z</time>
      </trkpt>
      <trkpt lat="42.85524" lon="0.26936">
        <ele>1469</ele>
        <time>2019-02-25T09:08:28Z</time>
      </trkpt>
      <trkpt lat="42.85534" lon="0.26937">
        <ele>1471</ele>
        <time>2019-02-25T09:08:40Z</time>
      </trkpt>
      <trkpt lat="42.85543" lon="0.26936">
        <ele>1473</ele>
        <time>2019-02-25T09:08:51Z</time>
      </trkpt>
      <trkpt lat="42.85547" lon="0.26924">
        <ele>1476</ele>
        <time>2019-02-25T09:09:05Z</time>
      </trkpt>
      <trkpt lat="42.85551" lon="0.26913">
        <ele>1478</ele>
        <time>2019-02-25T09:09:16Z</time>
      </trkpt>
      <trkpt lat="42.85556" lon="0.26902">
        <ele>1480</ele>
        <time>2019-02-25T09:09:29Z</time>
      </trkpt>
      <trkpt lat="42.85561" lon="0.26891">
        <ele>1482</ele>
        <time>2019-02-25T09:09:42Z</time>
      </trkpt>
      <trkpt lat="42.85565" lon="0.2688">
        <ele>1484</ele>
        <time>2019-02-25T09:09:55Z</time>
      </trkpt>
      <trkpt lat="42.85569" lon="0.26868">
        <ele>1486</ele>
        <time>2019-02-25T09:10:07Z</time>
      </trkpt>
      <trkpt lat="42.85571" lon="0.26856">
        <ele>1490</ele>
        <time>2019-02-25T09:10:22Z</time>
      </trkpt>
      <trkpt lat="42.85573" lon="0.26843">
        <ele>1491</ele>
        <time>2019-02-25T09:10:35Z</time>
      </trkpt>
      <trkpt lat="42.85575" lon="0.26831">
        <ele>1493</ele>
        <time>2019-02-25T09:10:47Z</time>
      </trkpt>
      <trkpt lat="42.85574" lon="0.26818">
        <ele>1495</ele>
        <time>2019-02-25T09:10:57Z</time>
      </trkpt>
      <trkpt lat="42.85571" lon="0.26806">
        <ele>1496</ele>
        <time>2019-02-25T09:11:49Z</time>
      </trkpt>
      <trkpt lat="42.85579" lon="0.26813">
        <ele>1497</ele>
        <time>2019-02-25T09:12:10Z</time>
      </trkpt>
      <trkpt lat="42.85588" lon="0.26811">
        <ele>1499</ele>
        <time>2019-02-25T09:12:24Z</time>
      </trkpt>
      <trkpt lat="42.85597" lon="0.26814">
        <ele>1502</ele>
        <time>2019-02-25T09:12:37Z</time>
      </trkpt>
      <trkpt lat="42.856" lon="0.26802">
        <ele>1504</ele>
        <time>2019-02-25T09:13:02Z</time>
      </trkpt>
      <trkpt lat="42.85601" lon="0.26789">
        <ele>1506</ele>
        <time>2019-02-25T09:13:16Z</time>
      </trkpt>
      <trkpt lat="42.85601" lon="0.26785">
        <ele>1507</ele>
        <time>2019-02-25T09:13:19Z</time>
      </trkpt>
      <trkpt lat="42.85601" lon="0.26781">
        <ele>1507</ele>
        <time>2019-02-25T09:13:21Z</time>
      </trkpt>
      <trkpt lat="42.85605" lon="0.26769">
        <ele>1508</ele>
        <time>2019-02-25T09:13:34Z</time>
      </trkpt>
      <trkpt lat="42.85609" lon="0.26758">
        <ele>1511</ele>
        <time>2019-02-25T09:13:48Z</time>
      </trkpt>
      <trkpt lat="42.85613" lon="0.26745">
        <ele>1512</ele>
        <time>2019-02-25T09:14:01Z</time>
      </trkpt>
      <trkpt lat="42.85616" lon="0.26733">
        <ele>1515</ele>
        <time>2019-02-25T09:14:16Z</time>
      </trkpt>
      <trkpt lat="42.85621" lon="0.26722">
        <ele>1518</ele>
        <time>2019-02-25T09:14:32Z</time>
      </trkpt>
      <trkpt lat="42.85628" lon="0.26715">
        <ele>1520</ele>
        <time>2019-02-25T09:14:46Z</time>
      </trkpt>
      <trkpt lat="42.85636" lon="0.26707">
        <ele>1523</ele>
        <time>2019-02-25T09:15:02Z</time>
      </trkpt>
      <trkpt lat="42.85642" lon="0.26698">
        <ele>1525</ele>
        <time>2019-02-25T09:15:17Z</time>
      </trkpt>
      <trkpt lat="42.85649" lon="0.2669">
        <ele>1528</ele>
        <time>2019-02-25T09:15:31Z</time>
      </trkpt>
      <trkpt lat="42.85657" lon="0.26682">
        <ele>1530</ele>
        <time>2019-02-25T09:15:48Z</time>
      </trkpt>
      <trkpt lat="42.85659" lon="0.26679">
        <ele>1531</ele>
        <time>2019-02-25T09:15:52Z</time>
      </trkpt>
      <trkpt lat="42.85665" lon="0.26674">
        <ele>1533</ele>
        <time>2019-02-25T09:16:02Z</time>
      </trkpt>
      <trkpt lat="42.85665" lon="0.26674">
        <ele>1533</ele>
        <time>2019-02-25T09:16:03Z</time>
      </trkpt>
      <trkpt lat="42.85665" lon="0.26673">
        <ele>1533</ele>
        <time>2019-02-25T09:16:04Z</time>
      </trkpt>
      <trkpt lat="42.85665" lon="0.26673">
        <ele>1533</ele>
        <time>2019-02-25T09:16:05Z</time>
      </trkpt>
      <trkpt lat="42.85665" lon="0.26673">
        <ele>1533</ele>
        <time>2019-02-25T09:16:06Z</time>
      </trkpt>
      <trkpt lat="42.85665" lon="0.26673">
        <ele>1533</ele>
        <time>2019-02-25T09:16:07Z</time>
      </trkpt>
      <trkpt lat="42.85665" lon="0.26673">
        <ele>1533</ele>
        <time>2019-02-25T09:16:09Z</time>
      </trkpt>
      <trkpt lat="42.85665" lon="0.26672">
        <ele>1533</ele>
        <time>2019-02-25T09:16:10Z</time>
      </trkpt>
      <trkpt lat="42.85664" lon="0.26672">
        <ele>1533</ele>
        <time>2019-02-25T09:16:11Z</time>
      </trkpt>
      <trkpt lat="42.85664" lon="0.26672">
        <ele>1533</ele>
        <time>2019-02-25T09:16:12Z</time>
      </trkpt>
      <trkpt lat="42.85664" lon="0.26672">
        <ele>1533</ele>
        <time>2019-02-25T09:16:13Z</time>
      </trkpt>
      <trkpt lat="42.85664" lon="0.26672">
        <ele>1533</ele>
        <time>2019-02-25T09:16:14Z</time>
      </trkpt>
      <trkpt lat="42.85664" lon="0.26672">
        <ele>1533</ele>
        <time>2019-02-25T09:16:15Z</time>
      </trkpt>
      <trkpt lat="42.85664" lon="0.26671">
        <ele>1533</ele>
        <time>2019-02-25T09:16:16Z</time>
      </trkpt>
      <trkpt lat="42.85664" lon="0.26671">
        <ele>1533</ele>
        <time>2019-02-25T09:16:17Z</time>
      </trkpt>
      <trkpt lat="42.85664" lon="0.26671">
        <ele>1533</ele>
        <time>2019-02-25T09:16:18Z</time>
      </trkpt>
      <trkpt lat="42.85664" lon="0.26671">
        <ele>1533</ele>
        <time>2019-02-25T09:16:19Z</time>
      </trkpt>
      <trkpt lat="42.85664" lon="0.26671">
        <ele>1533</ele>
        <time>2019-02-25T09:16:21Z</time>
      </trkpt>
      <trkpt lat="42.85663" lon="0.26671">
        <ele>1533</ele>
        <time>2019-02-25T09:16:22Z</time>
      </trkpt>
      <trkpt lat="42.85663" lon="0.2667">
        <ele>1533</ele>
        <time>2019-02-25T09:16:23Z</time>
      </trkpt>
      <trkpt lat="42.85663" lon="0.2667">
        <ele>1533</ele>
        <time>2019-02-25T09:16:24Z</time>
      </trkpt>
      <trkpt lat="42.85663" lon="0.2667">
        <ele>1533</ele>
        <time>2019-02-25T09:16:25Z</time>
      </trkpt>
      <trkpt lat="42.85663" lon="0.2667">
        <ele>1533</ele>
        <time>2019-02-25T09:16:26Z</time>
      </trkpt>
      <trkpt lat="42.85663" lon="0.2667">
        <ele>1533</ele>
        <time>2019-02-25T09:16:27Z</time>
      </trkpt>
      <trkpt lat="42.85663" lon="0.2667">
        <ele>1533</ele>
        <time>2019-02-25T09:16:28Z</time>
      </trkpt>
      <trkpt lat="42.85663" lon="0.26669">
        <ele>1533</ele>
        <time>2019-02-25T09:16:29Z</time>
      </trkpt>
      <trkpt lat="42.85663" lon="0.26669">
        <ele>1533</ele>
        <time>2019-02-25T09:16:30Z</time>
      </trkpt>
      <trkpt lat="42.85663" lon="0.26669">
        <ele>1533</ele>
        <time>2019-02-25T09:16:31Z</time>
      </trkpt>
      <trkpt lat="42.85662" lon="0.26669">
        <ele>1533</ele>
        <time>2019-02-25T09:16:32Z</time>
      </trkpt>
      <trkpt lat="42.85662" lon="0.26669">
        <ele>1533</ele>
        <time>2019-02-25T09:16:34Z</time>
      </trkpt>
      <trkpt lat="42.85662" lon="0.26668">
        <ele>1533</ele>
        <time>2019-02-25T09:16:35Z</time>
      </trkpt>
      <trkpt lat="42.85662" lon="0.26668">
        <ele>1533</ele>
        <time>2019-02-25T09:16:36Z</time>
      </trkpt>
      <trkpt lat="42.85662" lon="0.26668">
        <ele>1533</ele>
        <time>2019-02-25T09:16:37Z</time>
      </trkpt>
      <trkpt lat="42.85662" lon="0.26668">
        <ele>1533</ele>
        <time>2019-02-25T09:16:38Z</time>
      </trkpt>
      <trkpt lat="42.85662" lon="0.26668">
        <ele>1533</ele>
        <time>2019-02-25T09:16:39Z</time>
      </trkpt>
      <trkpt lat="42.85658" lon="0.26662">
        <ele>1533</ele>
        <time>2019-02-25T09:16:40Z</time>
      </trkpt>
      <trkpt lat="42.85666" lon="0.26669">
        <ele>1533</ele>
        <time>2019-02-25T09:19:01Z</time>
      </trkpt>
      <trkpt lat="42.85667" lon="0.26669">
        <ele>1533</ele>
        <time>2019-02-25T09:19:03Z</time>
      </trkpt>
      <trkpt lat="42.85667" lon="0.26669">
        <ele>1533</ele>
        <time>2019-02-25T09:19:07Z</time>
      </trkpt>
      <trkpt lat="42.85667" lon="0.26669">
        <ele>1533</ele>
        <time>2019-02-25T09:19:12Z</time>
      </trkpt>
      <trkpt lat="42.85667" lon="0.26669">
        <ele>1533</ele>
        <time>2019-02-25T09:19:17Z</time>
      </trkpt>
      <trkpt lat="42.85667" lon="0.26669">
        <ele>1533</ele>
        <time>2019-02-25T09:19:21Z</time>
      </trkpt>
      <trkpt lat="42.85667" lon="0.26669">
        <ele>1533</ele>
        <time>2019-02-25T09:19:26Z</time>
      </trkpt>
      <trkpt lat="42.85668" lon="0.26668">
        <ele>1533</ele>
        <time>2019-02-25T09:19:30Z</time>
      </trkpt>
      <trkpt lat="42.85668" lon="0.26668">
        <ele>1533</ele>
        <time>2019-02-25T09:19:35Z</time>
      </trkpt>
      <trkpt lat="42.85668" lon="0.26668">
        <ele>1533</ele>
        <time>2019-02-25T09:19:40Z</time>
      </trkpt>
      <trkpt lat="42.85668" lon="0.26668">
        <ele>1533</ele>
        <time>2019-02-25T09:19:44Z</time>
      </trkpt>
      <trkpt lat="42.85668" lon="0.26668">
        <ele>1533</ele>
        <time>2019-02-25T09:19:49Z</time>
      </trkpt>
      <trkpt lat="42.85669" lon="0.26668">
        <ele>1534</ele>
        <time>2019-02-25T09:19:53Z</time>
      </trkpt>
      <trkpt lat="42.85669" lon="0.26668">
        <ele>1533</ele>
        <time>2019-02-25T09:19:58Z</time>
      </trkpt>
      <trkpt lat="42.85669" lon="0.26668">
        <ele>1533</ele>
        <time>2019-02-25T09:20:03Z</time>
      </trkpt>
      <trkpt lat="42.85669" lon="0.26668">
        <ele>1533</ele>
        <time>2019-02-25T09:20:07Z</time>
      </trkpt>
      <trkpt lat="42.85669" lon="0.26668">
        <ele>1533</ele>
        <time>2019-02-25T09:20:12Z</time>
      </trkpt>
      <trkpt lat="42.8567" lon="0.26667">
        <ele>1533</ele>
        <time>2019-02-25T09:20:16Z</time>
      </trkpt>
      <trkpt lat="42.8567" lon="0.26667">
        <ele>1533</ele>
        <time>2019-02-25T09:20:21Z</time>
      </trkpt>
      <trkpt lat="42.8567" lon="0.26667">
        <ele>1533</ele>
        <time>2019-02-25T09:20:25Z</time>
      </trkpt>
      <trkpt lat="42.8567" lon="0.26667">
        <ele>1534</ele>
        <time>2019-02-25T09:20:30Z</time>
      </trkpt>
      <trkpt lat="42.8567" lon="0.26667">
        <ele>1534</ele>
        <time>2019-02-25T09:20:35Z</time>
      </trkpt>
      <trkpt lat="42.8567" lon="0.26667">
        <ele>1534</ele>
        <time>2019-02-25T09:20:39Z</time>
      </trkpt>
      <trkpt lat="42.85671" lon="0.26667">
        <ele>1534</ele>
        <time>2019-02-25T09:20:44Z</time>
      </trkpt>
      <trkpt lat="42.85671" lon="0.26667">
        <ele>1534</ele>
        <time>2019-02-25T09:20:48Z</time>
      </trkpt>
      <trkpt lat="42.85671" lon="0.26667">
        <ele>1534</ele>
        <time>2019-02-25T09:20:53Z</time>
      </trkpt>
      <trkpt lat="42.85671" lon="0.26667">
        <ele>1534</ele>
        <time>2019-02-25T09:20:58Z</time>
      </trkpt>
      <trkpt lat="42.85671" lon="0.26666">
        <ele>1534</ele>
        <time>2019-02-25T09:21:02Z</time>
      </trkpt>
      <trkpt lat="42.85676" lon="0.26664">
        <ele>1534</ele>
        <time>2019-02-25T09:21:05Z</time>
      </trkpt>
      <trkpt lat="42.85672" lon="0.26674">
        <ele>1534</ele>
        <time>2019-02-25T09:22:40Z</time>
      </trkpt>
      <trkpt lat="42.85672" lon="0.26674">
        <ele>1534</ele>
        <time>2019-02-25T09:22:42Z</time>
      </trkpt>
      <trkpt lat="42.85672" lon="0.26674">
        <ele>1534</ele>
        <time>2019-02-25T09:22:43Z</time>
      </trkpt>
      <trkpt lat="42.85672" lon="0.26674">
        <ele>1534</ele>
        <time>2019-02-25T09:22:46Z</time>
      </trkpt>
      <trkpt lat="42.85672" lon="0.26674">
        <ele>1534</ele>
        <time>2019-02-25T09:22:49Z</time>
      </trkpt>
      <trkpt lat="42.85672" lon="0.26674">
        <ele>1533</ele>
        <time>2019-02-25T09:22:51Z</time>
      </trkpt>
      <trkpt lat="42.85672" lon="0.26674">
        <ele>1533</ele>
        <time>2019-02-25T09:22:54Z</time>
      </trkpt>
      <trkpt lat="42.85672" lon="0.26673">
        <ele>1533</ele>
        <time>2019-02-25T09:22:56Z</time>
      </trkpt>
      <trkpt lat="42.85671" lon="0.26673">
        <ele>1534</ele>
        <time>2019-02-25T09:22:59Z</time>
      </trkpt>
      <trkpt lat="42.85671" lon="0.26673">
        <ele>1534</ele>
        <time>2019-02-25T09:23:01Z</time>
      </trkpt>
      <trkpt lat="42.85671" lon="0.26673">
        <ele>1534</ele>
        <time>2019-02-25T09:23:04Z</time>
      </trkpt>
      <trkpt lat="42.85671" lon="0.26673">
        <ele>1534</ele>
        <time>2019-02-25T09:23:07Z</time>
      </trkpt>
      <trkpt lat="42.85671" lon="0.26673">
        <ele>1534</ele>
        <time>2019-02-25T09:23:09Z</time>
      </trkpt>
      <trkpt lat="42.85671" lon="0.26672">
        <ele>1533</ele>
        <time>2019-02-25T09:23:12Z</time>
      </trkpt>
      <trkpt lat="42.85671" lon="0.26672">
        <ele>1533</ele>
        <time>2019-02-25T09:23:14Z</time>
      </trkpt>
      <trkpt lat="42.85671" lon="0.26672">
        <ele>1533</ele>
        <time>2019-02-25T09:23:17Z</time>
      </trkpt>
      <trkpt lat="42.85671" lon="0.26672">
        <ele>1533</ele>
        <time>2019-02-25T09:23:20Z</time>
      </trkpt>
      <trkpt lat="42.85671" lon="0.26672">
        <ele>1533</ele>
        <time>2019-02-25T09:23:22Z</time>
      </trkpt>
      <trkpt lat="42.8567" lon="0.26671">
        <ele>1533</ele>
        <time>2019-02-25T09:23:25Z</time>
      </trkpt>
      <trkpt lat="42.8567" lon="0.26671">
        <ele>1533</ele>
        <time>2019-02-25T09:23:27Z</time>
      </trkpt>
      <trkpt lat="42.8567" lon="0.26671">
        <ele>1533</ele>
        <time>2019-02-25T09:23:30Z</time>
      </trkpt>
      <trkpt lat="42.8567" lon="0.26671">
        <ele>1533</ele>
        <time>2019-02-25T09:23:32Z</time>
      </trkpt>
      <trkpt lat="42.8567" lon="0.26671">
        <ele>1534</ele>
        <time>2019-02-25T09:23:35Z</time>
      </trkpt>
      <trkpt lat="42.8567" lon="0.26671">
        <ele>1534</ele>
        <time>2019-02-25T09:23:38Z</time>
      </trkpt>
      <trkpt lat="42.8567" lon="0.2667">
        <ele>1534</ele>
        <time>2019-02-25T09:23:40Z</time>
      </trkpt>
      <trkpt lat="42.8567" lon="0.2667">
        <ele>1533</ele>
        <time>2019-02-25T09:23:43Z</time>
      </trkpt>
      <trkpt lat="42.8567" lon="0.2667">
        <ele>1533</ele>
        <time>2019-02-25T09:23:45Z</time>
      </trkpt>
      <trkpt lat="42.8567" lon="0.2667">
        <ele>1533</ele>
        <time>2019-02-25T09:23:48Z</time>
      </trkpt>
      <trkpt lat="42.85669" lon="0.2667">
        <ele>1533</ele>
        <time>2019-02-25T09:23:51Z</time>
      </trkpt>
      <trkpt lat="42.85669" lon="0.2667">
        <ele>1533</ele>
        <time>2019-02-25T09:23:53Z</time>
      </trkpt>
      <trkpt lat="42.85669" lon="0.26669">
        <ele>1533</ele>
        <time>2019-02-25T09:23:56Z</time>
      </trkpt>
      <trkpt lat="42.85669" lon="0.26669">
        <ele>1533</ele>
        <time>2019-02-25T09:23:58Z</time>
      </trkpt>
      <trkpt lat="42.85669" lon="0.26669">
        <ele>1533</ele>
        <time>2019-02-25T09:24:01Z</time>
      </trkpt>
      <trkpt lat="42.85669" lon="0.26669">
        <ele>1533</ele>
        <time>2019-02-25T09:24:03Z</time>
      </trkpt>
      <trkpt lat="42.85669" lon="0.26669">
        <ele>1533</ele>
        <time>2019-02-25T09:24:06Z</time>
      </trkpt>
      <trkpt lat="42.85669" lon="0.26669">
        <ele>1533</ele>
        <time>2019-02-25T09:24:09Z</time>
      </trkpt>
      <trkpt lat="42.85669" lon="0.26668">
        <ele>1533</ele>
        <time>2019-02-25T09:24:11Z</time>
      </trkpt>
      <trkpt lat="42.85665" lon="0.26662">
        <ele>1533</ele>
        <time>2019-02-25T09:24:13Z</time>
      </trkpt>
      <trkpt lat="42.85674" lon="0.26666">
        <ele>1536</ele>
        <time>2019-02-25T09:24:32Z</time>
      </trkpt>
      <trkpt lat="42.85683" lon="0.26662">
        <ele>1539</ele>
        <time>2019-02-25T09:24:48Z</time>
      </trkpt>
      <trkpt lat="42.85691" lon="0.26657">
        <ele>1541</ele>
        <time>2019-02-25T09:25:07Z</time>
      </trkpt>
      <trkpt lat="42.85699" lon="0.26651">
        <ele>1545</ele>
        <time>2019-02-25T09:25:31Z</time>
      </trkpt>
      <trkpt lat="42.85709" lon="0.2665">
        <ele>1548</ele>
        <time>2019-02-25T09:25:49Z</time>
      </trkpt>
      <trkpt lat="42.85718" lon="0.26653">
        <ele>1550</ele>
        <time>2019-02-25T09:26:04Z</time>
      </trkpt>
      <trkpt lat="42.85727" lon="0.2665">
        <ele>1552</ele>
        <time>2019-02-25T09:26:19Z</time>
      </trkpt>
      <trkpt lat="42.85736" lon="0.2665">
        <ele>1554</ele>
        <time>2019-02-25T09:26:37Z</time>
      </trkpt>
      <trkpt lat="42.85742" lon="0.2664">
        <ele>1556</ele>
        <time>2019-02-25T09:27:06Z</time>
      </trkpt>
      <trkpt lat="42.8574" lon="0.26628">
        <ele>1557</ele>
        <time>2019-02-25T09:27:30Z</time>
      </trkpt>
      <trkpt lat="42.85746" lon="0.26618">
        <ele>1560</ele>
        <time>2019-02-25T09:27:55Z</time>
      </trkpt>
      <trkpt lat="42.85748" lon="0.26606">
        <ele>1561</ele>
        <time>2019-02-25T09:28:48Z</time>
      </trkpt>
      <trkpt lat="42.85753" lon="0.26595">
        <ele>1564</ele>
        <time>2019-02-25T09:29:06Z</time>
      </trkpt>
      <trkpt lat="42.85758" lon="0.26586">
        <ele>1568</ele>
        <time>2019-02-25T09:29:26Z</time>
      </trkpt>
      <trkpt lat="42.8576" lon="0.26573">
        <ele>1570</ele>
        <time>2019-02-25T09:29:37Z</time>
      </trkpt>
      <trkpt lat="42.85764" lon="0.26562">
        <ele>1573</ele>
        <time>2019-02-25T09:29:56Z</time>
      </trkpt>
      <trkpt lat="42.85768" lon="0.2655">
        <ele>1577</ele>
        <time>2019-02-25T09:30:21Z</time>
      </trkpt>
      <trkpt lat="42.85771" lon="0.26538">
        <ele>1580</ele>
        <time>2019-02-25T09:30:56Z</time>
      </trkpt>
      <trkpt lat="42.85776" lon="0.26528">
        <ele>1584</ele>
        <time>2019-02-25T09:31:17Z</time>
      </trkpt>
      <trkpt lat="42.85782" lon="0.26517">
        <ele>1586</ele>
        <time>2019-02-25T09:31:44Z</time>
      </trkpt>
      <trkpt lat="42.85786" lon="0.26506">
        <ele>1589</ele>
        <time>2019-02-25T09:32:03Z</time>
      </trkpt>
      <trkpt lat="42.85785" lon="0.26493">
        <ele>1592</ele>
        <time>2019-02-25T09:32:23Z</time>
      </trkpt>
      <trkpt lat="42.85793" lon="0.26485">
        <ele>1594</ele>
        <time>2019-02-25T09:32:39Z</time>
      </trkpt>
      <trkpt lat="42.85795" lon="0.26472">
        <ele>1599</ele>
        <time>2019-02-25T09:34:00Z</time>
      </trkpt>
      <trkpt lat="42.85798" lon="0.26461">
        <ele>1600</ele>
        <time>2019-02-25T09:34:16Z</time>
      </trkpt>
      <trkpt lat="42.85803" lon="0.2645">
        <ele>1604</ele>
        <time>2019-02-25T09:34:39Z</time>
      </trkpt>
      <trkpt lat="42.85807" lon="0.26439">
        <ele>1606</ele>
        <time>2019-02-25T09:34:57Z</time>
      </trkpt>
      <trkpt lat="42.85808" lon="0.26426">
        <ele>1609</ele>
        <time>2019-02-25T09:35:12Z</time>
      </trkpt>
      <trkpt lat="42.85814" lon="0.26416">
        <ele>1610</ele>
        <time>2019-02-25T09:35:26Z</time>
      </trkpt>
      <trkpt lat="42.8582" lon="0.26406">
        <ele>1614</ele>
        <time>2019-02-25T09:35:51Z</time>
      </trkpt>
      <trkpt lat="42.85824" lon="0.26395">
        <ele>1618</ele>
        <time>2019-02-25T09:36:16Z</time>
      </trkpt>
      <trkpt lat="42.85828" lon="0.26384">
        <ele>1620</ele>
        <time>2019-02-25T09:37:00Z</time>
      </trkpt>
      <trkpt lat="42.85833" lon="0.26373">
        <ele>1623</ele>
        <time>2019-02-25T09:37:19Z</time>
      </trkpt>
      <trkpt lat="42.85838" lon="0.26363">
        <ele>1626</ele>
        <time>2019-02-25T09:37:32Z</time>
      </trkpt>
      <trkpt lat="42.85846" lon="0.26357">
        <ele>1630</ele>
        <time>2019-02-25T09:37:50Z</time>
      </trkpt>
      <trkpt lat="42.85854" lon="0.2635">
        <ele>1633</ele>
        <time>2019-02-25T09:38:06Z</time>
      </trkpt>
      <trkpt lat="42.85856" lon="0.2635">
        <ele>1634</ele>
        <time>2019-02-25T09:38:10Z</time>
      </trkpt>
      <trkpt lat="42.85858" lon="0.26349">
        <ele>1634</ele>
        <time>2019-02-25T09:38:18Z</time>
      </trkpt>
      <trkpt lat="42.85866" lon="0.26351">
        <ele>1637</ele>
        <time>2019-02-25T09:38:40Z</time>
      </trkpt>
      <trkpt lat="42.85873" lon="0.26343">
        <ele>1642</ele>
        <time>2019-02-25T09:39:15Z</time>
      </trkpt>
      <trkpt lat="42.85878" lon="0.26332">
        <ele>1644</ele>
        <time>2019-02-25T09:39:30Z</time>
      </trkpt>
      <trkpt lat="42.85885" lon="0.26325">
        <ele>1647</ele>
        <time>2019-02-25T09:45:30Z</time>
      </trkpt>
      <trkpt lat="42.85891" lon="0.26315">
        <ele>1648</ele>
        <time>2019-02-25T09:45:46Z</time>
      </trkpt>
      <trkpt lat="42.85897" lon="0.26304">
        <ele>1651</ele>
        <time>2019-02-25T09:46:01Z</time>
      </trkpt>
      <trkpt lat="42.85903" lon="0.26294">
        <ele>1652</ele>
        <time>2019-02-25T09:46:18Z</time>
      </trkpt>
      <trkpt lat="42.8591" lon="0.26285">
        <ele>1653</ele>
        <time>2019-02-25T09:46:38Z</time>
      </trkpt>
      <trkpt lat="42.85917" lon="0.26276">
        <ele>1654</ele>
        <time>2019-02-25T09:46:50Z</time>
      </trkpt>
      <trkpt lat="42.85925" lon="0.26268">
        <ele>1654</ele>
        <time>2019-02-25T09:47:01Z</time>
      </trkpt>
      <trkpt lat="42.85931" lon="0.26259">
        <ele>1655</ele>
        <time>2019-02-25T09:47:10Z</time>
      </trkpt>
      <trkpt lat="42.85937" lon="0.26248">
        <ele>1657</ele>
        <time>2019-02-25T09:47:26Z</time>
      </trkpt>
      <trkpt lat="42.85943" lon="0.26237">
        <ele>1657</ele>
        <time>2019-02-25T09:47:38Z</time>
      </trkpt>
      <trkpt lat="42.85947" lon="0.26226">
        <ele>1658</ele>
        <time>2019-02-25T09:47:50Z</time>
      </trkpt>
      <trkpt lat="42.8595" lon="0.26214">
        <ele>1658</ele>
        <time>2019-02-25T09:48:03Z</time>
      </trkpt>
      <trkpt lat="42.85953" lon="0.26202">
        <ele>1658</ele>
        <time>2019-02-25T09:48:13Z</time>
      </trkpt>
      <trkpt lat="42.85957" lon="0.26191">
        <ele>1659</ele>
        <time>2019-02-25T09:48:28Z</time>
      </trkpt>
      <trkpt lat="42.85967" lon="0.2619">
        <ele>1660</ele>
        <time>2019-02-25T09:49:14Z</time>
      </trkpt>
      <trkpt lat="42.85976" lon="0.26186">
        <ele>1661</ele>
        <time>2019-02-25T09:49:26Z</time>
      </trkpt>
      <trkpt lat="42.85984" lon="0.26192">
        <ele>1661</ele>
        <time>2019-02-25T09:49:38Z</time>
      </trkpt>
      <trkpt lat="42.85994" lon="0.26193">
        <ele>1662</ele>
        <time>2019-02-25T09:49:53Z</time>
      </trkpt>
      <trkpt lat="42.86006" lon="0.26191">
        <ele>1664</ele>
        <time>2019-02-25T09:50:23Z</time>
      </trkpt>
      <trkpt lat="42.86011" lon="0.26201">
        <ele>1667</ele>
        <time>2019-02-25T09:50:39Z</time>
      </trkpt>
      <trkpt lat="42.8602" lon="0.26207">
        <ele>1670</ele>
        <time>2019-02-25T09:51:18Z</time>
      </trkpt>
      <trkpt lat="42.86023" lon="0.2622">
        <ele>1672</ele>
        <time>2019-02-25T09:51:30Z</time>
      </trkpt>
      <trkpt lat="42.8603" lon="0.26212">
        <ele>1673</ele>
        <time>2019-02-25T09:51:50Z</time>
      </trkpt>
      <trkpt lat="42.86037" lon="0.26203">
        <ele>1675</ele>
        <time>2019-02-25T09:52:05Z</time>
      </trkpt>
      <trkpt lat="42.86045" lon="0.26199">
        <ele>1677</ele>
        <time>2019-02-25T09:52:19Z</time>
      </trkpt>
      <trkpt lat="42.86054" lon="0.26194">
        <ele>1680</ele>
        <time>2019-02-25T09:52:38Z</time>
      </trkpt>
      <trkpt lat="42.86063" lon="0.26194">
        <ele>1682</ele>
        <time>2019-02-25T09:52:52Z</time>
      </trkpt>
      <trkpt lat="42.86071" lon="0.26189">
        <ele>1684</ele>
        <time>2019-02-25T09:53:03Z</time>
      </trkpt>
      <trkpt lat="42.86079" lon="0.26181">
        <ele>1687</ele>
        <time>2019-02-25T09:53:18Z</time>
      </trkpt>
      <trkpt lat="42.86088" lon="0.26177">
        <ele>1689</ele>
        <time>2019-02-25T09:53:29Z</time>
      </trkpt>
      <trkpt lat="42.86093" lon="0.26166">
        <ele>1691</ele>
        <time>2019-02-25T09:53:43Z</time>
      </trkpt>
      <trkpt lat="42.86103" lon="0.26163">
        <ele>1692</ele>
        <time>2019-02-25T09:53:53Z</time>
      </trkpt>
      <trkpt lat="42.8611" lon="0.26156">
        <ele>1693</ele>
        <time>2019-02-25T09:54:05Z</time>
      </trkpt>
      <trkpt lat="42.8612" lon="0.26155">
        <ele>1695</ele>
        <time>2019-02-25T09:54:18Z</time>
      </trkpt>
      <trkpt lat="42.86127" lon="0.26148">
        <ele>1695</ele>
        <time>2019-02-25T09:54:31Z</time>
      </trkpt>
      <trkpt lat="42.86136" lon="0.26145">
        <ele>1698</ele>
        <time>2019-02-25T09:54:57Z</time>
      </trkpt>
      <trkpt lat="42.86146" lon="0.26145">
        <ele>1699</ele>
        <time>2019-02-25T09:55:12Z</time>
      </trkpt>
      <trkpt lat="42.86156" lon="0.26144">
        <ele>1700</ele>
        <time>2019-02-25T09:55:25Z</time>
      </trkpt>
      <trkpt lat="42.86165" lon="0.26148">
        <ele>1702</ele>
        <time>2019-02-25T09:55:43Z</time>
      </trkpt>
      <trkpt lat="42.86173" lon="0.26143">
        <ele>1705</ele>
        <time>2019-02-25T09:55:57Z</time>
      </trkpt>
      <trkpt lat="42.86182" lon="0.26137">
        <ele>1706</ele>
        <time>2019-02-25T09:56:11Z</time>
      </trkpt>
      <trkpt lat="42.86191" lon="0.26135">
        <ele>1707</ele>
        <time>2019-02-25T09:56:22Z</time>
      </trkpt>
      <trkpt lat="42.86201" lon="0.26133">
        <ele>1709</ele>
        <time>2019-02-25T09:56:33Z</time>
      </trkpt>
      <trkpt lat="42.86209" lon="0.26129">
        <ele>1711</ele>
        <time>2019-02-25T09:56:45Z</time>
      </trkpt>
      <trkpt lat="42.86217" lon="0.26134">
        <ele>1712</ele>
        <time>2019-02-25T09:57:02Z</time>
      </trkpt>
      <trkpt lat="42.86226" lon="0.26129">
        <ele>1714</ele>
        <time>2019-02-25T09:57:30Z</time>
      </trkpt>
      <trkpt lat="42.86235" lon="0.26132">
        <ele>1716</ele>
        <time>2019-02-25T09:57:49Z</time>
      </trkpt>
      <trkpt lat="42.86244" lon="0.26133">
        <ele>1716</ele>
        <time>2019-02-25T09:58:06Z</time>
      </trkpt>
      <trkpt lat="42.86252" lon="0.2614">
        <ele>1717</ele>
        <time>2019-02-25T09:58:31Z</time>
      </trkpt>
      <trkpt lat="42.86251" lon="0.26135">
        <ele>1717</ele>
        <time>2019-02-25T09:59:23Z</time>
      </trkpt>
      <trkpt lat="42.86254" lon="0.26123">
        <ele>1721</ele>
        <time>2019-02-25T10:00:36Z</time>
      </trkpt>
      <trkpt lat="42.86256" lon="0.26111">
        <ele>1724</ele>
        <time>2019-02-25T10:00:51Z</time>
      </trkpt>
      <trkpt lat="42.86258" lon="0.26099">
        <ele>1725</ele>
        <time>2019-02-25T10:01:06Z</time>
      </trkpt>
      <trkpt lat="42.86263" lon="0.26088">
        <ele>1726</ele>
        <time>2019-02-25T10:01:19Z</time>
      </trkpt>
      <trkpt lat="42.86267" lon="0.26077">
        <ele>1726</ele>
        <time>2019-02-25T10:01:28Z</time>
      </trkpt>
      <trkpt lat="42.86273" lon="0.26067">
        <ele>1727</ele>
        <time>2019-02-25T10:01:44Z</time>
      </trkpt>
      <trkpt lat="42.86275" lon="0.26055">
        <ele>1728</ele>
        <time>2019-02-25T10:02:09Z</time>
      </trkpt>
      <trkpt lat="42.8628" lon="0.26044">
        <ele>1730</ele>
        <time>2019-02-25T10:02:21Z</time>
      </trkpt>
      <trkpt lat="42.8628" lon="0.26031">
        <ele>1733</ele>
        <time>2019-02-25T10:02:39Z</time>
      </trkpt>
      <trkpt lat="42.86282" lon="0.26018">
        <ele>1734</ele>
        <time>2019-02-25T10:02:52Z</time>
      </trkpt>
      <trkpt lat="42.86283" lon="0.26005">
        <ele>1735</ele>
        <time>2019-02-25T10:03:07Z</time>
      </trkpt>
      <trkpt lat="42.86287" lon="0.25994">
        <ele>1737</ele>
        <time>2019-02-25T10:03:19Z</time>
      </trkpt>
      <trkpt lat="42.86288" lon="0.25982">
        <ele>1738</ele>
        <time>2019-02-25T10:03:31Z</time>
      </trkpt>
      <trkpt lat="42.8629" lon="0.2597">
        <ele>1741</ele>
        <time>2019-02-25T10:03:46Z</time>
      </trkpt>
      <trkpt lat="42.86291" lon="0.25957">
        <ele>1743</ele>
        <time>2019-02-25T10:04:00Z</time>
      </trkpt>
      <trkpt lat="42.86291" lon="0.25945">
        <ele>1745</ele>
        <time>2019-02-25T10:04:23Z</time>
      </trkpt>
      <trkpt lat="42.863" lon="0.25944">
        <ele>1746</ele>
        <time>2019-02-25T10:04:33Z</time>
      </trkpt>
      <trkpt lat="42.86309" lon="0.25944">
        <ele>1747</ele>
        <time>2019-02-25T10:04:48Z</time>
      </trkpt>
      <trkpt lat="42.86319" lon="0.25944">
        <ele>1748</ele>
        <time>2019-02-25T10:05:00Z</time>
      </trkpt>
      <trkpt lat="42.86318" lon="0.25932">
        <ele>1751</ele>
        <time>2019-02-25T10:05:29Z</time>
      </trkpt>
      <trkpt lat="42.86314" lon="0.2592">
        <ele>1753</ele>
        <time>2019-02-25T10:05:39Z</time>
      </trkpt>
      <trkpt lat="42.86315" lon="0.25907">
        <ele>1755</ele>
        <time>2019-02-25T10:05:56Z</time>
      </trkpt>
      <trkpt lat="42.86315" lon="0.25894">
        <ele>1758</ele>
        <time>2019-02-25T10:06:11Z</time>
      </trkpt>
      <trkpt lat="42.86324" lon="0.25899">
        <ele>1758</ele>
        <time>2019-02-25T10:06:26Z</time>
      </trkpt>
      <trkpt lat="42.86332" lon="0.25904">
        <ele>1760</ele>
        <time>2019-02-25T10:06:40Z</time>
      </trkpt>
      <trkpt lat="42.86342" lon="0.25905">
        <ele>1760</ele>
        <time>2019-02-25T10:06:52Z</time>
      </trkpt>
      <trkpt lat="42.86347" lon="0.25895">
        <ele>1763</ele>
        <time>2019-02-25T10:07:29Z</time>
      </trkpt>
      <trkpt lat="42.86346" lon="0.25882">
        <ele>1764</ele>
        <time>2019-02-25T10:07:41Z</time>
      </trkpt>
      <trkpt lat="42.86347" lon="0.25869">
        <ele>1765</ele>
        <time>2019-02-25T10:07:59Z</time>
      </trkpt>
      <trkpt lat="42.86356" lon="0.25876">
        <ele>1767</ele>
        <time>2019-02-25T10:08:15Z</time>
      </trkpt>
      <trkpt lat="42.86364" lon="0.25882">
        <ele>1769</ele>
        <time>2019-02-25T10:08:32Z</time>
      </trkpt>
      <trkpt lat="42.8637" lon="0.25872">
        <ele>1772</ele>
        <time>2019-02-25T10:09:05Z</time>
      </trkpt>
      <trkpt lat="42.86379" lon="0.2587">
        <ele>1774</ele>
        <time>2019-02-25T10:09:27Z</time>
      </trkpt>
      <trkpt lat="42.86394" lon="0.25871">
        <ele>1777</ele>
        <time>2019-02-25T10:10:05Z</time>
      </trkpt>
      <trkpt lat="42.86393" lon="0.25873">
        <ele>1777</ele>
        <time>2019-02-25T10:10:06Z</time>
      </trkpt>
      <trkpt lat="42.86391" lon="0.25875">
        <ele>1777</ele>
        <time>2019-02-25T10:10:09Z</time>
      </trkpt>
      <trkpt lat="42.86391" lon="0.25874">
        <ele>1777</ele>
        <time>2019-02-25T10:10:11Z</time>
      </trkpt>
      <trkpt lat="42.86391" lon="0.25872">
        <ele>1777</ele>
        <time>2019-02-25T10:10:16Z</time>
      </trkpt>
      <trkpt lat="42.86391" lon="0.25871">
        <ele>1779</ele>
        <time>2019-02-25T10:10:21Z</time>
      </trkpt>
      <trkpt lat="42.86391" lon="0.25869">
        <ele>1778</ele>
        <time>2019-02-25T10:10:26Z</time>
      </trkpt>
      <trkpt lat="42.86392" lon="0.25868">
        <ele>1778</ele>
        <time>2019-02-25T10:10:31Z</time>
      </trkpt>
      <trkpt lat="42.86392" lon="0.2586">
        <ele>1778</ele>
        <time>2019-02-25T10:10:34Z</time>
      </trkpt>
      <trkpt lat="42.86394" lon="0.25847">
        <ele>1778</ele>
        <time>2019-02-25T10:10:45Z</time>
      </trkpt>
      <trkpt lat="42.86404" lon="0.25849">
        <ele>1781</ele>
        <time>2019-02-25T10:11:03Z</time>
      </trkpt>
      <trkpt lat="42.86408" lon="0.25852">
        <ele>1781</ele>
        <time>2019-02-25T10:11:12Z</time>
      </trkpt>
      <trkpt lat="42.86413" lon="0.25856">
        <ele>1782</ele>
        <time>2019-02-25T10:11:26Z</time>
      </trkpt>
      <trkpt lat="42.86416" lon="0.25856">
        <ele>1781</ele>
        <time>2019-02-25T10:11:29Z</time>
      </trkpt>
      <trkpt lat="42.86417" lon="0.25858">
        <ele>1782</ele>
        <time>2019-02-25T10:11:31Z</time>
      </trkpt>
      <trkpt lat="42.86424" lon="0.25837">
        <ele>1787</ele>
        <time>2019-02-25T10:12:29Z</time>
      </trkpt>
      <trkpt lat="42.86433" lon="0.25844">
        <ele>1789</ele>
        <time>2019-02-25T10:12:38Z</time>
      </trkpt>
      <trkpt lat="42.86424" lon="0.25841">
        <ele>1791</ele>
        <time>2019-02-25T10:13:08Z</time>
      </trkpt>
      <trkpt lat="42.86428" lon="0.2583">
        <ele>1793</ele>
        <time>2019-02-25T10:13:19Z</time>
      </trkpt>
      <trkpt lat="42.86432" lon="0.25832">
        <ele>1795</ele>
        <time>2019-02-25T10:15:10Z</time>
      </trkpt>
      <trkpt lat="42.86431" lon="0.25829">
        <ele>1795</ele>
        <time>2019-02-25T10:15:16Z</time>
      </trkpt>
      <trkpt lat="42.86423" lon="0.25825">
        <ele>1798</ele>
        <time>2019-02-25T10:15:42Z</time>
      </trkpt>
      <trkpt lat="42.86422" lon="0.25812">
        <ele>1801</ele>
        <time>2019-02-25T10:16:16Z</time>
      </trkpt>
      <trkpt lat="42.86417" lon="0.25801">
        <ele>1804</ele>
        <time>2019-02-25T10:16:37Z</time>
      </trkpt>
      <trkpt lat="42.86415" lon="0.25803">
        <ele>1804</ele>
        <time>2019-02-25T10:16:50Z</time>
      </trkpt>
      <trkpt lat="42.86414" lon="0.258">
        <ele>1805</ele>
        <time>2019-02-25T10:16:55Z</time>
      </trkpt>
      <trkpt lat="42.86412" lon="0.25799">
        <ele>1805</ele>
        <time>2019-02-25T10:16:58Z</time>
      </trkpt>
      <trkpt lat="42.8641" lon="0.25796">
        <ele>1806</ele>
        <time>2019-02-25T10:17:01Z</time>
      </trkpt>
      <trkpt lat="42.86409" lon="0.25794">
        <ele>1806</ele>
        <time>2019-02-25T10:17:05Z</time>
      </trkpt>
      <trkpt lat="42.86408" lon="0.25792">
        <ele>1807</ele>
        <time>2019-02-25T10:17:09Z</time>
      </trkpt>
      <trkpt lat="42.86407" lon="0.2579">
        <ele>1807</ele>
        <time>2019-02-25T10:17:17Z</time>
      </trkpt>
      <trkpt lat="42.86406" lon="0.25786">
        <ele>1808</ele>
        <time>2019-02-25T10:17:23Z</time>
      </trkpt>
      <trkpt lat="42.86406" lon="0.25783">
        <ele>1809</ele>
        <time>2019-02-25T10:17:26Z</time>
      </trkpt>
      <trkpt lat="42.86406" lon="0.2578">
        <ele>1809</ele>
        <time>2019-02-25T10:17:27Z</time>
      </trkpt>
      <trkpt lat="42.86405" lon="0.25777">
        <ele>1809</ele>
        <time>2019-02-25T10:17:29Z</time>
      </trkpt>
      <trkpt lat="42.86404" lon="0.25774">
        <ele>1810</ele>
        <time>2019-02-25T10:17:31Z</time>
      </trkpt>
      <trkpt lat="42.86398" lon="0.25765">
        <ele>1812</ele>
        <time>2019-02-25T10:17:51Z</time>
      </trkpt>
      <trkpt lat="42.86406" lon="0.25759">
        <ele>1817</ele>
        <time>2019-02-25T10:18:30Z</time>
      </trkpt>
      <trkpt lat="42.86415" lon="0.25761">
        <ele>1818</ele>
        <time>2019-02-25T10:18:43Z</time>
      </trkpt>
      <trkpt lat="42.86424" lon="0.25764">
        <ele>1821</ele>
        <time>2019-02-25T10:19:00Z</time>
      </trkpt>
      <trkpt lat="42.86432" lon="0.25769">
        <ele>1824</ele>
        <time>2019-02-25T10:19:22Z</time>
      </trkpt>
      <trkpt lat="42.8644" lon="0.25772">
        <ele>1824</ele>
        <time>2019-02-25T10:19:35Z</time>
      </trkpt>
      <trkpt lat="42.86442" lon="0.25773">
        <ele>1826</ele>
        <time>2019-02-25T10:19:38Z</time>
      </trkpt>
      <trkpt lat="42.86444" lon="0.25775">
        <ele>1826</ele>
        <time>2019-02-25T10:19:41Z</time>
      </trkpt>
      <trkpt lat="42.86449" lon="0.25775">
        <ele>1827</ele>
        <time>2019-02-25T10:19:49Z</time>
      </trkpt>
      <trkpt lat="42.86454" lon="0.25779">
        <ele>1828</ele>
        <time>2019-02-25T10:20:03Z</time>
      </trkpt>
      <trkpt lat="42.8645" lon="0.25785">
        <ele>1828</ele>
        <time>2019-02-25T10:20:15Z</time>
      </trkpt>
      <trkpt lat="42.86449" lon="0.25783">
        <ele>1828</ele>
        <time>2019-02-25T10:20:19Z</time>
      </trkpt>
      <trkpt lat="42.86449" lon="0.2578">
        <ele>1829</ele>
        <time>2019-02-25T10:20:22Z</time>
      </trkpt>
      <trkpt lat="42.8645" lon="0.25774">
        <ele>1830</ele>
        <time>2019-02-25T10:20:28Z</time>
      </trkpt>
      <trkpt lat="42.86449" lon="0.25761">
        <ele>1832</ele>
        <time>2019-02-25T10:20:42Z</time>
      </trkpt>
      <trkpt lat="42.86445" lon="0.25752">
        <ele>1834</ele>
        <time>2019-02-25T10:20:56Z</time>
      </trkpt>
      <trkpt lat="42.86444" lon="0.25749">
        <ele>1835</ele>
        <time>2019-02-25T10:21:00Z</time>
      </trkpt>
      <trkpt lat="42.86443" lon="0.25747">
        <ele>1835</ele>
        <time>2019-02-25T10:21:04Z</time>
      </trkpt>
      <trkpt lat="42.86441" lon="0.25747">
        <ele>1836</ele>
        <time>2019-02-25T10:21:07Z</time>
      </trkpt>
      <trkpt lat="42.86437" lon="0.25735">
        <ele>1838</ele>
        <time>2019-02-25T10:21:24Z</time>
      </trkpt>
      <trkpt lat="42.86433" lon="0.25724">
        <ele>1841</ele>
        <time>2019-02-25T10:21:48Z</time>
      </trkpt>
      <trkpt lat="42.86433" lon="0.25711">
        <ele>1843</ele>
        <time>2019-02-25T10:22:03Z</time>
      </trkpt>
      <trkpt lat="42.8643" lon="0.25699">
        <ele>1846</ele>
        <time>2019-02-25T10:22:29Z</time>
      </trkpt>
      <trkpt lat="42.86429" lon="0.25686">
        <ele>1849</ele>
        <time>2019-02-25T10:22:48Z</time>
      </trkpt>
      <trkpt lat="42.86427" lon="0.25673">
        <ele>1852</ele>
        <time>2019-02-25T10:23:06Z</time>
      </trkpt>
      <trkpt lat="42.86432" lon="0.25663">
        <ele>1856</ele>
        <time>2019-02-25T10:23:39Z</time>
      </trkpt>
      <trkpt lat="42.86439" lon="0.25671">
        <ele>1857</ele>
        <time>2019-02-25T10:23:57Z</time>
      </trkpt>
      <trkpt lat="42.86447" lon="0.25677">
        <ele>1860</ele>
        <time>2019-02-25T10:24:17Z</time>
      </trkpt>
      <trkpt lat="42.86455" lon="0.25683">
        <ele>1862</ele>
        <time>2019-02-25T10:24:32Z</time>
      </trkpt>
      <trkpt lat="42.86464" lon="0.25689">
        <ele>1864</ele>
        <time>2019-02-25T10:24:53Z</time>
      </trkpt>
      <trkpt lat="42.86473" lon="0.25689">
        <ele>1865</ele>
        <time>2019-02-25T10:25:08Z</time>
      </trkpt>
      <trkpt lat="42.86475" lon="0.2569">
        <ele>1865</ele>
        <time>2019-02-25T10:25:11Z</time>
      </trkpt>
      <trkpt lat="42.86482" lon="0.25697">
        <ele>1867</ele>
        <time>2019-02-25T10:25:28Z</time>
      </trkpt>
      <trkpt lat="42.86481" lon="0.25683">
        <ele>1876</ele>
        <time>2019-02-25T10:26:28Z</time>
      </trkpt>
      <trkpt lat="42.86481" lon="0.25676">
        <ele>1877</ele>
        <time>2019-02-25T10:26:35Z</time>
      </trkpt>
      <trkpt lat="42.86479" lon="0.25672">
        <ele>1878</ele>
        <time>2019-02-25T10:26:43Z</time>
      </trkpt>
      <trkpt lat="42.86474" lon="0.25662">
        <ele>1881</ele>
        <time>2019-02-25T10:27:05Z</time>
      </trkpt>
      <trkpt lat="42.86475" lon="0.25659">
        <ele>1882</ele>
        <time>2019-02-25T10:27:08Z</time>
      </trkpt>
      <trkpt lat="42.86474" lon="0.25656">
        <ele>1882</ele>
        <time>2019-02-25T10:27:10Z</time>
      </trkpt>
      <trkpt lat="42.86472" lon="0.25655">
        <ele>1882</ele>
        <time>2019-02-25T10:27:13Z</time>
      </trkpt>
      <trkpt lat="42.8647" lon="0.25654">
        <ele>1882</ele>
        <time>2019-02-25T10:27:18Z</time>
      </trkpt>
      <trkpt lat="42.86469" lon="0.25652">
        <ele>1884</ele>
        <time>2019-02-25T10:27:22Z</time>
      </trkpt>
      <trkpt lat="42.86466" lon="0.2564">
        <ele>1886</ele>
        <time>2019-02-25T10:27:41Z</time>
      </trkpt>
      <trkpt lat="42.86475" lon="0.25638">
        <ele>1890</ele>
        <time>2019-02-25T10:28:33Z</time>
      </trkpt>
      <trkpt lat="42.86484" lon="0.2564">
        <ele>1891</ele>
        <time>2019-02-25T10:28:49Z</time>
      </trkpt>
      <trkpt lat="42.86493" lon="0.25644">
        <ele>1893</ele>
        <time>2019-02-25T10:29:04Z</time>
      </trkpt>
      <trkpt lat="42.865" lon="0.25652">
        <ele>1896</ele>
        <time>2019-02-25T10:29:32Z</time>
      </trkpt>
      <trkpt lat="42.86499" lon="0.25639">
        <ele>1900</ele>
        <time>2019-02-25T10:29:57Z</time>
      </trkpt>
      <trkpt lat="42.86496" lon="0.25627">
        <ele>1902</ele>
        <time>2019-02-25T10:30:19Z</time>
      </trkpt>
      <trkpt lat="42.86495" lon="0.25615">
        <ele>1906</ele>
        <time>2019-02-25T10:30:40Z</time>
      </trkpt>
      <trkpt lat="42.86501" lon="0.25604">
        <ele>1909</ele>
        <time>2019-02-25T10:31:14Z</time>
      </trkpt>
      <trkpt lat="42.86508" lon="0.25612">
        <ele>1913</ele>
        <time>2019-02-25T10:31:34Z</time>
      </trkpt>
      <trkpt lat="42.86515" lon="0.25619">
        <ele>1915</ele>
        <time>2019-02-25T10:31:51Z</time>
      </trkpt>
      <trkpt lat="42.86523" lon="0.25627">
        <ele>1916</ele>
        <time>2019-02-25T10:32:13Z</time>
      </trkpt>
      <trkpt lat="42.86531" lon="0.25631">
        <ele>1920</ele>
        <time>2019-02-25T10:32:37Z</time>
      </trkpt>
      <trkpt lat="42.86537" lon="0.25641">
        <ele>1921</ele>
        <time>2019-02-25T10:32:59Z</time>
      </trkpt>
      <trkpt lat="42.86536" lon="0.25628">
        <ele>1926</ele>
        <time>2019-02-25T10:33:25Z</time>
      </trkpt>
      <trkpt lat="42.86535" lon="0.25614">
        <ele>1929</ele>
        <time>2019-02-25T10:33:46Z</time>
      </trkpt>
      <trkpt lat="42.86534" lon="0.25602">
        <ele>1933</ele>
        <time>2019-02-25T10:34:10Z</time>
      </trkpt>
      <trkpt lat="42.86533" lon="0.25592">
        <ele>1934</ele>
        <time>2019-02-25T10:34:28Z</time>
      </trkpt>
      <trkpt lat="42.86531" lon="0.25579">
        <ele>1937</ele>
        <time>2019-02-25T10:34:50Z</time>
      </trkpt>
      <trkpt lat="42.8654" lon="0.25584">
        <ele>1941</ele>
        <time>2019-02-25T10:35:33Z</time>
      </trkpt>
      <trkpt lat="42.86548" lon="0.25588">
        <ele>1943</ele>
        <time>2019-02-25T10:35:49Z</time>
      </trkpt>
      <trkpt lat="42.86556" lon="0.25595">
        <ele>1945</ele>
        <time>2019-02-25T10:36:06Z</time>
      </trkpt>
      <trkpt lat="42.86565" lon="0.25602">
        <ele>1947</ele>
        <time>2019-02-25T10:36:21Z</time>
      </trkpt>
      <trkpt lat="42.86572" lon="0.25608">
        <ele>1950</ele>
        <time>2019-02-25T10:36:41Z</time>
      </trkpt>
      <trkpt lat="42.86578" lon="0.25619">
        <ele>1953</ele>
        <time>2019-02-25T10:37:07Z</time>
      </trkpt>
      <trkpt lat="42.86585" lon="0.25627">
        <ele>1956</ele>
        <time>2019-02-25T10:37:33Z</time>
      </trkpt>
      <trkpt lat="42.86594" lon="0.25628">
        <ele>1959</ele>
        <time>2019-02-25T10:37:56Z</time>
      </trkpt>
      <trkpt lat="42.86603" lon="0.25632">
        <ele>1962</ele>
        <time>2019-02-25T10:38:19Z</time>
      </trkpt>
      <trkpt lat="42.86609" lon="0.25641">
        <ele>1964</ele>
        <time>2019-02-25T10:38:44Z</time>
      </trkpt>
      <trkpt lat="42.86614" lon="0.25652">
        <ele>1968</ele>
        <time>2019-02-25T10:39:26Z</time>
      </trkpt>
      <trkpt lat="42.86619" lon="0.25641">
        <ele>1970</ele>
        <time>2019-02-25T10:39:44Z</time>
      </trkpt>
      <trkpt lat="42.8662" lon="0.25629">
        <ele>1972</ele>
        <time>2019-02-25T10:40:01Z</time>
      </trkpt>
      <trkpt lat="42.86621" lon="0.25616">
        <ele>1975</ele>
        <time>2019-02-25T10:40:18Z</time>
      </trkpt>
      <trkpt lat="42.86621" lon="0.25591">
        <ele>1982</ele>
        <time>2019-02-25T10:41:06Z</time>
      </trkpt>
      <trkpt lat="42.8663" lon="0.25588">
        <ele>1985</ele>
        <time>2019-02-25T10:41:38Z</time>
      </trkpt>
      <trkpt lat="42.86638" lon="0.25593">
        <ele>1988</ele>
        <time>2019-02-25T10:42:05Z</time>
      </trkpt>
      <trkpt lat="42.86641" lon="0.25581">
        <ele>1993</ele>
        <time>2019-02-25T10:42:45Z</time>
      </trkpt>
      <trkpt lat="42.8665" lon="0.25578">
        <ele>1998</ele>
        <time>2019-02-25T10:43:14Z</time>
      </trkpt>
      <trkpt lat="42.86654" lon="0.25579">
        <ele>1999</ele>
        <time>2019-02-25T10:43:34Z</time>
      </trkpt>
      <trkpt lat="42.86656" lon="0.25591">
        <ele>2000</ele>
        <time>2019-02-25T10:43:59Z</time>
      </trkpt>
      <trkpt lat="42.8666" lon="0.2558">
        <ele>2002</ele>
        <time>2019-02-25T10:44:16Z</time>
      </trkpt>
      <trkpt lat="42.86666" lon="0.2557">
        <ele>2005</ele>
        <time>2019-02-25T10:44:45Z</time>
      </trkpt>
      <trkpt lat="42.86663" lon="0.25559">
        <ele>2010</ele>
        <time>2019-02-25T10:45:10Z</time>
      </trkpt>
      <trkpt lat="42.86659" lon="0.25548">
        <ele>2011</ele>
        <time>2019-02-25T10:45:35Z</time>
      </trkpt>
      <trkpt lat="42.86659" lon="0.25548">
        <ele>2011</ele>
        <time>2019-02-25T10:45:37Z</time>
      </trkpt>
      <trkpt lat="42.8666" lon="0.25548">
        <ele>2012</ele>
        <time>2019-02-25T10:45:42Z</time>
      </trkpt>
      <trkpt lat="42.86661" lon="0.25548">
        <ele>2012</ele>
        <time>2019-02-25T10:45:47Z</time>
      </trkpt>
      <trkpt lat="42.86662" lon="0.25548">
        <ele>2013</ele>
        <time>2019-02-25T10:45:51Z</time>
      </trkpt>
      <trkpt lat="42.86663" lon="0.25548">
        <ele>2013</ele>
        <time>2019-02-25T10:45:56Z</time>
      </trkpt>
      <trkpt lat="42.86663" lon="0.25548">
        <ele>2014</ele>
        <time>2019-02-25T10:46:01Z</time>
      </trkpt>
      <trkpt lat="42.86669" lon="0.25549">
        <ele>2014</ele>
        <time>2019-02-25T10:46:04Z</time>
      </trkpt>
      <trkpt lat="42.86679" lon="0.25549">
        <ele>2016</ele>
        <time>2019-02-25T10:46:32Z</time>
      </trkpt>
      <trkpt lat="42.86687" lon="0.25555">
        <ele>2019</ele>
        <time>2019-02-25T10:46:56Z</time>
      </trkpt>
      <trkpt lat="42.86691" lon="0.25566">
        <ele>2020</ele>
        <time>2019-02-25T10:47:14Z</time>
      </trkpt>
      <trkpt lat="42.86693" lon="0.25578">
        <ele>2021</ele>
        <time>2019-02-25T10:47:34Z</time>
      </trkpt>
      <trkpt lat="42.86699" lon="0.25588">
        <ele>2023</ele>
        <time>2019-02-25T10:47:53Z</time>
      </trkpt>
      <trkpt lat="42.86707" lon="0.25594">
        <ele>2028</ele>
        <time>2019-02-25T10:48:19Z</time>
      </trkpt>
      <trkpt lat="42.86714" lon="0.25601">
        <ele>2032</ele>
        <time>2019-02-25T10:48:42Z</time>
      </trkpt>
      <trkpt lat="42.86718" lon="0.25609">
        <ele>2034</ele>
        <time>2019-02-25T10:49:03Z</time>
      </trkpt>
      <trkpt lat="42.86725" lon="0.25618">
        <ele>2037</ele>
        <time>2019-02-25T10:49:23Z</time>
      </trkpt>
      <trkpt lat="42.86734" lon="0.25623">
        <ele>2040</ele>
        <time>2019-02-25T10:49:39Z</time>
      </trkpt>
      <trkpt lat="42.86743" lon="0.2562">
        <ele>2043</ele>
        <time>2019-02-25T10:50:03Z</time>
      </trkpt>
      <trkpt lat="42.8675" lon="0.25613">
        <ele>2046</ele>
        <time>2019-02-25T10:50:29Z</time>
      </trkpt>
      <trkpt lat="42.86752" lon="0.25607">
        <ele>2047</ele>
        <time>2019-02-25T10:50:39Z</time>
      </trkpt>
      <trkpt lat="42.86752" lon="0.25605">
        <ele>2047</ele>
        <time>2019-02-25T10:50:43Z</time>
      </trkpt>
      <trkpt lat="42.86754" lon="0.25603">
        <ele>2048</ele>
        <time>2019-02-25T10:50:48Z</time>
      </trkpt>
      <trkpt lat="42.86755" lon="0.256">
        <ele>2049</ele>
        <time>2019-02-25T10:50:52Z</time>
      </trkpt>
      <trkpt lat="42.86756" lon="0.25599">
        <ele>2050</ele>
        <time>2019-02-25T10:50:56Z</time>
      </trkpt>
      <trkpt lat="42.86758" lon="0.25597">
        <ele>2050</ele>
        <time>2019-02-25T10:51:01Z</time>
      </trkpt>
      <trkpt lat="42.8676" lon="0.25595">
        <ele>2051</ele>
        <time>2019-02-25T10:51:06Z</time>
      </trkpt>
      <trkpt lat="42.86761" lon="0.25592">
        <ele>2052</ele>
        <time>2019-02-25T10:51:11Z</time>
      </trkpt>
      <trkpt lat="42.86762" lon="0.2559">
        <ele>2052</ele>
        <time>2019-02-25T10:51:15Z</time>
      </trkpt>
      <trkpt lat="42.86763" lon="0.25587">
        <ele>2052</ele>
        <time>2019-02-25T10:51:19Z</time>
      </trkpt>
      <trkpt lat="42.86763" lon="0.25585">
        <ele>2053</ele>
        <time>2019-02-25T10:51:23Z</time>
      </trkpt>
      <trkpt lat="42.86764" lon="0.25582">
        <ele>2055</ele>
        <time>2019-02-25T10:51:29Z</time>
      </trkpt>
      <trkpt lat="42.86763" lon="0.25579">
        <ele>2055</ele>
        <time>2019-02-25T10:51:33Z</time>
      </trkpt>
      <trkpt lat="42.86762" lon="0.25577">
        <ele>2056</ele>
        <time>2019-02-25T10:51:37Z</time>
      </trkpt>
      <trkpt lat="42.86761" lon="0.25574">
        <ele>2056</ele>
        <time>2019-02-25T10:51:42Z</time>
      </trkpt>
      <trkpt lat="42.8676" lon="0.25572">
        <ele>2058</ele>
        <time>2019-02-25T10:51:46Z</time>
      </trkpt>
      <trkpt lat="42.86759" lon="0.2557">
        <ele>2058</ele>
        <time>2019-02-25T10:51:50Z</time>
      </trkpt>
      <trkpt lat="42.86761" lon="0.25568">
        <ele>2058</ele>
        <time>2019-02-25T10:51:55Z</time>
      </trkpt>
      <trkpt lat="42.86763" lon="0.25569">
        <ele>2059</ele>
        <time>2019-02-25T10:51:59Z</time>
      </trkpt>
      <trkpt lat="42.86765" lon="0.25569">
        <ele>2059</ele>
        <time>2019-02-25T10:52:03Z</time>
      </trkpt>
      <trkpt lat="42.86767" lon="0.2557">
        <ele>2059</ele>
        <time>2019-02-25T10:52:07Z</time>
      </trkpt>
      <trkpt lat="42.86769" lon="0.25571">
        <ele>2061</ele>
        <time>2019-02-25T10:52:11Z</time>
      </trkpt>
      <trkpt lat="42.86771" lon="0.25572">
        <ele>2061</ele>
        <time>2019-02-25T10:52:15Z</time>
      </trkpt>
      <trkpt lat="42.86773" lon="0.25573">
        <ele>2061</ele>
        <time>2019-02-25T10:52:19Z</time>
      </trkpt>
      <trkpt lat="42.86776" lon="0.25574">
        <ele>2062</ele>
        <time>2019-02-25T10:52:24Z</time>
      </trkpt>
      <trkpt lat="42.86778" lon="0.25575">
        <ele>2063</ele>
        <time>2019-02-25T10:52:28Z</time>
      </trkpt>
      <trkpt lat="42.8678" lon="0.25575">
        <ele>2063</ele>
        <time>2019-02-25T10:52:32Z</time>
      </trkpt>
      <trkpt lat="42.86782" lon="0.25576">
        <ele>2063</ele>
        <time>2019-02-25T10:52:35Z</time>
      </trkpt>
      <trkpt lat="42.86784" lon="0.25577">
        <ele>2063</ele>
        <time>2019-02-25T10:52:38Z</time>
      </trkpt>
      <trkpt lat="42.86786" lon="0.25579">
        <ele>2064</ele>
        <time>2019-02-25T10:52:42Z</time>
      </trkpt>
      <trkpt lat="42.86788" lon="0.2558">
        <ele>2064</ele>
        <time>2019-02-25T10:52:46Z</time>
      </trkpt>
      <trkpt lat="42.8679" lon="0.25581">
        <ele>2065</ele>
        <time>2019-02-25T10:52:50Z</time>
      </trkpt>
      <trkpt lat="42.86799" lon="0.25585">
        <ele>2068</ele>
        <time>2019-02-25T10:53:03Z</time>
      </trkpt>
      <trkpt lat="42.86803" lon="0.25592">
        <ele>2069</ele>
        <time>2019-02-25T10:53:13Z</time>
      </trkpt>
      <trkpt lat="42.86804" lon="0.25595">
        <ele>2070</ele>
        <time>2019-02-25T10:53:17Z</time>
      </trkpt>
      <trkpt lat="42.86805" lon="0.25597">
        <ele>2070</ele>
        <time>2019-02-25T10:53:20Z</time>
      </trkpt>
      <trkpt lat="42.86806" lon="0.256">
        <ele>2071</ele>
        <time>2019-02-25T10:53:34Z</time>
      </trkpt>
      <trkpt lat="42.86805" lon="0.25598">
        <ele>2072</ele>
        <time>2019-02-25T10:53:40Z</time>
      </trkpt>
      <trkpt lat="42.86811" lon="0.25598">
        <ele>2073</ele>
        <time>2019-02-25T10:53:58Z</time>
      </trkpt>
      <trkpt lat="42.86813" lon="0.25596">
        <ele>2075</ele>
        <time>2019-02-25T10:54:02Z</time>
      </trkpt>
      <trkpt lat="42.86814" lon="0.25593">
        <ele>2076</ele>
        <time>2019-02-25T10:54:05Z</time>
      </trkpt>
      <trkpt lat="42.8681" lon="0.25597">
        <ele>2076</ele>
        <time>2019-02-25T10:54:34Z</time>
      </trkpt>
      <trkpt lat="42.86813" lon="0.25584">
        <ele>2073</ele>
        <time>2019-02-25T10:55:29Z</time>
      </trkpt>
      <trkpt lat="42.8681" lon="0.25593">
        <ele>2075</ele>
        <time>2019-02-25T10:58:09Z</time>
      </trkpt>
      <trkpt lat="42.86813" lon="0.25589">
        <ele>2075</ele>
        <time>2019-02-25T11:00:18Z</time>
      </trkpt>
      <trkpt lat="42.86808" lon="0.25596">
        <ele>2075</ele>
        <time>2019-02-25T11:00:36Z</time>
      </trkpt>
      <trkpt lat="42.8681" lon="0.25596">
        <ele>2075</ele>
        <time>2019-02-25T11:01:13Z</time>
      </trkpt>
      <trkpt lat="42.86808" lon="0.25601">
        <ele>2076</ele>
        <time>2019-02-25T11:01:42Z</time>
      </trkpt>
      <trkpt lat="42.8681" lon="0.25592">
        <ele>2073</ele>
        <time>2019-02-25T11:02:01Z</time>
      </trkpt>
      <trkpt lat="42.86812" lon="0.25595">
        <ele>2075</ele>
        <time>2019-02-25T11:02:33Z</time>
      </trkpt>
      <trkpt lat="42.86811" lon="0.25598">
        <ele>2076</ele>
        <time>2019-02-25T11:02:41Z</time>
      </trkpt>
      <trkpt lat="42.86811" lon="0.25596">
        <ele>2077</ele>
        <time>2019-02-25T11:03:58Z</time>
      </trkpt>
      <trkpt lat="42.8682" lon="0.25594">
        <ele>2077</ele>
        <time>2019-02-25T11:12:58Z</time>
      </trkpt>
      <trkpt lat="42.86824" lon="0.25583">
        <ele>2077</ele>
        <time>2019-02-25T11:13:22Z</time>
      </trkpt>
      <trkpt lat="42.86831" lon="0.25574">
        <ele>2085</ele>
        <time>2019-02-25T11:13:47Z</time>
      </trkpt>
      <trkpt lat="42.8684" lon="0.25576">
        <ele>2087</ele>
        <time>2019-02-25T11:14:01Z</time>
      </trkpt>
      <trkpt lat="42.86849" lon="0.25575">
        <ele>2089</ele>
        <time>2019-02-25T11:14:22Z</time>
      </trkpt>
      <trkpt lat="42.86852" lon="0.25563">
        <ele>2093</ele>
        <time>2019-02-25T11:14:38Z</time>
      </trkpt>
      <trkpt lat="42.86854" lon="0.2555">
        <ele>2094</ele>
        <time>2019-02-25T11:14:57Z</time>
      </trkpt>
      <trkpt lat="42.86856" lon="0.25538">
        <ele>2097</ele>
        <time>2019-02-25T11:15:13Z</time>
      </trkpt>
      <trkpt lat="42.86863" lon="0.25528">
        <ele>2099</ele>
        <time>2019-02-25T11:15:29Z</time>
      </trkpt>
      <trkpt lat="42.86872" lon="0.25525">
        <ele>2102</ele>
        <time>2019-02-25T11:15:49Z</time>
      </trkpt>
      <trkpt lat="42.86877" lon="0.25514">
        <ele>2104</ele>
        <time>2019-02-25T11:16:06Z</time>
      </trkpt>
      <trkpt lat="42.8688" lon="0.25502">
        <ele>2106</ele>
        <time>2019-02-25T11:16:22Z</time>
      </trkpt>
      <trkpt lat="42.86887" lon="0.25493">
        <ele>2109</ele>
        <time>2019-02-25T11:16:41Z</time>
      </trkpt>
      <trkpt lat="42.86893" lon="0.25483">
        <ele>2113</ele>
        <time>2019-02-25T11:17:04Z</time>
      </trkpt>
      <trkpt lat="42.869" lon="0.25475">
        <ele>2114</ele>
        <time>2019-02-25T11:17:21Z</time>
      </trkpt>
      <trkpt lat="42.86909" lon="0.25476">
        <ele>2117</ele>
        <time>2019-02-25T11:17:42Z</time>
      </trkpt>
      <trkpt lat="42.86917" lon="0.2547">
        <ele>2120</ele>
        <time>2019-02-25T11:18:04Z</time>
      </trkpt>
      <trkpt lat="42.86921" lon="0.25459">
        <ele>2123</ele>
        <time>2019-02-25T11:18:18Z</time>
      </trkpt>
      <trkpt lat="42.86929" lon="0.25452">
        <ele>2125</ele>
        <time>2019-02-25T11:18:42Z</time>
      </trkpt>
      <trkpt lat="42.8693" lon="0.25451">
        <ele>2127</ele>
        <time>2019-02-25T11:18:49Z</time>
      </trkpt>
      <trkpt lat="42.86932" lon="0.25449">
        <ele>2128</ele>
        <time>2019-02-25T11:18:57Z</time>
      </trkpt>
      <trkpt lat="42.86932" lon="0.25447">
        <ele>2128</ele>
        <time>2019-02-25T11:19:02Z</time>
      </trkpt>
      <trkpt lat="42.86933" lon="0.25444">
        <ele>2129</ele>
        <time>2019-02-25T11:19:06Z</time>
      </trkpt>
      <trkpt lat="42.86933" lon="0.25441">
        <ele>2128</ele>
        <time>2019-02-25T11:19:09Z</time>
      </trkpt>
      <trkpt lat="42.86933" lon="0.25439">
        <ele>2130</ele>
        <time>2019-02-25T11:19:14Z</time>
      </trkpt>
      <trkpt lat="42.86932" lon="0.25436">
        <ele>2132</ele>
        <time>2019-02-25T11:19:19Z</time>
      </trkpt>
      <trkpt lat="42.86931" lon="0.25433">
        <ele>2132</ele>
        <time>2019-02-25T11:19:23Z</time>
      </trkpt>
      <trkpt lat="42.86931" lon="0.25431">
        <ele>2132</ele>
        <time>2019-02-25T11:19:27Z</time>
      </trkpt>
      <trkpt lat="42.86929" lon="0.25429">
        <ele>2132</ele>
        <time>2019-02-25T11:19:30Z</time>
      </trkpt>
      <trkpt lat="42.86929" lon="0.25426">
        <ele>2133</ele>
        <time>2019-02-25T11:19:33Z</time>
      </trkpt>
      <trkpt lat="42.86925" lon="0.25415">
        <ele>2136</ele>
        <time>2019-02-25T11:19:51Z</time>
      </trkpt>
      <trkpt lat="42.86933" lon="0.25409">
        <ele>2138</ele>
        <time>2019-02-25T11:20:09Z</time>
      </trkpt>
      <trkpt lat="42.86936" lon="0.25411">
        <ele>2140</ele>
        <time>2019-02-25T11:20:15Z</time>
      </trkpt>
      <trkpt lat="42.86939" lon="0.25411">
        <ele>2140</ele>
        <time>2019-02-25T11:20:18Z</time>
      </trkpt>
      <trkpt lat="42.86941" lon="0.25411">
        <ele>2140</ele>
        <time>2019-02-25T11:20:21Z</time>
      </trkpt>
      <trkpt lat="42.86943" lon="0.25409">
        <ele>2141</ele>
        <time>2019-02-25T11:20:25Z</time>
      </trkpt>
      <trkpt lat="42.86945" lon="0.25408">
        <ele>2142</ele>
        <time>2019-02-25T11:20:28Z</time>
      </trkpt>
      <trkpt lat="42.86947" lon="0.25407">
        <ele>2142</ele>
        <time>2019-02-25T11:20:31Z</time>
      </trkpt>
      <trkpt lat="42.86949" lon="0.25405">
        <ele>2143</ele>
        <time>2019-02-25T11:20:35Z</time>
      </trkpt>
      <trkpt lat="42.8695" lon="0.25402">
        <ele>2144</ele>
        <time>2019-02-25T11:20:40Z</time>
      </trkpt>
      <trkpt lat="42.8695" lon="0.254">
        <ele>2145</ele>
        <time>2019-02-25T11:20:44Z</time>
      </trkpt>
      <trkpt lat="42.8695" lon="0.25397">
        <ele>2145</ele>
        <time>2019-02-25T11:20:48Z</time>
      </trkpt>
      <trkpt lat="42.86951" lon="0.25395">
        <ele>2146</ele>
        <time>2019-02-25T11:20:56Z</time>
      </trkpt>
      <trkpt lat="42.86951" lon="0.25392">
        <ele>2146</ele>
        <time>2019-02-25T11:21:00Z</time>
      </trkpt>
      <trkpt lat="42.86952" lon="0.2539">
        <ele>2146</ele>
        <time>2019-02-25T11:21:03Z</time>
      </trkpt>
      <trkpt lat="42.86954" lon="0.2539">
        <ele>2146</ele>
        <time>2019-02-25T11:21:07Z</time>
      </trkpt>
      <trkpt lat="42.86957" lon="0.2539">
        <ele>2147</ele>
        <time>2019-02-25T11:21:11Z</time>
      </trkpt>
      <trkpt lat="42.86959" lon="0.2539">
        <ele>2148</ele>
        <time>2019-02-25T11:21:15Z</time>
      </trkpt>
      <trkpt lat="42.86961" lon="0.25389">
        <ele>2150</ele>
        <time>2019-02-25T11:21:19Z</time>
      </trkpt>
      <trkpt lat="42.86963" lon="0.25387">
        <ele>2151</ele>
        <time>2019-02-25T11:21:24Z</time>
      </trkpt>
      <trkpt lat="42.86964" lon="0.25384">
        <ele>2152</ele>
        <time>2019-02-25T11:21:29Z</time>
      </trkpt>
      <trkpt lat="42.86963" lon="0.25381">
        <ele>2152</ele>
        <time>2019-02-25T11:21:32Z</time>
      </trkpt>
      <trkpt lat="42.86962" lon="0.25378">
        <ele>2153</ele>
        <time>2019-02-25T11:21:35Z</time>
      </trkpt>
      <trkpt lat="42.86961" lon="0.25375">
        <ele>2153</ele>
        <time>2019-02-25T11:21:38Z</time>
      </trkpt>
      <trkpt lat="42.86961" lon="0.25373">
        <ele>2154</ele>
        <time>2019-02-25T11:21:42Z</time>
      </trkpt>
      <trkpt lat="42.8696" lon="0.2537">
        <ele>2155</ele>
        <time>2019-02-25T11:21:58Z</time>
      </trkpt>
      <trkpt lat="42.8696" lon="0.25367">
        <ele>2156</ele>
        <time>2019-02-25T11:22:16Z</time>
      </trkpt>
      <trkpt lat="42.86959" lon="0.25365">
        <ele>2157</ele>
        <time>2019-02-25T11:22:19Z</time>
      </trkpt>
      <trkpt lat="42.86959" lon="0.25362">
        <ele>2157</ele>
        <time>2019-02-25T11:22:22Z</time>
      </trkpt>
      <trkpt lat="42.86958" lon="0.2536">
        <ele>2158</ele>
        <time>2019-02-25T11:22:26Z</time>
      </trkpt>
      <trkpt lat="42.86957" lon="0.25357">
        <ele>2158</ele>
        <time>2019-02-25T11:22:30Z</time>
      </trkpt>
      <trkpt lat="42.86957" lon="0.25354">
        <ele>2158</ele>
        <time>2019-02-25T11:22:35Z</time>
      </trkpt>
      <trkpt lat="42.86957" lon="0.25351">
        <ele>2159</ele>
        <time>2019-02-25T11:22:39Z</time>
      </trkpt>
      <trkpt lat="42.86958" lon="0.2535">
        <ele>2161</ele>
        <time>2019-02-25T11:22:43Z</time>
      </trkpt>
      <trkpt lat="42.86961" lon="0.25348">
        <ele>2162</ele>
        <time>2019-02-25T11:22:51Z</time>
      </trkpt>
      <trkpt lat="42.86964" lon="0.25347">
        <ele>2162</ele>
        <time>2019-02-25T11:22:55Z</time>
      </trkpt>
      <trkpt lat="42.86966" lon="0.25346">
        <ele>2163</ele>
        <time>2019-02-25T11:22:58Z</time>
      </trkpt>
      <trkpt lat="42.86968" lon="0.25345">
        <ele>2163</ele>
        <time>2019-02-25T11:23:01Z</time>
      </trkpt>
      <trkpt lat="42.86975" lon="0.25345">
        <ele>2164</ele>
        <time>2019-02-25T11:23:13Z</time>
      </trkpt>
      <trkpt lat="42.86978" lon="0.25344">
        <ele>2164</ele>
        <time>2019-02-25T11:23:17Z</time>
      </trkpt>
      <trkpt lat="42.8698" lon="0.25344">
        <ele>2165</ele>
        <time>2019-02-25T11:23:21Z</time>
      </trkpt>
      <trkpt lat="42.86981" lon="0.25342">
        <ele>2166</ele>
        <time>2019-02-25T11:23:25Z</time>
      </trkpt>
      <trkpt lat="42.8698" lon="0.25338">
        <ele>2167</ele>
        <time>2019-02-25T11:23:30Z</time>
      </trkpt>
      <trkpt lat="42.86981" lon="0.25337">
        <ele>2168</ele>
        <time>2019-02-25T11:24:00Z</time>
      </trkpt>
      <trkpt lat="42.86974" lon="0.25334">
        <ele>2168</ele>
        <time>2019-02-25T11:25:02Z</time>
      </trkpt>
      <trkpt lat="42.86976" lon="0.25332">
        <ele>2168</ele>
        <time>2019-02-25T11:25:31Z</time>
      </trkpt>
      <trkpt lat="42.86974" lon="0.25333">
        <ele>2169</ele>
        <time>2019-02-25T11:25:55Z</time>
      </trkpt>
      <trkpt lat="42.86971" lon="0.25333">
        <ele>2169</ele>
        <time>2019-02-25T11:25:57Z</time>
      </trkpt>
      <trkpt lat="42.86973" lon="0.25332">
        <ele>2169</ele>
        <time>2019-02-25T11:26:10Z</time>
      </trkpt>
      <trkpt lat="42.86973" lon="0.25329">
        <ele>2168</ele>
        <time>2019-02-25T11:26:21Z</time>
      </trkpt>
      <trkpt lat="42.86975" lon="0.25331">
        <ele>2169</ele>
        <time>2019-02-25T11:26:55Z</time>
      </trkpt>
      <trkpt lat="42.86975" lon="0.25328">
        <ele>2169</ele>
        <time>2019-02-25T11:27:02Z</time>
      </trkpt>
      <trkpt lat="42.86976" lon="0.25326">
        <ele>2170</ele>
        <time>2019-02-25T11:27:06Z</time>
      </trkpt>
      <trkpt lat="42.86977" lon="0.25324">
        <ele>2170</ele>
        <time>2019-02-25T11:27:10Z</time>
      </trkpt>
      <trkpt lat="42.8698" lon="0.25325">
        <ele>2171</ele>
        <time>2019-02-25T11:29:03Z</time>
      </trkpt>
      <trkpt lat="42.86972" lon="0.25317">
        <ele>2171</ele>
        <time>2019-02-25T11:30:10Z</time>
      </trkpt>
      <trkpt lat="42.86976" lon="0.25319">
        <ele>2171</ele>
        <time>2019-02-25T11:30:41Z</time>
      </trkpt>
      <trkpt lat="42.86978" lon="0.2532">
        <ele>2170</ele>
        <time>2019-02-25T11:31:32Z</time>
      </trkpt>
      <trkpt lat="42.86978" lon="0.25322">
        <ele>2170</ele>
        <time>2019-02-25T11:31:50Z</time>
      </trkpt>
      <trkpt lat="42.8698" lon="0.25322">
        <ele>2171</ele>
        <time>2019-02-25T11:32:03Z</time>
      </trkpt>
      <trkpt lat="42.86982" lon="0.2532">
        <ele>2171</ele>
        <time>2019-02-25T11:32:09Z</time>
      </trkpt>
      <trkpt lat="42.86982" lon="0.25323">
        <ele>2171</ele>
        <time>2019-02-25T11:32:21Z</time>
      </trkpt>
      <trkpt lat="42.86979" lon="0.25323">
        <ele>2170</ele>
        <time>2019-02-25T11:33:01Z</time>
      </trkpt>
      <trkpt lat="42.8698" lon="0.25322">
        <ele>2171</ele>
        <time>2019-02-25T11:33:12Z</time>
      </trkpt>
      <trkpt lat="42.86979" lon="0.2532">
        <ele>2173</ele>
        <time>2019-02-25T11:34:04Z</time>
      </trkpt>
      <trkpt lat="42.86977" lon="0.2532">
        <ele>2174</ele>
        <time>2019-02-25T11:34:54Z</time>
      </trkpt>
      <trkpt lat="42.8698" lon="0.2532">
        <ele>2174</ele>
        <time>2019-02-25T11:35:01Z</time>
      </trkpt>
      <trkpt lat="42.86983" lon="0.25321">
        <ele>2174</ele>
        <time>2019-02-25T11:35:03Z</time>
      </trkpt>
      <trkpt lat="42.86987" lon="0.25322">
        <ele>2175</ele>
        <time>2019-02-25T11:35:07Z</time>
      </trkpt>
      <trkpt lat="42.86989" lon="0.25322">
        <ele>2176</ele>
        <time>2019-02-25T11:35:12Z</time>
      </trkpt>
      <trkpt lat="42.86991" lon="0.25322">
        <ele>2176</ele>
        <time>2019-02-25T11:35:15Z</time>
      </trkpt>
      <trkpt lat="42.86994" lon="0.25323">
        <ele>2176</ele>
        <time>2019-02-25T11:35:17Z</time>
      </trkpt>
      <trkpt lat="42.86996" lon="0.25323">
        <ele>2177</ele>
        <time>2019-02-25T11:35:20Z</time>
      </trkpt>
      <trkpt lat="42.86998" lon="0.25324">
        <ele>2178</ele>
        <time>2019-02-25T11:35:23Z</time>
      </trkpt>
      <trkpt lat="42.87" lon="0.25323">
        <ele>2178</ele>
        <time>2019-02-25T11:35:26Z</time>
      </trkpt>
      <trkpt lat="42.87002" lon="0.25317">
        <ele>2181</ele>
        <time>2019-02-25T11:38:29Z</time>
      </trkpt>
      <trkpt lat="42.87003" lon="0.25315">
        <ele>2182</ele>
        <time>2019-02-25T11:38:43Z</time>
      </trkpt>
      <trkpt lat="42.87005" lon="0.25314">
        <ele>2182</ele>
        <time>2019-02-25T11:38:47Z</time>
      </trkpt>
      <trkpt lat="42.87007" lon="0.25314">
        <ele>2182</ele>
        <time>2019-02-25T11:38:50Z</time>
      </trkpt>
      <trkpt lat="42.87011" lon="0.25313">
        <ele>2183</ele>
        <time>2019-02-25T11:38:55Z</time>
      </trkpt>
      <trkpt lat="42.87013" lon="0.25313">
        <ele>2184</ele>
        <time>2019-02-25T11:39:06Z</time>
      </trkpt>
      <trkpt lat="42.87015" lon="0.25313">
        <ele>2184</ele>
        <time>2019-02-25T11:39:10Z</time>
      </trkpt>
      <trkpt lat="42.87017" lon="0.25313">
        <ele>2184</ele>
        <time>2019-02-25T11:39:13Z</time>
      </trkpt>
      <trkpt lat="42.87019" lon="0.25314">
        <ele>2185</ele>
        <time>2019-02-25T11:39:16Z</time>
      </trkpt>
      <trkpt lat="42.87021" lon="0.25314">
        <ele>2185</ele>
        <time>2019-02-25T11:39:19Z</time>
      </trkpt>
      <trkpt lat="42.87023" lon="0.25313">
        <ele>2186</ele>
        <time>2019-02-25T11:39:21Z</time>
      </trkpt>
      <trkpt lat="42.87025" lon="0.25313">
        <ele>2186</ele>
        <time>2019-02-25T11:39:25Z</time>
      </trkpt>
      <trkpt lat="42.87029" lon="0.25313">
        <ele>2187</ele>
        <time>2019-02-25T11:39:33Z</time>
      </trkpt>
      <trkpt lat="42.87031" lon="0.25313">
        <ele>2188</ele>
        <time>2019-02-25T11:39:37Z</time>
      </trkpt>
      <trkpt lat="42.87033" lon="0.25313">
        <ele>2188</ele>
        <time>2019-02-25T11:39:40Z</time>
      </trkpt>
      <trkpt lat="42.87035" lon="0.25313">
        <ele>2190</ele>
        <time>2019-02-25T11:39:45Z</time>
      </trkpt>
      <trkpt lat="42.87037" lon="0.25314">
        <ele>2190</ele>
        <time>2019-02-25T11:39:48Z</time>
      </trkpt>
      <trkpt lat="42.87039" lon="0.25314">
        <ele>2191</ele>
        <time>2019-02-25T11:39:53Z</time>
      </trkpt>
      <trkpt lat="42.87041" lon="0.25315">
        <ele>2191</ele>
        <time>2019-02-25T11:39:58Z</time>
      </trkpt>
      <trkpt lat="42.87043" lon="0.25315">
        <ele>2192</ele>
        <time>2019-02-25T11:40:08Z</time>
      </trkpt>
      <trkpt lat="42.87045" lon="0.25315">
        <ele>2193</ele>
        <time>2019-02-25T11:40:13Z</time>
      </trkpt>
      <trkpt lat="42.87049" lon="0.25316">
        <ele>2194</ele>
        <time>2019-02-25T11:40:26Z</time>
      </trkpt>
      <trkpt lat="42.87051" lon="0.25316">
        <ele>2194</ele>
        <time>2019-02-25T11:40:30Z</time>
      </trkpt>
      <trkpt lat="42.87053" lon="0.25318">
        <ele>2194</ele>
        <time>2019-02-25T11:40:34Z</time>
      </trkpt>
      <trkpt lat="42.87055" lon="0.25319">
        <ele>2195</ele>
        <time>2019-02-25T11:40:45Z</time>
      </trkpt>
      <trkpt lat="42.87056" lon="0.25321">
        <ele>2196</ele>
        <time>2019-02-25T11:40:50Z</time>
      </trkpt>
      <trkpt lat="42.87058" lon="0.25322">
        <ele>2197</ele>
        <time>2019-02-25T11:40:54Z</time>
      </trkpt>
      <trkpt lat="42.8706" lon="0.25324">
        <ele>2198</ele>
        <time>2019-02-25T11:40:58Z</time>
      </trkpt>
      <trkpt lat="42.87061" lon="0.25326">
        <ele>2199</ele>
        <time>2019-02-25T11:41:02Z</time>
      </trkpt>
      <trkpt lat="42.87062" lon="0.25328">
        <ele>2199</ele>
        <time>2019-02-25T11:41:20Z</time>
      </trkpt>
      <trkpt lat="42.87063" lon="0.25331">
        <ele>2199</ele>
        <time>2019-02-25T11:41:24Z</time>
      </trkpt>
      <trkpt lat="42.87065" lon="0.25332">
        <ele>2200</ele>
        <time>2019-02-25T11:41:27Z</time>
      </trkpt>
      <trkpt lat="42.87065" lon="0.2533">
        <ele>2200</ele>
        <time>2019-02-25T11:41:33Z</time>
      </trkpt>
      <trkpt lat="42.87065" lon="0.25327">
        <ele>2200</ele>
        <time>2019-02-25T11:41:36Z</time>
      </trkpt>
      <trkpt lat="42.87066" lon="0.25325">
        <ele>2202</ele>
        <time>2019-02-25T11:41:39Z</time>
      </trkpt>
      <trkpt lat="42.87067" lon="0.25322">
        <ele>2202</ele>
        <time>2019-02-25T11:41:43Z</time>
      </trkpt>
      <trkpt lat="42.87067" lon="0.25319">
        <ele>2203</ele>
        <time>2019-02-25T11:41:49Z</time>
      </trkpt>
      <trkpt lat="42.87068" lon="0.25315">
        <ele>2204</ele>
        <time>2019-02-25T11:41:52Z</time>
      </trkpt>
      <trkpt lat="42.87069" lon="0.25313">
        <ele>2204</ele>
        <time>2019-02-25T11:41:55Z</time>
      </trkpt>
      <trkpt lat="42.87069" lon="0.2531">
        <ele>2205</ele>
        <time>2019-02-25T11:41:58Z</time>
      </trkpt>
      <trkpt lat="42.87069" lon="0.25307">
        <ele>2205</ele>
        <time>2019-02-25T11:42:02Z</time>
      </trkpt>
      <trkpt lat="42.8707" lon="0.25305">
        <ele>2205</ele>
        <time>2019-02-25T11:42:05Z</time>
      </trkpt>
      <trkpt lat="42.87071" lon="0.25302">
        <ele>2206</ele>
        <time>2019-02-25T11:42:08Z</time>
      </trkpt>
      <trkpt lat="42.87073" lon="0.253">
        <ele>2206</ele>
        <time>2019-02-25T11:42:12Z</time>
      </trkpt>
      <trkpt lat="42.87074" lon="0.25297">
        <ele>2207</ele>
        <time>2019-02-25T11:42:22Z</time>
      </trkpt>
      <trkpt lat="42.87075" lon="0.25294">
        <ele>2207</ele>
        <time>2019-02-25T11:42:26Z</time>
      </trkpt>
      <trkpt lat="42.87077" lon="0.25292">
        <ele>2207</ele>
        <time>2019-02-25T11:42:29Z</time>
      </trkpt>
      <trkpt lat="42.87077" lon="0.25289">
        <ele>2210</ele>
        <time>2019-02-25T11:42:33Z</time>
      </trkpt>
      <trkpt lat="42.87078" lon="0.25286">
        <ele>2210</ele>
        <time>2019-02-25T11:42:37Z</time>
      </trkpt>
      <trkpt lat="42.87079" lon="0.25284">
        <ele>2211</ele>
        <time>2019-02-25T11:42:43Z</time>
      </trkpt>
      <trkpt lat="42.87081" lon="0.25281">
        <ele>2211</ele>
        <time>2019-02-25T11:42:48Z</time>
      </trkpt>
      <trkpt lat="42.87082" lon="0.25279">
        <ele>2212</ele>
        <time>2019-02-25T11:42:51Z</time>
      </trkpt>
      <trkpt lat="42.87082" lon="0.25276">
        <ele>2212</ele>
        <time>2019-02-25T11:42:54Z</time>
      </trkpt>
      <trkpt lat="42.87082" lon="0.25274">
        <ele>2213</ele>
        <time>2019-02-25T11:42:57Z</time>
      </trkpt>
      <trkpt lat="42.87083" lon="0.25271">
        <ele>2213</ele>
        <time>2019-02-25T11:43:02Z</time>
      </trkpt>
      <trkpt lat="42.87084" lon="0.25268">
        <ele>2214</ele>
        <time>2019-02-25T11:43:05Z</time>
      </trkpt>
      <trkpt lat="42.87085" lon="0.25266">
        <ele>2214</ele>
        <time>2019-02-25T11:43:09Z</time>
      </trkpt>
      <trkpt lat="42.87085" lon="0.25263">
        <ele>2216</ele>
        <time>2019-02-25T11:43:13Z</time>
      </trkpt>
      <trkpt lat="42.87086" lon="0.2526">
        <ele>2217</ele>
        <time>2019-02-25T11:43:16Z</time>
      </trkpt>
      <trkpt lat="42.87086" lon="0.25257">
        <ele>2217</ele>
        <time>2019-02-25T11:43:20Z</time>
      </trkpt>
      <trkpt lat="42.87086" lon="0.25254">
        <ele>2217</ele>
        <time>2019-02-25T11:43:23Z</time>
      </trkpt>
      <trkpt lat="42.87087" lon="0.25251">
        <ele>2217</ele>
        <time>2019-02-25T11:43:27Z</time>
      </trkpt>
      <trkpt lat="42.87087" lon="0.25249">
        <ele>2218</ele>
        <time>2019-02-25T11:43:29Z</time>
      </trkpt>
      <trkpt lat="42.87088" lon="0.25246">
        <ele>2218</ele>
        <time>2019-02-25T11:43:33Z</time>
      </trkpt>
      <trkpt lat="42.87087" lon="0.25243">
        <ele>2219</ele>
        <time>2019-02-25T11:43:37Z</time>
      </trkpt>
      <trkpt lat="42.87087" lon="0.25241">
        <ele>2219</ele>
        <time>2019-02-25T11:43:42Z</time>
      </trkpt>
      <trkpt lat="42.87087" lon="0.25238">
        <ele>2220</ele>
        <time>2019-02-25T11:43:46Z</time>
      </trkpt>
      <trkpt lat="42.87086" lon="0.25236">
        <ele>2222</ele>
        <time>2019-02-25T11:43:54Z</time>
      </trkpt>
      <trkpt lat="42.87086" lon="0.25233">
        <ele>2221</ele>
        <time>2019-02-25T11:43:58Z</time>
      </trkpt>
      <trkpt lat="42.87086" lon="0.25231">
        <ele>2222</ele>
        <time>2019-02-25T11:44:01Z</time>
      </trkpt>
      <trkpt lat="42.87085" lon="0.25228">
        <ele>2222</ele>
        <time>2019-02-25T11:44:04Z</time>
      </trkpt>
      <trkpt lat="42.87083" lon="0.25226">
        <ele>2223</ele>
        <time>2019-02-25T11:44:10Z</time>
      </trkpt>
      <trkpt lat="42.87083" lon="0.25223">
        <ele>2224</ele>
        <time>2019-02-25T11:44:21Z</time>
      </trkpt>
      <trkpt lat="42.87082" lon="0.25221">
        <ele>2225</ele>
        <time>2019-02-25T11:44:27Z</time>
      </trkpt>
      <trkpt lat="42.87081" lon="0.25219">
        <ele>2226</ele>
        <time>2019-02-25T11:44:31Z</time>
      </trkpt>
      <trkpt lat="42.87083" lon="0.25217">
        <ele>2226</ele>
        <time>2019-02-25T11:44:34Z</time>
      </trkpt>
      <trkpt lat="42.87085" lon="0.25216">
        <ele>2227</ele>
        <time>2019-02-25T11:44:37Z</time>
      </trkpt>
      <trkpt lat="42.87087" lon="0.25216">
        <ele>2227</ele>
        <time>2019-02-25T11:44:42Z</time>
      </trkpt>
      <trkpt lat="42.87089" lon="0.25215">
        <ele>2228</ele>
        <time>2019-02-25T11:44:45Z</time>
      </trkpt>
      <trkpt lat="42.87091" lon="0.25214">
        <ele>2228</ele>
        <time>2019-02-25T11:44:48Z</time>
      </trkpt>
      <trkpt lat="42.87093" lon="0.25213">
        <ele>2228</ele>
        <time>2019-02-25T11:44:54Z</time>
      </trkpt>
      <trkpt lat="42.87095" lon="0.25213">
        <ele>2229</ele>
        <time>2019-02-25T11:44:58Z</time>
      </trkpt>
      <trkpt lat="42.87099" lon="0.25215">
        <ele>2230</ele>
        <time>2019-02-25T11:45:06Z</time>
      </trkpt>
      <trkpt lat="42.87101" lon="0.25216">
        <ele>2231</ele>
        <time>2019-02-25T11:45:11Z</time>
      </trkpt>
      <trkpt lat="42.87103" lon="0.25217">
        <ele>2231</ele>
        <time>2019-02-25T11:45:16Z</time>
      </trkpt>
      <trkpt lat="42.87105" lon="0.25219">
        <ele>2232</ele>
        <time>2019-02-25T11:45:29Z</time>
      </trkpt>
      <trkpt lat="42.87107" lon="0.25221">
        <ele>2233</ele>
        <time>2019-02-25T11:45:36Z</time>
      </trkpt>
      <trkpt lat="42.87108" lon="0.25222">
        <ele>2234</ele>
        <time>2019-02-25T11:45:45Z</time>
      </trkpt>
      <trkpt lat="42.8711" lon="0.25225">
        <ele>2234</ele>
        <time>2019-02-25T11:45:50Z</time>
      </trkpt>
      <trkpt lat="42.87109" lon="0.25222">
        <ele>2234</ele>
        <time>2019-02-25T11:46:04Z</time>
      </trkpt>
      <trkpt lat="42.87109" lon="0.25219">
        <ele>2234</ele>
        <time>2019-02-25T11:46:07Z</time>
      </trkpt>
      <trkpt lat="42.87109" lon="0.25213">
        <ele>2236</ele>
        <time>2019-02-25T11:46:14Z</time>
      </trkpt>
      <trkpt lat="42.87108" lon="0.2521">
        <ele>2237</ele>
        <time>2019-02-25T11:46:19Z</time>
      </trkpt>
      <trkpt lat="42.87108" lon="0.25204">
        <ele>2237</ele>
        <time>2019-02-25T11:46:27Z</time>
      </trkpt>
      <trkpt lat="42.87108" lon="0.25201">
        <ele>2237</ele>
        <time>2019-02-25T11:46:31Z</time>
      </trkpt>
      <trkpt lat="42.87108" lon="0.25198">
        <ele>2238</ele>
        <time>2019-02-25T11:46:34Z</time>
      </trkpt>
      <trkpt lat="42.87107" lon="0.25195">
        <ele>2238</ele>
        <time>2019-02-25T11:46:38Z</time>
      </trkpt>
      <trkpt lat="42.87107" lon="0.25193">
        <ele>2239</ele>
        <time>2019-02-25T11:46:42Z</time>
      </trkpt>
      <trkpt lat="42.87107" lon="0.2519">
        <ele>2239</ele>
        <time>2019-02-25T11:46:46Z</time>
      </trkpt>
      <trkpt lat="42.87107" lon="0.25186">
        <ele>2241</ele>
        <time>2019-02-25T11:46:50Z</time>
      </trkpt>
      <trkpt lat="42.87107" lon="0.25184">
        <ele>2241</ele>
        <time>2019-02-25T11:46:54Z</time>
      </trkpt>
      <trkpt lat="42.87107" lon="0.25181">
        <ele>2241</ele>
        <time>2019-02-25T11:47:00Z</time>
      </trkpt>
      <trkpt lat="42.87106" lon="0.25178">
        <ele>2242</ele>
        <time>2019-02-25T11:47:04Z</time>
      </trkpt>
      <trkpt lat="42.87107" lon="0.25176">
        <ele>2242</ele>
        <time>2019-02-25T11:47:08Z</time>
      </trkpt>
      <trkpt lat="42.87106" lon="0.25174">
        <ele>2243</ele>
        <time>2019-02-25T11:47:14Z</time>
      </trkpt>
      <trkpt lat="42.87105" lon="0.25171">
        <ele>2243</ele>
        <time>2019-02-25T11:47:18Z</time>
      </trkpt>
      <trkpt lat="42.87104" lon="0.25168">
        <ele>2246</ele>
        <time>2019-02-25T11:47:22Z</time>
      </trkpt>
      <trkpt lat="42.87104" lon="0.25166">
        <ele>2246</ele>
        <time>2019-02-25T11:47:26Z</time>
      </trkpt>
      <trkpt lat="42.87104" lon="0.25163">
        <ele>2246</ele>
        <time>2019-02-25T11:47:31Z</time>
      </trkpt>
      <trkpt lat="42.87103" lon="0.25161">
        <ele>2248</ele>
        <time>2019-02-25T11:47:40Z</time>
      </trkpt>
      <trkpt lat="42.87103" lon="0.25158">
        <ele>2248</ele>
        <time>2019-02-25T11:47:44Z</time>
      </trkpt>
      <trkpt lat="42.87105" lon="0.25157">
        <ele>2248</ele>
        <time>2019-02-25T11:47:46Z</time>
      </trkpt>
      <trkpt lat="42.87105" lon="0.25147">
        <ele>2249</ele>
        <time>2019-02-25T11:48:00Z</time>
      </trkpt>
      <trkpt lat="42.87105" lon="0.25146">
        <ele>2249</ele>
        <time>2019-02-25T11:48:01Z</time>
      </trkpt>
      <trkpt lat="42.87105" lon="0.25146">
        <ele>2250</ele>
        <time>2019-02-25T11:48:02Z</time>
      </trkpt>
      <trkpt lat="42.87105" lon="0.25146">
        <ele>2250</ele>
        <time>2019-02-25T11:48:03Z</time>
      </trkpt>
      <trkpt lat="42.87105" lon="0.25145">
        <ele>2250</ele>
        <time>2019-02-25T11:48:04Z</time>
      </trkpt>
      <trkpt lat="42.87105" lon="0.25145">
        <ele>2250</ele>
        <time>2019-02-25T11:48:05Z</time>
      </trkpt>
      <trkpt lat="42.87104" lon="0.25145">
        <ele>2250</ele>
        <time>2019-02-25T11:48:06Z</time>
      </trkpt>
      <trkpt lat="42.87104" lon="0.25144">
        <ele>2251</ele>
        <time>2019-02-25T11:48:07Z</time>
      </trkpt>
      <trkpt lat="42.87104" lon="0.25144">
        <ele>2251</ele>
        <time>2019-02-25T11:48:08Z</time>
      </trkpt>
      <trkpt lat="42.87104" lon="0.25143">
        <ele>2251</ele>
        <time>2019-02-25T11:48:09Z</time>
      </trkpt>
      <trkpt lat="42.87104" lon="0.25143">
        <ele>2251</ele>
        <time>2019-02-25T11:48:10Z</time>
      </trkpt>
      <trkpt lat="42.87104" lon="0.25143">
        <ele>2251</ele>
        <time>2019-02-25T11:48:11Z</time>
      </trkpt>
      <trkpt lat="42.87104" lon="0.25142">
        <ele>2251</ele>
        <time>2019-02-25T11:48:12Z</time>
      </trkpt>
      <trkpt lat="42.87103" lon="0.25142">
        <ele>2251</ele>
        <time>2019-02-25T11:48:13Z</time>
      </trkpt>
      <trkpt lat="42.87103" lon="0.25142">
        <ele>2251</ele>
        <time>2019-02-25T11:48:14Z</time>
      </trkpt>
      <trkpt lat="42.87103" lon="0.25141">
        <ele>2251</ele>
        <time>2019-02-25T11:48:15Z</time>
      </trkpt>
      <trkpt lat="42.87101" lon="0.25135">
        <ele>2251</ele>
        <time>2019-02-25T11:48:16Z</time>
      </trkpt>
      <trkpt lat="42.87098" lon="0.25132">
        <ele>2251</ele>
        <time>2019-02-25T11:48:19Z</time>
      </trkpt>
      <trkpt lat="42.87092" lon="0.25123">
        <ele>2253</ele>
        <time>2019-02-25T11:48:40Z</time>
      </trkpt>
      <trkpt lat="42.87087" lon="0.2511">
        <ele>2256</ele>
        <time>2019-02-25T11:49:02Z</time>
      </trkpt>
      <trkpt lat="42.87082" lon="0.25103">
        <ele>2258</ele>
        <time>2019-02-25T11:49:23Z</time>
      </trkpt>
      <trkpt lat="42.8708" lon="0.25102">
        <ele>2259</ele>
        <time>2019-02-25T11:49:26Z</time>
      </trkpt>
      <trkpt lat="42.87077" lon="0.251">
        <ele>2259</ele>
        <time>2019-02-25T11:49:38Z</time>
      </trkpt>
      <trkpt lat="42.87075" lon="0.251">
        <ele>2260</ele>
        <time>2019-02-25T11:49:48Z</time>
      </trkpt>
      <trkpt lat="42.87073" lon="0.25099">
        <ele>2260</ele>
        <time>2019-02-25T11:49:53Z</time>
      </trkpt>
      <trkpt lat="42.87081" lon="0.25093">
        <ele>2263</ele>
        <time>2019-02-25T11:50:17Z</time>
      </trkpt>
      <trkpt lat="42.87091" lon="0.25089">
        <ele>2265</ele>
        <time>2019-02-25T11:50:37Z</time>
      </trkpt>
      <trkpt lat="42.871" lon="0.25087">
        <ele>2268</ele>
        <time>2019-02-25T11:51:00Z</time>
      </trkpt>
      <trkpt lat="42.87109" lon="0.25088">
        <ele>2269</ele>
        <time>2019-02-25T11:51:14Z</time>
      </trkpt>
      <trkpt lat="42.87111" lon="0.25086">
        <ele>2271</ele>
        <time>2019-02-25T11:51:20Z</time>
      </trkpt>
      <trkpt lat="42.87116" lon="0.25088">
        <ele>2272</ele>
        <time>2019-02-25T11:51:28Z</time>
      </trkpt>
      <trkpt lat="42.87125" lon="0.25093">
        <ele>2274</ele>
        <time>2019-02-25T11:51:42Z</time>
      </trkpt>
      <trkpt lat="42.87127" lon="0.25093">
        <ele>2274</ele>
        <time>2019-02-25T11:51:44Z</time>
      </trkpt>
      <trkpt lat="42.87129" lon="0.25096">
        <ele>2274</ele>
        <time>2019-02-25T11:51:48Z</time>
      </trkpt>
      <trkpt lat="42.87137" lon="0.25101">
        <ele>2275</ele>
        <time>2019-02-25T11:52:04Z</time>
      </trkpt>
      <trkpt lat="42.87145" lon="0.25106">
        <ele>2278</ele>
        <time>2019-02-25T11:52:24Z</time>
      </trkpt>
      <trkpt lat="42.87153" lon="0.2511">
        <ele>2280</ele>
        <time>2019-02-25T11:52:36Z</time>
      </trkpt>
      <trkpt lat="42.87157" lon="0.25111">
        <ele>2280</ele>
        <time>2019-02-25T11:52:40Z</time>
      </trkpt>
      <trkpt lat="42.87159" lon="0.25111">
        <ele>2280</ele>
        <time>2019-02-25T11:52:42Z</time>
      </trkpt>
      <trkpt lat="42.87158" lon="0.25113">
        <ele>2282</ele>
        <time>2019-02-25T11:53:01Z</time>
      </trkpt>
      <trkpt lat="42.8716" lon="0.25114">
        <ele>2283</ele>
        <time>2019-02-25T11:53:06Z</time>
      </trkpt>
      <trkpt lat="42.87169" lon="0.25119">
        <ele>2284</ele>
        <time>2019-02-25T11:53:31Z</time>
      </trkpt>
      <trkpt lat="42.87171" lon="0.2512">
        <ele>2285</ele>
        <time>2019-02-25T11:53:33Z</time>
      </trkpt>
      <trkpt lat="42.87173" lon="0.25111">
        <ele>2288</ele>
        <time>2019-02-25T11:54:03Z</time>
      </trkpt>
      <trkpt lat="42.8717" lon="0.25099">
        <ele>2291</ele>
        <time>2019-02-25T11:54:19Z</time>
      </trkpt>
      <trkpt lat="42.87168" lon="0.25087">
        <ele>2292</ele>
        <time>2019-02-25T11:54:35Z</time>
      </trkpt>
      <trkpt lat="42.87163" lon="0.25076">
        <ele>2293</ele>
        <time>2019-02-25T11:54:50Z</time>
      </trkpt>
      <trkpt lat="42.87162" lon="0.25073">
        <ele>2295</ele>
        <time>2019-02-25T11:54:57Z</time>
      </trkpt>
      <trkpt lat="42.87162" lon="0.2507">
        <ele>2295</ele>
        <time>2019-02-25T11:55:03Z</time>
      </trkpt>
      <trkpt lat="42.8716" lon="0.25067">
        <ele>2297</ele>
        <time>2019-02-25T11:55:09Z</time>
      </trkpt>
      <trkpt lat="42.87158" lon="0.25064">
        <ele>2297</ele>
        <time>2019-02-25T11:55:14Z</time>
      </trkpt>
      <trkpt lat="42.87157" lon="0.25062">
        <ele>2298</ele>
        <time>2019-02-25T11:55:32Z</time>
      </trkpt>
      <trkpt lat="42.87156" lon="0.25059">
        <ele>2299</ele>
        <time>2019-02-25T11:55:36Z</time>
      </trkpt>
      <trkpt lat="42.87155" lon="0.25056">
        <ele>2300</ele>
        <time>2019-02-25T11:55:45Z</time>
      </trkpt>
      <trkpt lat="42.87154" lon="0.25054">
        <ele>2301</ele>
        <time>2019-02-25T11:55:49Z</time>
      </trkpt>
      <trkpt lat="42.87153" lon="0.2505">
        <ele>2302</ele>
        <time>2019-02-25T11:56:06Z</time>
      </trkpt>
      <trkpt lat="42.87151" lon="0.25048">
        <ele>2303</ele>
        <time>2019-02-25T11:56:09Z</time>
      </trkpt>
      <trkpt lat="42.87149" lon="0.25047">
        <ele>2303</ele>
        <time>2019-02-25T11:56:12Z</time>
      </trkpt>
      <trkpt lat="42.87148" lon="0.25045">
        <ele>2304</ele>
        <time>2019-02-25T11:56:16Z</time>
      </trkpt>
      <trkpt lat="42.87147" lon="0.25042">
        <ele>2304</ele>
        <time>2019-02-25T11:56:26Z</time>
      </trkpt>
      <trkpt lat="42.87146" lon="0.25039">
        <ele>2305</ele>
        <time>2019-02-25T11:56:41Z</time>
      </trkpt>
      <trkpt lat="42.87142" lon="0.25037">
        <ele>2305</ele>
        <time>2019-02-25T11:56:43Z</time>
      </trkpt>
      <trkpt lat="42.8714" lon="0.25036">
        <ele>2305</ele>
        <time>2019-02-25T11:56:45Z</time>
      </trkpt>
      <trkpt lat="42.87139" lon="0.25033">
        <ele>2306</ele>
        <time>2019-02-25T11:56:52Z</time>
      </trkpt>
      <trkpt lat="42.87138" lon="0.25031">
        <ele>2307</ele>
        <time>2019-02-25T11:56:58Z</time>
      </trkpt>
      <trkpt lat="42.87137" lon="0.25029">
        <ele>2307</ele>
        <time>2019-02-25T11:57:05Z</time>
      </trkpt>
      <trkpt lat="42.87142" lon="0.25029">
        <ele>2309</ele>
        <time>2019-02-25T11:57:24Z</time>
      </trkpt>
      <trkpt lat="42.87143" lon="0.2503">
        <ele>2309</ele>
        <time>2019-02-25T11:57:26Z</time>
      </trkpt>
      <trkpt lat="42.87145" lon="0.25031">
        <ele>2309</ele>
        <time>2019-02-25T11:57:29Z</time>
      </trkpt>
      <trkpt lat="42.87148" lon="0.25031">
        <ele>2309</ele>
        <time>2019-02-25T11:57:32Z</time>
      </trkpt>
      <trkpt lat="42.87151" lon="0.25032">
        <ele>2310</ele>
        <time>2019-02-25T11:57:35Z</time>
      </trkpt>
      <trkpt lat="42.87153" lon="0.25033">
        <ele>2310</ele>
        <time>2019-02-25T11:57:38Z</time>
      </trkpt>
      <trkpt lat="42.87155" lon="0.25033">
        <ele>2310</ele>
        <time>2019-02-25T11:57:43Z</time>
      </trkpt>
      <trkpt lat="42.87157" lon="0.25033">
        <ele>2310</ele>
        <time>2019-02-25T11:57:45Z</time>
      </trkpt>
      <trkpt lat="42.8716" lon="0.25033">
        <ele>2310</ele>
        <time>2019-02-25T11:57:47Z</time>
      </trkpt>
      <trkpt lat="42.87162" lon="0.25034">
        <ele>2311</ele>
        <time>2019-02-25T11:57:49Z</time>
      </trkpt>
      <trkpt lat="42.87164" lon="0.25034">
        <ele>2311</ele>
        <time>2019-02-25T11:57:52Z</time>
      </trkpt>
      <trkpt lat="42.87167" lon="0.25035">
        <ele>2311</ele>
        <time>2019-02-25T11:57:56Z</time>
      </trkpt>
      <trkpt lat="42.8717" lon="0.25037">
        <ele>2312</ele>
        <time>2019-02-25T11:58:02Z</time>
      </trkpt>
      <trkpt lat="42.87172" lon="0.25037">
        <ele>2312</ele>
        <time>2019-02-25T11:58:09Z</time>
      </trkpt>
      <trkpt lat="42.87174" lon="0.25037">
        <ele>2313</ele>
        <time>2019-02-25T11:58:12Z</time>
      </trkpt>
      <trkpt lat="42.87177" lon="0.25038">
        <ele>2313</ele>
        <time>2019-02-25T11:58:15Z</time>
      </trkpt>
      <trkpt lat="42.87179" lon="0.25037">
        <ele>2313</ele>
        <time>2019-02-25T11:58:19Z</time>
      </trkpt>
      <trkpt lat="42.87184" lon="0.25037">
        <ele>2315</ele>
        <time>2019-02-25T11:58:23Z</time>
      </trkpt>
      <trkpt lat="42.87185" lon="0.25038">
        <ele>2315</ele>
        <time>2019-02-25T11:58:26Z</time>
      </trkpt>
      <trkpt lat="42.87187" lon="0.25038">
        <ele>2315</ele>
        <time>2019-02-25T11:58:30Z</time>
      </trkpt>
      <trkpt lat="42.8719" lon="0.25037">
        <ele>2315</ele>
        <time>2019-02-25T11:58:34Z</time>
      </trkpt>
      <trkpt lat="42.87192" lon="0.25037">
        <ele>2316</ele>
        <time>2019-02-25T11:58:38Z</time>
      </trkpt>
      <trkpt lat="42.87194" lon="0.25037">
        <ele>2316</ele>
        <time>2019-02-25T11:58:41Z</time>
      </trkpt>
      <trkpt lat="42.87195" lon="0.25037">
        <ele>2317</ele>
        <time>2019-02-25T11:58:44Z</time>
      </trkpt>
      <trkpt lat="42.87197" lon="0.25038">
        <ele>2317</ele>
        <time>2019-02-25T11:58:47Z</time>
      </trkpt>
      <trkpt lat="42.872" lon="0.25038">
        <ele>2317</ele>
        <time>2019-02-25T11:58:51Z</time>
      </trkpt>
      <trkpt lat="42.87202" lon="0.25039">
        <ele>2318</ele>
        <time>2019-02-25T11:58:54Z</time>
      </trkpt>
      <trkpt lat="42.87204" lon="0.25039">
        <ele>2318</ele>
        <time>2019-02-25T11:58:58Z</time>
      </trkpt>
      <trkpt lat="42.87206" lon="0.2504">
        <ele>2319</ele>
        <time>2019-02-25T11:59:02Z</time>
      </trkpt>
      <trkpt lat="42.87207" lon="0.25041">
        <ele>2319</ele>
        <time>2019-02-25T11:59:05Z</time>
      </trkpt>
      <trkpt lat="42.87212" lon="0.25043">
        <ele>2320</ele>
        <time>2019-02-25T11:59:11Z</time>
      </trkpt>
      <trkpt lat="42.87214" lon="0.25043">
        <ele>2320</ele>
        <time>2019-02-25T11:59:14Z</time>
      </trkpt>
      <trkpt lat="42.87216" lon="0.25043">
        <ele>2321</ele>
        <time>2019-02-25T11:59:17Z</time>
      </trkpt>
      <trkpt lat="42.87218" lon="0.25044">
        <ele>2321</ele>
        <time>2019-02-25T11:59:20Z</time>
      </trkpt>
      <trkpt lat="42.8722" lon="0.25045">
        <ele>2321</ele>
        <time>2019-02-25T11:59:24Z</time>
      </trkpt>
      <trkpt lat="42.87222" lon="0.25045">
        <ele>2324</ele>
        <time>2019-02-25T11:59:32Z</time>
      </trkpt>
      <trkpt lat="42.87223" lon="0.25043">
        <ele>2325</ele>
        <time>2019-02-25T11:59:37Z</time>
      </trkpt>
      <trkpt lat="42.87224" lon="0.2504">
        <ele>2326</ele>
        <time>2019-02-25T11:59:41Z</time>
      </trkpt>
      <trkpt lat="42.87224" lon="0.25037">
        <ele>2326</ele>
        <time>2019-02-25T11:59:44Z</time>
      </trkpt>
      <trkpt lat="42.87221" lon="0.25032">
        <ele>2327</ele>
        <time>2019-02-25T11:59:51Z</time>
      </trkpt>
      <trkpt lat="42.87219" lon="0.2503">
        <ele>2328</ele>
        <time>2019-02-25T11:59:54Z</time>
      </trkpt>
      <trkpt lat="42.87219" lon="0.25024">
        <ele>2328</ele>
        <time>2019-02-25T12:00:02Z</time>
      </trkpt>
      <trkpt lat="42.87219" lon="0.25021">
        <ele>2329</ele>
        <time>2019-02-25T12:00:06Z</time>
      </trkpt>
      <trkpt lat="42.87218" lon="0.25017">
        <ele>2330</ele>
        <time>2019-02-25T12:00:10Z</time>
      </trkpt>
      <trkpt lat="42.87218" lon="0.25015">
        <ele>2331</ele>
        <time>2019-02-25T12:00:14Z</time>
      </trkpt>
      <trkpt lat="42.87217" lon="0.25013">
        <ele>2332</ele>
        <time>2019-02-25T12:00:18Z</time>
      </trkpt>
      <trkpt lat="42.87216" lon="0.2501">
        <ele>2332</ele>
        <time>2019-02-25T12:00:22Z</time>
      </trkpt>
      <trkpt lat="42.87212" lon="0.25003">
        <ele>2334</ele>
        <time>2019-02-25T12:00:33Z</time>
      </trkpt>
      <trkpt lat="42.87211" lon="0.24999">
        <ele>2334</ele>
        <time>2019-02-25T12:00:37Z</time>
      </trkpt>
      <trkpt lat="42.87208" lon="0.24995">
        <ele>2335</ele>
        <time>2019-02-25T12:00:45Z</time>
      </trkpt>
      <trkpt lat="42.87207" lon="0.24993">
        <ele>2336</ele>
        <time>2019-02-25T12:00:48Z</time>
      </trkpt>
      <trkpt lat="42.87205" lon="0.24991">
        <ele>2337</ele>
        <time>2019-02-25T12:00:53Z</time>
      </trkpt>
      <trkpt lat="42.87206" lon="0.24988">
        <ele>2337</ele>
        <time>2019-02-25T12:01:01Z</time>
      </trkpt>
      <trkpt lat="42.8721" lon="0.24988">
        <ele>2337</ele>
        <time>2019-02-25T12:01:08Z</time>
      </trkpt>
      <trkpt lat="42.87212" lon="0.24988">
        <ele>2338</ele>
        <time>2019-02-25T12:01:13Z</time>
      </trkpt>
      <trkpt lat="42.87214" lon="0.24988">
        <ele>2338</ele>
        <time>2019-02-25T12:01:15Z</time>
      </trkpt>
      <trkpt lat="42.87218" lon="0.2499">
        <ele>2338</ele>
        <time>2019-02-25T12:01:19Z</time>
      </trkpt>
      <trkpt lat="42.8722" lon="0.2499">
        <ele>2339</ele>
        <time>2019-02-25T12:01:22Z</time>
      </trkpt>
      <trkpt lat="42.87222" lon="0.24991">
        <ele>2339</ele>
        <time>2019-02-25T12:01:25Z</time>
      </trkpt>
      <trkpt lat="42.8723" lon="0.24993">
        <ele>2340</ele>
        <time>2019-02-25T12:01:35Z</time>
      </trkpt>
      <trkpt lat="42.87238" lon="0.24994">
        <ele>2342</ele>
        <time>2019-02-25T12:01:49Z</time>
      </trkpt>
      <trkpt lat="42.8724" lon="0.24997">
        <ele>2344</ele>
        <time>2019-02-25T12:01:54Z</time>
      </trkpt>
      <trkpt lat="42.87243" lon="0.24996">
        <ele>2344</ele>
        <time>2019-02-25T12:01:57Z</time>
      </trkpt>
      <trkpt lat="42.87246" lon="0.24997">
        <ele>2344</ele>
        <time>2019-02-25T12:02:02Z</time>
      </trkpt>
      <trkpt lat="42.87249" lon="0.24997">
        <ele>2344</ele>
        <time>2019-02-25T12:02:06Z</time>
      </trkpt>
      <trkpt lat="42.8725" lon="0.24998">
        <ele>2345</ele>
        <time>2019-02-25T12:02:11Z</time>
      </trkpt>
      <trkpt lat="42.87252" lon="0.24999">
        <ele>2346</ele>
        <time>2019-02-25T12:02:15Z</time>
      </trkpt>
      <trkpt lat="42.87254" lon="0.24999">
        <ele>2347</ele>
        <time>2019-02-25T12:02:20Z</time>
      </trkpt>
      <trkpt lat="42.87256" lon="0.25">
        <ele>2347</ele>
        <time>2019-02-25T12:02:23Z</time>
      </trkpt>
      <trkpt lat="42.87259" lon="0.25001">
        <ele>2349</ele>
        <time>2019-02-25T12:02:27Z</time>
      </trkpt>
      <trkpt lat="42.87261" lon="0.25002">
        <ele>2349</ele>
        <time>2019-02-25T12:02:30Z</time>
      </trkpt>
      <trkpt lat="42.87265" lon="0.25004">
        <ele>2350</ele>
        <time>2019-02-25T12:02:38Z</time>
      </trkpt>
      <trkpt lat="42.87267" lon="0.25005">
        <ele>2351</ele>
        <time>2019-02-25T12:02:42Z</time>
      </trkpt>
      <trkpt lat="42.87269" lon="0.25004">
        <ele>2352</ele>
        <time>2019-02-25T12:02:47Z</time>
      </trkpt>
      <trkpt lat="42.87269" lon="0.25002">
        <ele>2352</ele>
        <time>2019-02-25T12:02:52Z</time>
      </trkpt>
      <trkpt lat="42.87269" lon="0.24999">
        <ele>2352</ele>
        <time>2019-02-25T12:02:56Z</time>
      </trkpt>
      <trkpt lat="42.87268" lon="0.24995">
        <ele>2353</ele>
        <time>2019-02-25T12:03:01Z</time>
      </trkpt>
      <trkpt lat="42.87267" lon="0.24992">
        <ele>2354</ele>
        <time>2019-02-25T12:03:05Z</time>
      </trkpt>
      <trkpt lat="42.87264" lon="0.24981">
        <ele>2356</ele>
        <time>2019-02-25T12:03:18Z</time>
      </trkpt>
      <trkpt lat="42.87259" lon="0.2497">
        <ele>2358</ele>
        <time>2019-02-25T12:03:30Z</time>
      </trkpt>
      <trkpt lat="42.87258" lon="0.24968">
        <ele>2358</ele>
        <time>2019-02-25T12:03:33Z</time>
      </trkpt>
      <trkpt lat="42.87257" lon="0.24965">
        <ele>2358</ele>
        <time>2019-02-25T12:03:36Z</time>
      </trkpt>
      <trkpt lat="42.87256" lon="0.24962">
        <ele>2358</ele>
        <time>2019-02-25T12:03:39Z</time>
      </trkpt>
      <trkpt lat="42.87254" lon="0.2496">
        <ele>2359</ele>
        <time>2019-02-25T12:03:42Z</time>
      </trkpt>
      <trkpt lat="42.87253" lon="0.24958">
        <ele>2359</ele>
        <time>2019-02-25T12:03:46Z</time>
      </trkpt>
      <trkpt lat="42.87252" lon="0.24955">
        <ele>2360</ele>
        <time>2019-02-25T12:03:49Z</time>
      </trkpt>
      <trkpt lat="42.8725" lon="0.24953">
        <ele>2360</ele>
        <time>2019-02-25T12:03:52Z</time>
      </trkpt>
      <trkpt lat="42.87249" lon="0.24951">
        <ele>2361</ele>
        <time>2019-02-25T12:03:55Z</time>
      </trkpt>
      <trkpt lat="42.87248" lon="0.24949">
        <ele>2362</ele>
        <time>2019-02-25T12:03:58Z</time>
      </trkpt>
      <trkpt lat="42.87247" lon="0.24946">
        <ele>2362</ele>
        <time>2019-02-25T12:04:01Z</time>
      </trkpt>
      <trkpt lat="42.87246" lon="0.24944">
        <ele>2362</ele>
        <time>2019-02-25T12:04:04Z</time>
      </trkpt>
      <trkpt lat="42.87245" lon="0.24941">
        <ele>2363</ele>
        <time>2019-02-25T12:04:08Z</time>
      </trkpt>
      <trkpt lat="42.87244" lon="0.24939">
        <ele>2363</ele>
        <time>2019-02-25T12:04:11Z</time>
      </trkpt>
      <trkpt lat="42.87242" lon="0.24936">
        <ele>2365</ele>
        <time>2019-02-25T12:04:14Z</time>
      </trkpt>
      <trkpt lat="42.87241" lon="0.24933">
        <ele>2366</ele>
        <time>2019-02-25T12:04:18Z</time>
      </trkpt>
      <trkpt lat="42.8724" lon="0.24931">
        <ele>2366</ele>
        <time>2019-02-25T12:04:23Z</time>
      </trkpt>
      <trkpt lat="42.87239" lon="0.24929">
        <ele>2367</ele>
        <time>2019-02-25T12:04:27Z</time>
      </trkpt>
      <trkpt lat="42.87243" lon="0.2493">
        <ele>2367</ele>
        <time>2019-02-25T12:04:36Z</time>
      </trkpt>
      <trkpt lat="42.87245" lon="0.24931">
        <ele>2368</ele>
        <time>2019-02-25T12:04:40Z</time>
      </trkpt>
      <trkpt lat="42.87248" lon="0.24933">
        <ele>2368</ele>
        <time>2019-02-25T12:04:44Z</time>
      </trkpt>
      <trkpt lat="42.8725" lon="0.24933">
        <ele>2369</ele>
        <time>2019-02-25T12:04:47Z</time>
      </trkpt>
      <trkpt lat="42.87252" lon="0.24934">
        <ele>2369</ele>
        <time>2019-02-25T12:04:50Z</time>
      </trkpt>
      <trkpt lat="42.87255" lon="0.24935">
        <ele>2369</ele>
        <time>2019-02-25T12:04:53Z</time>
      </trkpt>
      <trkpt lat="42.87257" lon="0.24935">
        <ele>2369</ele>
        <time>2019-02-25T12:04:56Z</time>
      </trkpt>
      <trkpt lat="42.87259" lon="0.24936">
        <ele>2370</ele>
        <time>2019-02-25T12:04:59Z</time>
      </trkpt>
      <trkpt lat="42.87261" lon="0.24937">
        <ele>2371</ele>
        <time>2019-02-25T12:05:06Z</time>
      </trkpt>
      <trkpt lat="42.87263" lon="0.24938">
        <ele>2372</ele>
        <time>2019-02-25T12:05:09Z</time>
      </trkpt>
      <trkpt lat="42.87266" lon="0.24939">
        <ele>2372</ele>
        <time>2019-02-25T12:05:14Z</time>
      </trkpt>
      <trkpt lat="42.87275" lon="0.24943">
        <ele>2374</ele>
        <time>2019-02-25T12:05:29Z</time>
      </trkpt>
      <trkpt lat="42.87284" lon="0.24947">
        <ele>2377</ele>
        <time>2019-02-25T12:05:44Z</time>
      </trkpt>
      <trkpt lat="42.87293" lon="0.24951">
        <ele>2378</ele>
        <time>2019-02-25T12:05:56Z</time>
      </trkpt>
      <trkpt lat="42.87293" lon="0.24955">
        <ele>2380</ele>
        <time>2019-02-25T12:06:11Z</time>
      </trkpt>
      <trkpt lat="42.87292" lon="0.24952">
        <ele>2380</ele>
        <time>2019-02-25T12:06:17Z</time>
      </trkpt>
      <trkpt lat="42.87292" lon="0.24949">
        <ele>2380</ele>
        <time>2019-02-25T12:06:20Z</time>
      </trkpt>
      <trkpt lat="42.87291" lon="0.24946">
        <ele>2381</ele>
        <time>2019-02-25T12:06:23Z</time>
      </trkpt>
      <trkpt lat="42.8729" lon="0.24943">
        <ele>2382</ele>
        <time>2019-02-25T12:06:27Z</time>
      </trkpt>
      <trkpt lat="42.8729" lon="0.24941">
        <ele>2382</ele>
        <time>2019-02-25T12:06:30Z</time>
      </trkpt>
      <trkpt lat="42.87289" lon="0.24939">
        <ele>2382</ele>
        <time>2019-02-25T12:06:33Z</time>
      </trkpt>
      <trkpt lat="42.87288" lon="0.24936">
        <ele>2383</ele>
        <time>2019-02-25T12:06:37Z</time>
      </trkpt>
      <trkpt lat="42.87282" lon="0.24925">
        <ele>2385</ele>
        <time>2019-02-25T12:06:51Z</time>
      </trkpt>
      <trkpt lat="42.87276" lon="0.24916">
        <ele>2386</ele>
        <time>2019-02-25T12:06:59Z</time>
      </trkpt>
      <trkpt lat="42.87272" lon="0.24905">
        <ele>2388</ele>
        <time>2019-02-25T12:07:15Z</time>
      </trkpt>
      <trkpt lat="42.87271" lon="0.24902">
        <ele>2388</ele>
        <time>2019-02-25T12:07:19Z</time>
      </trkpt>
      <trkpt lat="42.8727" lon="0.24899">
        <ele>2389</ele>
        <time>2019-02-25T12:07:23Z</time>
      </trkpt>
      <trkpt lat="42.87272" lon="0.249">
        <ele>2390</ele>
        <time>2019-02-25T12:07:37Z</time>
      </trkpt>
      <trkpt lat="42.87274" lon="0.24901">
        <ele>2390</ele>
        <time>2019-02-25T12:07:40Z</time>
      </trkpt>
      <trkpt lat="42.87277" lon="0.24902">
        <ele>2390</ele>
        <time>2019-02-25T12:07:43Z</time>
      </trkpt>
      <trkpt lat="42.87279" lon="0.24903">
        <ele>2391</ele>
        <time>2019-02-25T12:07:49Z</time>
      </trkpt>
      <trkpt lat="42.8728" lon="0.24904">
        <ele>2391</ele>
        <time>2019-02-25T12:07:51Z</time>
      </trkpt>
      <trkpt lat="42.87283" lon="0.24905">
        <ele>2391</ele>
        <time>2019-02-25T12:07:54Z</time>
      </trkpt>
      <trkpt lat="42.87286" lon="0.24906">
        <ele>2392</ele>
        <time>2019-02-25T12:07:59Z</time>
      </trkpt>
      <trkpt lat="42.87288" lon="0.24906">
        <ele>2393</ele>
        <time>2019-02-25T12:08:08Z</time>
      </trkpt>
      <trkpt lat="42.87297" lon="0.24911">
        <ele>2395</ele>
        <time>2019-02-25T12:08:25Z</time>
      </trkpt>
      <trkpt lat="42.87306" lon="0.24915">
        <ele>2396</ele>
        <time>2019-02-25T12:08:35Z</time>
      </trkpt>
      <trkpt lat="42.87314" lon="0.24919">
        <ele>2398</ele>
        <time>2019-02-25T12:08:45Z</time>
      </trkpt>
      <trkpt lat="42.87323" lon="0.24922">
        <ele>2400</ele>
        <time>2019-02-25T12:08:59Z</time>
      </trkpt>
      <trkpt lat="42.87321" lon="0.2491">
        <ele>2403</ele>
        <time>2019-02-25T12:09:20Z</time>
      </trkpt>
      <trkpt lat="42.87317" lon="0.24899">
        <ele>2405</ele>
        <time>2019-02-25T12:09:39Z</time>
      </trkpt>
      <trkpt lat="42.87313" lon="0.24887">
        <ele>2407</ele>
        <time>2019-02-25T12:09:53Z</time>
      </trkpt>
      <trkpt lat="42.87309" lon="0.24876">
        <ele>2409</ele>
        <time>2019-02-25T12:10:05Z</time>
      </trkpt>
      <trkpt lat="42.87307" lon="0.24873">
        <ele>2409</ele>
        <time>2019-02-25T12:10:08Z</time>
      </trkpt>
      <trkpt lat="42.87306" lon="0.24871">
        <ele>2410</ele>
        <time>2019-02-25T12:10:12Z</time>
      </trkpt>
      <trkpt lat="42.87305" lon="0.24868">
        <ele>2410</ele>
        <time>2019-02-25T12:10:15Z</time>
      </trkpt>
      <trkpt lat="42.87304" lon="0.24866">
        <ele>2410</ele>
        <time>2019-02-25T12:10:18Z</time>
      </trkpt>
      <trkpt lat="42.87303" lon="0.24863">
        <ele>2411</ele>
        <time>2019-02-25T12:10:21Z</time>
      </trkpt>
      <trkpt lat="42.87302" lon="0.2486">
        <ele>2412</ele>
        <time>2019-02-25T12:10:26Z</time>
      </trkpt>
      <trkpt lat="42.87302" lon="0.24858">
        <ele>2413</ele>
        <time>2019-02-25T12:10:30Z</time>
      </trkpt>
      <trkpt lat="42.87301" lon="0.24855">
        <ele>2413</ele>
        <time>2019-02-25T12:10:34Z</time>
      </trkpt>
      <trkpt lat="42.87302" lon="0.24855">
        <ele>2414</ele>
        <time>2019-02-25T12:10:45Z</time>
      </trkpt>
      <trkpt lat="42.87304" lon="0.24855">
        <ele>2414</ele>
        <time>2019-02-25T12:10:48Z</time>
      </trkpt>
      <trkpt lat="42.87307" lon="0.24856">
        <ele>2414</ele>
        <time>2019-02-25T12:10:53Z</time>
      </trkpt>
      <trkpt lat="42.8731" lon="0.24857">
        <ele>2415</ele>
        <time>2019-02-25T12:10:56Z</time>
      </trkpt>
      <trkpt lat="42.87312" lon="0.24858">
        <ele>2416</ele>
        <time>2019-02-25T12:11:00Z</time>
      </trkpt>
      <trkpt lat="42.87313" lon="0.24861">
        <ele>2416</ele>
        <time>2019-02-25T12:11:19Z</time>
      </trkpt>
      <trkpt lat="42.87315" lon="0.24862">
        <ele>2416</ele>
        <time>2019-02-25T12:11:22Z</time>
      </trkpt>
      <trkpt lat="42.87318" lon="0.24862">
        <ele>2418</ele>
        <time>2019-02-25T12:11:36Z</time>
      </trkpt>
      <trkpt lat="42.87327" lon="0.24867">
        <ele>2419</ele>
        <time>2019-02-25T12:11:58Z</time>
      </trkpt>
      <trkpt lat="42.87336" lon="0.24871">
        <ele>2421</ele>
        <time>2019-02-25T12:12:09Z</time>
      </trkpt>
      <trkpt lat="42.87338" lon="0.24872">
        <ele>2422</ele>
        <time>2019-02-25T12:12:12Z</time>
      </trkpt>
      <trkpt lat="42.87339" lon="0.24873">
        <ele>2422</ele>
        <time>2019-02-25T12:12:15Z</time>
      </trkpt>
      <trkpt lat="42.87341" lon="0.24875">
        <ele>2422</ele>
        <time>2019-02-25T12:12:18Z</time>
      </trkpt>
      <trkpt lat="42.87344" lon="0.24876">
        <ele>2423</ele>
        <time>2019-02-25T12:12:33Z</time>
      </trkpt>
      <trkpt lat="42.8735" lon="0.24878">
        <ele>2424</ele>
        <time>2019-02-25T12:12:43Z</time>
      </trkpt>
      <trkpt lat="42.87351" lon="0.24879">
        <ele>2426</ele>
        <time>2019-02-25T12:12:51Z</time>
      </trkpt>
      <trkpt lat="42.87354" lon="0.2488">
        <ele>2426</ele>
        <time>2019-02-25T12:12:54Z</time>
      </trkpt>
      <trkpt lat="42.87355" lon="0.24881">
        <ele>2427</ele>
        <time>2019-02-25T12:12:57Z</time>
      </trkpt>
      <trkpt lat="42.87358" lon="0.24882">
        <ele>2427</ele>
        <time>2019-02-25T12:13:00Z</time>
      </trkpt>
      <trkpt lat="42.8736" lon="0.24883">
        <ele>2427</ele>
        <time>2019-02-25T12:13:04Z</time>
      </trkpt>
      <trkpt lat="42.87362" lon="0.24884">
        <ele>2427</ele>
        <time>2019-02-25T12:13:07Z</time>
      </trkpt>
      <trkpt lat="42.87363" lon="0.24885">
        <ele>2428</ele>
        <time>2019-02-25T12:13:10Z</time>
      </trkpt>
      <trkpt lat="42.87365" lon="0.24886">
        <ele>2429</ele>
        <time>2019-02-25T12:13:13Z</time>
      </trkpt>
      <trkpt lat="42.87368" lon="0.24887">
        <ele>2429</ele>
        <time>2019-02-25T12:13:16Z</time>
      </trkpt>
      <trkpt lat="42.87369" lon="0.24888">
        <ele>2431</ele>
        <time>2019-02-25T12:13:19Z</time>
      </trkpt>
      <trkpt lat="42.87371" lon="0.24889">
        <ele>2431</ele>
        <time>2019-02-25T12:13:22Z</time>
      </trkpt>
      <trkpt lat="42.87372" lon="0.24887">
        <ele>2432</ele>
        <time>2019-02-25T12:13:35Z</time>
      </trkpt>
      <trkpt lat="42.87372" lon="0.24884">
        <ele>2433</ele>
        <time>2019-02-25T12:13:38Z</time>
      </trkpt>
      <trkpt lat="42.87373" lon="0.24881">
        <ele>2433</ele>
        <time>2019-02-25T12:13:41Z</time>
      </trkpt>
      <trkpt lat="42.87373" lon="0.24878">
        <ele>2434</ele>
        <time>2019-02-25T12:13:44Z</time>
      </trkpt>
      <trkpt lat="42.87373" lon="0.24875">
        <ele>2434</ele>
        <time>2019-02-25T12:13:48Z</time>
      </trkpt>
      <trkpt lat="42.87372" lon="0.2487">
        <ele>2436</ele>
        <time>2019-02-25T12:13:54Z</time>
      </trkpt>
      <trkpt lat="42.87372" lon="0.24867">
        <ele>2436</ele>
        <time>2019-02-25T12:13:57Z</time>
      </trkpt>
      <trkpt lat="42.87371" lon="0.24865">
        <ele>2436</ele>
        <time>2019-02-25T12:14:01Z</time>
      </trkpt>
      <trkpt lat="42.8737" lon="0.24862">
        <ele>2437</ele>
        <time>2019-02-25T12:14:05Z</time>
      </trkpt>
      <trkpt lat="42.87369" lon="0.24859">
        <ele>2438</ele>
        <time>2019-02-25T12:14:09Z</time>
      </trkpt>
      <trkpt lat="42.87368" lon="0.24857">
        <ele>2439</ele>
        <time>2019-02-25T12:14:13Z</time>
      </trkpt>
      <trkpt lat="42.87367" lon="0.24854">
        <ele>2439</ele>
        <time>2019-02-25T12:14:17Z</time>
      </trkpt>
      <trkpt lat="42.87366" lon="0.24852">
        <ele>2439</ele>
        <time>2019-02-25T12:14:21Z</time>
      </trkpt>
      <trkpt lat="42.87364" lon="0.2485">
        <ele>2440</ele>
        <time>2019-02-25T12:14:24Z</time>
      </trkpt>
      <trkpt lat="42.87363" lon="0.24848">
        <ele>2441</ele>
        <time>2019-02-25T12:14:28Z</time>
      </trkpt>
      <trkpt lat="42.87362" lon="0.24846">
        <ele>2441</ele>
        <time>2019-02-25T12:14:31Z</time>
      </trkpt>
      <trkpt lat="42.87361" lon="0.24843">
        <ele>2441</ele>
        <time>2019-02-25T12:14:38Z</time>
      </trkpt>
      <trkpt lat="42.8736" lon="0.24841">
        <ele>2443</ele>
        <time>2019-02-25T12:14:42Z</time>
      </trkpt>
      <trkpt lat="42.87358" lon="0.24839">
        <ele>2443</ele>
        <time>2019-02-25T12:14:45Z</time>
      </trkpt>
      <trkpt lat="42.87357" lon="0.24836">
        <ele>2443</ele>
        <time>2019-02-25T12:14:49Z</time>
      </trkpt>
      <trkpt lat="42.87356" lon="0.24834">
        <ele>2444</ele>
        <time>2019-02-25T12:14:52Z</time>
      </trkpt>
      <trkpt lat="42.87358" lon="0.24833">
        <ele>2446</ele>
        <time>2019-02-25T12:15:02Z</time>
      </trkpt>
      <trkpt lat="42.8736" lon="0.24834">
        <ele>2446</ele>
        <time>2019-02-25T12:15:05Z</time>
      </trkpt>
      <trkpt lat="42.87362" lon="0.24835">
        <ele>2447</ele>
        <time>2019-02-25T12:15:08Z</time>
      </trkpt>
      <trkpt lat="42.87364" lon="0.24835">
        <ele>2448</ele>
        <time>2019-02-25T12:15:11Z</time>
      </trkpt>
      <trkpt lat="42.87367" lon="0.24835">
        <ele>2448</ele>
        <time>2019-02-25T12:15:14Z</time>
      </trkpt>
      <trkpt lat="42.87369" lon="0.24836">
        <ele>2449</ele>
        <time>2019-02-25T12:15:17Z</time>
      </trkpt>
      <trkpt lat="42.87371" lon="0.24836">
        <ele>2449</ele>
        <time>2019-02-25T12:15:20Z</time>
      </trkpt>
      <trkpt lat="42.87373" lon="0.24836">
        <ele>2450</ele>
        <time>2019-02-25T12:15:23Z</time>
      </trkpt>
      <trkpt lat="42.87376" lon="0.24836">
        <ele>2450</ele>
        <time>2019-02-25T12:15:26Z</time>
      </trkpt>
      <trkpt lat="42.87378" lon="0.24836">
        <ele>2451</ele>
        <time>2019-02-25T12:15:29Z</time>
      </trkpt>
      <trkpt lat="42.8738" lon="0.24836">
        <ele>2451</ele>
        <time>2019-02-25T12:15:32Z</time>
      </trkpt>
      <trkpt lat="42.87385" lon="0.24836">
        <ele>2453</ele>
        <time>2019-02-25T12:15:39Z</time>
      </trkpt>
      <trkpt lat="42.87387" lon="0.24836">
        <ele>2453</ele>
        <time>2019-02-25T12:15:42Z</time>
      </trkpt>
      <trkpt lat="42.87388" lon="0.24836">
        <ele>2453</ele>
        <time>2019-02-25T12:15:46Z</time>
      </trkpt>
      <trkpt lat="42.87391" lon="0.24836">
        <ele>2454</ele>
        <time>2019-02-25T12:15:50Z</time>
      </trkpt>
      <trkpt lat="42.87393" lon="0.24836">
        <ele>2454</ele>
        <time>2019-02-25T12:15:53Z</time>
      </trkpt>
      <trkpt lat="42.87395" lon="0.24837">
        <ele>2454</ele>
        <time>2019-02-25T12:16:00Z</time>
      </trkpt>
      <trkpt lat="42.87397" lon="0.24837">
        <ele>2454</ele>
        <time>2019-02-25T12:16:03Z</time>
      </trkpt>
      <trkpt lat="42.87399" lon="0.24838">
        <ele>2454</ele>
        <time>2019-02-25T12:16:07Z</time>
      </trkpt>
      <trkpt lat="42.87401" lon="0.24839">
        <ele>2455</ele>
        <time>2019-02-25T12:16:10Z</time>
      </trkpt>
      <trkpt lat="42.87403" lon="0.2484">
        <ele>2455</ele>
        <time>2019-02-25T12:16:13Z</time>
      </trkpt>
      <trkpt lat="42.87405" lon="0.2484">
        <ele>2456</ele>
        <time>2019-02-25T12:16:16Z</time>
      </trkpt>
      <trkpt lat="42.87407" lon="0.24841">
        <ele>2457</ele>
        <time>2019-02-25T12:16:19Z</time>
      </trkpt>
      <trkpt lat="42.87409" lon="0.24842">
        <ele>2457</ele>
        <time>2019-02-25T12:16:23Z</time>
      </trkpt>
      <trkpt lat="42.87411" lon="0.24843">
        <ele>2459</ele>
        <time>2019-02-25T12:16:26Z</time>
      </trkpt>
      <trkpt lat="42.87413" lon="0.24844">
        <ele>2459</ele>
        <time>2019-02-25T12:16:29Z</time>
      </trkpt>
      <trkpt lat="42.87415" lon="0.24844">
        <ele>2459</ele>
        <time>2019-02-25T12:16:32Z</time>
      </trkpt>
      <trkpt lat="42.87417" lon="0.24846">
        <ele>2461</ele>
        <time>2019-02-25T12:16:36Z</time>
      </trkpt>
      <trkpt lat="42.87419" lon="0.24847">
        <ele>2461</ele>
        <time>2019-02-25T12:16:40Z</time>
      </trkpt>
      <trkpt lat="42.87421" lon="0.24849">
        <ele>2461</ele>
        <time>2019-02-25T12:16:47Z</time>
      </trkpt>
      <trkpt lat="42.87422" lon="0.24846">
        <ele>2462</ele>
        <time>2019-02-25T12:16:56Z</time>
      </trkpt>
      <trkpt lat="42.87421" lon="0.24843">
        <ele>2463</ele>
        <time>2019-02-25T12:16:59Z</time>
      </trkpt>
      <trkpt lat="42.87419" lon="0.2484">
        <ele>2463</ele>
        <time>2019-02-25T12:17:02Z</time>
      </trkpt>
      <trkpt lat="42.87418" lon="0.24838">
        <ele>2463</ele>
        <time>2019-02-25T12:17:05Z</time>
      </trkpt>
      <trkpt lat="42.87417" lon="0.24835">
        <ele>2464</ele>
        <time>2019-02-25T12:17:08Z</time>
      </trkpt>
      <trkpt lat="42.87416" lon="0.24832">
        <ele>2464</ele>
        <time>2019-02-25T12:17:11Z</time>
      </trkpt>
      <trkpt lat="42.87415" lon="0.24829">
        <ele>2464</ele>
        <time>2019-02-25T12:17:15Z</time>
      </trkpt>
      <trkpt lat="42.87414" lon="0.24827">
        <ele>2464</ele>
        <time>2019-02-25T12:17:18Z</time>
      </trkpt>
      <trkpt lat="42.87413" lon="0.24825">
        <ele>2465</ele>
        <time>2019-02-25T12:17:21Z</time>
      </trkpt>
      <trkpt lat="42.87411" lon="0.24823">
        <ele>2465</ele>
        <time>2019-02-25T12:17:24Z</time>
      </trkpt>
      <trkpt lat="42.8741" lon="0.24821">
        <ele>2466</ele>
        <time>2019-02-25T12:17:27Z</time>
      </trkpt>
      <trkpt lat="42.87408" lon="0.24819">
        <ele>2466</ele>
        <time>2019-02-25T12:17:30Z</time>
      </trkpt>
      <trkpt lat="42.87407" lon="0.24817">
        <ele>2467</ele>
        <time>2019-02-25T12:17:33Z</time>
      </trkpt>
      <trkpt lat="42.87406" lon="0.24815">
        <ele>2467</ele>
        <time>2019-02-25T12:17:36Z</time>
      </trkpt>
      <trkpt lat="42.87404" lon="0.24813">
        <ele>2468</ele>
        <time>2019-02-25T12:17:39Z</time>
      </trkpt>
      <trkpt lat="42.87403" lon="0.24812">
        <ele>2468</ele>
        <time>2019-02-25T12:17:42Z</time>
      </trkpt>
      <trkpt lat="42.87401" lon="0.2481">
        <ele>2469</ele>
        <time>2019-02-25T12:17:45Z</time>
      </trkpt>
      <trkpt lat="42.87399" lon="0.24808">
        <ele>2469</ele>
        <time>2019-02-25T12:17:48Z</time>
      </trkpt>
      <trkpt lat="42.87397" lon="0.24806">
        <ele>2469</ele>
        <time>2019-02-25T12:17:51Z</time>
      </trkpt>
      <trkpt lat="42.87395" lon="0.24804">
        <ele>2469</ele>
        <time>2019-02-25T12:17:54Z</time>
      </trkpt>
      <trkpt lat="42.87393" lon="0.24802">
        <ele>2471</ele>
        <time>2019-02-25T12:17:57Z</time>
      </trkpt>
      <trkpt lat="42.87391" lon="0.24801">
        <ele>2471</ele>
        <time>2019-02-25T12:18:00Z</time>
      </trkpt>
      <trkpt lat="42.87389" lon="0.24799">
        <ele>2471</ele>
        <time>2019-02-25T12:18:04Z</time>
      </trkpt>
      <trkpt lat="42.87388" lon="0.24797">
        <ele>2472</ele>
        <time>2019-02-25T12:18:07Z</time>
      </trkpt>
      <trkpt lat="42.87386" lon="0.24795">
        <ele>2472</ele>
        <time>2019-02-25T12:18:11Z</time>
      </trkpt>
      <trkpt lat="42.87385" lon="0.24794">
        <ele>2473</ele>
        <time>2019-02-25T12:18:14Z</time>
      </trkpt>
      <trkpt lat="42.87383" lon="0.24792">
        <ele>2473</ele>
        <time>2019-02-25T12:18:17Z</time>
      </trkpt>
      <trkpt lat="42.87382" lon="0.2479">
        <ele>2474</ele>
        <time>2019-02-25T12:18:20Z</time>
      </trkpt>
      <trkpt lat="42.8738" lon="0.24788">
        <ele>2474</ele>
        <time>2019-02-25T12:18:23Z</time>
      </trkpt>
      <trkpt lat="42.87379" lon="0.24786">
        <ele>2474</ele>
        <time>2019-02-25T12:18:26Z</time>
      </trkpt>
      <trkpt lat="42.87378" lon="0.24784">
        <ele>2475</ele>
        <time>2019-02-25T12:18:29Z</time>
      </trkpt>
      <trkpt lat="42.87376" lon="0.24782">
        <ele>2475</ele>
        <time>2019-02-25T12:18:32Z</time>
      </trkpt>
      <trkpt lat="42.87375" lon="0.2478">
        <ele>2475</ele>
        <time>2019-02-25T12:18:35Z</time>
      </trkpt>
      <trkpt lat="42.87374" lon="0.24778">
        <ele>2476</ele>
        <time>2019-02-25T12:18:39Z</time>
      </trkpt>
      <trkpt lat="42.87373" lon="0.24775">
        <ele>2476</ele>
        <time>2019-02-25T12:18:43Z</time>
      </trkpt>
      <trkpt lat="42.87372" lon="0.24772">
        <ele>2477</ele>
        <time>2019-02-25T12:18:47Z</time>
      </trkpt>
      <trkpt lat="42.87371" lon="0.24769">
        <ele>2477</ele>
        <time>2019-02-25T12:18:51Z</time>
      </trkpt>
      <trkpt lat="42.8737" lon="0.24766">
        <ele>2478</ele>
        <time>2019-02-25T12:18:55Z</time>
      </trkpt>
      <trkpt lat="42.87369" lon="0.24764">
        <ele>2478</ele>
        <time>2019-02-25T12:18:58Z</time>
      </trkpt>
      <trkpt lat="42.87367" lon="0.24762">
        <ele>2479</ele>
        <time>2019-02-25T12:19:02Z</time>
      </trkpt>
      <trkpt lat="42.87366" lon="0.24759">
        <ele>2481</ele>
        <time>2019-02-25T12:19:06Z</time>
      </trkpt>
      <trkpt lat="42.87366" lon="0.24756">
        <ele>2481</ele>
        <time>2019-02-25T12:19:10Z</time>
      </trkpt>
      <trkpt lat="42.87365" lon="0.24754">
        <ele>2481</ele>
        <time>2019-02-25T12:19:14Z</time>
      </trkpt>
      <trkpt lat="42.87364" lon="0.24751">
        <ele>2481</ele>
        <time>2019-02-25T12:19:18Z</time>
      </trkpt>
      <trkpt lat="42.87363" lon="0.24748">
        <ele>2482</ele>
        <time>2019-02-25T12:19:22Z</time>
      </trkpt>
      <trkpt lat="42.87365" lon="0.24748">
        <ele>2483</ele>
        <time>2019-02-25T12:19:36Z</time>
      </trkpt>
      <trkpt lat="42.87367" lon="0.24749">
        <ele>2484</ele>
        <time>2019-02-25T12:19:39Z</time>
      </trkpt>
      <trkpt lat="42.87369" lon="0.2475">
        <ele>2485</ele>
        <time>2019-02-25T12:19:44Z</time>
      </trkpt>
      <trkpt lat="42.87371" lon="0.24752">
        <ele>2485</ele>
        <time>2019-02-25T12:19:47Z</time>
      </trkpt>
      <trkpt lat="42.87374" lon="0.24753">
        <ele>2485</ele>
        <time>2019-02-25T12:19:53Z</time>
      </trkpt>
      <trkpt lat="42.87376" lon="0.24754">
        <ele>2486</ele>
        <time>2019-02-25T12:19:58Z</time>
      </trkpt>
      <trkpt lat="42.87378" lon="0.24755">
        <ele>2486</ele>
        <time>2019-02-25T12:20:01Z</time>
      </trkpt>
      <trkpt lat="42.8738" lon="0.24756">
        <ele>2486</ele>
        <time>2019-02-25T12:20:04Z</time>
      </trkpt>
      <trkpt lat="42.87382" lon="0.24757">
        <ele>2486</ele>
        <time>2019-02-25T12:20:07Z</time>
      </trkpt>
      <trkpt lat="42.87384" lon="0.24759">
        <ele>2486</ele>
        <time>2019-02-25T12:20:10Z</time>
      </trkpt>
      <trkpt lat="42.87386" lon="0.24761">
        <ele>2487</ele>
        <time>2019-02-25T12:20:13Z</time>
      </trkpt>
      <trkpt lat="42.87388" lon="0.24762">
        <ele>2487</ele>
        <time>2019-02-25T12:20:17Z</time>
      </trkpt>
      <trkpt lat="42.8739" lon="0.24763">
        <ele>2489</ele>
        <time>2019-02-25T12:20:20Z</time>
      </trkpt>
      <trkpt lat="42.87392" lon="0.24763">
        <ele>2490</ele>
        <time>2019-02-25T12:20:23Z</time>
      </trkpt>
      <trkpt lat="42.87394" lon="0.24765">
        <ele>2490</ele>
        <time>2019-02-25T12:20:27Z</time>
      </trkpt>
      <trkpt lat="42.87396" lon="0.24766">
        <ele>2490</ele>
        <time>2019-02-25T12:20:30Z</time>
      </trkpt>
      <trkpt lat="42.87398" lon="0.24766">
        <ele>2490</ele>
        <time>2019-02-25T12:20:33Z</time>
      </trkpt>
      <trkpt lat="42.874" lon="0.24766">
        <ele>2491</ele>
        <time>2019-02-25T12:20:36Z</time>
      </trkpt>
      <trkpt lat="42.87402" lon="0.24766">
        <ele>2492</ele>
        <time>2019-02-25T12:20:39Z</time>
      </trkpt>
      <trkpt lat="42.87404" lon="0.24766">
        <ele>2492</ele>
        <time>2019-02-25T12:20:42Z</time>
      </trkpt>
      <trkpt lat="42.87408" lon="0.24766">
        <ele>2492</ele>
        <time>2019-02-25T12:20:48Z</time>
      </trkpt>
      <trkpt lat="42.87411" lon="0.24766">
        <ele>2493</ele>
        <time>2019-02-25T12:20:51Z</time>
      </trkpt>
      <trkpt lat="42.87415" lon="0.24766">
        <ele>2494</ele>
        <time>2019-02-25T12:20:57Z</time>
      </trkpt>
      <trkpt lat="42.87417" lon="0.24766">
        <ele>2495</ele>
        <time>2019-02-25T12:21:00Z</time>
      </trkpt>
      <trkpt lat="42.8742" lon="0.24766">
        <ele>2495</ele>
        <time>2019-02-25T12:21:03Z</time>
      </trkpt>
      <trkpt lat="42.87422" lon="0.24765">
        <ele>2496</ele>
        <time>2019-02-25T12:21:06Z</time>
      </trkpt>
      <trkpt lat="42.87424" lon="0.24766">
        <ele>2497</ele>
        <time>2019-02-25T12:21:09Z</time>
      </trkpt>
      <trkpt lat="42.87426" lon="0.24765">
        <ele>2497</ele>
        <time>2019-02-25T12:21:12Z</time>
      </trkpt>
      <trkpt lat="42.87428" lon="0.24765">
        <ele>2498</ele>
        <time>2019-02-25T12:21:15Z</time>
      </trkpt>
      <trkpt lat="42.8743" lon="0.24765">
        <ele>2498</ele>
        <time>2019-02-25T12:21:18Z</time>
      </trkpt>
      <trkpt lat="42.87432" lon="0.24764">
        <ele>2498</ele>
        <time>2019-02-25T12:21:21Z</time>
      </trkpt>
      <trkpt lat="42.87435" lon="0.24764">
        <ele>2498</ele>
        <time>2019-02-25T12:21:25Z</time>
      </trkpt>
      <trkpt lat="42.87437" lon="0.24763">
        <ele>2499</ele>
        <time>2019-02-25T12:21:28Z</time>
      </trkpt>
      <trkpt lat="42.87439" lon="0.24763">
        <ele>2499</ele>
        <time>2019-02-25T12:21:31Z</time>
      </trkpt>
      <trkpt lat="42.87443" lon="0.24763">
        <ele>2500</ele>
        <time>2019-02-25T12:21:37Z</time>
      </trkpt>
      <trkpt lat="42.87446" lon="0.24763">
        <ele>2501</ele>
        <time>2019-02-25T12:21:41Z</time>
      </trkpt>
      <trkpt lat="42.87448" lon="0.24763">
        <ele>2501</ele>
        <time>2019-02-25T12:21:45Z</time>
      </trkpt>
      <trkpt lat="42.8745" lon="0.24765">
        <ele>2501</ele>
        <time>2019-02-25T12:21:48Z</time>
      </trkpt>
      <trkpt lat="42.87452" lon="0.24765">
        <ele>2502</ele>
        <time>2019-02-25T12:21:51Z</time>
      </trkpt>
      <trkpt lat="42.87454" lon="0.24767">
        <ele>2504</ele>
        <time>2019-02-25T12:21:55Z</time>
      </trkpt>
      <trkpt lat="42.87456" lon="0.24767">
        <ele>2504</ele>
        <time>2019-02-25T12:21:58Z</time>
      </trkpt>
      <trkpt lat="42.87457" lon="0.24768">
        <ele>2504</ele>
        <time>2019-02-25T12:22:01Z</time>
      </trkpt>
      <trkpt lat="42.87456" lon="0.24768">
        <ele>2505</ele>
        <time>2019-02-25T12:23:44Z</time>
      </trkpt>
      <trkpt lat="42.87457" lon="0.24766">
        <ele>2504</ele>
        <time>2019-02-25T12:23:50Z</time>
      </trkpt>
      <trkpt lat="42.87457" lon="0.24769">
        <ele>2505</ele>
        <time>2019-02-25T12:23:55Z</time>
      </trkpt>
      <trkpt lat="42.87456" lon="0.24767">
        <ele>2505</ele>
        <time>2019-02-25T12:25:45Z</time>
      </trkpt>
      <trkpt lat="42.87454" lon="0.24765">
        <ele>2505</ele>
        <time>2019-02-25T12:25:49Z</time>
      </trkpt>
      <trkpt lat="42.87453" lon="0.24763">
        <ele>2506</ele>
        <time>2019-02-25T12:25:53Z</time>
      </trkpt>
      <trkpt lat="42.87451" lon="0.24762">
        <ele>2506</ele>
        <time>2019-02-25T12:25:56Z</time>
      </trkpt>
      <trkpt lat="42.87449" lon="0.24759">
        <ele>2506</ele>
        <time>2019-02-25T12:25:59Z</time>
      </trkpt>
      <trkpt lat="42.87448" lon="0.24757">
        <ele>2506</ele>
        <time>2019-02-25T12:26:02Z</time>
      </trkpt>
      <trkpt lat="42.87446" lon="0.24755">
        <ele>2506</ele>
        <time>2019-02-25T12:26:05Z</time>
      </trkpt>
      <trkpt lat="42.87445" lon="0.24754">
        <ele>2507</ele>
        <time>2019-02-25T12:26:08Z</time>
      </trkpt>
      <trkpt lat="42.87443" lon="0.24752">
        <ele>2508</ele>
        <time>2019-02-25T12:26:12Z</time>
      </trkpt>
      <trkpt lat="42.8744" lon="0.2475">
        <ele>2508</ele>
        <time>2019-02-25T12:26:16Z</time>
      </trkpt>
      <trkpt lat="42.87438" lon="0.2475">
        <ele>2509</ele>
        <time>2019-02-25T12:26:19Z</time>
      </trkpt>
      <trkpt lat="42.87436" lon="0.24749">
        <ele>2509</ele>
        <time>2019-02-25T12:26:22Z</time>
      </trkpt>
      <trkpt lat="42.87433" lon="0.24748">
        <ele>2509</ele>
        <time>2019-02-25T12:26:25Z</time>
      </trkpt>
      <trkpt lat="42.87431" lon="0.24748">
        <ele>2509</ele>
        <time>2019-02-25T12:26:28Z</time>
      </trkpt>
      <trkpt lat="42.87429" lon="0.24747">
        <ele>2509</ele>
        <time>2019-02-25T12:26:31Z</time>
      </trkpt>
      <trkpt lat="42.87426" lon="0.24746">
        <ele>2510</ele>
        <time>2019-02-25T12:26:34Z</time>
      </trkpt>
      <trkpt lat="42.87424" lon="0.24745">
        <ele>2510</ele>
        <time>2019-02-25T12:26:37Z</time>
      </trkpt>
      <trkpt lat="42.87422" lon="0.24744">
        <ele>2510</ele>
        <time>2019-02-25T12:26:40Z</time>
      </trkpt>
      <trkpt lat="42.8742" lon="0.24742">
        <ele>2511</ele>
        <time>2019-02-25T12:26:43Z</time>
      </trkpt>
      <trkpt lat="42.87418" lon="0.24741">
        <ele>2511</ele>
        <time>2019-02-25T12:26:46Z</time>
      </trkpt>
      <trkpt lat="42.87416" lon="0.2474">
        <ele>2511</ele>
        <time>2019-02-25T12:26:49Z</time>
      </trkpt>
      <trkpt lat="42.87414" lon="0.24738">
        <ele>2511</ele>
        <time>2019-02-25T12:27:05Z</time>
      </trkpt>
      <trkpt lat="42.87411" lon="0.24736">
        <ele>2512</ele>
        <time>2019-02-25T12:27:08Z</time>
      </trkpt>
      <trkpt lat="42.8741" lon="0.24735">
        <ele>2512</ele>
        <time>2019-02-25T12:27:11Z</time>
      </trkpt>
      <trkpt lat="42.87408" lon="0.24732">
        <ele>2512</ele>
        <time>2019-02-25T12:27:15Z</time>
      </trkpt>
      <trkpt lat="42.87407" lon="0.2473">
        <ele>2512</ele>
        <time>2019-02-25T12:27:18Z</time>
      </trkpt>
      <trkpt lat="42.87406" lon="0.24728">
        <ele>2513</ele>
        <time>2019-02-25T12:27:21Z</time>
      </trkpt>
      <trkpt lat="42.87404" lon="0.24726">
        <ele>2514</ele>
        <time>2019-02-25T12:27:25Z</time>
      </trkpt>
      <trkpt lat="42.87403" lon="0.24724">
        <ele>2514</ele>
        <time>2019-02-25T12:27:29Z</time>
      </trkpt>
      <trkpt lat="42.87405" lon="0.24723">
        <ele>2516</ele>
        <time>2019-02-25T12:27:39Z</time>
      </trkpt>
      <trkpt lat="42.87407" lon="0.24723">
        <ele>2517</ele>
        <time>2019-02-25T12:27:42Z</time>
      </trkpt>
      <trkpt lat="42.87409" lon="0.24723">
        <ele>2517</ele>
        <time>2019-02-25T12:27:46Z</time>
      </trkpt>
      <trkpt lat="42.87411" lon="0.24724">
        <ele>2517</ele>
        <time>2019-02-25T12:27:49Z</time>
      </trkpt>
      <trkpt lat="42.87413" lon="0.24725">
        <ele>2517</ele>
        <time>2019-02-25T12:27:52Z</time>
      </trkpt>
      <trkpt lat="42.87414" lon="0.24726">
        <ele>2518</ele>
        <time>2019-02-25T12:27:56Z</time>
      </trkpt>
      <trkpt lat="42.87416" lon="0.24727">
        <ele>2519</ele>
        <time>2019-02-25T12:27:59Z</time>
      </trkpt>
      <trkpt lat="42.87418" lon="0.24727">
        <ele>2519</ele>
        <time>2019-02-25T12:28:02Z</time>
      </trkpt>
      <trkpt lat="42.8742" lon="0.24727">
        <ele>2519</ele>
        <time>2019-02-25T12:28:05Z</time>
      </trkpt>
      <trkpt lat="42.87424" lon="0.24728">
        <ele>2519</ele>
        <time>2019-02-25T12:28:12Z</time>
      </trkpt>
      <trkpt lat="42.87426" lon="0.24727">
        <ele>2520</ele>
        <time>2019-02-25T12:28:16Z</time>
      </trkpt>
      <trkpt lat="42.87428" lon="0.24727">
        <ele>2520</ele>
        <time>2019-02-25T12:28:19Z</time>
      </trkpt>
      <trkpt lat="42.87435" lon="0.24727">
        <ele>2522</ele>
        <time>2019-02-25T12:28:29Z</time>
      </trkpt>
      <trkpt lat="42.87437" lon="0.24727">
        <ele>2522</ele>
        <time>2019-02-25T12:28:32Z</time>
      </trkpt>
      <trkpt lat="42.87439" lon="0.24726">
        <ele>2522</ele>
        <time>2019-02-25T12:28:34Z</time>
      </trkpt>
      <trkpt lat="42.87441" lon="0.24725">
        <ele>2522</ele>
        <time>2019-02-25T12:28:37Z</time>
      </trkpt>
      <trkpt lat="42.87444" lon="0.24723">
        <ele>2524</ele>
        <time>2019-02-25T12:28:40Z</time>
      </trkpt>
      <trkpt lat="42.87446" lon="0.24724">
        <ele>2524</ele>
        <time>2019-02-25T12:28:45Z</time>
      </trkpt>
      <trkpt lat="42.87448" lon="0.24723">
        <ele>2524</ele>
        <time>2019-02-25T12:28:48Z</time>
      </trkpt>
      <trkpt lat="42.87451" lon="0.24723">
        <ele>2524</ele>
        <time>2019-02-25T12:28:51Z</time>
      </trkpt>
      <trkpt lat="42.87453" lon="0.24723">
        <ele>2524</ele>
        <time>2019-02-25T12:28:54Z</time>
      </trkpt>
      <trkpt lat="42.87455" lon="0.24723">
        <ele>2524</ele>
        <time>2019-02-25T12:28:57Z</time>
      </trkpt>
      <trkpt lat="42.87457" lon="0.24724">
        <ele>2525</ele>
        <time>2019-02-25T12:29:00Z</time>
      </trkpt>
      <trkpt lat="42.87461" lon="0.24725">
        <ele>2525</ele>
        <time>2019-02-25T12:29:07Z</time>
      </trkpt>
      <trkpt lat="42.87464" lon="0.24724">
        <ele>2526</ele>
        <time>2019-02-25T12:29:10Z</time>
      </trkpt>
      <trkpt lat="42.87466" lon="0.24725">
        <ele>2526</ele>
        <time>2019-02-25T12:29:13Z</time>
      </trkpt>
      <trkpt lat="42.87467" lon="0.24726">
        <ele>2527</ele>
        <time>2019-02-25T12:29:16Z</time>
      </trkpt>
      <trkpt lat="42.8747" lon="0.24727">
        <ele>2528</ele>
        <time>2019-02-25T12:29:20Z</time>
      </trkpt>
      <trkpt lat="42.87472" lon="0.24727">
        <ele>2528</ele>
        <time>2019-02-25T12:29:24Z</time>
      </trkpt>
      <trkpt lat="42.87474" lon="0.2473">
        <ele>2528</ele>
        <time>2019-02-25T12:29:28Z</time>
      </trkpt>
      <trkpt lat="42.87476" lon="0.24731">
        <ele>2529</ele>
        <time>2019-02-25T12:29:31Z</time>
      </trkpt>
      <trkpt lat="42.87478" lon="0.24732">
        <ele>2529</ele>
        <time>2019-02-25T12:29:34Z</time>
      </trkpt>
      <trkpt lat="42.87479" lon="0.24733">
        <ele>2529</ele>
        <time>2019-02-25T12:29:37Z</time>
      </trkpt>
      <trkpt lat="42.87482" lon="0.24734">
        <ele>2529</ele>
        <time>2019-02-25T12:29:41Z</time>
      </trkpt>
      <trkpt lat="42.87484" lon="0.24735">
        <ele>2531</ele>
        <time>2019-02-25T12:29:46Z</time>
      </trkpt>
      <trkpt lat="42.87485" lon="0.24736">
        <ele>2531</ele>
        <time>2019-02-25T12:29:50Z</time>
      </trkpt>
      <trkpt lat="42.87487" lon="0.24738">
        <ele>2531</ele>
        <time>2019-02-25T12:29:53Z</time>
      </trkpt>
      <trkpt lat="42.87489" lon="0.24739">
        <ele>2531</ele>
        <time>2019-02-25T12:29:56Z</time>
      </trkpt>
      <trkpt lat="42.87491" lon="0.24741">
        <ele>2531</ele>
        <time>2019-02-25T12:29:59Z</time>
      </trkpt>
      <trkpt lat="42.87492" lon="0.24742">
        <ele>2532</ele>
        <time>2019-02-25T12:30:02Z</time>
      </trkpt>
      <trkpt lat="42.87494" lon="0.24743">
        <ele>2532</ele>
        <time>2019-02-25T12:30:05Z</time>
      </trkpt>
      <trkpt lat="42.87496" lon="0.24744">
        <ele>2532</ele>
        <time>2019-02-25T12:30:08Z</time>
      </trkpt>
      <trkpt lat="42.87498" lon="0.24746">
        <ele>2533</ele>
        <time>2019-02-25T12:30:11Z</time>
      </trkpt>
      <trkpt lat="42.87499" lon="0.24748">
        <ele>2533</ele>
        <time>2019-02-25T12:30:15Z</time>
      </trkpt>
      <trkpt lat="42.87501" lon="0.2475">
        <ele>2533</ele>
        <time>2019-02-25T12:30:18Z</time>
      </trkpt>
      <trkpt lat="42.87502" lon="0.24751">
        <ele>2534</ele>
        <time>2019-02-25T12:30:21Z</time>
      </trkpt>
      <trkpt lat="42.87504" lon="0.24754">
        <ele>2534</ele>
        <time>2019-02-25T12:30:25Z</time>
      </trkpt>
      <trkpt lat="42.87504" lon="0.24751">
        <ele>2536</ele>
        <time>2019-02-25T12:30:43Z</time>
      </trkpt>
      <trkpt lat="42.87504" lon="0.24748">
        <ele>2536</ele>
        <time>2019-02-25T12:30:47Z</time>
      </trkpt>
      <trkpt lat="42.87504" lon="0.24745">
        <ele>2537</ele>
        <time>2019-02-25T12:30:51Z</time>
      </trkpt>
      <trkpt lat="42.87504" lon="0.24742">
        <ele>2537</ele>
        <time>2019-02-25T12:30:55Z</time>
      </trkpt>
      <trkpt lat="42.87504" lon="0.24739">
        <ele>2538</ele>
        <time>2019-02-25T12:30:59Z</time>
      </trkpt>
      <trkpt lat="42.87503" lon="0.24736">
        <ele>2538</ele>
        <time>2019-02-25T12:31:03Z</time>
      </trkpt>
      <trkpt lat="42.87502" lon="0.24733">
        <ele>2539</ele>
        <time>2019-02-25T12:31:06Z</time>
      </trkpt>
      <trkpt lat="42.87501" lon="0.24732">
        <ele>2540</ele>
        <time>2019-02-25T12:31:11Z</time>
      </trkpt>
      <trkpt lat="42.87499" lon="0.2473">
        <ele>2540</ele>
        <time>2019-02-25T12:31:15Z</time>
      </trkpt>
      <trkpt lat="42.87498" lon="0.24727">
        <ele>2541</ele>
        <time>2019-02-25T12:31:19Z</time>
      </trkpt>
      <trkpt lat="42.87497" lon="0.24725">
        <ele>2541</ele>
        <time>2019-02-25T12:31:22Z</time>
      </trkpt>
      <trkpt lat="42.87495" lon="0.24722">
        <ele>2541</ele>
        <time>2019-02-25T12:31:26Z</time>
      </trkpt>
      <trkpt lat="42.87494" lon="0.2472">
        <ele>2542</ele>
        <time>2019-02-25T12:31:29Z</time>
      </trkpt>
      <trkpt lat="42.87493" lon="0.24717">
        <ele>2543</ele>
        <time>2019-02-25T12:31:33Z</time>
      </trkpt>
      <trkpt lat="42.87493" lon="0.24715">
        <ele>2544</ele>
        <time>2019-02-25T12:31:37Z</time>
      </trkpt>
      <trkpt lat="42.87492" lon="0.24712">
        <ele>2544</ele>
        <time>2019-02-25T12:31:41Z</time>
      </trkpt>
      <trkpt lat="42.8749" lon="0.24709">
        <ele>2545</ele>
        <time>2019-02-25T12:31:45Z</time>
      </trkpt>
      <trkpt lat="42.87489" lon="0.24707">
        <ele>2545</ele>
        <time>2019-02-25T12:31:49Z</time>
      </trkpt>
      <trkpt lat="42.87488" lon="0.24705">
        <ele>2546</ele>
        <time>2019-02-25T12:31:52Z</time>
      </trkpt>
      <trkpt lat="42.87487" lon="0.24702">
        <ele>2548</ele>
        <time>2019-02-25T12:31:56Z</time>
      </trkpt>
      <trkpt lat="42.87489" lon="0.24702">
        <ele>2549</ele>
        <time>2019-02-25T12:32:06Z</time>
      </trkpt>
      <trkpt lat="42.87491" lon="0.24701">
        <ele>2549</ele>
        <time>2019-02-25T12:32:11Z</time>
      </trkpt>
      <trkpt lat="42.87495" lon="0.24702">
        <ele>2550</ele>
        <time>2019-02-25T12:32:18Z</time>
      </trkpt>
      <trkpt lat="42.87496" lon="0.24703">
        <ele>2551</ele>
        <time>2019-02-25T12:32:21Z</time>
      </trkpt>
      <trkpt lat="42.87498" lon="0.24704">
        <ele>2551</ele>
        <time>2019-02-25T12:32:24Z</time>
      </trkpt>
      <trkpt lat="42.875" lon="0.24704">
        <ele>2552</ele>
        <time>2019-02-25T12:32:27Z</time>
      </trkpt>
      <trkpt lat="42.87502" lon="0.24705">
        <ele>2552</ele>
        <time>2019-02-25T12:32:30Z</time>
      </trkpt>
      <trkpt lat="42.87506" lon="0.24705">
        <ele>2554</ele>
        <time>2019-02-25T12:32:38Z</time>
      </trkpt>
      <trkpt lat="42.87509" lon="0.24706">
        <ele>2554</ele>
        <time>2019-02-25T12:32:42Z</time>
      </trkpt>
      <trkpt lat="42.8751" lon="0.24708">
        <ele>2555</ele>
        <time>2019-02-25T12:32:45Z</time>
      </trkpt>
      <trkpt lat="42.87512" lon="0.2471">
        <ele>2555</ele>
        <time>2019-02-25T12:32:49Z</time>
      </trkpt>
      <trkpt lat="42.87513" lon="0.24712">
        <ele>2556</ele>
        <time>2019-02-25T12:33:00Z</time>
      </trkpt>
      <trkpt lat="42.87511" lon="0.24708">
        <ele>2557</ele>
        <time>2019-02-25T12:33:16Z</time>
      </trkpt>
      <trkpt lat="42.87511" lon="0.24703">
        <ele>2558</ele>
        <time>2019-02-25T12:33:27Z</time>
      </trkpt>
      <trkpt lat="42.8751" lon="0.247">
        <ele>2560</ele>
        <time>2019-02-25T12:33:35Z</time>
      </trkpt>
      <trkpt lat="42.87509" lon="0.24697">
        <ele>2560</ele>
        <time>2019-02-25T12:33:39Z</time>
      </trkpt>
      <trkpt lat="42.87508" lon="0.24695">
        <ele>2561</ele>
        <time>2019-02-25T12:34:08Z</time>
      </trkpt>
      <trkpt lat="42.87507" lon="0.24692">
        <ele>2561</ele>
        <time>2019-02-25T12:34:11Z</time>
      </trkpt>
      <trkpt lat="42.87509" lon="0.24691">
        <ele>2563</ele>
        <time>2019-02-25T12:34:23Z</time>
      </trkpt>
      <trkpt lat="42.87512" lon="0.24691">
        <ele>2564</ele>
        <time>2019-02-25T12:34:28Z</time>
      </trkpt>
      <trkpt lat="42.87513" lon="0.24692">
        <ele>2564</ele>
        <time>2019-02-25T12:34:32Z</time>
      </trkpt>
      <trkpt lat="42.87515" lon="0.24693">
        <ele>2564</ele>
        <time>2019-02-25T12:34:36Z</time>
      </trkpt>
      <trkpt lat="42.87518" lon="0.24694">
        <ele>2565</ele>
        <time>2019-02-25T12:34:40Z</time>
      </trkpt>
      <trkpt lat="42.8752" lon="0.24696">
        <ele>2565</ele>
        <time>2019-02-25T12:34:43Z</time>
      </trkpt>
      <trkpt lat="42.87522" lon="0.24697">
        <ele>2566</ele>
        <time>2019-02-25T12:34:47Z</time>
      </trkpt>
      <trkpt lat="42.87524" lon="0.24698">
        <ele>2567</ele>
        <time>2019-02-25T12:34:51Z</time>
      </trkpt>
      <trkpt lat="42.87522" lon="0.24696">
        <ele>2567</ele>
        <time>2019-02-25T12:35:06Z</time>
      </trkpt>
      <trkpt lat="42.8752" lon="0.24694">
        <ele>2568</ele>
        <time>2019-02-25T12:35:10Z</time>
      </trkpt>
      <trkpt lat="42.87518" lon="0.24692">
        <ele>2568</ele>
        <time>2019-02-25T12:35:11Z</time>
      </trkpt>
      <trkpt lat="42.87516" lon="0.2469">
        <ele>2568</ele>
        <time>2019-02-25T12:35:12Z</time>
      </trkpt>
      <trkpt lat="42.87514" lon="0.24688">
        <ele>2568</ele>
        <time>2019-02-25T12:35:13Z</time>
      </trkpt>
      <trkpt lat="42.87513" lon="0.24687">
        <ele>2568</ele>
        <time>2019-02-25T12:35:14Z</time>
      </trkpt>
      <trkpt lat="42.87511" lon="0.24684">
        <ele>2568</ele>
        <time>2019-02-25T12:35:16Z</time>
      </trkpt>
      <trkpt lat="42.87509" lon="0.24682">
        <ele>2569</ele>
        <time>2019-02-25T12:35:18Z</time>
      </trkpt>
      <trkpt lat="42.87508" lon="0.2468">
        <ele>2569</ele>
        <time>2019-02-25T12:35:21Z</time>
      </trkpt>
      <trkpt lat="42.87509" lon="0.24679">
        <ele>2570</ele>
        <time>2019-02-25T12:35:25Z</time>
      </trkpt>
      <trkpt lat="42.87511" lon="0.2468">
        <ele>2570</ele>
        <time>2019-02-25T12:35:28Z</time>
      </trkpt>
      <trkpt lat="42.87514" lon="0.24682">
        <ele>2570</ele>
        <time>2019-02-25T12:35:32Z</time>
      </trkpt>
      <trkpt lat="42.87516" lon="0.24683">
        <ele>2572</ele>
        <time>2019-02-25T12:35:34Z</time>
      </trkpt>
      <trkpt lat="42.87518" lon="0.24684">
        <ele>2572</ele>
        <time>2019-02-25T12:35:36Z</time>
      </trkpt>
      <trkpt lat="42.87521" lon="0.24685">
        <ele>2572</ele>
        <time>2019-02-25T12:35:39Z</time>
      </trkpt>
      <trkpt lat="42.87523" lon="0.24684">
        <ele>2573</ele>
        <time>2019-02-25T12:35:41Z</time>
      </trkpt>
      <trkpt lat="42.87525" lon="0.24686">
        <ele>2573</ele>
        <time>2019-02-25T12:35:44Z</time>
      </trkpt>
      <trkpt lat="42.87527" lon="0.24687">
        <ele>2574</ele>
        <time>2019-02-25T12:35:47Z</time>
      </trkpt>
      <trkpt lat="42.87529" lon="0.24689">
        <ele>2574</ele>
        <time>2019-02-25T12:35:50Z</time>
      </trkpt>
      <trkpt lat="42.87531" lon="0.2469">
        <ele>2574</ele>
        <time>2019-02-25T12:35:53Z</time>
      </trkpt>
      <trkpt lat="42.87533" lon="0.24691">
        <ele>2574</ele>
        <time>2019-02-25T12:35:56Z</time>
      </trkpt>
      <trkpt lat="42.87535" lon="0.24693">
        <ele>2576</ele>
        <time>2019-02-25T12:36:02Z</time>
      </trkpt>
      <trkpt lat="42.87533" lon="0.24695">
        <ele>2576</ele>
        <time>2019-02-25T12:36:13Z</time>
      </trkpt>
      <trkpt lat="42.87532" lon="0.24693">
        <ele>2577</ele>
        <time>2019-02-25T12:36:22Z</time>
      </trkpt>
      <trkpt lat="42.87532" lon="0.2469">
        <ele>2577</ele>
        <time>2019-02-25T12:36:31Z</time>
      </trkpt>
      <trkpt lat="42.87532" lon="0.24686">
        <ele>2577</ele>
        <time>2019-02-25T12:36:34Z</time>
      </trkpt>
      <trkpt lat="42.87532" lon="0.24683">
        <ele>2577</ele>
        <time>2019-02-25T12:36:36Z</time>
      </trkpt>
      <trkpt lat="42.87532" lon="0.2468">
        <ele>2578</ele>
        <time>2019-02-25T12:36:40Z</time>
      </trkpt>
      <trkpt lat="42.87532" lon="0.24678">
        <ele>2579</ele>
        <time>2019-02-25T12:36:44Z</time>
      </trkpt>
      <trkpt lat="42.8753" lon="0.24676">
        <ele>2580</ele>
        <time>2019-02-25T12:36:48Z</time>
      </trkpt>
      <trkpt lat="42.87529" lon="0.24673">
        <ele>2580</ele>
        <time>2019-02-25T12:36:52Z</time>
      </trkpt>
      <trkpt lat="42.87527" lon="0.2467">
        <ele>2581</ele>
        <time>2019-02-25T12:36:56Z</time>
      </trkpt>
      <trkpt lat="42.87526" lon="0.24668">
        <ele>2581</ele>
        <time>2019-02-25T12:37:00Z</time>
      </trkpt>
      <trkpt lat="42.87525" lon="0.24665">
        <ele>2581</ele>
        <time>2019-02-25T12:37:03Z</time>
      </trkpt>
      <trkpt lat="42.87523" lon="0.24662">
        <ele>2582</ele>
        <time>2019-02-25T12:37:07Z</time>
      </trkpt>
      <trkpt lat="42.87522" lon="0.2466">
        <ele>2582</ele>
        <time>2019-02-25T12:37:10Z</time>
      </trkpt>
      <trkpt lat="42.8752" lon="0.24658">
        <ele>2584</ele>
        <time>2019-02-25T12:37:13Z</time>
      </trkpt>
      <trkpt lat="42.87519" lon="0.24657">
        <ele>2584</ele>
        <time>2019-02-25T12:37:16Z</time>
      </trkpt>
      <trkpt lat="42.87517" lon="0.24655">
        <ele>2585</ele>
        <time>2019-02-25T12:37:20Z</time>
      </trkpt>
      <trkpt lat="42.87515" lon="0.24653">
        <ele>2586</ele>
        <time>2019-02-25T12:37:24Z</time>
      </trkpt>
      <trkpt lat="42.87514" lon="0.24651">
        <ele>2586</ele>
        <time>2019-02-25T12:37:41Z</time>
      </trkpt>
      <trkpt lat="42.87516" lon="0.24649">
        <ele>2587</ele>
        <time>2019-02-25T12:37:51Z</time>
      </trkpt>
      <trkpt lat="42.87518" lon="0.24649">
        <ele>2588</ele>
        <time>2019-02-25T12:37:54Z</time>
      </trkpt>
      <trkpt lat="42.8752" lon="0.24648">
        <ele>2589</ele>
        <time>2019-02-25T12:38:00Z</time>
      </trkpt>
      <trkpt lat="42.87524" lon="0.24649">
        <ele>2590</ele>
        <time>2019-02-25T12:38:07Z</time>
      </trkpt>
      <trkpt lat="42.87526" lon="0.24649">
        <ele>2590</ele>
        <time>2019-02-25T12:38:10Z</time>
      </trkpt>
      <trkpt lat="42.87528" lon="0.2465">
        <ele>2590</ele>
        <time>2019-02-25T12:38:12Z</time>
      </trkpt>
      <trkpt lat="42.8753" lon="0.24651">
        <ele>2590</ele>
        <time>2019-02-25T12:38:14Z</time>
      </trkpt>
      <trkpt lat="42.87532" lon="0.24653">
        <ele>2591</ele>
        <time>2019-02-25T12:38:17Z</time>
      </trkpt>
      <trkpt lat="42.87535" lon="0.24655">
        <ele>2591</ele>
        <time>2019-02-25T12:38:20Z</time>
      </trkpt>
      <trkpt lat="42.87536" lon="0.24655">
        <ele>2592</ele>
        <time>2019-02-25T12:38:23Z</time>
      </trkpt>
      <trkpt lat="42.87539" lon="0.24656">
        <ele>2592</ele>
        <time>2019-02-25T12:38:26Z</time>
      </trkpt>
      <trkpt lat="42.87541" lon="0.24657">
        <ele>2593</ele>
        <time>2019-02-25T12:38:31Z</time>
      </trkpt>
      <trkpt lat="42.87543" lon="0.24659">
        <ele>2593</ele>
        <time>2019-02-25T12:38:35Z</time>
      </trkpt>
      <trkpt lat="42.87545" lon="0.2466">
        <ele>2594</ele>
        <time>2019-02-25T12:38:39Z</time>
      </trkpt>
      <trkpt lat="42.87547" lon="0.24661">
        <ele>2596</ele>
        <time>2019-02-25T12:38:43Z</time>
      </trkpt>
      <trkpt lat="42.87548" lon="0.24662">
        <ele>2596</ele>
        <time>2019-02-25T12:38:47Z</time>
      </trkpt>
      <trkpt lat="42.87551" lon="0.24663">
        <ele>2597</ele>
        <time>2019-02-25T12:39:08Z</time>
      </trkpt>
      <trkpt lat="42.87552" lon="0.24665">
        <ele>2597</ele>
        <time>2019-02-25T12:39:11Z</time>
      </trkpt>
      <trkpt lat="42.87554" lon="0.24666">
        <ele>2598</ele>
        <time>2019-02-25T12:39:18Z</time>
      </trkpt>
      <trkpt lat="42.87555" lon="0.24667">
        <ele>2598</ele>
        <time>2019-02-25T12:39:21Z</time>
      </trkpt>
      <trkpt lat="42.87557" lon="0.24668">
        <ele>2599</ele>
        <time>2019-02-25T12:39:24Z</time>
      </trkpt>
      <trkpt lat="42.87559" lon="0.24669">
        <ele>2599</ele>
        <time>2019-02-25T12:39:28Z</time>
      </trkpt>
      <trkpt lat="42.87561" lon="0.2467">
        <ele>2600</ele>
        <time>2019-02-25T12:39:41Z</time>
      </trkpt>
      <trkpt lat="42.87563" lon="0.2467">
        <ele>2601</ele>
        <time>2019-02-25T12:39:44Z</time>
      </trkpt>
      <trkpt lat="42.87565" lon="0.24671">
        <ele>2602</ele>
        <time>2019-02-25T12:39:48Z</time>
      </trkpt>
      <trkpt lat="42.87567" lon="0.24672">
        <ele>2602</ele>
        <time>2019-02-25T12:39:51Z</time>
      </trkpt>
      <trkpt lat="42.87569" lon="0.24672">
        <ele>2603</ele>
        <time>2019-02-25T12:39:54Z</time>
      </trkpt>
      <trkpt lat="42.87571" lon="0.24674">
        <ele>2604</ele>
        <time>2019-02-25T12:39:58Z</time>
      </trkpt>
      <trkpt lat="42.87572" lon="0.24675">
        <ele>2605</ele>
        <time>2019-02-25T12:40:02Z</time>
      </trkpt>
      <trkpt lat="42.87574" lon="0.24677">
        <ele>2605</ele>
        <time>2019-02-25T12:40:12Z</time>
      </trkpt>
      <trkpt lat="42.87576" lon="0.24678">
        <ele>2606</ele>
        <time>2019-02-25T12:40:16Z</time>
      </trkpt>
      <trkpt lat="42.87578" lon="0.24678">
        <ele>2607</ele>
        <time>2019-02-25T12:40:19Z</time>
      </trkpt>
      <trkpt lat="42.8758" lon="0.24679">
        <ele>2607</ele>
        <time>2019-02-25T12:40:22Z</time>
      </trkpt>
      <trkpt lat="42.87581" lon="0.2468">
        <ele>2609</ele>
        <time>2019-02-25T12:40:25Z</time>
      </trkpt>
      <trkpt lat="42.87583" lon="0.24682">
        <ele>2609</ele>
        <time>2019-02-25T12:40:29Z</time>
      </trkpt>
      <trkpt lat="42.87585" lon="0.24684">
        <ele>2610</ele>
        <time>2019-02-25T12:40:33Z</time>
      </trkpt>
      <trkpt lat="42.87587" lon="0.24686">
        <ele>2611</ele>
        <time>2019-02-25T12:40:37Z</time>
      </trkpt>
      <trkpt lat="42.87588" lon="0.24688">
        <ele>2612</ele>
        <time>2019-02-25T12:40:41Z</time>
      </trkpt>
      <trkpt lat="42.8759" lon="0.24689">
        <ele>2613</ele>
        <time>2019-02-25T12:40:46Z</time>
      </trkpt>
      <trkpt lat="42.87592" lon="0.24691">
        <ele>2613</ele>
        <time>2019-02-25T12:40:50Z</time>
      </trkpt>
      <trkpt lat="42.87593" lon="0.24693">
        <ele>2614</ele>
        <time>2019-02-25T12:40:54Z</time>
      </trkpt>
      <trkpt lat="42.87594" lon="0.24696">
        <ele>2614</ele>
        <time>2019-02-25T12:40:57Z</time>
      </trkpt>
      <trkpt lat="42.87594" lon="0.24699">
        <ele>2614</ele>
        <time>2019-02-25T12:41:01Z</time>
      </trkpt>
      <trkpt lat="42.87595" lon="0.24701">
        <ele>2615</ele>
        <time>2019-02-25T12:41:04Z</time>
      </trkpt>
      <trkpt lat="42.87595" lon="0.24704">
        <ele>2616</ele>
        <time>2019-02-25T12:41:07Z</time>
      </trkpt>
      <trkpt lat="42.87596" lon="0.24707">
        <ele>2616</ele>
        <time>2019-02-25T12:41:10Z</time>
      </trkpt>
      <trkpt lat="42.87597" lon="0.24709">
        <ele>2616</ele>
        <time>2019-02-25T12:41:14Z</time>
      </trkpt>
      <trkpt lat="42.87597" lon="0.24712">
        <ele>2617</ele>
        <time>2019-02-25T12:41:17Z</time>
      </trkpt>
      <trkpt lat="42.87598" lon="0.24714">
        <ele>2618</ele>
        <time>2019-02-25T12:41:23Z</time>
      </trkpt>
      <trkpt lat="42.87599" lon="0.24717">
        <ele>2618</ele>
        <time>2019-02-25T12:41:26Z</time>
      </trkpt>
      <trkpt lat="42.876" lon="0.2472">
        <ele>2618</ele>
        <time>2019-02-25T12:41:29Z</time>
      </trkpt>
      <trkpt lat="42.87601" lon="0.24722">
        <ele>2619</ele>
        <time>2019-02-25T12:41:32Z</time>
      </trkpt>
      <trkpt lat="42.87602" lon="0.24725">
        <ele>2619</ele>
        <time>2019-02-25T12:41:40Z</time>
      </trkpt>
      <trkpt lat="42.87603" lon="0.24727">
        <ele>2620</ele>
        <time>2019-02-25T12:41:43Z</time>
      </trkpt>
      <trkpt lat="42.87603" lon="0.2473">
        <ele>2621</ele>
        <time>2019-02-25T12:41:46Z</time>
      </trkpt>
      <trkpt lat="42.87604" lon="0.24732">
        <ele>2621</ele>
        <time>2019-02-25T12:41:49Z</time>
      </trkpt>
      <trkpt lat="42.87605" lon="0.24735">
        <ele>2622</ele>
        <time>2019-02-25T12:41:52Z</time>
      </trkpt>
      <trkpt lat="42.87606" lon="0.24737">
        <ele>2622</ele>
        <time>2019-02-25T12:41:55Z</time>
      </trkpt>
      <trkpt lat="42.87607" lon="0.2474">
        <ele>2622</ele>
        <time>2019-02-25T12:41:58Z</time>
      </trkpt>
      <trkpt lat="42.87608" lon="0.24742">
        <ele>2622</ele>
        <time>2019-02-25T12:42:01Z</time>
      </trkpt>
      <trkpt lat="42.8761" lon="0.24745">
        <ele>2623</ele>
        <time>2019-02-25T12:42:04Z</time>
      </trkpt>
      <trkpt lat="42.87611" lon="0.24748">
        <ele>2624</ele>
        <time>2019-02-25T12:42:07Z</time>
      </trkpt>
      <trkpt lat="42.87611" lon="0.24745">
        <ele>2624</ele>
        <time>2019-02-25T12:42:40Z</time>
      </trkpt>
      <trkpt lat="42.87611" lon="0.24742">
        <ele>2625</ele>
        <time>2019-02-25T12:42:43Z</time>
      </trkpt>
      <trkpt lat="42.87612" lon="0.2474">
        <ele>2626</ele>
        <time>2019-02-25T12:42:46Z</time>
      </trkpt>
      <trkpt lat="42.87612" lon="0.24737">
        <ele>2626</ele>
        <time>2019-02-25T12:42:49Z</time>
      </trkpt>
      <trkpt lat="42.87613" lon="0.24735">
        <ele>2626</ele>
        <time>2019-02-25T12:42:52Z</time>
      </trkpt>
      <trkpt lat="42.87613" lon="0.24732">
        <ele>2626</ele>
        <time>2019-02-25T12:42:55Z</time>
      </trkpt>
      <trkpt lat="42.87614" lon="0.24729">
        <ele>2628</ele>
        <time>2019-02-25T12:42:58Z</time>
      </trkpt>
      <trkpt lat="42.87614" lon="0.24726">
        <ele>2628</ele>
        <time>2019-02-25T12:43:01Z</time>
      </trkpt>
      <trkpt lat="42.87615" lon="0.24723">
        <ele>2628</ele>
        <time>2019-02-25T12:43:04Z</time>
      </trkpt>
      <trkpt lat="42.87615" lon="0.2472">
        <ele>2630</ele>
        <time>2019-02-25T12:43:07Z</time>
      </trkpt>
      <trkpt lat="42.87616" lon="0.24718">
        <ele>2630</ele>
        <time>2019-02-25T12:43:10Z</time>
      </trkpt>
      <trkpt lat="42.87617" lon="0.24715">
        <ele>2630</ele>
        <time>2019-02-25T12:43:13Z</time>
      </trkpt>
      <trkpt lat="42.87618" lon="0.24713">
        <ele>2632</ele>
        <time>2019-02-25T12:43:16Z</time>
      </trkpt>
      <trkpt lat="42.87618" lon="0.2471">
        <ele>2632</ele>
        <time>2019-02-25T12:43:19Z</time>
      </trkpt>
      <trkpt lat="42.87619" lon="0.24707">
        <ele>2633</ele>
        <time>2019-02-25T12:43:22Z</time>
      </trkpt>
      <trkpt lat="42.8762" lon="0.24705">
        <ele>2633</ele>
        <time>2019-02-25T12:43:26Z</time>
      </trkpt>
      <trkpt lat="42.87621" lon="0.24702">
        <ele>2634</ele>
        <time>2019-02-25T12:43:30Z</time>
      </trkpt>
      <trkpt lat="42.87622" lon="0.24699">
        <ele>2635</ele>
        <time>2019-02-25T12:43:34Z</time>
      </trkpt>
      <trkpt lat="42.87623" lon="0.24697">
        <ele>2635</ele>
        <time>2019-02-25T12:43:38Z</time>
      </trkpt>
      <trkpt lat="42.87623" lon="0.24694">
        <ele>2636</ele>
        <time>2019-02-25T12:43:41Z</time>
      </trkpt>
      <trkpt lat="42.87624" lon="0.24692">
        <ele>2637</ele>
        <time>2019-02-25T12:43:44Z</time>
      </trkpt>
      <trkpt lat="42.87625" lon="0.24689">
        <ele>2638</ele>
        <time>2019-02-25T12:43:48Z</time>
      </trkpt>
      <trkpt lat="42.87625" lon="0.24686">
        <ele>2638</ele>
        <time>2019-02-25T12:43:53Z</time>
      </trkpt>
      <trkpt lat="42.87626" lon="0.24684">
        <ele>2638</ele>
        <time>2019-02-25T12:46:35Z</time>
      </trkpt>
      <trkpt lat="42.87624" lon="0.24685">
        <ele>2639</ele>
        <time>2019-02-25T12:48:12Z</time>
      </trkpt>
      <trkpt lat="42.87626" lon="0.2468">
        <ele>2639</ele>
        <time>2019-02-25T12:49:16Z</time>
      </trkpt>
      <trkpt lat="42.87625" lon="0.24683">
        <ele>2640</ele>
        <time>2019-02-25T13:14:37Z</time>
      </trkpt>
      <trkpt lat="42.87625" lon="0.24685">
        <ele>2640</ele>
        <time>2019-02-25T13:14:52Z</time>
      </trkpt>
      <trkpt lat="42.87626" lon="0.24684">
        <ele>2640</ele>
        <time>2019-02-25T13:16:16Z</time>
      </trkpt>
      <trkpt lat="42.87624" lon="0.24684">
        <ele>2640</ele>
        <time>2019-02-25T13:17:12Z</time>
      </trkpt>
      <trkpt lat="42.87623" lon="0.24683">
        <ele>2640</ele>
        <time>2019-02-25T13:20:37Z</time>
      </trkpt>
      <trkpt lat="42.87623" lon="0.24681">
        <ele>2640</ele>
        <time>2019-02-25T13:25:47Z</time>
      </trkpt>
      <trkpt lat="42.87623" lon="0.24678">
        <ele>2640</ele>
        <time>2019-02-25T13:25:54Z</time>
      </trkpt>
      <trkpt lat="42.87623" lon="0.24676">
        <ele>2640</ele>
        <time>2019-02-25T13:26:00Z</time>
      </trkpt>
      <trkpt lat="42.87622" lon="0.24673">
        <ele>2640</ele>
        <time>2019-02-25T13:26:05Z</time>
      </trkpt>
      <trkpt lat="42.87621" lon="0.24671">
        <ele>2640</ele>
        <time>2019-02-25T13:26:14Z</time>
      </trkpt>
      <trkpt lat="42.8762" lon="0.24668">
        <ele>2640</ele>
        <time>2019-02-25T13:26:21Z</time>
      </trkpt>
      <trkpt lat="42.8762" lon="0.24666">
        <ele>2640</ele>
        <time>2019-02-25T13:26:30Z</time>
      </trkpt>
      <trkpt lat="42.87619" lon="0.24663">
        <ele>2640</ele>
        <time>2019-02-25T13:26:43Z</time>
      </trkpt>
      <trkpt lat="42.87618" lon="0.24661">
        <ele>2646</ele>
        <time>2019-02-25T13:27:15Z</time>
      </trkpt>
      <trkpt lat="42.87617" lon="0.24659">
        <ele>2647</ele>
        <time>2019-02-25T13:27:28Z</time>
      </trkpt>
      <trkpt lat="42.87615" lon="0.24655">
        <ele>2647</ele>
        <time>2019-02-25T13:27:38Z</time>
      </trkpt>
      <trkpt lat="42.87617" lon="0.24655">
        <ele>2647</ele>
        <time>2019-02-25T13:28:02Z</time>
      </trkpt>
      <trkpt lat="42.87618" lon="0.24654">
        <ele>2649</ele>
        <time>2019-02-25T13:28:14Z</time>
      </trkpt>
      <trkpt lat="42.8762" lon="0.24655">
        <ele>2651</ele>
        <time>2019-02-25T13:29:03Z</time>
      </trkpt>
      <trkpt lat="42.87622" lon="0.24656">
        <ele>2654</ele>
        <time>2019-02-25T13:29:50Z</time>
      </trkpt>
      <trkpt lat="42.87621" lon="0.24659">
        <ele>2656</ele>
        <time>2019-02-25T13:30:01Z</time>
      </trkpt>
      <trkpt lat="42.87622" lon="0.24656">
        <ele>2655</ele>
        <time>2019-02-25T13:30:41Z</time>
      </trkpt>
      <trkpt lat="42.87621" lon="0.24654">
        <ele>2655</ele>
        <time>2019-02-25T13:30:46Z</time>
      </trkpt>
      <trkpt lat="42.8762" lon="0.24652">
        <ele>2657</ele>
        <time>2019-02-25T13:30:57Z</time>
      </trkpt>
      <trkpt lat="42.87618" lon="0.24649">
        <ele>2657</ele>
        <time>2019-02-25T13:31:01Z</time>
      </trkpt>
      <trkpt lat="42.87617" lon="0.24647">
        <ele>2657</ele>
        <time>2019-02-25T13:31:04Z</time>
      </trkpt>
      <trkpt lat="42.87616" lon="0.24645">
        <ele>2657</ele>
        <time>2019-02-25T13:31:09Z</time>
      </trkpt>
      <trkpt lat="42.87616" lon="0.24642">
        <ele>2659</ele>
        <time>2019-02-25T13:31:47Z</time>
      </trkpt>
      <trkpt lat="42.87615" lon="0.2464">
        <ele>2659</ele>
        <time>2019-02-25T13:31:59Z</time>
      </trkpt>
      <trkpt lat="42.87615" lon="0.24636">
        <ele>2659</ele>
        <time>2019-02-25T13:32:02Z</time>
      </trkpt>
      <trkpt lat="42.87614" lon="0.24633">
        <ele>2657</ele>
        <time>2019-02-25T13:32:05Z</time>
      </trkpt>
      <trkpt lat="42.87614" lon="0.2463">
        <ele>2657</ele>
        <time>2019-02-25T13:32:08Z</time>
      </trkpt>
      <trkpt lat="42.87613" lon="0.24627">
        <ele>2656</ele>
        <time>2019-02-25T13:32:11Z</time>
      </trkpt>
      <trkpt lat="42.87612" lon="0.24625">
        <ele>2657</ele>
        <time>2019-02-25T13:32:21Z</time>
      </trkpt>
      <trkpt lat="42.87612" lon="0.24622">
        <ele>2658</ele>
        <time>2019-02-25T13:32:29Z</time>
      </trkpt>
      <trkpt lat="42.87612" lon="0.24619">
        <ele>2659</ele>
        <time>2019-02-25T13:32:35Z</time>
      </trkpt>
      <trkpt lat="42.87611" lon="0.24617">
        <ele>2659</ele>
        <time>2019-02-25T13:32:44Z</time>
      </trkpt>
      <trkpt lat="42.87611" lon="0.24614">
        <ele>2661</ele>
        <time>2019-02-25T13:33:00Z</time>
      </trkpt>
      <trkpt lat="42.87611" lon="0.24611">
        <ele>2663</ele>
        <time>2019-02-25T13:33:26Z</time>
      </trkpt>
      <trkpt lat="42.87609" lon="0.2461">
        <ele>2664</ele>
        <time>2019-02-25T13:36:14Z</time>
      </trkpt>
      <trkpt lat="42.87608" lon="0.24608">
        <ele>2664</ele>
        <time>2019-02-25T13:36:19Z</time>
      </trkpt>
      <trkpt lat="42.87606" lon="0.24607">
        <ele>2664</ele>
        <time>2019-02-25T13:36:23Z</time>
      </trkpt>
      <trkpt lat="42.87605" lon="0.24606">
        <ele>2665</ele>
        <time>2019-02-25T13:36:27Z</time>
      </trkpt>
      <trkpt lat="42.87603" lon="0.24605">
        <ele>2666</ele>
        <time>2019-02-25T13:36:31Z</time>
      </trkpt>
      <trkpt lat="42.87601" lon="0.24603">
        <ele>2666</ele>
        <time>2019-02-25T13:36:36Z</time>
      </trkpt>
      <trkpt lat="42.87599" lon="0.24602">
        <ele>2667</ele>
        <time>2019-02-25T13:36:45Z</time>
      </trkpt>
      <trkpt lat="42.87598" lon="0.246">
        <ele>2668</ele>
        <time>2019-02-25T13:36:53Z</time>
      </trkpt>
      <trkpt lat="42.87596" lon="0.24599">
        <ele>2669</ele>
        <time>2019-02-25T13:36:58Z</time>
      </trkpt>
      <trkpt lat="42.87594" lon="0.24598">
        <ele>2670</ele>
        <time>2019-02-25T13:37:03Z</time>
      </trkpt>
      <trkpt lat="42.87593" lon="0.24596">
        <ele>2670</ele>
        <time>2019-02-25T13:37:08Z</time>
      </trkpt>
      <trkpt lat="42.87591" lon="0.24595">
        <ele>2671</ele>
        <time>2019-02-25T13:37:14Z</time>
      </trkpt>
      <trkpt lat="42.8759" lon="0.24594">
        <ele>2673</ele>
        <time>2019-02-25T13:37:21Z</time>
      </trkpt>
      <trkpt lat="42.87588" lon="0.24592">
        <ele>2674</ele>
        <time>2019-02-25T13:37:29Z</time>
      </trkpt>
      <trkpt lat="42.87587" lon="0.2459">
        <ele>2674</ele>
        <time>2019-02-25T13:37:35Z</time>
      </trkpt>
      <trkpt lat="42.87586" lon="0.24588">
        <ele>2675</ele>
        <time>2019-02-25T13:37:42Z</time>
      </trkpt>
      <trkpt lat="42.87585" lon="0.24585">
        <ele>2676</ele>
        <time>2019-02-25T13:37:49Z</time>
      </trkpt>
      <trkpt lat="42.87585" lon="0.24583">
        <ele>2677</ele>
        <time>2019-02-25T13:37:56Z</time>
      </trkpt>
      <trkpt lat="42.87583" lon="0.24581">
        <ele>2678</ele>
        <time>2019-02-25T13:38:05Z</time>
      </trkpt>
      <trkpt lat="42.87582" lon="0.24579">
        <ele>2679</ele>
        <time>2019-02-25T13:38:11Z</time>
      </trkpt>
      <trkpt lat="42.87581" lon="0.24577">
        <ele>2680</ele>
        <time>2019-02-25T13:38:18Z</time>
      </trkpt>
      <trkpt lat="42.87579" lon="0.24575">
        <ele>2681</ele>
        <time>2019-02-25T13:38:25Z</time>
      </trkpt>
      <trkpt lat="42.87578" lon="0.24574">
        <ele>2682</ele>
        <time>2019-02-25T13:38:34Z</time>
      </trkpt>
      <trkpt lat="42.87576" lon="0.24572">
        <ele>2683</ele>
        <time>2019-02-25T13:38:43Z</time>
      </trkpt>
      <trkpt lat="42.87575" lon="0.2457">
        <ele>2684</ele>
        <time>2019-02-25T13:38:52Z</time>
      </trkpt>
      <trkpt lat="42.87574" lon="0.24567">
        <ele>2685</ele>
        <time>2019-02-25T13:38:58Z</time>
      </trkpt>
      <trkpt lat="42.87573" lon="0.24565">
        <ele>2685</ele>
        <time>2019-02-25T13:39:03Z</time>
      </trkpt>
      <trkpt lat="42.87573" lon="0.24562">
        <ele>2686</ele>
        <time>2019-02-25T13:39:08Z</time>
      </trkpt>
      <trkpt lat="42.87572" lon="0.24559">
        <ele>2686</ele>
        <time>2019-02-25T13:39:14Z</time>
      </trkpt>
      <trkpt lat="42.87572" lon="0.24556">
        <ele>2687</ele>
        <time>2019-02-25T13:39:20Z</time>
      </trkpt>
      <trkpt lat="42.87571" lon="0.24554">
        <ele>2687</ele>
        <time>2019-02-25T13:39:25Z</time>
      </trkpt>
      <trkpt lat="42.8757" lon="0.24551">
        <ele>2688</ele>
        <time>2019-02-25T13:39:32Z</time>
      </trkpt>
      <trkpt lat="42.8757" lon="0.24549">
        <ele>2688</ele>
        <time>2019-02-25T13:39:42Z</time>
      </trkpt>
      <trkpt lat="42.87569" lon="0.24546">
        <ele>2689</ele>
        <time>2019-02-25T13:39:49Z</time>
      </trkpt>
      <trkpt lat="42.87569" lon="0.24544">
        <ele>2690</ele>
        <time>2019-02-25T13:39:56Z</time>
      </trkpt>
      <trkpt lat="42.87569" lon="0.24541">
        <ele>2691</ele>
        <time>2019-02-25T13:40:04Z</time>
      </trkpt>
      <trkpt lat="42.87569" lon="0.24536">
        <ele>2693</ele>
        <time>2019-02-25T13:40:21Z</time>
      </trkpt>
      <trkpt lat="42.87569" lon="0.24533">
        <ele>2695</ele>
        <time>2019-02-25T13:40:35Z</time>
      </trkpt>
      <trkpt lat="42.87568" lon="0.24531">
        <ele>2697</ele>
        <time>2019-02-25T13:40:52Z</time>
      </trkpt>
      <trkpt lat="42.87566" lon="0.2453">
        <ele>2697</ele>
        <time>2019-02-25T13:41:01Z</time>
      </trkpt>
      <trkpt lat="42.87565" lon="0.24527">
        <ele>2699</ele>
        <time>2019-02-25T13:41:10Z</time>
      </trkpt>
      <trkpt lat="42.87563" lon="0.24526">
        <ele>2700</ele>
        <time>2019-02-25T13:41:15Z</time>
      </trkpt>
      <trkpt lat="42.87562" lon="0.24523">
        <ele>2700</ele>
        <time>2019-02-25T13:41:24Z</time>
      </trkpt>
      <trkpt lat="42.8756" lon="0.24522">
        <ele>2701</ele>
        <time>2019-02-25T13:41:42Z</time>
      </trkpt>
      <trkpt lat="42.87559" lon="0.24519">
        <ele>2702</ele>
        <time>2019-02-25T13:41:47Z</time>
      </trkpt>
      <trkpt lat="42.87558" lon="0.24517">
        <ele>2702</ele>
        <time>2019-02-25T13:41:51Z</time>
      </trkpt>
      <trkpt lat="42.87557" lon="0.24515">
        <ele>2703</ele>
        <time>2019-02-25T13:41:56Z</time>
      </trkpt>
      <trkpt lat="42.87556" lon="0.24512">
        <ele>2705</ele>
        <time>2019-02-25T13:42:19Z</time>
      </trkpt>
      <trkpt lat="42.87556" lon="0.2451">
        <ele>2705</ele>
        <time>2019-02-25T13:42:25Z</time>
      </trkpt>
      <trkpt lat="42.87557" lon="0.24507">
        <ele>2707</ele>
        <time>2019-02-25T13:42:44Z</time>
      </trkpt>
      <trkpt lat="42.87557" lon="0.24505">
        <ele>2708</ele>
        <time>2019-02-25T13:42:50Z</time>
      </trkpt>
      <trkpt lat="42.87557" lon="0.24502">
        <ele>2709</ele>
        <time>2019-02-25T13:43:04Z</time>
      </trkpt>
      <trkpt lat="42.87558" lon="0.245">
        <ele>2710</ele>
        <time>2019-02-25T13:43:14Z</time>
      </trkpt>
      <trkpt lat="42.87558" lon="0.24497">
        <ele>2712</ele>
        <time>2019-02-25T13:43:32Z</time>
      </trkpt>
      <trkpt lat="42.87556" lon="0.24496">
        <ele>2715</ele>
        <time>2019-02-25T13:44:30Z</time>
      </trkpt>
      <trkpt lat="42.87555" lon="0.24494">
        <ele>2715</ele>
        <time>2019-02-25T13:44:34Z</time>
      </trkpt>
      <trkpt lat="42.87554" lon="0.24492">
        <ele>2715</ele>
        <time>2019-02-25T13:44:40Z</time>
      </trkpt>
      <trkpt lat="42.87552" lon="0.2449">
        <ele>2717</ele>
        <time>2019-02-25T13:44:45Z</time>
      </trkpt>
      <trkpt lat="42.87551" lon="0.24488">
        <ele>2718</ele>
        <time>2019-02-25T13:44:51Z</time>
      </trkpt>
      <trkpt lat="42.8755" lon="0.24486">
        <ele>2718</ele>
        <time>2019-02-25T13:44:55Z</time>
      </trkpt>
      <trkpt lat="42.87548" lon="0.24484">
        <ele>2718</ele>
        <time>2019-02-25T13:44:59Z</time>
      </trkpt>
      <trkpt lat="42.87546" lon="0.24484">
        <ele>2718</ele>
        <time>2019-02-25T13:45:02Z</time>
      </trkpt>
      <trkpt lat="42.87544" lon="0.24482">
        <ele>2719</ele>
        <time>2019-02-25T13:45:05Z</time>
      </trkpt>
      <trkpt lat="42.87543" lon="0.2448">
        <ele>2719</ele>
        <time>2019-02-25T13:45:10Z</time>
      </trkpt>
      <trkpt lat="42.87541" lon="0.24479">
        <ele>2720</ele>
        <time>2019-02-25T13:45:13Z</time>
      </trkpt>
      <trkpt lat="42.87539" lon="0.24478">
        <ele>2720</ele>
        <time>2019-02-25T13:45:16Z</time>
      </trkpt>
      <trkpt lat="42.87537" lon="0.24478">
        <ele>2720</ele>
        <time>2019-02-25T13:45:19Z</time>
      </trkpt>
      <trkpt lat="42.87533" lon="0.24477">
        <ele>2721</ele>
        <time>2019-02-25T13:45:27Z</time>
      </trkpt>
      <trkpt lat="42.87532" lon="0.24474">
        <ele>2722</ele>
        <time>2019-02-25T13:45:37Z</time>
      </trkpt>
      <trkpt lat="42.87532" lon="0.24472">
        <ele>2725</ele>
        <time>2019-02-25T13:45:54Z</time>
      </trkpt>
      <trkpt lat="42.87531" lon="0.2447">
        <ele>2725</ele>
        <time>2019-02-25T13:46:10Z</time>
      </trkpt>
      <trkpt lat="42.8753" lon="0.24468">
        <ele>2726</ele>
        <time>2019-02-25T13:46:23Z</time>
      </trkpt>
      <trkpt lat="42.87529" lon="0.24466">
        <ele>2728</ele>
        <time>2019-02-25T13:46:49Z</time>
      </trkpt>
      <trkpt lat="42.87528" lon="0.24463">
        <ele>2731</ele>
        <time>2019-02-25T13:47:05Z</time>
      </trkpt>
      <trkpt lat="42.87527" lon="0.24461">
        <ele>2732</ele>
        <time>2019-02-25T13:47:14Z</time>
      </trkpt>
      <trkpt lat="42.87525" lon="0.2446">
        <ele>2732</ele>
        <time>2019-02-25T13:47:24Z</time>
      </trkpt>
      <trkpt lat="42.87523" lon="0.24459">
        <ele>2734</ele>
        <time>2019-02-25T13:47:29Z</time>
      </trkpt>
      <trkpt lat="42.87521" lon="0.24459">
        <ele>2734</ele>
        <time>2019-02-25T13:47:36Z</time>
      </trkpt>
      <trkpt lat="42.87519" lon="0.24458">
        <ele>2734</ele>
        <time>2019-02-25T13:47:42Z</time>
      </trkpt>
      <trkpt lat="42.87517" lon="0.24459">
        <ele>2735</ele>
        <time>2019-02-25T13:47:55Z</time>
      </trkpt>
      <trkpt lat="42.87515" lon="0.24458">
        <ele>2735</ele>
        <time>2019-02-25T13:48:04Z</time>
      </trkpt>
      <trkpt lat="42.8751" lon="0.24459">
        <ele>2737</ele>
        <time>2019-02-25T13:48:10Z</time>
      </trkpt>
      <trkpt lat="42.87508" lon="0.24459">
        <ele>2737</ele>
        <time>2019-02-25T13:48:14Z</time>
      </trkpt>
      <trkpt lat="42.87506" lon="0.24459">
        <ele>2737</ele>
        <time>2019-02-25T13:48:22Z</time>
      </trkpt>
      <trkpt lat="42.87504" lon="0.24459">
        <ele>2737</ele>
        <time>2019-02-25T13:48:30Z</time>
      </trkpt>
      <trkpt lat="42.87502" lon="0.24459">
        <ele>2737</ele>
        <time>2019-02-25T13:48:33Z</time>
      </trkpt>
      <trkpt lat="42.875" lon="0.24459">
        <ele>2737</ele>
        <time>2019-02-25T13:48:37Z</time>
      </trkpt>
      <trkpt lat="42.87498" lon="0.2446">
        <ele>2736</ele>
        <time>2019-02-25T13:48:41Z</time>
      </trkpt>
      <trkpt lat="42.87496" lon="0.2446">
        <ele>2736</ele>
        <time>2019-02-25T13:48:43Z</time>
      </trkpt>
      <trkpt lat="42.87494" lon="0.2446">
        <ele>2735</ele>
        <time>2019-02-25T13:48:45Z</time>
      </trkpt>
      <trkpt lat="42.87492" lon="0.24459">
        <ele>2735</ele>
        <time>2019-02-25T13:48:47Z</time>
      </trkpt>
      <trkpt lat="42.8749" lon="0.24459">
        <ele>2734</ele>
        <time>2019-02-25T13:48:49Z</time>
      </trkpt>
      <trkpt lat="42.87487" lon="0.24458">
        <ele>2734</ele>
        <time>2019-02-25T13:48:52Z</time>
      </trkpt>
      <trkpt lat="42.87483" lon="0.24458">
        <ele>2734</ele>
        <time>2019-02-25T13:48:58Z</time>
      </trkpt>
      <trkpt lat="42.8748" lon="0.24458">
        <ele>2735</ele>
        <time>2019-02-25T13:49:01Z</time>
      </trkpt>
      <trkpt lat="42.87478" lon="0.24458">
        <ele>2735</ele>
        <time>2019-02-25T13:49:04Z</time>
      </trkpt>
      <trkpt lat="42.87476" lon="0.24458">
        <ele>2736</ele>
        <time>2019-02-25T13:49:07Z</time>
      </trkpt>
      <trkpt lat="42.87474" lon="0.24458">
        <ele>2736</ele>
        <time>2019-02-25T13:49:10Z</time>
      </trkpt>
      <trkpt lat="42.87472" lon="0.24457">
        <ele>2736</ele>
        <time>2019-02-25T13:49:13Z</time>
      </trkpt>
      <trkpt lat="42.8747" lon="0.24456">
        <ele>2737</ele>
        <time>2019-02-25T13:49:17Z</time>
      </trkpt>
      <trkpt lat="42.87468" lon="0.24455">
        <ele>2737</ele>
        <time>2019-02-25T13:49:21Z</time>
      </trkpt>
      <trkpt lat="42.87466" lon="0.24454">
        <ele>2737</ele>
        <time>2019-02-25T13:49:42Z</time>
      </trkpt>
      <trkpt lat="42.87464" lon="0.24455">
        <ele>2737</ele>
        <time>2019-02-25T13:49:48Z</time>
      </trkpt>
      <trkpt lat="42.87462" lon="0.24457">
        <ele>2737</ele>
        <time>2019-02-25T13:49:51Z</time>
      </trkpt>
      <trkpt lat="42.8746" lon="0.24457">
        <ele>2736</ele>
        <time>2019-02-25T13:49:54Z</time>
      </trkpt>
      <trkpt lat="42.87459" lon="0.24455">
        <ele>2736</ele>
        <time>2019-02-25T13:50:28Z</time>
      </trkpt>
      <trkpt lat="42.87458" lon="0.24453">
        <ele>2736</ele>
        <time>2019-02-25T13:50:33Z</time>
      </trkpt>
      <trkpt lat="42.87456" lon="0.24453">
        <ele>2735</ele>
        <time>2019-02-25T13:50:38Z</time>
      </trkpt>
      <trkpt lat="42.87454" lon="0.24451">
        <ele>2734</ele>
        <time>2019-02-25T13:50:46Z</time>
      </trkpt>
      <trkpt lat="42.87452" lon="0.2445">
        <ele>2733</ele>
        <time>2019-02-25T13:50:51Z</time>
      </trkpt>
      <trkpt lat="42.8745" lon="0.24448">
        <ele>2733</ele>
        <time>2019-02-25T13:50:54Z</time>
      </trkpt>
      <trkpt lat="42.87449" lon="0.24446">
        <ele>2733</ele>
        <time>2019-02-25T13:50:57Z</time>
      </trkpt>
      <trkpt lat="42.87448" lon="0.24444">
        <ele>2733</ele>
        <time>2019-02-25T13:50:59Z</time>
      </trkpt>
      <trkpt lat="42.87446" lon="0.24442">
        <ele>2733</ele>
        <time>2019-02-25T13:51:02Z</time>
      </trkpt>
      <trkpt lat="42.87444" lon="0.2444">
        <ele>2732</ele>
        <time>2019-02-25T13:51:06Z</time>
      </trkpt>
      <trkpt lat="42.87442" lon="0.24437">
        <ele>2732</ele>
        <time>2019-02-25T13:51:13Z</time>
      </trkpt>
      <trkpt lat="42.8744" lon="0.24435">
        <ele>2732</ele>
        <time>2019-02-25T13:51:19Z</time>
      </trkpt>
      <trkpt lat="42.87439" lon="0.24433">
        <ele>2732</ele>
        <time>2019-02-25T13:51:42Z</time>
      </trkpt>
      <trkpt lat="42.87438" lon="0.24431">
        <ele>2732</ele>
        <time>2019-02-25T13:51:45Z</time>
      </trkpt>
      <trkpt lat="42.87437" lon="0.24429">
        <ele>2731</ele>
        <time>2019-02-25T13:51:48Z</time>
      </trkpt>
      <trkpt lat="42.87435" lon="0.24426">
        <ele>2732</ele>
        <time>2019-02-25T13:51:52Z</time>
      </trkpt>
      <trkpt lat="42.87434" lon="0.24424">
        <ele>2732</ele>
        <time>2019-02-25T13:51:55Z</time>
      </trkpt>
      <trkpt lat="42.87433" lon="0.24422">
        <ele>2732</ele>
        <time>2019-02-25T13:51:58Z</time>
      </trkpt>
      <trkpt lat="42.87431" lon="0.24421">
        <ele>2732</ele>
        <time>2019-02-25T13:52:02Z</time>
      </trkpt>
      <trkpt lat="42.8743" lon="0.24419">
        <ele>2733</ele>
        <time>2019-02-25T13:52:05Z</time>
      </trkpt>
      <trkpt lat="42.87428" lon="0.24417">
        <ele>2733</ele>
        <time>2019-02-25T13:52:08Z</time>
      </trkpt>
      <trkpt lat="42.87427" lon="0.24415">
        <ele>2733</ele>
        <time>2019-02-25T13:52:11Z</time>
      </trkpt>
      <trkpt lat="42.87425" lon="0.24413">
        <ele>2734</ele>
        <time>2019-02-25T13:52:19Z</time>
      </trkpt>
      <trkpt lat="42.87424" lon="0.24411">
        <ele>2734</ele>
        <time>2019-02-25T13:52:24Z</time>
      </trkpt>
      <trkpt lat="42.87423" lon="0.24408">
        <ele>2736</ele>
        <time>2019-02-25T13:52:31Z</time>
      </trkpt>
      <trkpt lat="42.87421" lon="0.24408">
        <ele>2737</ele>
        <time>2019-02-25T13:52:35Z</time>
      </trkpt>
      <trkpt lat="42.8742" lon="0.24406">
        <ele>2737</ele>
        <time>2019-02-25T13:52:39Z</time>
      </trkpt>
      <trkpt lat="42.87419" lon="0.24403">
        <ele>2737</ele>
        <time>2019-02-25T13:52:51Z</time>
      </trkpt>
      <trkpt lat="42.87418" lon="0.244">
        <ele>2738</ele>
        <time>2019-02-25T13:52:55Z</time>
      </trkpt>
      <trkpt lat="42.87417" lon="0.24398">
        <ele>2738</ele>
        <time>2019-02-25T13:52:58Z</time>
      </trkpt>
      <trkpt lat="42.87416" lon="0.24396">
        <ele>2738</ele>
        <time>2019-02-25T13:53:02Z</time>
      </trkpt>
      <trkpt lat="42.87414" lon="0.24394">
        <ele>2738</ele>
        <time>2019-02-25T13:53:12Z</time>
      </trkpt>
      <trkpt lat="42.87413" lon="0.24392">
        <ele>2739</ele>
        <time>2019-02-25T13:53:16Z</time>
      </trkpt>
      <trkpt lat="42.87411" lon="0.2439">
        <ele>2739</ele>
        <time>2019-02-25T13:53:19Z</time>
      </trkpt>
      <trkpt lat="42.8741" lon="0.24387">
        <ele>2739</ele>
        <time>2019-02-25T13:53:23Z</time>
      </trkpt>
      <trkpt lat="42.87408" lon="0.24387">
        <ele>2739</ele>
        <time>2019-02-25T13:57:23Z</time>
      </trkpt>
      <trkpt lat="42.87409" lon="0.24385">
        <ele>2739</ele>
        <time>2019-02-25T14:10:22Z</time>
      </trkpt>
      <trkpt lat="42.87409" lon="0.24388">
        <ele>2739</ele>
        <time>2019-02-25T14:15:31Z</time>
      </trkpt>
      <trkpt lat="42.87411" lon="0.24389">
        <ele>2739</ele>
        <time>2019-02-25T14:15:57Z</time>
      </trkpt>
      <trkpt lat="42.87413" lon="0.24391">
        <ele>2739</ele>
        <time>2019-02-25T14:16:06Z</time>
      </trkpt>
      <trkpt lat="42.87415" lon="0.24393">
        <ele>2739</ele>
        <time>2019-02-25T14:16:09Z</time>
      </trkpt>
      <trkpt lat="42.87416" lon="0.24395">
        <ele>2739</ele>
        <time>2019-02-25T14:16:11Z</time>
      </trkpt>
      <trkpt lat="42.87418" lon="0.24397">
        <ele>2739</ele>
        <time>2019-02-25T14:16:13Z</time>
      </trkpt>
      <trkpt lat="42.87419" lon="0.24399">
        <ele>2739</ele>
        <time>2019-02-25T14:16:15Z</time>
      </trkpt>
      <trkpt lat="42.8742" lon="0.24402">
        <ele>2739</ele>
        <time>2019-02-25T14:16:18Z</time>
      </trkpt>
      <trkpt lat="42.87421" lon="0.24404">
        <ele>2739</ele>
        <time>2019-02-25T14:16:21Z</time>
      </trkpt>
      <trkpt lat="42.87423" lon="0.24406">
        <ele>2739</ele>
        <time>2019-02-25T14:16:25Z</time>
      </trkpt>
      <trkpt lat="42.87425" lon="0.24408">
        <ele>2739</ele>
        <time>2019-02-25T14:16:28Z</time>
      </trkpt>
      <trkpt lat="42.87426" lon="0.2441">
        <ele>2739</ele>
        <time>2019-02-25T14:16:31Z</time>
      </trkpt>
      <trkpt lat="42.87427" lon="0.24413">
        <ele>2739</ele>
        <time>2019-02-25T14:16:35Z</time>
      </trkpt>
      <trkpt lat="42.87428" lon="0.24415">
        <ele>2734</ele>
        <time>2019-02-25T14:16:38Z</time>
      </trkpt>
      <trkpt lat="42.8743" lon="0.24417">
        <ele>2734</ele>
        <time>2019-02-25T14:16:41Z</time>
      </trkpt>
      <trkpt lat="42.87431" lon="0.2442">
        <ele>2734</ele>
        <time>2019-02-25T14:16:44Z</time>
      </trkpt>
      <trkpt lat="42.87433" lon="0.24421">
        <ele>2733</ele>
        <time>2019-02-25T14:16:47Z</time>
      </trkpt>
      <trkpt lat="42.87434" lon="0.24424">
        <ele>2733</ele>
        <time>2019-02-25T14:16:50Z</time>
      </trkpt>
      <trkpt lat="42.87436" lon="0.24426">
        <ele>2733</ele>
        <time>2019-02-25T14:16:53Z</time>
      </trkpt>
      <trkpt lat="42.87437" lon="0.24428">
        <ele>2732</ele>
        <time>2019-02-25T14:16:55Z</time>
      </trkpt>
      <trkpt lat="42.87438" lon="0.24431">
        <ele>2731</ele>
        <time>2019-02-25T14:16:57Z</time>
      </trkpt>
      <trkpt lat="42.8744" lon="0.24433">
        <ele>2731</ele>
        <time>2019-02-25T14:16:59Z</time>
      </trkpt>
      <trkpt lat="42.87441" lon="0.24434">
        <ele>2731</ele>
        <time>2019-02-25T14:17:02Z</time>
      </trkpt>
      <trkpt lat="42.87443" lon="0.24437">
        <ele>2731</ele>
        <time>2019-02-25T14:17:05Z</time>
      </trkpt>
      <trkpt lat="42.87444" lon="0.24439">
        <ele>2731</ele>
        <time>2019-02-25T14:17:08Z</time>
      </trkpt>
      <trkpt lat="42.87445" lon="0.24441">
        <ele>2731</ele>
        <time>2019-02-25T14:17:12Z</time>
      </trkpt>
      <trkpt lat="42.87447" lon="0.24442">
        <ele>2731</ele>
        <time>2019-02-25T14:17:16Z</time>
      </trkpt>
      <trkpt lat="42.87448" lon="0.24444">
        <ele>2731</ele>
        <time>2019-02-25T14:17:19Z</time>
      </trkpt>
      <trkpt lat="42.87449" lon="0.24447">
        <ele>2733</ele>
        <time>2019-02-25T14:17:25Z</time>
      </trkpt>
      <trkpt lat="42.87451" lon="0.24449">
        <ele>2734</ele>
        <time>2019-02-25T14:17:33Z</time>
      </trkpt>
      <trkpt lat="42.87453" lon="0.24449">
        <ele>2734</ele>
        <time>2019-02-25T14:17:44Z</time>
      </trkpt>
      <trkpt lat="42.87454" lon="0.24451">
        <ele>2736</ele>
        <time>2019-02-25T14:17:51Z</time>
      </trkpt>
      <trkpt lat="42.87456" lon="0.24453">
        <ele>2737</ele>
        <time>2019-02-25T14:18:00Z</time>
      </trkpt>
      <trkpt lat="42.87458" lon="0.24454">
        <ele>2737</ele>
        <time>2019-02-25T14:18:04Z</time>
      </trkpt>
      <trkpt lat="42.8746" lon="0.24456">
        <ele>2737</ele>
        <time>2019-02-25T14:18:08Z</time>
      </trkpt>
      <trkpt lat="42.87462" lon="0.24456">
        <ele>2737</ele>
        <time>2019-02-25T14:18:12Z</time>
      </trkpt>
      <trkpt lat="42.87464" lon="0.24457">
        <ele>2737</ele>
        <time>2019-02-25T14:18:15Z</time>
      </trkpt>
      <trkpt lat="42.87466" lon="0.24456">
        <ele>2737</ele>
        <time>2019-02-25T14:18:18Z</time>
      </trkpt>
      <trkpt lat="42.87468" lon="0.24456">
        <ele>2737</ele>
        <time>2019-02-25T14:18:21Z</time>
      </trkpt>
      <trkpt lat="42.8747" lon="0.24456">
        <ele>2737</ele>
        <time>2019-02-25T14:18:24Z</time>
      </trkpt>
      <trkpt lat="42.87472" lon="0.24456">
        <ele>2737</ele>
        <time>2019-02-25T14:18:27Z</time>
      </trkpt>
      <trkpt lat="42.87474" lon="0.24457">
        <ele>2737</ele>
        <time>2019-02-25T14:18:31Z</time>
      </trkpt>
      <trkpt lat="42.87476" lon="0.24457">
        <ele>2737</ele>
        <time>2019-02-25T14:18:34Z</time>
      </trkpt>
      <trkpt lat="42.87479" lon="0.24458">
        <ele>2737</ele>
        <time>2019-02-25T14:18:38Z</time>
      </trkpt>
      <trkpt lat="42.87481" lon="0.24457">
        <ele>2737</ele>
        <time>2019-02-25T14:18:41Z</time>
      </trkpt>
      <trkpt lat="42.87483" lon="0.24458">
        <ele>2737</ele>
        <time>2019-02-25T14:18:44Z</time>
      </trkpt>
      <trkpt lat="42.87485" lon="0.24458">
        <ele>2737</ele>
        <time>2019-02-25T14:18:47Z</time>
      </trkpt>
      <trkpt lat="42.8749" lon="0.24458">
        <ele>2736</ele>
        <time>2019-02-25T14:18:53Z</time>
      </trkpt>
      <trkpt lat="42.87493" lon="0.24459">
        <ele>2737</ele>
        <time>2019-02-25T14:18:57Z</time>
      </trkpt>
      <trkpt lat="42.87494" lon="0.24459">
        <ele>2737</ele>
        <time>2019-02-25T14:19:00Z</time>
      </trkpt>
      <trkpt lat="42.87496" lon="0.24459">
        <ele>2737</ele>
        <time>2019-02-25T14:19:03Z</time>
      </trkpt>
      <trkpt lat="42.87499" lon="0.24459">
        <ele>2737</ele>
        <time>2019-02-25T14:19:08Z</time>
      </trkpt>
      <trkpt lat="42.87501" lon="0.24458">
        <ele>2737</ele>
        <time>2019-02-25T14:19:15Z</time>
      </trkpt>
      <trkpt lat="42.87502" lon="0.24459">
        <ele>2738</ele>
        <time>2019-02-25T14:19:19Z</time>
      </trkpt>
      <trkpt lat="42.87504" lon="0.24458">
        <ele>2738</ele>
        <time>2019-02-25T14:19:23Z</time>
      </trkpt>
      <trkpt lat="42.87506" lon="0.24458">
        <ele>2738</ele>
        <time>2019-02-25T14:19:27Z</time>
      </trkpt>
      <trkpt lat="42.87508" lon="0.24458">
        <ele>2738</ele>
        <time>2019-02-25T14:19:32Z</time>
      </trkpt>
      <trkpt lat="42.8751" lon="0.24458">
        <ele>2738</ele>
        <time>2019-02-25T14:19:36Z</time>
      </trkpt>
      <trkpt lat="42.87512" lon="0.24458">
        <ele>2738</ele>
        <time>2019-02-25T14:19:40Z</time>
      </trkpt>
      <trkpt lat="42.87514" lon="0.24458">
        <ele>2737</ele>
        <time>2019-02-25T14:19:49Z</time>
      </trkpt>
      <trkpt lat="42.87516" lon="0.24458">
        <ele>2737</ele>
        <time>2019-02-25T14:19:58Z</time>
      </trkpt>
      <trkpt lat="42.87518" lon="0.24458">
        <ele>2737</ele>
        <time>2019-02-25T14:20:01Z</time>
      </trkpt>
      <trkpt lat="42.8752" lon="0.24457">
        <ele>2737</ele>
        <time>2019-02-25T14:20:04Z</time>
      </trkpt>
      <trkpt lat="42.87521" lon="0.24458">
        <ele>2736</ele>
        <time>2019-02-25T14:20:10Z</time>
      </trkpt>
      <trkpt lat="42.87523" lon="0.2446">
        <ele>2735</ele>
        <time>2019-02-25T14:20:41Z</time>
      </trkpt>
      <trkpt lat="42.87522" lon="0.24462">
        <ele>2734</ele>
        <time>2019-02-25T14:20:52Z</time>
      </trkpt>
      <trkpt lat="42.87524" lon="0.24465">
        <ele>2733</ele>
        <time>2019-02-25T14:21:01Z</time>
      </trkpt>
      <trkpt lat="42.87525" lon="0.24467">
        <ele>2732</ele>
        <time>2019-02-25T14:21:09Z</time>
      </trkpt>
      <trkpt lat="42.87527" lon="0.24468">
        <ele>2731</ele>
        <time>2019-02-25T14:21:15Z</time>
      </trkpt>
      <trkpt lat="42.87528" lon="0.24469">
        <ele>2729</ele>
        <time>2019-02-25T14:21:22Z</time>
      </trkpt>
      <trkpt lat="42.8753" lon="0.2447">
        <ele>2728</ele>
        <time>2019-02-25T14:21:30Z</time>
      </trkpt>
      <trkpt lat="42.87532" lon="0.2447">
        <ele>2728</ele>
        <time>2019-02-25T14:21:33Z</time>
      </trkpt>
      <trkpt lat="42.87534" lon="0.24471">
        <ele>2727</ele>
        <time>2019-02-25T14:21:37Z</time>
      </trkpt>
      <trkpt lat="42.87536" lon="0.24471">
        <ele>2727</ele>
        <time>2019-02-25T14:21:42Z</time>
      </trkpt>
      <trkpt lat="42.87538" lon="0.24472">
        <ele>2727</ele>
        <time>2019-02-25T14:21:47Z</time>
      </trkpt>
      <trkpt lat="42.8754" lon="0.24472">
        <ele>2726</ele>
        <time>2019-02-25T14:21:51Z</time>
      </trkpt>
      <trkpt lat="42.87542" lon="0.24473">
        <ele>2725</ele>
        <time>2019-02-25T14:21:56Z</time>
      </trkpt>
      <trkpt lat="42.87544" lon="0.24475">
        <ele>2724</ele>
        <time>2019-02-25T14:22:01Z</time>
      </trkpt>
      <trkpt lat="42.87545" lon="0.24476">
        <ele>2724</ele>
        <time>2019-02-25T14:22:05Z</time>
      </trkpt>
      <trkpt lat="42.87547" lon="0.24477">
        <ele>2723</ele>
        <time>2019-02-25T14:22:09Z</time>
      </trkpt>
      <trkpt lat="42.87549" lon="0.24478">
        <ele>2723</ele>
        <time>2019-02-25T14:22:12Z</time>
      </trkpt>
      <trkpt lat="42.87551" lon="0.2448">
        <ele>2723</ele>
        <time>2019-02-25T14:22:16Z</time>
      </trkpt>
      <trkpt lat="42.87552" lon="0.24482">
        <ele>2723</ele>
        <time>2019-02-25T14:22:20Z</time>
      </trkpt>
      <trkpt lat="42.87554" lon="0.24484">
        <ele>2722</ele>
        <time>2019-02-25T14:22:23Z</time>
      </trkpt>
      <trkpt lat="42.87555" lon="0.24486">
        <ele>2720</ele>
        <time>2019-02-25T14:22:30Z</time>
      </trkpt>
      <trkpt lat="42.87553" lon="0.24485">
        <ele>2720</ele>
        <time>2019-02-25T14:24:30Z</time>
      </trkpt>
      <trkpt lat="42.87555" lon="0.24486">
        <ele>2720</ele>
        <time>2019-02-25T14:28:53Z</time>
      </trkpt>
      <trkpt lat="42.87555" lon="0.24489">
        <ele>2720</ele>
        <time>2019-02-25T14:28:57Z</time>
      </trkpt>
      <trkpt lat="42.87556" lon="0.24492">
        <ele>2719</ele>
        <time>2019-02-25T14:29:03Z</time>
      </trkpt>
      <trkpt lat="42.87557" lon="0.24494">
        <ele>2718</ele>
        <time>2019-02-25T14:29:07Z</time>
      </trkpt>
      <trkpt lat="42.87558" lon="0.24496">
        <ele>2717</ele>
        <time>2019-02-25T14:29:15Z</time>
      </trkpt>
      <trkpt lat="42.87559" lon="0.24499">
        <ele>2717</ele>
        <time>2019-02-25T14:29:35Z</time>
      </trkpt>
      <trkpt lat="42.87558" lon="0.24502">
        <ele>2714</ele>
        <time>2019-02-25T14:30:14Z</time>
      </trkpt>
      <trkpt lat="42.87558" lon="0.24504">
        <ele>2712</ele>
        <time>2019-02-25T14:30:21Z</time>
      </trkpt>
      <trkpt lat="42.87558" lon="0.24512">
        <ele>2706</ele>
        <time>2019-02-25T14:30:48Z</time>
      </trkpt>
      <trkpt lat="42.87559" lon="0.24514">
        <ele>2706</ele>
        <time>2019-02-25T14:30:51Z</time>
      </trkpt>
      <trkpt lat="42.8756" lon="0.24517">
        <ele>2705</ele>
        <time>2019-02-25T14:30:54Z</time>
      </trkpt>
      <trkpt lat="42.87561" lon="0.24519">
        <ele>2704</ele>
        <time>2019-02-25T14:30:58Z</time>
      </trkpt>
      <trkpt lat="42.87563" lon="0.24522">
        <ele>2704</ele>
        <time>2019-02-25T14:31:01Z</time>
      </trkpt>
      <trkpt lat="42.87564" lon="0.24524">
        <ele>2703</ele>
        <time>2019-02-25T14:31:04Z</time>
      </trkpt>
      <trkpt lat="42.87566" lon="0.24526">
        <ele>2702</ele>
        <time>2019-02-25T14:31:07Z</time>
      </trkpt>
      <trkpt lat="42.87567" lon="0.24528">
        <ele>2702</ele>
        <time>2019-02-25T14:31:11Z</time>
      </trkpt>
      <trkpt lat="42.87569" lon="0.24531">
        <ele>2700</ele>
        <time>2019-02-25T14:31:18Z</time>
      </trkpt>
      <trkpt lat="42.8757" lon="0.24533">
        <ele>2699</ele>
        <time>2019-02-25T14:31:21Z</time>
      </trkpt>
      <trkpt lat="42.87571" lon="0.24535">
        <ele>2698</ele>
        <time>2019-02-25T14:31:26Z</time>
      </trkpt>
      <trkpt lat="42.87571" lon="0.24537">
        <ele>2697</ele>
        <time>2019-02-25T14:31:31Z</time>
      </trkpt>
      <trkpt lat="42.87572" lon="0.2454">
        <ele>2696</ele>
        <time>2019-02-25T14:31:35Z</time>
      </trkpt>
      <trkpt lat="42.87572" lon="0.24543">
        <ele>2693</ele>
        <time>2019-02-25T14:31:40Z</time>
      </trkpt>
      <trkpt lat="42.87572" lon="0.24546">
        <ele>2692</ele>
        <time>2019-02-25T14:31:44Z</time>
      </trkpt>
      <trkpt lat="42.87573" lon="0.24549">
        <ele>2692</ele>
        <time>2019-02-25T14:31:48Z</time>
      </trkpt>
      <trkpt lat="42.87574" lon="0.24552">
        <ele>2690</ele>
        <time>2019-02-25T14:31:51Z</time>
      </trkpt>
      <trkpt lat="42.87574" lon="0.24556">
        <ele>2689</ele>
        <time>2019-02-25T14:31:54Z</time>
      </trkpt>
      <trkpt lat="42.87575" lon="0.24559">
        <ele>2689</ele>
        <time>2019-02-25T14:31:57Z</time>
      </trkpt>
      <trkpt lat="42.87575" lon="0.24565">
        <ele>2688</ele>
        <time>2019-02-25T14:32:04Z</time>
      </trkpt>
      <trkpt lat="42.87576" lon="0.24568">
        <ele>2687</ele>
        <time>2019-02-25T14:32:08Z</time>
      </trkpt>
      <trkpt lat="42.87577" lon="0.24571">
        <ele>2686</ele>
        <time>2019-02-25T14:32:12Z</time>
      </trkpt>
      <trkpt lat="42.87578" lon="0.24573">
        <ele>2684</ele>
        <time>2019-02-25T14:32:23Z</time>
      </trkpt>
      <trkpt lat="42.8758" lon="0.24574">
        <ele>2684</ele>
        <time>2019-02-25T14:32:26Z</time>
      </trkpt>
      <trkpt lat="42.87581" lon="0.24576">
        <ele>2682</ele>
        <time>2019-02-25T14:32:29Z</time>
      </trkpt>
      <trkpt lat="42.87583" lon="0.24578">
        <ele>2682</ele>
        <time>2019-02-25T14:32:33Z</time>
      </trkpt>
      <trkpt lat="42.87584" lon="0.2458">
        <ele>2680</ele>
        <time>2019-02-25T14:32:37Z</time>
      </trkpt>
      <trkpt lat="42.87585" lon="0.24582">
        <ele>2679</ele>
        <time>2019-02-25T14:32:41Z</time>
      </trkpt>
      <trkpt lat="42.87587" lon="0.24585">
        <ele>2679</ele>
        <time>2019-02-25T14:32:45Z</time>
      </trkpt>
      <trkpt lat="42.87587" lon="0.24588">
        <ele>2678</ele>
        <time>2019-02-25T14:32:50Z</time>
      </trkpt>
      <trkpt lat="42.87588" lon="0.2459">
        <ele>2676</ele>
        <time>2019-02-25T14:32:53Z</time>
      </trkpt>
      <trkpt lat="42.87589" lon="0.24592">
        <ele>2676</ele>
        <time>2019-02-25T14:32:57Z</time>
      </trkpt>
      <trkpt lat="42.87591" lon="0.24594">
        <ele>2675</ele>
        <time>2019-02-25T14:33:02Z</time>
      </trkpt>
      <trkpt lat="42.87593" lon="0.24595">
        <ele>2674</ele>
        <time>2019-02-25T14:33:06Z</time>
      </trkpt>
      <trkpt lat="42.87594" lon="0.24596">
        <ele>2673</ele>
        <time>2019-02-25T14:33:10Z</time>
      </trkpt>
      <trkpt lat="42.87596" lon="0.24598">
        <ele>2672</ele>
        <time>2019-02-25T14:33:14Z</time>
      </trkpt>
      <trkpt lat="42.87598" lon="0.24599">
        <ele>2671</ele>
        <time>2019-02-25T14:33:18Z</time>
      </trkpt>
      <trkpt lat="42.876" lon="0.246">
        <ele>2669</ele>
        <time>2019-02-25T14:33:23Z</time>
      </trkpt>
      <trkpt lat="42.87601" lon="0.24602">
        <ele>2668</ele>
        <time>2019-02-25T14:33:29Z</time>
      </trkpt>
      <trkpt lat="42.87603" lon="0.24604">
        <ele>2667</ele>
        <time>2019-02-25T14:33:33Z</time>
      </trkpt>
      <trkpt lat="42.87605" lon="0.24605">
        <ele>2666</ele>
        <time>2019-02-25T14:33:36Z</time>
      </trkpt>
      <trkpt lat="42.87608" lon="0.24606">
        <ele>2666</ele>
        <time>2019-02-25T14:33:39Z</time>
      </trkpt>
      <trkpt lat="42.8761" lon="0.24607">
        <ele>2665</ele>
        <time>2019-02-25T14:33:42Z</time>
      </trkpt>
      <trkpt lat="42.87611" lon="0.24609">
        <ele>2664</ele>
        <time>2019-02-25T14:33:45Z</time>
      </trkpt>
      <trkpt lat="42.87612" lon="0.24611">
        <ele>2664</ele>
        <time>2019-02-25T14:34:00Z</time>
      </trkpt>
      <trkpt lat="42.87613" lon="0.24613">
        <ele>2663</ele>
        <time>2019-02-25T14:34:19Z</time>
      </trkpt>
      <trkpt lat="42.87614" lon="0.24615">
        <ele>2662</ele>
        <time>2019-02-25T14:34:32Z</time>
      </trkpt>
      <trkpt lat="42.87615" lon="0.24618">
        <ele>2661</ele>
        <time>2019-02-25T14:34:36Z</time>
      </trkpt>
      <trkpt lat="42.87614" lon="0.24621">
        <ele>2660</ele>
        <time>2019-02-25T14:34:40Z</time>
      </trkpt>
      <trkpt lat="42.87615" lon="0.24627">
        <ele>2658</ele>
        <time>2019-02-25T14:34:47Z</time>
      </trkpt>
      <trkpt lat="42.87616" lon="0.24629">
        <ele>2657</ele>
        <time>2019-02-25T14:34:49Z</time>
      </trkpt>
      <trkpt lat="42.87616" lon="0.24633">
        <ele>2657</ele>
        <time>2019-02-25T14:34:52Z</time>
      </trkpt>
      <trkpt lat="42.87616" lon="0.24635">
        <ele>2656</ele>
        <time>2019-02-25T14:35:00Z</time>
      </trkpt>
      <trkpt lat="42.87616" lon="0.24638">
        <ele>2657</ele>
        <time>2019-02-25T14:35:07Z</time>
      </trkpt>
      <trkpt lat="42.87616" lon="0.24641">
        <ele>2658</ele>
        <time>2019-02-25T14:35:37Z</time>
      </trkpt>
      <trkpt lat="42.87618" lon="0.24642">
        <ele>2657</ele>
        <time>2019-02-25T14:35:52Z</time>
      </trkpt>
      <trkpt lat="42.87619" lon="0.24645">
        <ele>2656</ele>
        <time>2019-02-25T14:35:57Z</time>
      </trkpt>
      <trkpt lat="42.8762" lon="0.24647">
        <ele>2656</ele>
        <time>2019-02-25T14:35:59Z</time>
      </trkpt>
      <trkpt lat="42.87621" lon="0.24649">
        <ele>2656</ele>
        <time>2019-02-25T14:36:24Z</time>
      </trkpt>
      <trkpt lat="42.87622" lon="0.2465">
        <ele>2656</ele>
        <time>2019-02-25T14:40:55Z</time>
      </trkpt>
      <trkpt lat="42.87623" lon="0.24654">
        <ele>2654</ele>
        <time>2019-02-25T14:41:18Z</time>
      </trkpt>
      <trkpt lat="42.87624" lon="0.24656">
        <ele>2655</ele>
        <time>2019-02-25T14:41:23Z</time>
      </trkpt>
      <trkpt lat="42.87624" lon="0.24659">
        <ele>2655</ele>
        <time>2019-02-25T14:41:53Z</time>
      </trkpt>
      <trkpt lat="42.87622" lon="0.2466">
        <ele>2652</ele>
        <time>2019-02-25T14:43:03Z</time>
      </trkpt>
      <trkpt lat="42.8762" lon="0.24659">
        <ele>2651</ele>
        <time>2019-02-25T14:44:05Z</time>
      </trkpt>
      <trkpt lat="42.87618" lon="0.24658">
        <ele>2648</ele>
        <time>2019-02-25T14:44:59Z</time>
      </trkpt>
      <trkpt lat="42.87617" lon="0.24656">
        <ele>2648</ele>
        <time>2019-02-25T14:45:37Z</time>
      </trkpt>
      <trkpt lat="42.87616" lon="0.24658">
        <ele>2645</ele>
        <time>2019-02-25T14:46:18Z</time>
      </trkpt>
      <trkpt lat="42.87617" lon="0.24661">
        <ele>2644</ele>
        <time>2019-02-25T14:46:29Z</time>
      </trkpt>
      <trkpt lat="42.87618" lon="0.24662">
        <ele>2645</ele>
        <time>2019-02-25T14:46:47Z</time>
      </trkpt>
      <trkpt lat="42.87619" lon="0.24665">
        <ele>2644</ele>
        <time>2019-02-25T14:46:51Z</time>
      </trkpt>
      <trkpt lat="42.87621" lon="0.24667">
        <ele>2644</ele>
        <time>2019-02-25T14:46:55Z</time>
      </trkpt>
      <trkpt lat="42.87622" lon="0.2467">
        <ele>2644</ele>
        <time>2019-02-25T14:47:00Z</time>
      </trkpt>
      <trkpt lat="42.87623" lon="0.24671">
        <ele>2644</ele>
        <time>2019-02-25T14:47:02Z</time>
      </trkpt>
      <trkpt lat="42.87624" lon="0.24674">
        <ele>2643</ele>
        <time>2019-02-25T14:47:07Z</time>
      </trkpt>
      <trkpt lat="42.87624" lon="0.24677">
        <ele>2642</ele>
        <time>2019-02-25T14:47:10Z</time>
      </trkpt>
      <trkpt lat="42.87624" lon="0.24679">
        <ele>2642</ele>
        <time>2019-02-25T14:47:13Z</time>
      </trkpt>
      <trkpt lat="42.87624" lon="0.24682">
        <ele>2642</ele>
        <time>2019-02-25T14:47:17Z</time>
      </trkpt>
      <trkpt lat="42.87624" lon="0.24684">
        <ele>2640</ele>
        <time>2019-02-25T14:47:21Z</time>
      </trkpt>
      <trkpt lat="42.87623" lon="0.24682">
        <ele>2638</ele>
        <time>2019-02-25T14:55:12Z</time>
      </trkpt>
      <trkpt lat="42.87621" lon="0.24681">
        <ele>2638</ele>
        <time>2019-02-25T15:02:08Z</time>
      </trkpt>
      <trkpt lat="42.87619" lon="0.24678">
        <ele>2638</ele>
        <time>2019-02-25T15:02:09Z</time>
      </trkpt>
      <trkpt lat="42.87616" lon="0.24676">
        <ele>2638</ele>
        <time>2019-02-25T15:02:10Z</time>
      </trkpt>
      <trkpt lat="42.87613" lon="0.24674">
        <ele>2638</ele>
        <time>2019-02-25T15:02:11Z</time>
      </trkpt>
      <trkpt lat="42.87611" lon="0.24676">
        <ele>2638</ele>
        <time>2019-02-25T15:02:12Z</time>
      </trkpt>
      <trkpt lat="42.87609" lon="0.24683">
        <ele>2632</ele>
        <time>2019-02-25T15:02:13Z</time>
      </trkpt>
      <trkpt lat="42.87607" lon="0.24688">
        <ele>2629</ele>
        <time>2019-02-25T15:02:14Z</time>
      </trkpt>
      <trkpt lat="42.87603" lon="0.24691">
        <ele>2628</ele>
        <time>2019-02-25T15:02:15Z</time>
      </trkpt>
      <trkpt lat="42.87599" lon="0.24696">
        <ele>2626</ele>
        <time>2019-02-25T15:02:16Z</time>
      </trkpt>
      <trkpt lat="42.87596" lon="0.24701">
        <ele>2623</ele>
        <time>2019-02-25T15:02:17Z</time>
      </trkpt>
      <trkpt lat="42.87591" lon="0.24703">
        <ele>2621</ele>
        <time>2019-02-25T15:02:18Z</time>
      </trkpt>
      <trkpt lat="42.87586" lon="0.24705">
        <ele>2618</ele>
        <time>2019-02-25T15:02:19Z</time>
      </trkpt>
      <trkpt lat="42.87581" lon="0.24707">
        <ele>2614</ele>
        <time>2019-02-25T15:02:20Z</time>
      </trkpt>
      <trkpt lat="42.87576" lon="0.2471">
        <ele>2611</ele>
        <time>2019-02-25T15:02:21Z</time>
      </trkpt>
      <trkpt lat="42.8757" lon="0.24711">
        <ele>2608</ele>
        <time>2019-02-25T15:02:22Z</time>
      </trkpt>
      <trkpt lat="42.87565" lon="0.24706">
        <ele>2607</ele>
        <time>2019-02-25T15:02:23Z</time>
      </trkpt>
      <trkpt lat="42.87561" lon="0.24701">
        <ele>2606</ele>
        <time>2019-02-25T15:02:24Z</time>
      </trkpt>
      <trkpt lat="42.87557" lon="0.24695">
        <ele>2603</ele>
        <time>2019-02-25T15:02:25Z</time>
      </trkpt>
      <trkpt lat="42.87554" lon="0.2469">
        <ele>2602</ele>
        <time>2019-02-25T15:02:26Z</time>
      </trkpt>
      <trkpt lat="42.87551" lon="0.24686">
        <ele>2601</ele>
        <time>2019-02-25T15:02:27Z</time>
      </trkpt>
      <trkpt lat="42.87549" lon="0.24683">
        <ele>2600</ele>
        <time>2019-02-25T15:02:28Z</time>
      </trkpt>
      <trkpt lat="42.87546" lon="0.2468">
        <ele>2599</ele>
        <time>2019-02-25T15:02:29Z</time>
      </trkpt>
      <trkpt lat="42.87543" lon="0.24677">
        <ele>2598</ele>
        <time>2019-02-25T15:02:30Z</time>
      </trkpt>
      <trkpt lat="42.87541" lon="0.24677">
        <ele>2597</ele>
        <time>2019-02-25T15:02:31Z</time>
      </trkpt>
      <trkpt lat="42.87539" lon="0.24681">
        <ele>2597</ele>
        <time>2019-02-25T15:02:32Z</time>
      </trkpt>
      <trkpt lat="42.87537" lon="0.24689">
        <ele>2595</ele>
        <time>2019-02-25T15:02:33Z</time>
      </trkpt>
      <trkpt lat="42.87534" lon="0.24694">
        <ele>2591</ele>
        <time>2019-02-25T15:02:34Z</time>
      </trkpt>
      <trkpt lat="42.8753" lon="0.24694">
        <ele>2589</ele>
        <time>2019-02-25T15:02:35Z</time>
      </trkpt>
      <trkpt lat="42.87526" lon="0.24692">
        <ele>2588</ele>
        <time>2019-02-25T15:02:36Z</time>
      </trkpt>
      <trkpt lat="42.87522" lon="0.24689">
        <ele>2587</ele>
        <time>2019-02-25T15:02:37Z</time>
      </trkpt>
      <trkpt lat="42.8752" lon="0.2469">
        <ele>2586</ele>
        <time>2019-02-25T15:02:38Z</time>
      </trkpt>
      <trkpt lat="42.87522" lon="0.24697">
        <ele>2583</ele>
        <time>2019-02-25T15:02:40Z</time>
      </trkpt>
      <trkpt lat="42.87524" lon="0.24701">
        <ele>2582</ele>
        <time>2019-02-25T15:02:41Z</time>
      </trkpt>
      <trkpt lat="42.87526" lon="0.24705">
        <ele>2580</ele>
        <time>2019-02-25T15:02:42Z</time>
      </trkpt>
      <trkpt lat="42.87527" lon="0.24707">
        <ele>2579</ele>
        <time>2019-02-25T15:02:43Z</time>
      </trkpt>
      <trkpt lat="42.87529" lon="0.24709">
        <ele>2579</ele>
        <time>2019-02-25T15:02:50Z</time>
      </trkpt>
      <trkpt lat="42.87531" lon="0.24709">
        <ele>2579</ele>
        <time>2019-02-25T15:03:03Z</time>
      </trkpt>
      <trkpt lat="42.87532" lon="0.24711">
        <ele>2578</ele>
        <time>2019-02-25T15:03:06Z</time>
      </trkpt>
      <trkpt lat="42.87534" lon="0.24715">
        <ele>2578</ele>
        <time>2019-02-25T15:03:08Z</time>
      </trkpt>
      <trkpt lat="42.87531" lon="0.24717">
        <ele>2575</ele>
        <time>2019-02-25T15:03:10Z</time>
      </trkpt>
      <trkpt lat="42.87528" lon="0.24718">
        <ele>2574</ele>
        <time>2019-02-25T15:03:11Z</time>
      </trkpt>
      <trkpt lat="42.87525" lon="0.24722">
        <ele>2571</ele>
        <time>2019-02-25T15:03:12Z</time>
      </trkpt>
      <trkpt lat="42.87521" lon="0.24727">
        <ele>2568</ele>
        <time>2019-02-25T15:03:13Z</time>
      </trkpt>
      <trkpt lat="42.87518" lon="0.24728">
        <ele>2565</ele>
        <time>2019-02-25T15:03:14Z</time>
      </trkpt>
      <trkpt lat="42.87515" lon="0.2473">
        <ele>2563</ele>
        <time>2019-02-25T15:03:15Z</time>
      </trkpt>
      <trkpt lat="42.87514" lon="0.24735">
        <ele>2561</ele>
        <time>2019-02-25T15:03:16Z</time>
      </trkpt>
      <trkpt lat="42.87514" lon="0.2474">
        <ele>2559</ele>
        <time>2019-02-25T15:03:17Z</time>
      </trkpt>
      <trkpt lat="42.87511" lon="0.24742">
        <ele>2556</ele>
        <time>2019-02-25T15:03:18Z</time>
      </trkpt>
      <trkpt lat="42.87503" lon="0.24741">
        <ele>2553</ele>
        <time>2019-02-25T15:03:20Z</time>
      </trkpt>
      <trkpt lat="42.87502" lon="0.24744">
        <ele>2552</ele>
        <time>2019-02-25T15:03:21Z</time>
      </trkpt>
      <trkpt lat="42.87504" lon="0.24749">
        <ele>2551</ele>
        <time>2019-02-25T15:03:22Z</time>
      </trkpt>
      <trkpt lat="42.87504" lon="0.24753">
        <ele>2550</ele>
        <time>2019-02-25T15:03:23Z</time>
      </trkpt>
      <trkpt lat="42.87505" lon="0.24759">
        <ele>2549</ele>
        <time>2019-02-25T15:03:24Z</time>
      </trkpt>
      <trkpt lat="42.87505" lon="0.24764">
        <ele>2548</ele>
        <time>2019-02-25T15:03:25Z</time>
      </trkpt>
      <trkpt lat="42.87504" lon="0.2477">
        <ele>2547</ele>
        <time>2019-02-25T15:03:26Z</time>
      </trkpt>
      <trkpt lat="42.87501" lon="0.24773">
        <ele>2544</ele>
        <time>2019-02-25T15:03:27Z</time>
      </trkpt>
      <trkpt lat="42.87498" lon="0.24773">
        <ele>2542</ele>
        <time>2019-02-25T15:03:28Z</time>
      </trkpt>
      <trkpt lat="42.87494" lon="0.24775">
        <ele>2540</ele>
        <time>2019-02-25T15:03:29Z</time>
      </trkpt>
      <trkpt lat="42.87489" lon="0.24775">
        <ele>2539</ele>
        <time>2019-02-25T15:03:30Z</time>
      </trkpt>
      <trkpt lat="42.87482" lon="0.24771">
        <ele>2536</ele>
        <time>2019-02-25T15:03:32Z</time>
      </trkpt>
      <trkpt lat="42.87478" lon="0.2477">
        <ele>2534</ele>
        <time>2019-02-25T15:03:33Z</time>
      </trkpt>
      <trkpt lat="42.87474" lon="0.24767">
        <ele>2531</ele>
        <time>2019-02-25T15:03:34Z</time>
      </trkpt>
      <trkpt lat="42.8747" lon="0.24767">
        <ele>2530</ele>
        <time>2019-02-25T15:03:35Z</time>
      </trkpt>
      <trkpt lat="42.87469" lon="0.24768">
        <ele>2529</ele>
        <time>2019-02-25T15:03:36Z</time>
      </trkpt>
      <trkpt lat="42.87467" lon="0.2477">
        <ele>2527</ele>
        <time>2019-02-25T15:03:37Z</time>
      </trkpt>
      <trkpt lat="42.87464" lon="0.24775">
        <ele>2525</ele>
        <time>2019-02-25T15:03:38Z</time>
      </trkpt>
      <trkpt lat="42.87455" lon="0.2478">
        <ele>2521</ele>
        <time>2019-02-25T15:03:41Z</time>
      </trkpt>
      <trkpt lat="42.87463" lon="0.24786">
        <ele>2516</ele>
        <time>2019-02-25T15:03:45Z</time>
      </trkpt>
      <trkpt lat="42.87465" lon="0.24784">
        <ele>2516</ele>
        <time>2019-02-25T15:04:01Z</time>
      </trkpt>
      <trkpt lat="42.87464" lon="0.24781">
        <ele>2516</ele>
        <time>2019-02-25T15:04:04Z</time>
      </trkpt>
      <trkpt lat="42.87464" lon="0.24777">
        <ele>2516</ele>
        <time>2019-02-25T15:04:06Z</time>
      </trkpt>
      <trkpt lat="42.87465" lon="0.24773">
        <ele>2516</ele>
        <time>2019-02-25T15:04:08Z</time>
      </trkpt>
      <trkpt lat="42.87465" lon="0.24769">
        <ele>2516</ele>
        <time>2019-02-25T15:04:10Z</time>
      </trkpt>
      <trkpt lat="42.87466" lon="0.24767">
        <ele>2516</ele>
        <time>2019-02-25T15:04:13Z</time>
      </trkpt>
      <trkpt lat="42.87465" lon="0.24777">
        <ele>2516</ele>
        <time>2019-02-25T15:04:18Z</time>
      </trkpt>
      <trkpt lat="42.87464" lon="0.24778">
        <ele>2515</ele>
        <time>2019-02-25T15:04:42Z</time>
      </trkpt>
      <trkpt lat="42.87465" lon="0.2478">
        <ele>2512</ele>
        <time>2019-02-25T15:05:53Z</time>
      </trkpt>
      <trkpt lat="42.87463" lon="0.24783">
        <ele>2511</ele>
        <time>2019-02-25T15:06:08Z</time>
      </trkpt>
      <trkpt lat="42.87461" lon="0.2479">
        <ele>2510</ele>
        <time>2019-02-25T15:06:09Z</time>
      </trkpt>
      <trkpt lat="42.87458" lon="0.24796">
        <ele>2509</ele>
        <time>2019-02-25T15:06:10Z</time>
      </trkpt>
      <trkpt lat="42.87455" lon="0.24799">
        <ele>2505</ele>
        <time>2019-02-25T15:06:11Z</time>
      </trkpt>
      <trkpt lat="42.87452" lon="0.24804">
        <ele>2504</ele>
        <time>2019-02-25T15:06:12Z</time>
      </trkpt>
      <trkpt lat="42.87451" lon="0.2481">
        <ele>2502</ele>
        <time>2019-02-25T15:06:13Z</time>
      </trkpt>
      <trkpt lat="42.87448" lon="0.24816">
        <ele>2502</ele>
        <time>2019-02-25T15:06:14Z</time>
      </trkpt>
      <trkpt lat="42.87444" lon="0.2482">
        <ele>2497</ele>
        <time>2019-02-25T15:06:15Z</time>
      </trkpt>
      <trkpt lat="42.87442" lon="0.24826">
        <ele>2494</ele>
        <time>2019-02-25T15:06:16Z</time>
      </trkpt>
      <trkpt lat="42.87442" lon="0.24834">
        <ele>2494</ele>
        <time>2019-02-25T15:06:17Z</time>
      </trkpt>
      <trkpt lat="42.87443" lon="0.24842">
        <ele>2493</ele>
        <time>2019-02-25T15:06:18Z</time>
      </trkpt>
      <trkpt lat="42.87442" lon="0.24849">
        <ele>2492</ele>
        <time>2019-02-25T15:06:19Z</time>
      </trkpt>
      <trkpt lat="42.87437" lon="0.24855">
        <ele>2490</ele>
        <time>2019-02-25T15:06:21Z</time>
      </trkpt>
      <trkpt lat="42.87433" lon="0.24856">
        <ele>2488</ele>
        <time>2019-02-25T15:06:22Z</time>
      </trkpt>
      <trkpt lat="42.87424" lon="0.24861">
        <ele>2486</ele>
        <time>2019-02-25T15:06:23Z</time>
      </trkpt>
      <trkpt lat="42.87422" lon="0.24862">
        <ele>2482</ele>
        <time>2019-02-25T15:06:24Z</time>
      </trkpt>
      <trkpt lat="42.87417" lon="0.24866">
        <ele>2479</ele>
        <time>2019-02-25T15:06:25Z</time>
      </trkpt>
      <trkpt lat="42.87406" lon="0.24873">
        <ele>2474</ele>
        <time>2019-02-25T15:06:27Z</time>
      </trkpt>
      <trkpt lat="42.87403" lon="0.24874">
        <ele>2471</ele>
        <time>2019-02-25T15:06:28Z</time>
      </trkpt>
      <trkpt lat="42.87395" lon="0.24878">
        <ele>2469</ele>
        <time>2019-02-25T15:06:29Z</time>
      </trkpt>
      <trkpt lat="42.87392" lon="0.24879">
        <ele>2466</ele>
        <time>2019-02-25T15:06:30Z</time>
      </trkpt>
      <trkpt lat="42.87383" lon="0.24884">
        <ele>2464</ele>
        <time>2019-02-25T15:06:31Z</time>
      </trkpt>
      <trkpt lat="42.8738" lon="0.24888">
        <ele>2461</ele>
        <time>2019-02-25T15:06:32Z</time>
      </trkpt>
      <trkpt lat="42.87374" lon="0.24898">
        <ele>2461</ele>
        <time>2019-02-25T15:06:33Z</time>
      </trkpt>
      <trkpt lat="42.87373" lon="0.24901">
        <ele>2456</ele>
        <time>2019-02-25T15:06:34Z</time>
      </trkpt>
      <trkpt lat="42.87372" lon="0.24904">
        <ele>2454</ele>
        <time>2019-02-25T15:06:35Z</time>
      </trkpt>
      <trkpt lat="42.87368" lon="0.24912">
        <ele>2454</ele>
        <time>2019-02-25T15:06:36Z</time>
      </trkpt>
      <trkpt lat="42.87357" lon="0.24911">
        <ele>2451</ele>
        <time>2019-02-25T15:06:38Z</time>
      </trkpt>
      <trkpt lat="42.87354" lon="0.24911">
        <ele>2448</ele>
        <time>2019-02-25T15:06:39Z</time>
      </trkpt>
      <trkpt lat="42.87348" lon="0.2491">
        <ele>2445</ele>
        <time>2019-02-25T15:06:40Z</time>
      </trkpt>
      <trkpt lat="42.87339" lon="0.24912">
        <ele>2438</ele>
        <time>2019-02-25T15:06:43Z</time>
      </trkpt>
      <trkpt lat="42.87348" lon="0.2491">
        <ele>2436</ele>
        <time>2019-02-25T15:07:02Z</time>
      </trkpt>
      <trkpt lat="42.87356" lon="0.24911">
        <ele>2436</ele>
        <time>2019-02-25T15:07:51Z</time>
      </trkpt>
      <trkpt lat="42.87356" lon="0.24907">
        <ele>2436</ele>
        <time>2019-02-25T15:07:56Z</time>
      </trkpt>
      <trkpt lat="42.87354" lon="0.24908">
        <ele>2436</ele>
        <time>2019-02-25T15:07:58Z</time>
      </trkpt>
      <trkpt lat="42.87351" lon="0.24911">
        <ele>2435</ele>
        <time>2019-02-25T15:07:59Z</time>
      </trkpt>
      <trkpt lat="42.87348" lon="0.24914">
        <ele>2434</ele>
        <time>2019-02-25T15:08:00Z</time>
      </trkpt>
      <trkpt lat="42.87344" lon="0.24917">
        <ele>2431</ele>
        <time>2019-02-25T15:08:01Z</time>
      </trkpt>
      <trkpt lat="42.87341" lon="0.24921">
        <ele>2429</ele>
        <time>2019-02-25T15:08:02Z</time>
      </trkpt>
      <trkpt lat="42.87336" lon="0.24923">
        <ele>2427</ele>
        <time>2019-02-25T15:08:03Z</time>
      </trkpt>
      <trkpt lat="42.87327" lon="0.24926">
        <ele>2424</ele>
        <time>2019-02-25T15:08:04Z</time>
      </trkpt>
      <trkpt lat="42.87324" lon="0.24926">
        <ele>2422</ele>
        <time>2019-02-25T15:08:05Z</time>
      </trkpt>
      <trkpt lat="42.87315" lon="0.2493">
        <ele>2419</ele>
        <time>2019-02-25T15:08:06Z</time>
      </trkpt>
      <trkpt lat="42.87311" lon="0.24932">
        <ele>2415</ele>
        <time>2019-02-25T15:08:07Z</time>
      </trkpt>
      <trkpt lat="42.87303" lon="0.24938">
        <ele>2411</ele>
        <time>2019-02-25T15:08:08Z</time>
      </trkpt>
      <trkpt lat="42.87301" lon="0.24939">
        <ele>2409</ele>
        <time>2019-02-25T15:08:09Z</time>
      </trkpt>
      <trkpt lat="42.873" lon="0.24941">
        <ele>2407</ele>
        <time>2019-02-25T15:08:10Z</time>
      </trkpt>
      <trkpt lat="42.87293" lon="0.24946">
        <ele>2405</ele>
        <time>2019-02-25T15:08:11Z</time>
      </trkpt>
      <trkpt lat="42.87291" lon="0.24946">
        <ele>2403</ele>
        <time>2019-02-25T15:08:12Z</time>
      </trkpt>
      <trkpt lat="42.87289" lon="0.24947">
        <ele>2401</ele>
        <time>2019-02-25T15:08:13Z</time>
      </trkpt>
      <trkpt lat="42.87283" lon="0.24948">
        <ele>2399</ele>
        <time>2019-02-25T15:08:14Z</time>
      </trkpt>
      <trkpt lat="42.87271" lon="0.24949">
        <ele>2390</ele>
        <time>2019-02-25T15:08:18Z</time>
      </trkpt>
      <trkpt lat="42.87269" lon="0.24951">
        <ele>2388</ele>
        <time>2019-02-25T15:08:19Z</time>
      </trkpt>
      <trkpt lat="42.87263" lon="0.24958">
        <ele>2385</ele>
        <time>2019-02-25T15:08:20Z</time>
      </trkpt>
      <trkpt lat="42.87261" lon="0.24961">
        <ele>2383</ele>
        <time>2019-02-25T15:08:21Z</time>
      </trkpt>
      <trkpt lat="42.8726" lon="0.24964">
        <ele>2381</ele>
        <time>2019-02-25T15:08:22Z</time>
      </trkpt>
      <trkpt lat="42.87257" lon="0.24976">
        <ele>2379</ele>
        <time>2019-02-25T15:08:23Z</time>
      </trkpt>
      <trkpt lat="42.87258" lon="0.24979">
        <ele>2377</ele>
        <time>2019-02-25T15:08:24Z</time>
      </trkpt>
      <trkpt lat="42.87262" lon="0.24987">
        <ele>2377</ele>
        <time>2019-02-25T15:08:25Z</time>
      </trkpt>
      <trkpt lat="42.87265" lon="0.24988">
        <ele>2375.6</ele>
        <time>2019-02-25T15:08:26Z</time>
      </trkpt>
      <trkpt lat="42.8727" lon="0.2499">
        <ele>2375</ele>
        <time>2019-02-25T15:08:27Z</time>
      </trkpt>
      <trkpt lat="42.87278" lon="0.25">
        <ele>2374</ele>
        <time>2019-02-25T15:08:28Z</time>
      </trkpt>
      <trkpt lat="42.87277" lon="0.25014">
        <ele>2371</ele>
        <time>2019-02-25T15:08:31Z</time>
      </trkpt>
      <trkpt lat="42.87277" lon="0.25021">
        <ele>2370</ele>
        <time>2019-02-25T15:08:33Z</time>
      </trkpt>
      <trkpt lat="42.87276" lon="0.25025">
        <ele>2370</ele>
        <time>2019-02-25T15:08:34Z</time>
      </trkpt>
      <trkpt lat="42.87276" lon="0.25029">
        <ele>2370</ele>
        <time>2019-02-25T15:08:35Z</time>
      </trkpt>
      <trkpt lat="42.87276" lon="0.25033">
        <ele>2370</ele>
        <time>2019-02-25T15:08:36Z</time>
      </trkpt>
      <trkpt lat="42.87276" lon="0.25038">
        <ele>2370</ele>
        <time>2019-02-25T15:08:37Z</time>
      </trkpt>
      <trkpt lat="42.87275" lon="0.25042">
        <ele>2369</ele>
        <time>2019-02-25T15:08:38Z</time>
      </trkpt>
      <trkpt lat="42.87275" lon="0.25046">
        <ele>2369</ele>
        <time>2019-02-25T15:08:39Z</time>
      </trkpt>
      <trkpt lat="42.87275" lon="0.25055">
        <ele>2367</ele>
        <time>2019-02-25T15:08:41Z</time>
      </trkpt>
      <trkpt lat="42.87276" lon="0.25059">
        <ele>2367</ele>
        <time>2019-02-25T15:08:42Z</time>
      </trkpt>
      <trkpt lat="42.87276" lon="0.25062">
        <ele>2367</ele>
        <time>2019-02-25T15:08:43Z</time>
      </trkpt>
      <trkpt lat="42.87277" lon="0.25066">
        <ele>2365</ele>
        <time>2019-02-25T15:08:45Z</time>
      </trkpt>
      <trkpt lat="42.87278" lon="0.25065">
        <ele>2365</ele>
        <time>2019-02-25T15:09:00Z</time>
      </trkpt>
      <trkpt lat="42.8728" lon="0.25065">
        <ele>2365</ele>
        <time>2019-02-25T15:10:02Z</time>
      </trkpt>
      <trkpt lat="42.87279" lon="0.25068">
        <ele>2365</ele>
        <time>2019-02-25T15:10:04Z</time>
      </trkpt>
      <trkpt lat="42.87277" lon="0.25073">
        <ele>2364</ele>
        <time>2019-02-25T15:10:05Z</time>
      </trkpt>
      <trkpt lat="42.87273" lon="0.25077">
        <ele>2362</ele>
        <time>2019-02-25T15:10:06Z</time>
      </trkpt>
      <trkpt lat="42.87267" lon="0.2508">
        <ele>2359</ele>
        <time>2019-02-25T15:10:07Z</time>
      </trkpt>
      <trkpt lat="42.87261" lon="0.25082">
        <ele>2356</ele>
        <time>2019-02-25T15:10:08Z</time>
      </trkpt>
      <trkpt lat="42.87254" lon="0.25083">
        <ele>2353</ele>
        <time>2019-02-25T15:10:09Z</time>
      </trkpt>
      <trkpt lat="42.87246" lon="0.25085">
        <ele>2350</ele>
        <time>2019-02-25T15:10:10Z</time>
      </trkpt>
      <trkpt lat="42.8724" lon="0.25083">
        <ele>2346</ele>
        <time>2019-02-25T15:10:11Z</time>
      </trkpt>
      <trkpt lat="42.87233" lon="0.25082">
        <ele>2344</ele>
        <time>2019-02-25T15:10:12Z</time>
      </trkpt>
      <trkpt lat="42.87225" lon="0.25085">
        <ele>2341</ele>
        <time>2019-02-25T15:10:13Z</time>
      </trkpt>
      <trkpt lat="42.87222" lon="0.25086">
        <ele>2338</ele>
        <time>2019-02-25T15:10:14Z</time>
      </trkpt>
      <trkpt lat="42.87217" lon="0.25086">
        <ele>2335</ele>
        <time>2019-02-25T15:10:15Z</time>
      </trkpt>
      <trkpt lat="42.87212" lon="0.2509">
        <ele>2334</ele>
        <time>2019-02-25T15:10:16Z</time>
      </trkpt>
      <trkpt lat="42.87205" lon="0.25091">
        <ele>2333</ele>
        <time>2019-02-25T15:10:17Z</time>
      </trkpt>
      <trkpt lat="42.87203" lon="0.25091">
        <ele>2331</ele>
        <time>2019-02-25T15:10:18Z</time>
      </trkpt>
      <trkpt lat="42.87201" lon="0.25091">
        <ele>2328</ele>
        <time>2019-02-25T15:10:19Z</time>
      </trkpt>
      <trkpt lat="42.87192" lon="0.25092">
        <ele>2326</ele>
        <time>2019-02-25T15:10:20Z</time>
      </trkpt>
      <trkpt lat="42.8719" lon="0.25092">
        <ele>2323</ele>
        <time>2019-02-25T15:10:21Z</time>
      </trkpt>
      <trkpt lat="42.87188" lon="0.25093">
        <ele>2321</ele>
        <time>2019-02-25T15:10:22Z</time>
      </trkpt>
      <trkpt lat="42.87183" lon="0.25094">
        <ele>2319</ele>
        <time>2019-02-25T15:10:23Z</time>
      </trkpt>
      <trkpt lat="42.87172" lon="0.25102">
        <ele>2315</ele>
        <time>2019-02-25T15:10:25Z</time>
      </trkpt>
      <trkpt lat="42.8717" lon="0.25104">
        <ele>2312</ele>
        <time>2019-02-25T15:10:26Z</time>
      </trkpt>
      <trkpt lat="42.87168" lon="0.25106">
        <ele>2310</ele>
        <time>2019-02-25T15:10:27Z</time>
      </trkpt>
      <trkpt lat="42.87163" lon="0.25112">
        <ele>2309</ele>
        <time>2019-02-25T15:10:28Z</time>
      </trkpt>
      <trkpt lat="42.87153" lon="0.25121">
        <ele>2305</ele>
        <time>2019-02-25T15:10:30Z</time>
      </trkpt>
      <trkpt lat="42.8715" lon="0.25122">
        <ele>2302</ele>
        <time>2019-02-25T15:10:31Z</time>
      </trkpt>
      <trkpt lat="42.87148" lon="0.25123">
        <ele>2300</ele>
        <time>2019-02-25T15:10:32Z</time>
      </trkpt>
      <trkpt lat="42.8714" lon="0.25125">
        <ele>2297</ele>
        <time>2019-02-25T15:10:33Z</time>
      </trkpt>
      <trkpt lat="42.87138" lon="0.25123">
        <ele>2295</ele>
        <time>2019-02-25T15:10:34Z</time>
      </trkpt>
      <trkpt lat="42.87136" lon="0.25122">
        <ele>2293</ele>
        <time>2019-02-25T15:10:35Z</time>
      </trkpt>
      <trkpt lat="42.87129" lon="0.25119">
        <ele>2291</ele>
        <time>2019-02-25T15:10:36Z</time>
      </trkpt>
      <trkpt lat="42.87123" lon="0.25127">
        <ele>2283</ele>
        <time>2019-02-25T15:10:40Z</time>
      </trkpt>
      <trkpt lat="42.8713" lon="0.25128">
        <ele>2280</ele>
        <time>2019-02-25T15:10:52Z</time>
      </trkpt>
      <trkpt lat="42.87133" lon="0.2513">
        <ele>2280</ele>
        <time>2019-02-25T15:11:09Z</time>
      </trkpt>
      <trkpt lat="42.87135" lon="0.25132">
        <ele>2280</ele>
        <time>2019-02-25T15:11:14Z</time>
      </trkpt>
      <trkpt lat="42.87136" lon="0.2513">
        <ele>2280</ele>
        <time>2019-02-25T15:11:53Z</time>
      </trkpt>
      <trkpt lat="42.87135" lon="0.2513">
        <ele>2279</ele>
        <time>2019-02-25T15:12:39Z</time>
      </trkpt>
      <trkpt lat="42.87131" lon="0.25129">
        <ele>2278</ele>
        <time>2019-02-25T15:12:40Z</time>
      </trkpt>
      <trkpt lat="42.87128" lon="0.25126">
        <ele>2278</ele>
        <time>2019-02-25T15:12:41Z</time>
      </trkpt>
      <trkpt lat="42.87124" lon="0.25124">
        <ele>2278</ele>
        <time>2019-02-25T15:12:42Z</time>
      </trkpt>
      <trkpt lat="42.8712" lon="0.2512">
        <ele>2277</ele>
        <time>2019-02-25T15:12:43Z</time>
      </trkpt>
      <trkpt lat="42.87115" lon="0.25116">
        <ele>2276</ele>
        <time>2019-02-25T15:12:44Z</time>
      </trkpt>
      <trkpt lat="42.87109" lon="0.25111">
        <ele>2276</ele>
        <time>2019-02-25T15:12:45Z</time>
      </trkpt>
      <trkpt lat="42.87103" lon="0.25107">
        <ele>2275</ele>
        <time>2019-02-25T15:12:46Z</time>
      </trkpt>
      <trkpt lat="42.87097" lon="0.25105">
        <ele>2275</ele>
        <time>2019-02-25T15:12:47Z</time>
      </trkpt>
      <trkpt lat="42.87091" lon="0.25103">
        <ele>2274</ele>
        <time>2019-02-25T15:12:48Z</time>
      </trkpt>
      <trkpt lat="42.87085" lon="0.25101">
        <ele>2273</ele>
        <time>2019-02-25T15:12:49Z</time>
      </trkpt>
      <trkpt lat="42.8708" lon="0.251">
        <ele>2272</ele>
        <time>2019-02-25T15:12:50Z</time>
      </trkpt>
      <trkpt lat="42.87075" lon="0.25101">
        <ele>2272</ele>
        <time>2019-02-25T15:12:51Z</time>
      </trkpt>
      <trkpt lat="42.87071" lon="0.25101">
        <ele>2271</ele>
        <time>2019-02-25T15:12:52Z</time>
      </trkpt>
      <trkpt lat="42.87068" lon="0.25102">
        <ele>2270</ele>
        <time>2019-02-25T15:12:53Z</time>
      </trkpt>
      <trkpt lat="42.87064" lon="0.25103">
        <ele>2270</ele>
        <time>2019-02-25T15:12:54Z</time>
      </trkpt>
      <trkpt lat="42.87061" lon="0.25104">
        <ele>2270</ele>
        <time>2019-02-25T15:12:55Z</time>
      </trkpt>
      <trkpt lat="42.87058" lon="0.25104">
        <ele>2270</ele>
        <time>2019-02-25T15:12:56Z</time>
      </trkpt>
      <trkpt lat="42.87047" lon="0.25105">
        <ele>2269</ele>
        <time>2019-02-25T15:13:00Z</time>
      </trkpt>
      <trkpt lat="42.87039" lon="0.25105">
        <ele>2268</ele>
        <time>2019-02-25T15:13:02Z</time>
      </trkpt>
      <trkpt lat="42.87035" lon="0.25106">
        <ele>2268</ele>
        <time>2019-02-25T15:13:03Z</time>
      </trkpt>
      <trkpt lat="42.87031" lon="0.25107">
        <ele>2267</ele>
        <time>2019-02-25T15:13:04Z</time>
      </trkpt>
      <trkpt lat="42.87027" lon="0.25108">
        <ele>2266</ele>
        <time>2019-02-25T15:13:05Z</time>
      </trkpt>
      <trkpt lat="42.87023" lon="0.2511">
        <ele>2266</ele>
        <time>2019-02-25T15:13:06Z</time>
      </trkpt>
      <trkpt lat="42.8702" lon="0.25111">
        <ele>2266</ele>
        <time>2019-02-25T15:13:07Z</time>
      </trkpt>
      <trkpt lat="42.87016" lon="0.25113">
        <ele>2265</ele>
        <time>2019-02-25T15:13:08Z</time>
      </trkpt>
      <trkpt lat="42.87011" lon="0.25116">
        <ele>2265</ele>
        <time>2019-02-25T15:13:09Z</time>
      </trkpt>
      <trkpt lat="42.8701" lon="0.25117">
        <ele>2264</ele>
        <time>2019-02-25T15:13:10Z</time>
      </trkpt>
      <trkpt lat="42.87008" lon="0.25118">
        <ele>2264</ele>
        <time>2019-02-25T15:13:11Z</time>
      </trkpt>
      <trkpt lat="42.87002" lon="0.25124">
        <ele>2264</ele>
        <time>2019-02-25T15:13:12Z</time>
      </trkpt>
      <trkpt lat="42.87002" lon="0.25127">
        <ele>2261</ele>
        <time>2019-02-25T15:13:13Z</time>
      </trkpt>
      <trkpt lat="42.87001" lon="0.25129">
        <ele>2259</ele>
        <time>2019-02-25T15:13:14Z</time>
      </trkpt>
      <trkpt lat="42.86998" lon="0.25136">
        <ele>2257</ele>
        <time>2019-02-25T15:13:15Z</time>
      </trkpt>
      <trkpt lat="42.87" lon="0.25149">
        <ele>2252</ele>
        <time>2019-02-25T15:13:18Z</time>
      </trkpt>
      <trkpt lat="42.87003" lon="0.25165">
        <ele>2247</ele>
        <time>2019-02-25T15:13:20Z</time>
      </trkpt>
      <trkpt lat="42.87006" lon="0.25168">
        <ele>2245</ele>
        <time>2019-02-25T15:13:21Z</time>
      </trkpt>
      <trkpt lat="42.87011" lon="0.25174">
        <ele>2242</ele>
        <time>2019-02-25T15:13:22Z</time>
      </trkpt>
      <trkpt lat="42.87006" lon="0.25189">
        <ele>2238</ele>
        <time>2019-02-25T15:13:24Z</time>
      </trkpt>
      <trkpt lat="42.87004" lon="0.25191">
        <ele>2237</ele>
        <time>2019-02-25T15:13:25Z</time>
      </trkpt>
      <trkpt lat="42.87" lon="0.25197">
        <ele>2235</ele>
        <time>2019-02-25T15:13:26Z</time>
      </trkpt>
      <trkpt lat="42.87001" lon="0.25199">
        <ele>2234</ele>
        <time>2019-02-25T15:13:27Z</time>
      </trkpt>
      <trkpt lat="42.87002" lon="0.252">
        <ele>2232</ele>
        <time>2019-02-25T15:13:28Z</time>
      </trkpt>
      <trkpt lat="42.87002" lon="0.25202">
        <ele>2231</ele>
        <time>2019-02-25T15:13:29Z</time>
      </trkpt>
      <trkpt lat="42.87009" lon="0.25211">
        <ele>2230</ele>
        <time>2019-02-25T15:13:30Z</time>
      </trkpt>
      <trkpt lat="42.87013" lon="0.25213">
        <ele>2230</ele>
        <time>2019-02-25T15:13:31Z</time>
      </trkpt>
      <trkpt lat="42.87023" lon="0.25218">
        <ele>2227</ele>
        <time>2019-02-25T15:13:32Z</time>
      </trkpt>
      <trkpt lat="42.87026" lon="0.25219">
        <ele>2226</ele>
        <time>2019-02-25T15:13:33Z</time>
      </trkpt>
      <trkpt lat="42.87035" lon="0.25224">
        <ele>2225</ele>
        <time>2019-02-25T15:13:34Z</time>
      </trkpt>
      <trkpt lat="42.87036" lon="0.25227">
        <ele>2224</ele>
        <time>2019-02-25T15:13:35Z</time>
      </trkpt>
      <trkpt lat="42.87043" lon="0.25235">
        <ele>2223</ele>
        <time>2019-02-25T15:13:36Z</time>
      </trkpt>
      <trkpt lat="42.87045" lon="0.25238">
        <ele>2223</ele>
        <time>2019-02-25T15:13:37Z</time>
      </trkpt>
      <trkpt lat="42.87052" lon="0.25244">
        <ele>2222</ele>
        <time>2019-02-25T15:13:38Z</time>
      </trkpt>
      <trkpt lat="42.87054" lon="0.25244">
        <ele>2221</ele>
        <time>2019-02-25T15:13:39Z</time>
      </trkpt>
      <trkpt lat="42.87056" lon="0.25245">
        <ele>2220</ele>
        <time>2019-02-25T15:13:40Z</time>
      </trkpt>
      <trkpt lat="42.87061" lon="0.25247">
        <ele>2220</ele>
        <time>2019-02-25T15:13:41Z</time>
      </trkpt>
      <trkpt lat="42.87065" lon="0.25264">
        <ele>2220</ele>
        <time>2019-02-25T15:13:44Z</time>
      </trkpt>
      <trkpt lat="42.87066" lon="0.25268">
        <ele>2219</ele>
        <time>2019-02-25T15:13:45Z</time>
      </trkpt>
      <trkpt lat="42.87067" lon="0.25278">
        <ele>2218</ele>
        <time>2019-02-25T15:13:46Z</time>
      </trkpt>
      <trkpt lat="42.87067" lon="0.25281">
        <ele>2217</ele>
        <time>2019-02-25T15:13:47Z</time>
      </trkpt>
      <trkpt lat="42.87067" lon="0.25284">
        <ele>2217</ele>
        <time>2019-02-25T15:13:48Z</time>
      </trkpt>
      <trkpt lat="42.87067" lon="0.25293">
        <ele>2217</ele>
        <time>2019-02-25T15:13:49Z</time>
      </trkpt>
      <trkpt lat="42.87066" lon="0.25305">
        <ele>2217</ele>
        <time>2019-02-25T15:13:51Z</time>
      </trkpt>
      <trkpt lat="42.87065" lon="0.2531">
        <ele>2216</ele>
        <time>2019-02-25T15:13:52Z</time>
      </trkpt>
      <trkpt lat="42.87064" lon="0.25315">
        <ele>2216</ele>
        <time>2019-02-25T15:13:53Z</time>
      </trkpt>
      <trkpt lat="42.87063" lon="0.25321">
        <ele>2215</ele>
        <time>2019-02-25T15:13:54Z</time>
      </trkpt>
      <trkpt lat="42.87062" lon="0.25327">
        <ele>2215</ele>
        <time>2019-02-25T15:13:55Z</time>
      </trkpt>
      <trkpt lat="42.87061" lon="0.25334">
        <ele>2214</ele>
        <time>2019-02-25T15:13:56Z</time>
      </trkpt>
      <trkpt lat="42.8706" lon="0.25341">
        <ele>2214</ele>
        <time>2019-02-25T15:13:57Z</time>
      </trkpt>
      <trkpt lat="42.87059" lon="0.25348">
        <ele>2214</ele>
        <time>2019-02-25T15:13:58Z</time>
      </trkpt>
      <trkpt lat="42.87058" lon="0.25355">
        <ele>2213</ele>
        <time>2019-02-25T15:13:59Z</time>
      </trkpt>
      <trkpt lat="42.87056" lon="0.25361">
        <ele>2212</ele>
        <time>2019-02-25T15:14:00Z</time>
      </trkpt>
      <trkpt lat="42.87056" lon="0.25367">
        <ele>2212</ele>
        <time>2019-02-25T15:14:01Z</time>
      </trkpt>
      <trkpt lat="42.87054" lon="0.25372">
        <ele>2212</ele>
        <time>2019-02-25T15:14:02Z</time>
      </trkpt>
      <trkpt lat="42.87052" lon="0.25378">
        <ele>2211</ele>
        <time>2019-02-25T15:14:03Z</time>
      </trkpt>
      <trkpt lat="42.87049" lon="0.25382">
        <ele>2208</ele>
        <time>2019-02-25T15:14:04Z</time>
      </trkpt>
      <trkpt lat="42.87045" lon="0.25384">
        <ele>2207</ele>
        <time>2019-02-25T15:14:05Z</time>
      </trkpt>
      <trkpt lat="42.87043" lon="0.25388">
        <ele>2204</ele>
        <time>2019-02-25T15:14:06Z</time>
      </trkpt>
      <trkpt lat="42.87041" lon="0.25395">
        <ele>2202</ele>
        <time>2019-02-25T15:14:07Z</time>
      </trkpt>
      <trkpt lat="42.8704" lon="0.25403">
        <ele>2201</ele>
        <time>2019-02-25T15:14:08Z</time>
      </trkpt>
      <trkpt lat="42.87039" lon="0.25412">
        <ele>2200</ele>
        <time>2019-02-25T15:14:09Z</time>
      </trkpt>
      <trkpt lat="42.87038" lon="0.25421">
        <ele>2199</ele>
        <time>2019-02-25T15:14:10Z</time>
      </trkpt>
      <trkpt lat="42.87036" lon="0.25429">
        <ele>2197</ele>
        <time>2019-02-25T15:14:11Z</time>
      </trkpt>
      <trkpt lat="42.87033" lon="0.25432">
        <ele>2195</ele>
        <time>2019-02-25T15:14:12Z</time>
      </trkpt>
      <trkpt lat="42.87028" lon="0.2543">
        <ele>2193</ele>
        <time>2019-02-25T15:14:13Z</time>
      </trkpt>
      <trkpt lat="42.87023" lon="0.25429">
        <ele>2190</ele>
        <time>2019-02-25T15:14:14Z</time>
      </trkpt>
      <trkpt lat="42.87018" lon="0.25428">
        <ele>2189</ele>
        <time>2019-02-25T15:14:15Z</time>
      </trkpt>
      <trkpt lat="42.87013" lon="0.2543">
        <ele>2186</ele>
        <time>2019-02-25T15:14:16Z</time>
      </trkpt>
      <trkpt lat="42.87009" lon="0.25435">
        <ele>2183</ele>
        <time>2019-02-25T15:14:17Z</time>
      </trkpt>
      <trkpt lat="42.87006" lon="0.25441">
        <ele>2182</ele>
        <time>2019-02-25T15:14:18Z</time>
      </trkpt>
      <trkpt lat="42.87004" lon="0.25446">
        <ele>2181</ele>
        <time>2019-02-25T15:14:19Z</time>
      </trkpt>
      <trkpt lat="42.87001" lon="0.2545">
        <ele>2180</ele>
        <time>2019-02-25T15:14:20Z</time>
      </trkpt>
      <trkpt lat="42.86999" lon="0.25455">
        <ele>2180</ele>
        <time>2019-02-25T15:14:21Z</time>
      </trkpt>
      <trkpt lat="42.86998" lon="0.25459">
        <ele>2179</ele>
        <time>2019-02-25T15:14:22Z</time>
      </trkpt>
      <trkpt lat="42.86998" lon="0.25465">
        <ele>2179</ele>
        <time>2019-02-25T15:14:25Z</time>
      </trkpt>
      <trkpt lat="42.87" lon="0.25462">
        <ele>2178</ele>
        <time>2019-02-25T15:14:30Z</time>
      </trkpt>
      <trkpt lat="42.87004" lon="0.25458">
        <ele>2178</ele>
        <time>2019-02-25T15:14:36Z</time>
      </trkpt>
      <trkpt lat="42.87005" lon="0.25461">
        <ele>2178</ele>
        <time>2019-02-25T15:15:16Z</time>
      </trkpt>
      <trkpt lat="42.87003" lon="0.25471">
        <ele>2177</ele>
        <time>2019-02-25T15:15:18Z</time>
      </trkpt>
      <trkpt lat="42.87002" lon="0.25477">
        <ele>2177</ele>
        <time>2019-02-25T15:15:19Z</time>
      </trkpt>
      <trkpt lat="42.87" lon="0.25484">
        <ele>2177</ele>
        <time>2019-02-25T15:15:20Z</time>
      </trkpt>
      <trkpt lat="42.86999" lon="0.25491">
        <ele>2176</ele>
        <time>2019-02-25T15:15:21Z</time>
      </trkpt>
      <trkpt lat="42.86997" lon="0.25498">
        <ele>2176</ele>
        <time>2019-02-25T15:15:22Z</time>
      </trkpt>
      <trkpt lat="42.86997" lon="0.25505">
        <ele>2175</ele>
        <time>2019-02-25T15:15:23Z</time>
      </trkpt>
      <trkpt lat="42.86996" lon="0.25511">
        <ele>2174</ele>
        <time>2019-02-25T15:15:24Z</time>
      </trkpt>
      <trkpt lat="42.86996" lon="0.25516">
        <ele>2174</ele>
        <time>2019-02-25T15:15:25Z</time>
      </trkpt>
      <trkpt lat="42.86996" lon="0.25521">
        <ele>2173</ele>
        <time>2019-02-25T15:15:26Z</time>
      </trkpt>
      <trkpt lat="42.86995" lon="0.25527">
        <ele>2173</ele>
        <time>2019-02-25T15:15:27Z</time>
      </trkpt>
      <trkpt lat="42.86993" lon="0.25531">
        <ele>2171</ele>
        <time>2019-02-25T15:15:28Z</time>
      </trkpt>
      <trkpt lat="42.8699" lon="0.25533">
        <ele>2169</ele>
        <time>2019-02-25T15:15:29Z</time>
      </trkpt>
      <trkpt lat="42.86985" lon="0.25534">
        <ele>2168</ele>
        <time>2019-02-25T15:15:30Z</time>
      </trkpt>
      <trkpt lat="42.8698" lon="0.25536">
        <ele>2165</ele>
        <time>2019-02-25T15:15:31Z</time>
      </trkpt>
      <trkpt lat="42.86975" lon="0.25536">
        <ele>2162</ele>
        <time>2019-02-25T15:15:32Z</time>
      </trkpt>
      <trkpt lat="42.8697" lon="0.25538">
        <ele>2159</ele>
        <time>2019-02-25T15:15:33Z</time>
      </trkpt>
      <trkpt lat="42.86965" lon="0.25542">
        <ele>2155</ele>
        <time>2019-02-25T15:15:34Z</time>
      </trkpt>
      <trkpt lat="42.86958" lon="0.25542">
        <ele>2152</ele>
        <time>2019-02-25T15:15:35Z</time>
      </trkpt>
      <trkpt lat="42.86949" lon="0.25548">
        <ele>2150</ele>
        <time>2019-02-25T15:15:36Z</time>
      </trkpt>
      <trkpt lat="42.86946" lon="0.25553">
        <ele>2147</ele>
        <time>2019-02-25T15:15:37Z</time>
      </trkpt>
      <trkpt lat="42.86941" lon="0.25562">
        <ele>2144</ele>
        <time>2019-02-25T15:15:38Z</time>
      </trkpt>
      <trkpt lat="42.86934" lon="0.25573">
        <ele>2143</ele>
        <time>2019-02-25T15:15:39Z</time>
      </trkpt>
      <trkpt lat="42.86928" lon="0.25581">
        <ele>2143</ele>
        <time>2019-02-25T15:15:40Z</time>
      </trkpt>
      <trkpt lat="42.86921" lon="0.25586">
        <ele>2142</ele>
        <time>2019-02-25T15:15:41Z</time>
      </trkpt>
      <trkpt lat="42.86914" lon="0.25592">
        <ele>2141</ele>
        <time>2019-02-25T15:15:42Z</time>
      </trkpt>
      <trkpt lat="42.86909" lon="0.25597">
        <ele>2140</ele>
        <time>2019-02-25T15:15:43Z</time>
      </trkpt>
      <trkpt lat="42.86904" lon="0.25601">
        <ele>2140</ele>
        <time>2019-02-25T15:15:44Z</time>
      </trkpt>
      <trkpt lat="42.86899" lon="0.25606">
        <ele>2139</ele>
        <time>2019-02-25T15:15:45Z</time>
      </trkpt>
      <trkpt lat="42.86895" lon="0.25611">
        <ele>2139</ele>
        <time>2019-02-25T15:15:46Z</time>
      </trkpt>
      <trkpt lat="42.8689" lon="0.25616">
        <ele>2139</ele>
        <time>2019-02-25T15:15:47Z</time>
      </trkpt>
      <trkpt lat="42.86885" lon="0.25624">
        <ele>2138</ele>
        <time>2019-02-25T15:15:48Z</time>
      </trkpt>
      <trkpt lat="42.86883" lon="0.25626">
        <ele>2137</ele>
        <time>2019-02-25T15:15:49Z</time>
      </trkpt>
      <trkpt lat="42.86878" lon="0.25631">
        <ele>2135</ele>
        <time>2019-02-25T15:15:50Z</time>
      </trkpt>
      <trkpt lat="42.86874" lon="0.25631">
        <ele>2133</ele>
        <time>2019-02-25T15:15:51Z</time>
      </trkpt>
      <trkpt lat="42.86859" lon="0.25631">
        <ele>2124</ele>
        <time>2019-02-25T15:15:54Z</time>
      </trkpt>
      <trkpt lat="42.86849" lon="0.25635">
        <ele>2119</ele>
        <time>2019-02-25T15:15:56Z</time>
      </trkpt>
      <trkpt lat="42.86839" lon="0.25643">
        <ele>2114</ele>
        <time>2019-02-25T15:15:58Z</time>
      </trkpt>
      <trkpt lat="42.86837" lon="0.25646">
        <ele>2112</ele>
        <time>2019-02-25T15:15:59Z</time>
      </trkpt>
      <trkpt lat="42.86833" lon="0.2565">
        <ele>2109</ele>
        <time>2019-02-25T15:16:00Z</time>
      </trkpt>
      <trkpt lat="42.86822" lon="0.25647">
        <ele>2103.6</ele>
        <time>2019-02-25T15:16:02Z</time>
      </trkpt>
      <trkpt lat="42.8682" lon="0.25634">
        <ele>2099</ele>
        <time>2019-02-25T15:16:05Z</time>
      </trkpt>
      <trkpt lat="42.86823" lon="0.25642">
        <ele>2099</ele>
        <time>2019-02-25T15:16:07Z</time>
      </trkpt>
      <trkpt lat="42.86826" lon="0.25643">
        <ele>2099</ele>
        <time>2019-02-25T15:16:16Z</time>
      </trkpt>
      <trkpt lat="42.86825" lon="0.25645">
        <ele>2099</ele>
        <time>2019-02-25T15:16:42Z</time>
      </trkpt>
      <trkpt lat="42.86823" lon="0.25647">
        <ele>2099</ele>
        <time>2019-02-25T15:17:05Z</time>
      </trkpt>
      <trkpt lat="42.86823" lon="0.2565">
        <ele>2098</ele>
        <time>2019-02-25T15:17:06Z</time>
      </trkpt>
      <trkpt lat="42.86824" lon="0.25654">
        <ele>2098</ele>
        <time>2019-02-25T15:17:07Z</time>
      </trkpt>
      <trkpt lat="42.86826" lon="0.2566">
        <ele>2098</ele>
        <time>2019-02-25T15:17:08Z</time>
      </trkpt>
      <trkpt lat="42.86826" lon="0.25666">
        <ele>2096</ele>
        <time>2019-02-25T15:17:09Z</time>
      </trkpt>
      <trkpt lat="42.86822" lon="0.2567">
        <ele>2094</ele>
        <time>2019-02-25T15:17:10Z</time>
      </trkpt>
      <trkpt lat="42.86818" lon="0.25675">
        <ele>2092</ele>
        <time>2019-02-25T15:17:11Z</time>
      </trkpt>
      <trkpt lat="42.86814" lon="0.25683">
        <ele>2089</ele>
        <time>2019-02-25T15:17:12Z</time>
      </trkpt>
      <trkpt lat="42.86808" lon="0.25688">
        <ele>2087</ele>
        <time>2019-02-25T15:17:13Z</time>
      </trkpt>
      <trkpt lat="42.86803" lon="0.25692">
        <ele>2085</ele>
        <time>2019-02-25T15:17:14Z</time>
      </trkpt>
      <trkpt lat="42.86797" lon="0.25697">
        <ele>2082</ele>
        <time>2019-02-25T15:17:15Z</time>
      </trkpt>
      <trkpt lat="42.8679" lon="0.257">
        <ele>2079</ele>
        <time>2019-02-25T15:17:16Z</time>
      </trkpt>
      <trkpt lat="42.86782" lon="0.25707">
        <ele>2076</ele>
        <time>2019-02-25T15:17:17Z</time>
      </trkpt>
      <trkpt lat="42.8678" lon="0.25709">
        <ele>2074</ele>
        <time>2019-02-25T15:17:18Z</time>
      </trkpt>
      <trkpt lat="42.86771" lon="0.25716">
        <ele>2071</ele>
        <time>2019-02-25T15:17:19Z</time>
      </trkpt>
      <trkpt lat="42.86768" lon="0.25718">
        <ele>2067</ele>
        <time>2019-02-25T15:17:20Z</time>
      </trkpt>
      <trkpt lat="42.86759" lon="0.25725">
        <ele>2065</ele>
        <time>2019-02-25T15:17:21Z</time>
      </trkpt>
      <trkpt lat="42.86757" lon="0.25727">
        <ele>2062</ele>
        <time>2019-02-25T15:17:22Z</time>
      </trkpt>
      <trkpt lat="42.86752" lon="0.25737">
        <ele>2060</ele>
        <time>2019-02-25T15:17:23Z</time>
      </trkpt>
      <trkpt lat="42.86752" lon="0.2574">
        <ele>2057</ele>
        <time>2019-02-25T15:17:24Z</time>
      </trkpt>
      <trkpt lat="42.86751" lon="0.25748">
        <ele>2055</ele>
        <time>2019-02-25T15:17:25Z</time>
      </trkpt>
      <trkpt lat="42.86753" lon="0.25763">
        <ele>2050</ele>
        <time>2019-02-25T15:17:27Z</time>
      </trkpt>
      <trkpt lat="42.8675" lon="0.25767">
        <ele>2049</ele>
        <time>2019-02-25T15:17:28Z</time>
      </trkpt>
      <trkpt lat="42.86744" lon="0.25774">
        <ele>2048</ele>
        <time>2019-02-25T15:17:29Z</time>
      </trkpt>
      <trkpt lat="42.86732" lon="0.25777">
        <ele>2044</ele>
        <time>2019-02-25T15:17:31Z</time>
      </trkpt>
      <trkpt lat="42.86731" lon="0.2578">
        <ele>2042</ele>
        <time>2019-02-25T15:17:32Z</time>
      </trkpt>
      <trkpt lat="42.86727" lon="0.25785">
        <ele>2040</ele>
        <time>2019-02-25T15:17:33Z</time>
      </trkpt>
      <trkpt lat="42.8672" lon="0.25792">
        <ele>2036</ele>
        <time>2019-02-25T15:17:35Z</time>
      </trkpt>
      <trkpt lat="42.86712" lon="0.25799">
        <ele>2030</ele>
        <time>2019-02-25T15:17:39Z</time>
      </trkpt>
      <trkpt lat="42.86716" lon="0.25804">
        <ele>2025</ele>
        <time>2019-02-25T15:18:45Z</time>
      </trkpt>
      <trkpt lat="42.86724" lon="0.25808">
        <ele>2024</ele>
        <time>2019-02-25T15:18:50Z</time>
      </trkpt>
      <trkpt lat="42.86726" lon="0.25807">
        <ele>2024</ele>
        <time>2019-02-25T15:18:52Z</time>
      </trkpt>
      <trkpt lat="42.86724" lon="0.25807">
        <ele>2025</ele>
        <time>2019-02-25T15:19:06Z</time>
      </trkpt>
      <trkpt lat="42.8672" lon="0.25806">
        <ele>2025</ele>
        <time>2019-02-25T15:19:07Z</time>
      </trkpt>
      <trkpt lat="42.86716" lon="0.25804">
        <ele>2024</ele>
        <time>2019-02-25T15:19:08Z</time>
      </trkpt>
      <trkpt lat="42.86712" lon="0.25799">
        <ele>2023</ele>
        <time>2019-02-25T15:19:09Z</time>
      </trkpt>
      <trkpt lat="42.86707" lon="0.25796">
        <ele>2023</ele>
        <time>2019-02-25T15:19:10Z</time>
      </trkpt>
      <trkpt lat="42.86703" lon="0.25798">
        <ele>2022</ele>
        <time>2019-02-25T15:19:11Z</time>
      </trkpt>
      <trkpt lat="42.86698" lon="0.25802">
        <ele>2020</ele>
        <time>2019-02-25T15:19:12Z</time>
      </trkpt>
      <trkpt lat="42.86694" lon="0.25805">
        <ele>2017</ele>
        <time>2019-02-25T15:19:13Z</time>
      </trkpt>
      <trkpt lat="42.86691" lon="0.25807">
        <ele>2016</ele>
        <time>2019-02-25T15:19:14Z</time>
      </trkpt>
      <trkpt lat="42.8669" lon="0.25811">
        <ele>2014</ele>
        <time>2019-02-25T15:19:15Z</time>
      </trkpt>
      <trkpt lat="42.86689" lon="0.25815">
        <ele>2012</ele>
        <time>2019-02-25T15:19:16Z</time>
      </trkpt>
      <trkpt lat="42.86686" lon="0.25816">
        <ele>2011</ele>
        <time>2019-02-25T15:19:17Z</time>
      </trkpt>
      <trkpt lat="42.86684" lon="0.25814">
        <ele>2010</ele>
        <time>2019-02-25T15:19:18Z</time>
      </trkpt>
      <trkpt lat="42.86682" lon="0.25813">
        <ele>2010</ele>
        <time>2019-02-25T15:19:19Z</time>
      </trkpt>
      <trkpt lat="42.86679" lon="0.25811">
        <ele>2009</ele>
        <time>2019-02-25T15:19:20Z</time>
      </trkpt>
      <trkpt lat="42.86676" lon="0.2581">
        <ele>2009</ele>
        <time>2019-02-25T15:19:21Z</time>
      </trkpt>
      <trkpt lat="42.86673" lon="0.25808">
        <ele>2008</ele>
        <time>2019-02-25T15:19:22Z</time>
      </trkpt>
      <trkpt lat="42.8667" lon="0.25806">
        <ele>2007</ele>
        <time>2019-02-25T15:19:23Z</time>
      </trkpt>
      <trkpt lat="42.86667" lon="0.25804">
        <ele>2006</ele>
        <time>2019-02-25T15:19:24Z</time>
      </trkpt>
      <trkpt lat="42.86665" lon="0.25802">
        <ele>2005</ele>
        <time>2019-02-25T15:19:25Z</time>
      </trkpt>
      <trkpt lat="42.86663" lon="0.258">
        <ele>2005</ele>
        <time>2019-02-25T15:19:26Z</time>
      </trkpt>
      <trkpt lat="42.8666" lon="0.25798">
        <ele>2005</ele>
        <time>2019-02-25T15:19:27Z</time>
      </trkpt>
      <trkpt lat="42.86657" lon="0.25796">
        <ele>2004</ele>
        <time>2019-02-25T15:19:28Z</time>
      </trkpt>
      <trkpt lat="42.86653" lon="0.25794">
        <ele>2003</ele>
        <time>2019-02-25T15:19:29Z</time>
      </trkpt>
      <trkpt lat="42.8665" lon="0.2579">
        <ele>2001</ele>
        <time>2019-02-25T15:19:30Z</time>
      </trkpt>
      <trkpt lat="42.86646" lon="0.25787">
        <ele>2000</ele>
        <time>2019-02-25T15:19:31Z</time>
      </trkpt>
      <trkpt lat="42.86644" lon="0.25785">
        <ele>1999</ele>
        <time>2019-02-25T15:19:32Z</time>
      </trkpt>
      <trkpt lat="42.86641" lon="0.25783">
        <ele>1998</ele>
        <time>2019-02-25T15:19:33Z</time>
      </trkpt>
      <trkpt lat="42.86637" lon="0.25781">
        <ele>1998</ele>
        <time>2019-02-25T15:19:34Z</time>
      </trkpt>
      <trkpt lat="42.86635" lon="0.2578">
        <ele>1997</ele>
        <time>2019-02-25T15:19:35Z</time>
      </trkpt>
      <trkpt lat="42.86632" lon="0.25779">
        <ele>1996</ele>
        <time>2019-02-25T15:19:42Z</time>
      </trkpt>
      <trkpt lat="42.8663" lon="0.25779">
        <ele>1996</ele>
        <time>2019-02-25T15:19:43Z</time>
      </trkpt>
      <trkpt lat="42.86627" lon="0.25778">
        <ele>1996</ele>
        <time>2019-02-25T15:19:44Z</time>
      </trkpt>
      <trkpt lat="42.86624" lon="0.25779">
        <ele>1994</ele>
        <time>2019-02-25T15:19:45Z</time>
      </trkpt>
      <trkpt lat="42.86621" lon="0.25782">
        <ele>1993</ele>
        <time>2019-02-25T15:19:46Z</time>
      </trkpt>
      <trkpt lat="42.86621" lon="0.25786">
        <ele>1991</ele>
        <time>2019-02-25T15:19:47Z</time>
      </trkpt>
      <trkpt lat="42.86623" lon="0.25792">
        <ele>1990</ele>
        <time>2019-02-25T15:19:48Z</time>
      </trkpt>
      <trkpt lat="42.86624" lon="0.25797">
        <ele>1988</ele>
        <time>2019-02-25T15:19:49Z</time>
      </trkpt>
      <trkpt lat="42.86622" lon="0.25799">
        <ele>1986</ele>
        <time>2019-02-25T15:19:50Z</time>
      </trkpt>
      <trkpt lat="42.86617" lon="0.25797">
        <ele>1986</ele>
        <time>2019-02-25T15:19:51Z</time>
      </trkpt>
      <trkpt lat="42.86613" lon="0.25796">
        <ele>1984</ele>
        <time>2019-02-25T15:19:52Z</time>
      </trkpt>
      <trkpt lat="42.86609" lon="0.25797">
        <ele>1982</ele>
        <time>2019-02-25T15:19:53Z</time>
      </trkpt>
      <trkpt lat="42.86608" lon="0.25804">
        <ele>1980</ele>
        <time>2019-02-25T15:19:54Z</time>
      </trkpt>
      <trkpt lat="42.86609" lon="0.25807">
        <ele>1978</ele>
        <time>2019-02-25T15:19:55Z</time>
      </trkpt>
      <trkpt lat="42.8661" lon="0.25809">
        <ele>1975</ele>
        <time>2019-02-25T15:19:56Z</time>
      </trkpt>
      <trkpt lat="42.86613" lon="0.25817">
        <ele>1973</ele>
        <time>2019-02-25T15:19:57Z</time>
      </trkpt>
      <trkpt lat="42.86609" lon="0.2582">
        <ele>1971</ele>
        <time>2019-02-25T15:19:58Z</time>
      </trkpt>
      <trkpt lat="42.86605" lon="0.25819">
        <ele>1969</ele>
        <time>2019-02-25T15:20:00Z</time>
      </trkpt>
      <trkpt lat="42.86604" lon="0.25823">
        <ele>1967</ele>
        <time>2019-02-25T15:20:08Z</time>
      </trkpt>
      <trkpt lat="42.866" lon="0.25823">
        <ele>1967</ele>
        <time>2019-02-25T15:20:10Z</time>
      </trkpt>
      <trkpt lat="42.86597" lon="0.25824">
        <ele>1967</ele>
        <time>2019-02-25T15:20:11Z</time>
      </trkpt>
      <trkpt lat="42.86595" lon="0.25825">
        <ele>1965</ele>
        <time>2019-02-25T15:20:12Z</time>
      </trkpt>
      <trkpt lat="42.86596" lon="0.25828">
        <ele>1963</ele>
        <time>2019-02-25T15:20:13Z</time>
      </trkpt>
      <trkpt lat="42.866" lon="0.25834">
        <ele>1960</ele>
        <time>2019-02-25T15:20:15Z</time>
      </trkpt>
      <trkpt lat="42.86598" lon="0.25838">
        <ele>1959</ele>
        <time>2019-02-25T15:20:16Z</time>
      </trkpt>
      <trkpt lat="42.86595" lon="0.2584">
        <ele>1955</ele>
        <time>2019-02-25T15:20:34Z</time>
      </trkpt>
      <trkpt lat="42.86593" lon="0.25843">
        <ele>1955</ele>
        <time>2019-02-25T15:21:28Z</time>
      </trkpt>
      <trkpt lat="42.86592" lon="0.25848">
        <ele>1953</ele>
        <time>2019-02-25T15:21:29Z</time>
      </trkpt>
      <trkpt lat="42.8659" lon="0.25852">
        <ele>1952</ele>
        <time>2019-02-25T15:21:30Z</time>
      </trkpt>
      <trkpt lat="42.86587" lon="0.25851">
        <ele>1949</ele>
        <time>2019-02-25T15:21:31Z</time>
      </trkpt>
      <trkpt lat="42.86579" lon="0.25844">
        <ele>1946</ele>
        <time>2019-02-25T15:21:33Z</time>
      </trkpt>
      <trkpt lat="42.86575" lon="0.25853">
        <ele>1944</ele>
        <time>2019-02-25T15:21:34Z</time>
      </trkpt>
      <trkpt lat="42.86574" lon="0.25856">
        <ele>1941</ele>
        <time>2019-02-25T15:21:35Z</time>
      </trkpt>
      <trkpt lat="42.86573" lon="0.25863">
        <ele>1939</ele>
        <time>2019-02-25T15:21:36Z</time>
      </trkpt>
      <trkpt lat="42.86566" lon="0.25874">
        <ele>1935</ele>
        <time>2019-02-25T15:21:38Z</time>
      </trkpt>
      <trkpt lat="42.86564" lon="0.25874">
        <ele>1932</ele>
        <time>2019-02-25T15:21:39Z</time>
      </trkpt>
      <trkpt lat="42.86562" lon="0.25874">
        <ele>1929</ele>
        <time>2019-02-25T15:21:40Z</time>
      </trkpt>
      <trkpt lat="42.86556" lon="0.25875">
        <ele>1927</ele>
        <time>2019-02-25T15:21:41Z</time>
      </trkpt>
      <trkpt lat="42.86545" lon="0.25874">
        <ele>1920</ele>
        <time>2019-02-25T15:21:44Z</time>
      </trkpt>
      <trkpt lat="42.86544" lon="0.25871">
        <ele>1918</ele>
        <time>2019-02-25T15:21:45Z</time>
      </trkpt>
      <trkpt lat="42.86542" lon="0.25864">
        <ele>1916</ele>
        <time>2019-02-25T15:21:46Z</time>
      </trkpt>
      <trkpt lat="42.86534" lon="0.25873">
        <ele>1910</ele>
        <time>2019-02-25T15:21:56Z</time>
      </trkpt>
      <trkpt lat="42.86535" lon="0.25876">
        <ele>1908</ele>
        <time>2019-02-25T15:21:58Z</time>
      </trkpt>
      <trkpt lat="42.86532" lon="0.25879">
        <ele>1906</ele>
        <time>2019-02-25T15:22:01Z</time>
      </trkpt>
      <trkpt lat="42.86527" lon="0.25883">
        <ele>1905</ele>
        <time>2019-02-25T15:22:02Z</time>
      </trkpt>
      <trkpt lat="42.86522" lon="0.25883">
        <ele>1903</ele>
        <time>2019-02-25T15:22:03Z</time>
      </trkpt>
      <trkpt lat="42.86519" lon="0.25878">
        <ele>1901</ele>
        <time>2019-02-25T15:22:04Z</time>
      </trkpt>
      <trkpt lat="42.86518" lon="0.25875">
        <ele>1901</ele>
        <time>2019-02-25T15:22:05Z</time>
      </trkpt>
      <trkpt lat="42.86515" lon="0.25879">
        <ele>1899</ele>
        <time>2019-02-25T15:22:11Z</time>
      </trkpt>
      <trkpt lat="42.86515" lon="0.25883">
        <ele>1898</ele>
        <time>2019-02-25T15:22:12Z</time>
      </trkpt>
      <trkpt lat="42.86515" lon="0.25886">
        <ele>1897</ele>
        <time>2019-02-25T15:22:13Z</time>
      </trkpt>
      <trkpt lat="42.86514" lon="0.2589">
        <ele>1896</ele>
        <time>2019-02-25T15:22:14Z</time>
      </trkpt>
      <trkpt lat="42.86511" lon="0.25892">
        <ele>1894</ele>
        <time>2019-02-25T15:22:15Z</time>
      </trkpt>
      <trkpt lat="42.86506" lon="0.25889">
        <ele>1892</ele>
        <time>2019-02-25T15:22:16Z</time>
      </trkpt>
      <trkpt lat="42.865" lon="0.25879">
        <ele>1890</ele>
        <time>2019-02-25T15:22:18Z</time>
      </trkpt>
      <trkpt lat="42.86498" lon="0.25877">
        <ele>1889</ele>
        <time>2019-02-25T15:22:19Z</time>
      </trkpt>
      <trkpt lat="42.86497" lon="0.25874">
        <ele>1888</ele>
        <time>2019-02-25T15:22:20Z</time>
      </trkpt>
      <trkpt lat="42.86492" lon="0.25864">
        <ele>1887</ele>
        <time>2019-02-25T15:22:21Z</time>
      </trkpt>
      <trkpt lat="42.86491" lon="0.25861">
        <ele>1885</ele>
        <time>2019-02-25T15:22:22Z</time>
      </trkpt>
      <trkpt lat="42.86488" lon="0.25854">
        <ele>1884</ele>
        <time>2019-02-25T15:22:23Z</time>
      </trkpt>
      <trkpt lat="42.8648" lon="0.25847">
        <ele>1883</ele>
        <time>2019-02-25T15:22:26Z</time>
      </trkpt>
      <trkpt lat="42.86475" lon="0.25839">
        <ele>1881</ele>
        <time>2019-02-25T15:22:29Z</time>
      </trkpt>
      <trkpt lat="42.86473" lon="0.25837">
        <ele>1879</ele>
        <time>2019-02-25T15:23:27Z</time>
      </trkpt>
      <trkpt lat="42.86472" lon="0.25835">
        <ele>1879</ele>
        <time>2019-02-25T15:23:28Z</time>
      </trkpt>
      <trkpt lat="42.8647" lon="0.25833">
        <ele>1879</ele>
        <time>2019-02-25T15:23:29Z</time>
      </trkpt>
      <trkpt lat="42.86467" lon="0.25832">
        <ele>1879</ele>
        <time>2019-02-25T15:23:30Z</time>
      </trkpt>
      <trkpt lat="42.86465" lon="0.2583">
        <ele>1878</ele>
        <time>2019-02-25T15:23:31Z</time>
      </trkpt>
      <trkpt lat="42.86458" lon="0.25827">
        <ele>1876</ele>
        <time>2019-02-25T15:23:34Z</time>
      </trkpt>
      <trkpt lat="42.86454" lon="0.25826">
        <ele>1876</ele>
        <time>2019-02-25T15:23:40Z</time>
      </trkpt>
      <trkpt lat="42.8645" lon="0.2582">
        <ele>1875</ele>
        <time>2019-02-25T15:23:46Z</time>
      </trkpt>
      <trkpt lat="42.86448" lon="0.25819">
        <ele>1875</ele>
        <time>2019-02-25T15:23:48Z</time>
      </trkpt>
      <trkpt lat="42.86447" lon="0.25818">
        <ele>1874</ele>
        <time>2019-02-25T15:23:49Z</time>
      </trkpt>
      <trkpt lat="42.86444" lon="0.25816">
        <ele>1874</ele>
        <time>2019-02-25T15:23:50Z</time>
      </trkpt>
      <trkpt lat="42.8644" lon="0.25815">
        <ele>1874</ele>
        <time>2019-02-25T15:23:51Z</time>
      </trkpt>
      <trkpt lat="42.86437" lon="0.25816">
        <ele>1873</ele>
        <time>2019-02-25T15:23:52Z</time>
      </trkpt>
      <trkpt lat="42.86433" lon="0.25828">
        <ele>1868</ele>
        <time>2019-02-25T15:23:54Z</time>
      </trkpt>
      <trkpt lat="42.86423" lon="0.25831">
        <ele>1864</ele>
        <time>2019-02-25T15:23:57Z</time>
      </trkpt>
      <trkpt lat="42.86425" lon="0.25844">
        <ele>1859</ele>
        <time>2019-02-25T15:24:01Z</time>
      </trkpt>
      <trkpt lat="42.86432" lon="0.25854">
        <ele>1857</ele>
        <time>2019-02-25T15:24:05Z</time>
      </trkpt>
      <trkpt lat="42.86426" lon="0.25863">
        <ele>1853</ele>
        <time>2019-02-25T15:24:09Z</time>
      </trkpt>
      <trkpt lat="42.86424" lon="0.25868">
        <ele>1852</ele>
        <time>2019-02-25T15:24:10Z</time>
      </trkpt>
      <trkpt lat="42.8642" lon="0.2588">
        <ele>1850</ele>
        <time>2019-02-25T15:24:12Z</time>
      </trkpt>
      <trkpt lat="42.86418" lon="0.25881">
        <ele>1848</ele>
        <time>2019-02-25T15:24:13Z</time>
      </trkpt>
      <trkpt lat="42.86416" lon="0.25882">
        <ele>1846</ele>
        <time>2019-02-25T15:24:14Z</time>
      </trkpt>
      <trkpt lat="42.86408" lon="0.25889">
        <ele>1845</ele>
        <time>2019-02-25T15:24:15Z</time>
      </trkpt>
      <trkpt lat="42.86406" lon="0.25892">
        <ele>1842</ele>
        <time>2019-02-25T15:24:16Z</time>
      </trkpt>
      <trkpt lat="42.86398" lon="0.259">
        <ele>1842</ele>
        <time>2019-02-25T15:24:17Z</time>
      </trkpt>
      <trkpt lat="42.86396" lon="0.25901">
        <ele>1839</ele>
        <time>2019-02-25T15:24:18Z</time>
      </trkpt>
      <trkpt lat="42.86391" lon="0.25905">
        <ele>1836</ele>
        <time>2019-02-25T15:24:19Z</time>
      </trkpt>
      <trkpt lat="42.86381" lon="0.25911">
        <ele>1831</ele>
        <time>2019-02-25T15:24:21Z</time>
      </trkpt>
      <trkpt lat="42.86379" lon="0.25913">
        <ele>1829</ele>
        <time>2019-02-25T15:24:22Z</time>
      </trkpt>
      <trkpt lat="42.86377" lon="0.25914">
        <ele>1827</ele>
        <time>2019-02-25T15:24:23Z</time>
      </trkpt>
      <trkpt lat="42.8637" lon="0.25917">
        <ele>1825</ele>
        <time>2019-02-25T15:24:24Z</time>
      </trkpt>
      <trkpt lat="42.86368" lon="0.25916">
        <ele>1823</ele>
        <time>2019-02-25T15:24:25Z</time>
      </trkpt>
      <trkpt lat="42.86366" lon="0.25915">
        <ele>1822</ele>
        <time>2019-02-25T15:24:26Z</time>
      </trkpt>
      <trkpt lat="42.8636" lon="0.25913">
        <ele>1820</ele>
        <time>2019-02-25T15:24:27Z</time>
      </trkpt>
      <trkpt lat="42.86365" lon="0.25924">
        <ele>1815</ele>
        <time>2019-02-25T15:25:24Z</time>
      </trkpt>
      <trkpt lat="42.86361" lon="0.25928">
        <ele>1813</ele>
        <time>2019-02-25T15:25:25Z</time>
      </trkpt>
      <trkpt lat="42.86356" lon="0.25931">
        <ele>1811</ele>
        <time>2019-02-25T15:25:26Z</time>
      </trkpt>
      <trkpt lat="42.86351" lon="0.25936">
        <ele>1808</ele>
        <time>2019-02-25T15:25:27Z</time>
      </trkpt>
      <trkpt lat="42.86343" lon="0.25942">
        <ele>1805</ele>
        <time>2019-02-25T15:25:28Z</time>
      </trkpt>
      <trkpt lat="42.8634" lon="0.25945">
        <ele>1803</ele>
        <time>2019-02-25T15:25:29Z</time>
      </trkpt>
      <trkpt lat="42.86332" lon="0.25955">
        <ele>1800</ele>
        <time>2019-02-25T15:25:30Z</time>
      </trkpt>
      <trkpt lat="42.86329" lon="0.25958">
        <ele>1797</ele>
        <time>2019-02-25T15:25:31Z</time>
      </trkpt>
      <trkpt lat="42.86324" lon="0.25964">
        <ele>1794</ele>
        <time>2019-02-25T15:25:32Z</time>
      </trkpt>
      <trkpt lat="42.86313" lon="0.25975">
        <ele>1788</ele>
        <time>2019-02-25T15:25:34Z</time>
      </trkpt>
      <trkpt lat="42.86311" lon="0.25978">
        <ele>1785</ele>
        <time>2019-02-25T15:25:35Z</time>
      </trkpt>
      <trkpt lat="42.86305" lon="0.25985">
        <ele>1782</ele>
        <time>2019-02-25T15:25:36Z</time>
      </trkpt>
      <trkpt lat="42.86302" lon="0.25988">
        <ele>1780</ele>
        <time>2019-02-25T15:25:37Z</time>
      </trkpt>
      <trkpt lat="42.86296" lon="0.25993">
        <ele>1777</ele>
        <time>2019-02-25T15:25:38Z</time>
      </trkpt>
      <trkpt lat="42.86287" lon="0.26005">
        <ele>1774</ele>
        <time>2019-02-25T15:25:39Z</time>
      </trkpt>
      <trkpt lat="42.86283" lon="0.26007">
        <ele>1771</ele>
        <time>2019-02-25T15:25:40Z</time>
      </trkpt>
      <trkpt lat="42.86272" lon="0.26017">
        <ele>1769</ele>
        <time>2019-02-25T15:25:41Z</time>
      </trkpt>
      <trkpt lat="42.86269" lon="0.26022">
        <ele>1766</ele>
        <time>2019-02-25T15:25:42Z</time>
      </trkpt>
      <trkpt lat="42.86259" lon="0.26033">
        <ele>1762</ele>
        <time>2019-02-25T15:25:43Z</time>
      </trkpt>
      <trkpt lat="42.86256" lon="0.26035">
        <ele>1759</ele>
        <time>2019-02-25T15:25:44Z</time>
      </trkpt>
      <trkpt lat="42.86245" lon="0.2604">
        <ele>1757</ele>
        <time>2019-02-25T15:25:45Z</time>
      </trkpt>
      <trkpt lat="42.86241" lon="0.26041">
        <ele>1756</ele>
        <time>2019-02-25T15:25:46Z</time>
      </trkpt>
      <trkpt lat="42.8623" lon="0.26044">
        <ele>1754</ele>
        <time>2019-02-25T15:25:47Z</time>
      </trkpt>
      <trkpt lat="42.86227" lon="0.26046">
        <ele>1751</ele>
        <time>2019-02-25T15:25:48Z</time>
      </trkpt>
      <trkpt lat="42.86216" lon="0.26053">
        <ele>1749</ele>
        <time>2019-02-25T15:25:49Z</time>
      </trkpt>
      <trkpt lat="42.86211" lon="0.26055">
        <ele>1746</ele>
        <time>2019-02-25T15:25:50Z</time>
      </trkpt>
      <trkpt lat="42.86198" lon="0.26062">
        <ele>1743</ele>
        <time>2019-02-25T15:25:51Z</time>
      </trkpt>
      <trkpt lat="42.86194" lon="0.26064">
        <ele>1743</ele>
        <time>2019-02-25T15:25:52Z</time>
      </trkpt>
      <trkpt lat="42.86181" lon="0.26068">
        <ele>1740</ele>
        <time>2019-02-25T15:25:53Z</time>
      </trkpt>
      <trkpt lat="42.86176" lon="0.2607">
        <ele>1737</ele>
        <time>2019-02-25T15:25:54Z</time>
      </trkpt>
      <trkpt lat="42.86164" lon="0.26076">
        <ele>1733</ele>
        <time>2019-02-25T15:25:55Z</time>
      </trkpt>
      <trkpt lat="42.8616" lon="0.26077">
        <ele>1730</ele>
        <time>2019-02-25T15:25:56Z</time>
      </trkpt>
      <trkpt lat="42.86151" lon="0.26081">
        <ele>1728</ele>
        <time>2019-02-25T15:25:57Z</time>
      </trkpt>
      <trkpt lat="42.86143" lon="0.26118">
        <ele>1725</ele>
        <time>2019-02-25T15:25:58Z</time>
      </trkpt>
      <trkpt lat="42.86141" lon="0.26121">
        <ele>1723</ele>
        <time>2019-02-25T15:25:59Z</time>
      </trkpt>
      <trkpt lat="42.86134" lon="0.26131">
        <ele>1721</ele>
        <time>2019-02-25T15:26:00Z</time>
      </trkpt>
      <trkpt lat="42.86131" lon="0.26135">
        <ele>1717</ele>
        <time>2019-02-25T15:26:01Z</time>
      </trkpt>
      <trkpt lat="42.86122" lon="0.2614">
        <ele>1715</ele>
        <time>2019-02-25T15:26:02Z</time>
      </trkpt>
      <trkpt lat="42.86118" lon="0.26139">
        <ele>1713</ele>
        <time>2019-02-25T15:26:03Z</time>
      </trkpt>
      <trkpt lat="42.86113" lon="0.26135">
        <ele>1712</ele>
        <time>2019-02-25T15:26:04Z</time>
      </trkpt>
      <trkpt lat="42.86114" lon="0.26134">
        <ele>1710</ele>
        <time>2019-02-25T15:26:05Z</time>
      </trkpt>
      <trkpt lat="42.86115" lon="0.26132">
        <ele>1709</ele>
        <time>2019-02-25T15:26:06Z</time>
      </trkpt>
      <trkpt lat="42.86117" lon="0.26131">
        <ele>1708</ele>
        <time>2019-02-25T15:26:07Z</time>
      </trkpt>
      <trkpt lat="42.86122" lon="0.26124">
        <ele>1708</ele>
        <time>2019-02-25T15:26:08Z</time>
      </trkpt>
      <trkpt lat="42.86125" lon="0.26128">
        <ele>1708</ele>
        <time>2019-02-25T15:26:18Z</time>
      </trkpt>
      <trkpt lat="42.86126" lon="0.26129">
        <ele>1708</ele>
        <time>2019-02-25T15:26:19Z</time>
      </trkpt>
      <trkpt lat="42.86128" lon="0.2613">
        <ele>1708</ele>
        <time>2019-02-25T15:26:24Z</time>
      </trkpt>
      <trkpt lat="42.86129" lon="0.26128">
        <ele>1708</ele>
        <time>2019-02-25T15:26:58Z</time>
      </trkpt>
      <trkpt lat="42.86127" lon="0.26133">
        <ele>1707</ele>
        <time>2019-02-25T15:27:24Z</time>
      </trkpt>
      <trkpt lat="42.86124" lon="0.26132">
        <ele>1707</ele>
        <time>2019-02-25T15:27:25Z</time>
      </trkpt>
      <trkpt lat="42.86122" lon="0.26128">
        <ele>1706</ele>
        <time>2019-02-25T15:27:26Z</time>
      </trkpt>
      <trkpt lat="42.86121" lon="0.26123">
        <ele>1706</ele>
        <time>2019-02-25T15:27:27Z</time>
      </trkpt>
      <trkpt lat="42.8612" lon="0.26119">
        <ele>1706</ele>
        <time>2019-02-25T15:27:28Z</time>
      </trkpt>
      <trkpt lat="42.86119" lon="0.26113">
        <ele>1706</ele>
        <time>2019-02-25T15:27:29Z</time>
      </trkpt>
      <trkpt lat="42.86118" lon="0.26108">
        <ele>1706</ele>
        <time>2019-02-25T15:27:30Z</time>
      </trkpt>
      <trkpt lat="42.86116" lon="0.26102">
        <ele>1705</ele>
        <time>2019-02-25T15:27:31Z</time>
      </trkpt>
      <trkpt lat="42.86114" lon="0.26095">
        <ele>1705</ele>
        <time>2019-02-25T15:27:32Z</time>
      </trkpt>
      <trkpt lat="42.86112" lon="0.26089">
        <ele>1704</ele>
        <time>2019-02-25T15:27:33Z</time>
      </trkpt>
      <trkpt lat="42.8611" lon="0.26082">
        <ele>1703</ele>
        <time>2019-02-25T15:27:34Z</time>
      </trkpt>
      <trkpt lat="42.86108" lon="0.26075">
        <ele>1703</ele>
        <time>2019-02-25T15:27:35Z</time>
      </trkpt>
      <trkpt lat="42.86107" lon="0.26068">
        <ele>1702</ele>
        <time>2019-02-25T15:27:36Z</time>
      </trkpt>
      <trkpt lat="42.86105" lon="0.2606">
        <ele>1702</ele>
        <time>2019-02-25T15:27:37Z</time>
      </trkpt>
      <trkpt lat="42.86104" lon="0.26053">
        <ele>1701</ele>
        <time>2019-02-25T15:27:38Z</time>
      </trkpt>
      <trkpt lat="42.86102" lon="0.26047">
        <ele>1700</ele>
        <time>2019-02-25T15:27:39Z</time>
      </trkpt>
      <trkpt lat="42.861" lon="0.26041">
        <ele>1700</ele>
        <time>2019-02-25T15:27:40Z</time>
      </trkpt>
      <trkpt lat="42.86098" lon="0.26036">
        <ele>1700</ele>
        <time>2019-02-25T15:27:41Z</time>
      </trkpt>
      <trkpt lat="42.86097" lon="0.26032">
        <ele>1700</ele>
        <time>2019-02-25T15:27:42Z</time>
      </trkpt>
      <trkpt lat="42.86095" lon="0.26028">
        <ele>1700</ele>
        <time>2019-02-25T15:27:43Z</time>
      </trkpt>
      <trkpt lat="42.86093" lon="0.26024">
        <ele>1700</ele>
        <time>2019-02-25T15:27:44Z</time>
      </trkpt>
      <trkpt lat="42.86092" lon="0.26021">
        <ele>1699</ele>
        <time>2019-02-25T15:27:45Z</time>
      </trkpt>
      <trkpt lat="42.86088" lon="0.26017">
        <ele>1698</ele>
        <time>2019-02-25T15:27:46Z</time>
      </trkpt>
      <trkpt lat="42.86084" lon="0.26013">
        <ele>1697</ele>
        <time>2019-02-25T15:27:47Z</time>
      </trkpt>
      <trkpt lat="42.86079" lon="0.26009">
        <ele>1696</ele>
        <time>2019-02-25T15:27:48Z</time>
      </trkpt>
      <trkpt lat="42.86075" lon="0.26004">
        <ele>1695</ele>
        <time>2019-02-25T15:27:49Z</time>
      </trkpt>
      <trkpt lat="42.86072" lon="0.26">
        <ele>1695</ele>
        <time>2019-02-25T15:27:50Z</time>
      </trkpt>
      <trkpt lat="42.8607" lon="0.25998">
        <ele>1695</ele>
        <time>2019-02-25T15:27:51Z</time>
      </trkpt>
      <trkpt lat="42.86071" lon="0.26001">
        <ele>1693</ele>
        <time>2019-02-25T15:28:05Z</time>
      </trkpt>
      <trkpt lat="42.86069" lon="0.26002">
        <ele>1693</ele>
        <time>2019-02-25T15:28:06Z</time>
      </trkpt>
      <trkpt lat="42.86067" lon="0.26007">
        <ele>1693</ele>
        <time>2019-02-25T15:28:07Z</time>
      </trkpt>
      <trkpt lat="42.86064" lon="0.26011">
        <ele>1692</ele>
        <time>2019-02-25T15:28:08Z</time>
      </trkpt>
      <trkpt lat="42.86061" lon="0.26014">
        <ele>1691</ele>
        <time>2019-02-25T15:28:09Z</time>
      </trkpt>
      <trkpt lat="42.86057" lon="0.26018">
        <ele>1689</ele>
        <time>2019-02-25T15:28:10Z</time>
      </trkpt>
      <trkpt lat="42.86053" lon="0.26021">
        <ele>1686</ele>
        <time>2019-02-25T15:28:11Z</time>
      </trkpt>
      <trkpt lat="42.86048" lon="0.2602">
        <ele>1685</ele>
        <time>2019-02-25T15:28:12Z</time>
      </trkpt>
      <trkpt lat="42.86044" lon="0.26022">
        <ele>1683</ele>
        <time>2019-02-25T15:28:13Z</time>
      </trkpt>
      <trkpt lat="42.8604" lon="0.26023">
        <ele>1681</ele>
        <time>2019-02-25T15:28:14Z</time>
      </trkpt>
      <trkpt lat="42.86038" lon="0.26017">
        <ele>1679</ele>
        <time>2019-02-25T15:28:17Z</time>
      </trkpt>
      <trkpt lat="42.86038" lon="0.26014">
        <ele>1678</ele>
        <time>2019-02-25T15:28:20Z</time>
      </trkpt>
      <trkpt lat="42.86039" lon="0.26011">
        <ele>1678</ele>
        <time>2019-02-25T15:28:23Z</time>
      </trkpt>
      <trkpt lat="42.8604" lon="0.26008">
        <ele>1678</ele>
        <time>2019-02-25T15:28:28Z</time>
      </trkpt>
      <trkpt lat="42.8604" lon="0.26005">
        <ele>1679</ele>
        <time>2019-02-25T15:28:31Z</time>
      </trkpt>
      <trkpt lat="42.86041" lon="0.26001">
        <ele>1679</ele>
        <time>2019-02-25T15:28:34Z</time>
      </trkpt>
      <trkpt lat="42.86041" lon="0.25998">
        <ele>1678</ele>
        <time>2019-02-25T15:28:36Z</time>
      </trkpt>
      <trkpt lat="42.86041" lon="0.25993">
        <ele>1678</ele>
        <time>2019-02-25T15:28:38Z</time>
      </trkpt>
      <trkpt lat="42.86041" lon="0.25986">
        <ele>1677</ele>
        <time>2019-02-25T15:28:42Z</time>
      </trkpt>
      <trkpt lat="42.86041" lon="0.25979">
        <ele>1677</ele>
        <time>2019-02-25T15:28:46Z</time>
      </trkpt>
      <trkpt lat="42.86041" lon="0.25971">
        <ele>1676</ele>
        <time>2019-02-25T15:28:49Z</time>
      </trkpt>
      <trkpt lat="42.8604" lon="0.25963">
        <ele>1676</ele>
        <time>2019-02-25T15:28:53Z</time>
      </trkpt>
      <trkpt lat="42.86038" lon="0.2596">
        <ele>1676</ele>
        <time>2019-02-25T15:28:54Z</time>
      </trkpt>
      <trkpt lat="42.86035" lon="0.25955">
        <ele>1674</ele>
        <time>2019-02-25T15:28:55Z</time>
      </trkpt>
      <trkpt lat="42.86033" lon="0.2595">
        <ele>1673</ele>
        <time>2019-02-25T15:28:56Z</time>
      </trkpt>
      <trkpt lat="42.8603" lon="0.25947">
        <ele>1672</ele>
        <time>2019-02-25T15:28:57Z</time>
      </trkpt>
      <trkpt lat="42.86026" lon="0.25946">
        <ele>1671</ele>
        <time>2019-02-25T15:28:58Z</time>
      </trkpt>
      <trkpt lat="42.8602" lon="0.25947">
        <ele>1669</ele>
        <time>2019-02-25T15:28:59Z</time>
      </trkpt>
      <trkpt lat="42.86015" lon="0.25944">
        <ele>1668</ele>
        <time>2019-02-25T15:29:00Z</time>
      </trkpt>
      <trkpt lat="42.86008" lon="0.2594">
        <ele>1666</ele>
        <time>2019-02-25T15:29:02Z</time>
      </trkpt>
      <trkpt lat="42.86006" lon="0.25938">
        <ele>1665</ele>
        <time>2019-02-25T15:29:03Z</time>
      </trkpt>
      <trkpt lat="42.86005" lon="0.25935">
        <ele>1664</ele>
        <time>2019-02-25T15:29:05Z</time>
      </trkpt>
      <trkpt lat="42.86005" lon="0.25932">
        <ele>1664</ele>
        <time>2019-02-25T15:29:14Z</time>
      </trkpt>
      <trkpt lat="42.86004" lon="0.25931">
        <ele>1664</ele>
        <time>2019-02-25T15:29:18Z</time>
      </trkpt>
      <trkpt lat="42.86001" lon="0.25929">
        <ele>1664</ele>
        <time>2019-02-25T15:29:19Z</time>
      </trkpt>
      <trkpt lat="42.85998" lon="0.25929">
        <ele>1664</ele>
        <time>2019-02-25T15:29:20Z</time>
      </trkpt>
      <trkpt lat="42.85995" lon="0.25932">
        <ele>1661</ele>
        <time>2019-02-25T15:29:21Z</time>
      </trkpt>
      <trkpt lat="42.85993" lon="0.25934">
        <ele>1659</ele>
        <time>2019-02-25T15:29:22Z</time>
      </trkpt>
      <trkpt lat="42.85994" lon="0.25932">
        <ele>1657</ele>
        <time>2019-02-25T15:29:39Z</time>
      </trkpt>
      <trkpt lat="42.85996" lon="0.25935">
        <ele>1657</ele>
        <time>2019-02-25T15:29:42Z</time>
      </trkpt>
      <trkpt lat="42.85995" lon="0.25939">
        <ele>1657</ele>
        <time>2019-02-25T15:29:44Z</time>
      </trkpt>
      <trkpt lat="42.85992" lon="0.25943">
        <ele>1657</ele>
        <time>2019-02-25T15:29:45Z</time>
      </trkpt>
      <trkpt lat="42.85988" lon="0.25944">
        <ele>1656</ele>
        <time>2019-02-25T15:29:46Z</time>
      </trkpt>
      <trkpt lat="42.85985" lon="0.25947">
        <ele>1655</ele>
        <time>2019-02-25T15:29:47Z</time>
      </trkpt>
      <trkpt lat="42.85984" lon="0.25953">
        <ele>1654</ele>
        <time>2019-02-25T15:29:48Z</time>
      </trkpt>
      <trkpt lat="42.85982" lon="0.2596">
        <ele>1653</ele>
        <time>2019-02-25T15:29:49Z</time>
      </trkpt>
      <trkpt lat="42.8598" lon="0.25967">
        <ele>1652</ele>
        <time>2019-02-25T15:29:50Z</time>
      </trkpt>
      <trkpt lat="42.85976" lon="0.25972">
        <ele>1651</ele>
        <time>2019-02-25T15:29:51Z</time>
      </trkpt>
      <trkpt lat="42.85974" lon="0.25977">
        <ele>1648</ele>
        <time>2019-02-25T15:29:52Z</time>
      </trkpt>
      <trkpt lat="42.85971" lon="0.25983">
        <ele>1646</ele>
        <time>2019-02-25T15:29:53Z</time>
      </trkpt>
      <trkpt lat="42.85968" lon="0.2599">
        <ele>1645</ele>
        <time>2019-02-25T15:29:54Z</time>
      </trkpt>
      <trkpt lat="42.85964" lon="0.25997">
        <ele>1643</ele>
        <time>2019-02-25T15:29:55Z</time>
      </trkpt>
      <trkpt lat="42.8596" lon="0.26005">
        <ele>1642</ele>
        <time>2019-02-25T15:29:56Z</time>
      </trkpt>
      <trkpt lat="42.85957" lon="0.26014">
        <ele>1641</ele>
        <time>2019-02-25T15:29:57Z</time>
      </trkpt>
      <trkpt lat="42.85955" lon="0.26023">
        <ele>1640</ele>
        <time>2019-02-25T15:29:58Z</time>
      </trkpt>
      <trkpt lat="42.85953" lon="0.26031">
        <ele>1640</ele>
        <time>2019-02-25T15:29:59Z</time>
      </trkpt>
      <trkpt lat="42.85948" lon="0.26043">
        <ele>1640</ele>
        <time>2019-02-25T15:30:00Z</time>
      </trkpt>
      <trkpt lat="42.85947" lon="0.26047">
        <ele>1636.4</ele>
        <time>2019-02-25T15:30:01Z</time>
      </trkpt>
      <trkpt lat="42.85943" lon="0.26054">
        <ele>1636</ele>
        <time>2019-02-25T15:30:02Z</time>
      </trkpt>
      <trkpt lat="42.85938" lon="0.26061">
        <ele>1635</ele>
        <time>2019-02-25T15:30:03Z</time>
      </trkpt>
      <trkpt lat="42.85935" lon="0.26067">
        <ele>1635</ele>
        <time>2019-02-25T15:30:04Z</time>
      </trkpt>
      <trkpt lat="42.85932" lon="0.26072">
        <ele>1635</ele>
        <time>2019-02-25T15:30:05Z</time>
      </trkpt>
      <trkpt lat="42.8593" lon="0.26077">
        <ele>1635</ele>
        <time>2019-02-25T15:30:06Z</time>
      </trkpt>
      <trkpt lat="42.85929" lon="0.26081">
        <ele>1634</ele>
        <time>2019-02-25T15:30:07Z</time>
      </trkpt>
      <trkpt lat="42.85928" lon="0.26084">
        <ele>1634</ele>
        <time>2019-02-25T15:30:08Z</time>
      </trkpt>
      <trkpt lat="42.85928" lon="0.26088">
        <ele>1634</ele>
        <time>2019-02-25T15:30:09Z</time>
      </trkpt>
      <trkpt lat="42.85928" lon="0.26091">
        <ele>1633</ele>
        <time>2019-02-25T15:30:10Z</time>
      </trkpt>
      <trkpt lat="42.8593" lon="0.26093">
        <ele>1632</ele>
        <time>2019-02-25T15:30:22Z</time>
      </trkpt>
      <trkpt lat="42.85931" lon="0.26095">
        <ele>1632</ele>
        <time>2019-02-25T15:30:35Z</time>
      </trkpt>
      <trkpt lat="42.85933" lon="0.26096">
        <ele>1632</ele>
        <time>2019-02-25T15:30:53Z</time>
      </trkpt>
      <trkpt lat="42.85934" lon="0.26099">
        <ele>1632</ele>
        <time>2019-02-25T15:30:59Z</time>
      </trkpt>
      <trkpt lat="42.85935" lon="0.26101">
        <ele>1633</ele>
        <time>2019-02-25T15:31:05Z</time>
      </trkpt>
      <trkpt lat="42.85936" lon="0.26104">
        <ele>1633</ele>
        <time>2019-02-25T15:31:08Z</time>
      </trkpt>
      <trkpt lat="42.85936" lon="0.26107">
        <ele>1633</ele>
        <time>2019-02-25T15:31:13Z</time>
      </trkpt>
      <trkpt lat="42.85935" lon="0.2611">
        <ele>1634</ele>
        <time>2019-02-25T15:31:16Z</time>
      </trkpt>
      <trkpt lat="42.85936" lon="0.26112">
        <ele>1634</ele>
        <time>2019-02-25T15:31:19Z</time>
      </trkpt>
      <trkpt lat="42.85937" lon="0.26114">
        <ele>1634</ele>
        <time>2019-02-25T15:31:30Z</time>
      </trkpt>
      <trkpt lat="42.85938" lon="0.26116">
        <ele>1634</ele>
        <time>2019-02-25T15:31:34Z</time>
      </trkpt>
      <trkpt lat="42.85938" lon="0.26119">
        <ele>1633</ele>
        <time>2019-02-25T15:31:38Z</time>
      </trkpt>
      <trkpt lat="42.85936" lon="0.26123">
        <ele>1633</ele>
        <time>2019-02-25T15:31:40Z</time>
      </trkpt>
      <trkpt lat="42.85933" lon="0.26126">
        <ele>1632</ele>
        <time>2019-02-25T15:31:41Z</time>
      </trkpt>
      <trkpt lat="42.8593" lon="0.26126">
        <ele>1631</ele>
        <time>2019-02-25T15:31:42Z</time>
      </trkpt>
      <trkpt lat="42.85926" lon="0.26124">
        <ele>1630</ele>
        <time>2019-02-25T15:31:43Z</time>
      </trkpt>
      <trkpt lat="42.8592" lon="0.26123">
        <ele>1629</ele>
        <time>2019-02-25T15:31:44Z</time>
      </trkpt>
      <trkpt lat="42.85915" lon="0.26123">
        <ele>1628</ele>
        <time>2019-02-25T15:31:45Z</time>
      </trkpt>
      <trkpt lat="42.85909" lon="0.26121">
        <ele>1627</ele>
        <time>2019-02-25T15:31:46Z</time>
      </trkpt>
      <trkpt lat="42.85905" lon="0.26119">
        <ele>1627</ele>
        <time>2019-02-25T15:31:47Z</time>
      </trkpt>
      <trkpt lat="42.85901" lon="0.26116">
        <ele>1628</ele>
        <time>2019-02-25T15:31:48Z</time>
      </trkpt>
      <trkpt lat="42.85898" lon="0.26114">
        <ele>1628</ele>
        <time>2019-02-25T15:31:49Z</time>
      </trkpt>
      <trkpt lat="42.85896" lon="0.26113">
        <ele>1628</ele>
        <time>2019-02-25T15:31:50Z</time>
      </trkpt>
      <trkpt lat="42.85894" lon="0.26112">
        <ele>1628</ele>
        <time>2019-02-25T15:31:54Z</time>
      </trkpt>
      <trkpt lat="42.85892" lon="0.26112">
        <ele>1627</ele>
        <time>2019-02-25T15:32:02Z</time>
      </trkpt>
      <trkpt lat="42.8589" lon="0.26112">
        <ele>1627</ele>
        <time>2019-02-25T15:32:06Z</time>
      </trkpt>
      <trkpt lat="42.85888" lon="0.26114">
        <ele>1627</ele>
        <time>2019-02-25T15:32:59Z</time>
      </trkpt>
      <trkpt lat="42.85886" lon="0.26115">
        <ele>1627</ele>
        <time>2019-02-25T15:33:00Z</time>
      </trkpt>
      <trkpt lat="42.85883" lon="0.26117">
        <ele>1627</ele>
        <time>2019-02-25T15:33:01Z</time>
      </trkpt>
      <trkpt lat="42.85881" lon="0.2612">
        <ele>1627</ele>
        <time>2019-02-25T15:33:02Z</time>
      </trkpt>
      <trkpt lat="42.85879" lon="0.26122">
        <ele>1627</ele>
        <time>2019-02-25T15:33:03Z</time>
      </trkpt>
      <trkpt lat="42.85878" lon="0.26125">
        <ele>1627</ele>
        <time>2019-02-25T15:33:04Z</time>
      </trkpt>
      <trkpt lat="42.85877" lon="0.26127">
        <ele>1627</ele>
        <time>2019-02-25T15:33:05Z</time>
      </trkpt>
      <trkpt lat="42.85876" lon="0.2613">
        <ele>1626</ele>
        <time>2019-02-25T15:33:07Z</time>
      </trkpt>
      <trkpt lat="42.85875" lon="0.26133">
        <ele>1625</ele>
        <time>2019-02-25T15:33:09Z</time>
      </trkpt>
      <trkpt lat="42.85874" lon="0.26135">
        <ele>1625</ele>
        <time>2019-02-25T15:33:11Z</time>
      </trkpt>
      <trkpt lat="42.85872" lon="0.26137">
        <ele>1625</ele>
        <time>2019-02-25T15:33:15Z</time>
      </trkpt>
      <trkpt lat="42.85869" lon="0.26141">
        <ele>1624</ele>
        <time>2019-02-25T15:33:22Z</time>
      </trkpt>
      <trkpt lat="42.85868" lon="0.26144">
        <ele>1624</ele>
        <time>2019-02-25T15:33:23Z</time>
      </trkpt>
      <trkpt lat="42.85867" lon="0.26148">
        <ele>1623</ele>
        <time>2019-02-25T15:33:24Z</time>
      </trkpt>
      <trkpt lat="42.85865" lon="0.26151">
        <ele>1622</ele>
        <time>2019-02-25T15:33:25Z</time>
      </trkpt>
      <trkpt lat="42.85863" lon="0.26152">
        <ele>1621</ele>
        <time>2019-02-25T15:33:26Z</time>
      </trkpt>
      <trkpt lat="42.85861" lon="0.26151">
        <ele>1621</ele>
        <time>2019-02-25T15:33:27Z</time>
      </trkpt>
      <trkpt lat="42.85861" lon="0.26147">
        <ele>1620</ele>
        <time>2019-02-25T15:33:29Z</time>
      </trkpt>
      <trkpt lat="42.85861" lon="0.26145">
        <ele>1618</ele>
        <time>2019-02-25T15:34:31Z</time>
      </trkpt>
      <trkpt lat="42.85859" lon="0.26144">
        <ele>1618</ele>
        <time>2019-02-25T15:34:33Z</time>
      </trkpt>
      <trkpt lat="42.85856" lon="0.26145">
        <ele>1617</ele>
        <time>2019-02-25T15:34:34Z</time>
      </trkpt>
      <trkpt lat="42.85854" lon="0.26148">
        <ele>1616</ele>
        <time>2019-02-25T15:34:36Z</time>
      </trkpt>
      <trkpt lat="42.85853" lon="0.26153">
        <ele>1615</ele>
        <time>2019-02-25T15:34:38Z</time>
      </trkpt>
      <trkpt lat="42.85852" lon="0.26156">
        <ele>1614</ele>
        <time>2019-02-25T15:34:40Z</time>
      </trkpt>
      <trkpt lat="42.85851" lon="0.26159">
        <ele>1615</ele>
        <time>2019-02-25T15:34:44Z</time>
      </trkpt>
      <trkpt lat="42.85848" lon="0.26162">
        <ele>1614</ele>
        <time>2019-02-25T15:34:46Z</time>
      </trkpt>
      <trkpt lat="42.85848" lon="0.26158">
        <ele>1613</ele>
        <time>2019-02-25T15:35:02Z</time>
      </trkpt>
      <trkpt lat="42.85848" lon="0.26151">
        <ele>1612</ele>
        <time>2019-02-25T15:35:09Z</time>
      </trkpt>
      <trkpt lat="42.8585" lon="0.26153">
        <ele>1610</ele>
        <time>2019-02-25T15:35:15Z</time>
      </trkpt>
      <trkpt lat="42.85848" lon="0.26151">
        <ele>1610</ele>
        <time>2019-02-25T15:35:24Z</time>
      </trkpt>
      <trkpt lat="42.85846" lon="0.2615">
        <ele>1610</ele>
        <time>2019-02-25T15:35:28Z</time>
      </trkpt>
      <trkpt lat="42.85839" lon="0.26159">
        <ele>1610</ele>
        <time>2019-02-25T15:35:37Z</time>
      </trkpt>
      <trkpt lat="42.85841" lon="0.2616">
        <ele>1610</ele>
        <time>2019-02-25T15:35:46Z</time>
      </trkpt>
      <trkpt lat="42.85842" lon="0.26153">
        <ele>1610</ele>
        <time>2019-02-25T15:36:00Z</time>
      </trkpt>
      <trkpt lat="42.85844" lon="0.26155">
        <ele>1611</ele>
        <time>2019-02-25T15:36:08Z</time>
      </trkpt>
      <trkpt lat="42.85842" lon="0.26153">
        <ele>1611</ele>
        <time>2019-02-25T15:36:29Z</time>
      </trkpt>
      <trkpt lat="42.8584" lon="0.26152">
        <ele>1610</ele>
        <time>2019-02-25T15:36:36Z</time>
      </trkpt>
      <trkpt lat="42.85839" lon="0.26152">
        <ele>1608</ele>
        <time>2019-02-25T15:36:43Z</time>
      </trkpt>
      <trkpt lat="42.85837" lon="0.26151">
        <ele>1607</ele>
        <time>2019-02-25T15:36:50Z</time>
      </trkpt>
      <trkpt lat="42.85835" lon="0.2615">
        <ele>1605</ele>
        <time>2019-02-25T15:37:01Z</time>
      </trkpt>
      <trkpt lat="42.85834" lon="0.26149">
        <ele>1604</ele>
        <time>2019-02-25T15:37:06Z</time>
      </trkpt>
      <trkpt lat="42.85833" lon="0.26152">
        <ele>1604</ele>
        <time>2019-02-25T15:37:20Z</time>
      </trkpt>
      <trkpt lat="42.85832" lon="0.26154">
        <ele>1603</ele>
        <time>2019-02-25T15:37:24Z</time>
      </trkpt>
      <trkpt lat="42.85831" lon="0.26157">
        <ele>1603</ele>
        <time>2019-02-25T15:37:29Z</time>
      </trkpt>
      <trkpt lat="42.85831" lon="0.2616">
        <ele>1604</ele>
        <time>2019-02-25T15:37:32Z</time>
      </trkpt>
      <trkpt lat="42.85831" lon="0.26162">
        <ele>1604</ele>
        <time>2019-02-25T15:37:34Z</time>
      </trkpt>
      <trkpt lat="42.8583" lon="0.26165">
        <ele>1604</ele>
        <time>2019-02-25T15:37:36Z</time>
      </trkpt>
      <trkpt lat="42.8583" lon="0.26168">
        <ele>1604</ele>
        <time>2019-02-25T15:37:40Z</time>
      </trkpt>
      <trkpt lat="42.85829" lon="0.2617">
        <ele>1604</ele>
        <time>2019-02-25T15:37:42Z</time>
      </trkpt>
      <trkpt lat="42.85828" lon="0.26172">
        <ele>1603</ele>
        <time>2019-02-25T15:37:45Z</time>
      </trkpt>
      <trkpt lat="42.85827" lon="0.26174">
        <ele>1603</ele>
        <time>2019-02-25T15:37:47Z</time>
      </trkpt>
      <trkpt lat="42.85827" lon="0.26178">
        <ele>1603</ele>
        <time>2019-02-25T15:37:50Z</time>
      </trkpt>
      <trkpt lat="42.85826" lon="0.2618">
        <ele>1603</ele>
        <time>2019-02-25T15:37:54Z</time>
      </trkpt>
      <trkpt lat="42.85824" lon="0.26182">
        <ele>1602</ele>
        <time>2019-02-25T15:37:56Z</time>
      </trkpt>
      <trkpt lat="42.85822" lon="0.26181">
        <ele>1602</ele>
        <time>2019-02-25T15:37:59Z</time>
      </trkpt>
      <trkpt lat="42.8582" lon="0.26183">
        <ele>1601</ele>
        <time>2019-02-25T15:38:02Z</time>
      </trkpt>
      <trkpt lat="42.85818" lon="0.26184">
        <ele>1601</ele>
        <time>2019-02-25T15:38:04Z</time>
      </trkpt>
      <trkpt lat="42.85817" lon="0.26188">
        <ele>1600</ele>
        <time>2019-02-25T15:38:07Z</time>
      </trkpt>
      <trkpt lat="42.85816" lon="0.26193">
        <ele>1600</ele>
        <time>2019-02-25T15:38:12Z</time>
      </trkpt>
      <trkpt lat="42.85815" lon="0.26195">
        <ele>1600</ele>
        <time>2019-02-25T15:38:14Z</time>
      </trkpt>
      <trkpt lat="42.85815" lon="0.26198">
        <ele>1600</ele>
        <time>2019-02-25T15:38:17Z</time>
      </trkpt>
      <trkpt lat="42.85815" lon="0.26204">
        <ele>1600</ele>
        <time>2019-02-25T15:38:23Z</time>
      </trkpt>
      <trkpt lat="42.85814" lon="0.26206">
        <ele>1600</ele>
        <time>2019-02-25T15:38:25Z</time>
      </trkpt>
      <trkpt lat="42.85813" lon="0.26209">
        <ele>1599</ele>
        <time>2019-02-25T15:38:28Z</time>
      </trkpt>
      <trkpt lat="42.85813" lon="0.26212">
        <ele>1599</ele>
        <time>2019-02-25T15:38:31Z</time>
      </trkpt>
      <trkpt lat="42.85813" lon="0.26214">
        <ele>1599</ele>
        <time>2019-02-25T15:38:33Z</time>
      </trkpt>
      <trkpt lat="42.85812" lon="0.26217">
        <ele>1598</ele>
        <time>2019-02-25T15:38:35Z</time>
      </trkpt>
      <trkpt lat="42.85812" lon="0.2622">
        <ele>1598</ele>
        <time>2019-02-25T15:38:37Z</time>
      </trkpt>
      <trkpt lat="42.85813" lon="0.26223">
        <ele>1598</ele>
        <time>2019-02-25T15:38:41Z</time>
      </trkpt>
      <trkpt lat="42.85812" lon="0.26226">
        <ele>1598</ele>
        <time>2019-02-25T15:38:44Z</time>
      </trkpt>
      <trkpt lat="42.85811" lon="0.26228">
        <ele>1599</ele>
        <time>2019-02-25T15:38:47Z</time>
      </trkpt>
      <trkpt lat="42.85812" lon="0.2623">
        <ele>1599</ele>
        <time>2019-02-25T15:38:56Z</time>
      </trkpt>
      <trkpt lat="42.85811" lon="0.26232">
        <ele>1599</ele>
        <time>2019-02-25T15:38:58Z</time>
      </trkpt>
      <trkpt lat="42.85812" lon="0.26234">
        <ele>1599</ele>
        <time>2019-02-25T15:39:00Z</time>
      </trkpt>
      <trkpt lat="42.85813" lon="0.26237">
        <ele>1599</ele>
        <time>2019-02-25T15:39:02Z</time>
      </trkpt>
      <trkpt lat="42.85814" lon="0.2624">
        <ele>1599</ele>
        <time>2019-02-25T15:39:05Z</time>
      </trkpt>
      <trkpt lat="42.85815" lon="0.26242">
        <ele>1599</ele>
        <time>2019-02-25T15:39:07Z</time>
      </trkpt>
      <trkpt lat="42.85815" lon="0.26245">
        <ele>1599</ele>
        <time>2019-02-25T15:39:11Z</time>
      </trkpt>
      <trkpt lat="42.85815" lon="0.26249">
        <ele>1599</ele>
        <time>2019-02-25T15:39:14Z</time>
      </trkpt>
      <trkpt lat="42.85814" lon="0.26251">
        <ele>1599</ele>
        <time>2019-02-25T15:39:16Z</time>
      </trkpt>
      <trkpt lat="42.85813" lon="0.26257">
        <ele>1598</ele>
        <time>2019-02-25T15:39:20Z</time>
      </trkpt>
      <trkpt lat="42.85814" lon="0.2626">
        <ele>1599</ele>
        <time>2019-02-25T15:39:23Z</time>
      </trkpt>
      <trkpt lat="42.85814" lon="0.26263">
        <ele>1599</ele>
        <time>2019-02-25T15:39:25Z</time>
      </trkpt>
      <trkpt lat="42.85814" lon="0.26266">
        <ele>1599</ele>
        <time>2019-02-25T15:39:27Z</time>
      </trkpt>
      <trkpt lat="42.85814" lon="0.26269">
        <ele>1599</ele>
        <time>2019-02-25T15:39:30Z</time>
      </trkpt>
      <trkpt lat="42.85813" lon="0.26272">
        <ele>1600</ele>
        <time>2019-02-25T15:39:34Z</time>
      </trkpt>
      <trkpt lat="42.85813" lon="0.26275">
        <ele>1601</ele>
        <time>2019-02-25T15:39:37Z</time>
      </trkpt>
      <trkpt lat="42.85812" lon="0.26278">
        <ele>1601</ele>
        <time>2019-02-25T15:39:41Z</time>
      </trkpt>
      <trkpt lat="42.85812" lon="0.26281">
        <ele>1601</ele>
        <time>2019-02-25T15:39:44Z</time>
      </trkpt>
      <trkpt lat="42.85811" lon="0.26285">
        <ele>1602</ele>
        <time>2019-02-25T15:39:47Z</time>
      </trkpt>
      <trkpt lat="42.85811" lon="0.26288">
        <ele>1602</ele>
        <time>2019-02-25T15:39:50Z</time>
      </trkpt>
      <trkpt lat="42.85811" lon="0.26291">
        <ele>1602</ele>
        <time>2019-02-25T15:39:53Z</time>
      </trkpt>
      <trkpt lat="42.85812" lon="0.26294">
        <ele>1602</ele>
        <time>2019-02-25T15:39:56Z</time>
      </trkpt>
      <trkpt lat="42.85811" lon="0.26297">
        <ele>1602</ele>
        <time>2019-02-25T15:39:59Z</time>
      </trkpt>
      <trkpt lat="42.8581" lon="0.26299">
        <ele>1602</ele>
        <time>2019-02-25T15:40:02Z</time>
      </trkpt>
      <trkpt lat="42.85809" lon="0.26301">
        <ele>1602</ele>
        <time>2019-02-25T15:40:05Z</time>
      </trkpt>
      <trkpt lat="42.85808" lon="0.26304">
        <ele>1602</ele>
        <time>2019-02-25T15:40:09Z</time>
      </trkpt>
      <trkpt lat="42.85808" lon="0.26307">
        <ele>1602</ele>
        <time>2019-02-25T15:40:12Z</time>
      </trkpt>
      <trkpt lat="42.85807" lon="0.2631">
        <ele>1602</ele>
        <time>2019-02-25T15:40:15Z</time>
      </trkpt>
      <trkpt lat="42.85805" lon="0.26311">
        <ele>1601</ele>
        <time>2019-02-25T15:40:20Z</time>
      </trkpt>
      <trkpt lat="42.85804" lon="0.26314">
        <ele>1600</ele>
        <time>2019-02-25T15:40:24Z</time>
      </trkpt>
      <trkpt lat="42.85804" lon="0.26317">
        <ele>1599</ele>
        <time>2019-02-25T15:40:28Z</time>
      </trkpt>
      <trkpt lat="42.85803" lon="0.26319">
        <ele>1599</ele>
        <time>2019-02-25T15:40:31Z</time>
      </trkpt>
      <trkpt lat="42.85801" lon="0.26321">
        <ele>1599</ele>
        <time>2019-02-25T15:40:33Z</time>
      </trkpt>
      <trkpt lat="42.858" lon="0.26323">
        <ele>1598</ele>
        <time>2019-02-25T15:40:37Z</time>
      </trkpt>
      <trkpt lat="42.85799" lon="0.26325">
        <ele>1598</ele>
        <time>2019-02-25T15:40:40Z</time>
      </trkpt>
      <trkpt lat="42.85797" lon="0.26328">
        <ele>1597</ele>
        <time>2019-02-25T15:40:42Z</time>
      </trkpt>
      <trkpt lat="42.85796" lon="0.26331">
        <ele>1597</ele>
        <time>2019-02-25T15:40:45Z</time>
      </trkpt>
      <trkpt lat="42.85795" lon="0.26334">
        <ele>1596</ele>
        <time>2019-02-25T15:40:52Z</time>
      </trkpt>
      <trkpt lat="42.85794" lon="0.26337">
        <ele>1595</ele>
        <time>2019-02-25T15:40:55Z</time>
      </trkpt>
      <trkpt lat="42.85793" lon="0.2634">
        <ele>1595</ele>
        <time>2019-02-25T15:40:58Z</time>
      </trkpt>
      <trkpt lat="42.85792" lon="0.26343">
        <ele>1594</ele>
        <time>2019-02-25T15:41:00Z</time>
      </trkpt>
      <trkpt lat="42.85792" lon="0.26345">
        <ele>1594</ele>
        <time>2019-02-25T15:41:02Z</time>
      </trkpt>
      <trkpt lat="42.85791" lon="0.26351">
        <ele>1594</ele>
        <time>2019-02-25T15:41:08Z</time>
      </trkpt>
      <trkpt lat="42.8579" lon="0.26354">
        <ele>1594</ele>
        <time>2019-02-25T15:41:11Z</time>
      </trkpt>
      <trkpt lat="42.85789" lon="0.26357">
        <ele>1593</ele>
        <time>2019-02-25T15:41:14Z</time>
      </trkpt>
      <trkpt lat="42.85788" lon="0.26359">
        <ele>1593</ele>
        <time>2019-02-25T15:41:16Z</time>
      </trkpt>
      <trkpt lat="42.85787" lon="0.26362">
        <ele>1593</ele>
        <time>2019-02-25T15:41:19Z</time>
      </trkpt>
      <trkpt lat="42.85785" lon="0.26364">
        <ele>1593</ele>
        <time>2019-02-25T15:41:21Z</time>
      </trkpt>
      <trkpt lat="42.85785" lon="0.26367">
        <ele>1592</ele>
        <time>2019-02-25T15:41:24Z</time>
      </trkpt>
      <trkpt lat="42.85783" lon="0.2637">
        <ele>1590</ele>
        <time>2019-02-25T15:41:27Z</time>
      </trkpt>
      <trkpt lat="42.85782" lon="0.26371">
        <ele>1589</ele>
        <time>2019-02-25T15:41:30Z</time>
      </trkpt>
      <trkpt lat="42.8578" lon="0.26374">
        <ele>1589</ele>
        <time>2019-02-25T15:41:33Z</time>
      </trkpt>
      <trkpt lat="42.8578" lon="0.26376">
        <ele>1588</ele>
        <time>2019-02-25T15:41:35Z</time>
      </trkpt>
      <trkpt lat="42.8578" lon="0.26379">
        <ele>1588</ele>
        <time>2019-02-25T15:41:37Z</time>
      </trkpt>
      <trkpt lat="42.8578" lon="0.26382">
        <ele>1588</ele>
        <time>2019-02-25T15:41:39Z</time>
      </trkpt>
      <trkpt lat="42.85779" lon="0.26385">
        <ele>1588</ele>
        <time>2019-02-25T15:41:42Z</time>
      </trkpt>
      <trkpt lat="42.85778" lon="0.26389">
        <ele>1588</ele>
        <time>2019-02-25T15:41:44Z</time>
      </trkpt>
      <trkpt lat="42.85778" lon="0.26392">
        <ele>1587</ele>
        <time>2019-02-25T15:41:46Z</time>
      </trkpt>
      <trkpt lat="42.85777" lon="0.26394">
        <ele>1587</ele>
        <time>2019-02-25T15:41:49Z</time>
      </trkpt>
      <trkpt lat="42.85776" lon="0.26397">
        <ele>1586</ele>
        <time>2019-02-25T15:41:52Z</time>
      </trkpt>
      <trkpt lat="42.85775" lon="0.264">
        <ele>1586</ele>
        <time>2019-02-25T15:41:54Z</time>
      </trkpt>
      <trkpt lat="42.85775" lon="0.26402">
        <ele>1585</ele>
        <time>2019-02-25T15:41:56Z</time>
      </trkpt>
      <trkpt lat="42.85774" lon="0.26405">
        <ele>1585</ele>
        <time>2019-02-25T15:41:58Z</time>
      </trkpt>
      <trkpt lat="42.85773" lon="0.26408">
        <ele>1585</ele>
        <time>2019-02-25T15:42:01Z</time>
      </trkpt>
      <trkpt lat="42.85773" lon="0.26411">
        <ele>1584</ele>
        <time>2019-02-25T15:42:03Z</time>
      </trkpt>
      <trkpt lat="42.85773" lon="0.26415">
        <ele>1584</ele>
        <time>2019-02-25T15:42:05Z</time>
      </trkpt>
      <trkpt lat="42.85774" lon="0.26418">
        <ele>1584</ele>
        <time>2019-02-25T15:42:07Z</time>
      </trkpt>
      <trkpt lat="42.85773" lon="0.26421">
        <ele>1583</ele>
        <time>2019-02-25T15:42:10Z</time>
      </trkpt>
      <trkpt lat="42.85772" lon="0.26423">
        <ele>1583</ele>
        <time>2019-02-25T15:42:12Z</time>
      </trkpt>
      <trkpt lat="42.85772" lon="0.26426">
        <ele>1583</ele>
        <time>2019-02-25T15:42:14Z</time>
      </trkpt>
      <trkpt lat="42.85771" lon="0.2643">
        <ele>1583</ele>
        <time>2019-02-25T15:42:17Z</time>
      </trkpt>
      <trkpt lat="42.85772" lon="0.26433">
        <ele>1582</ele>
        <time>2019-02-25T15:42:26Z</time>
      </trkpt>
      <trkpt lat="42.85772" lon="0.26436">
        <ele>1583</ele>
        <time>2019-02-25T15:42:35Z</time>
      </trkpt>
      <trkpt lat="42.85772" lon="0.26438">
        <ele>1583</ele>
        <time>2019-02-25T15:42:38Z</time>
      </trkpt>
      <trkpt lat="42.85772" lon="0.26442">
        <ele>1583</ele>
        <time>2019-02-25T15:42:41Z</time>
      </trkpt>
      <trkpt lat="42.8577" lon="0.26445">
        <ele>1582</ele>
        <time>2019-02-25T15:42:44Z</time>
      </trkpt>
      <trkpt lat="42.8577" lon="0.26448">
        <ele>1581</ele>
        <time>2019-02-25T15:42:46Z</time>
      </trkpt>
      <trkpt lat="42.85769" lon="0.26452">
        <ele>1580</ele>
        <time>2019-02-25T15:42:49Z</time>
      </trkpt>
      <trkpt lat="42.85769" lon="0.26454">
        <ele>1580</ele>
        <time>2019-02-25T15:42:51Z</time>
      </trkpt>
      <trkpt lat="42.85767" lon="0.26458">
        <ele>1580</ele>
        <time>2019-02-25T15:42:54Z</time>
      </trkpt>
      <trkpt lat="42.85766" lon="0.26461">
        <ele>1580</ele>
        <time>2019-02-25T15:42:57Z</time>
      </trkpt>
      <trkpt lat="42.85766" lon="0.26464">
        <ele>1579</ele>
        <time>2019-02-25T15:42:59Z</time>
      </trkpt>
      <trkpt lat="42.85766" lon="0.26466">
        <ele>1579</ele>
        <time>2019-02-25T15:43:01Z</time>
      </trkpt>
      <trkpt lat="42.85766" lon="0.26469">
        <ele>1579</ele>
        <time>2019-02-25T15:43:03Z</time>
      </trkpt>
      <trkpt lat="42.85767" lon="0.26472">
        <ele>1579</ele>
        <time>2019-02-25T15:43:05Z</time>
      </trkpt>
      <trkpt lat="42.85767" lon="0.26475">
        <ele>1579</ele>
        <time>2019-02-25T15:43:07Z</time>
      </trkpt>
      <trkpt lat="42.85766" lon="0.26478">
        <ele>1579</ele>
        <time>2019-02-25T15:43:09Z</time>
      </trkpt>
      <trkpt lat="42.85766" lon="0.26481">
        <ele>1578</ele>
        <time>2019-02-25T15:43:12Z</time>
      </trkpt>
      <trkpt lat="42.85765" lon="0.26483">
        <ele>1577</ele>
        <time>2019-02-25T15:43:14Z</time>
      </trkpt>
      <trkpt lat="42.85765" lon="0.26486">
        <ele>1577</ele>
        <time>2019-02-25T15:43:17Z</time>
      </trkpt>
      <trkpt lat="42.85764" lon="0.26489">
        <ele>1576</ele>
        <time>2019-02-25T15:43:20Z</time>
      </trkpt>
      <trkpt lat="42.85764" lon="0.26493">
        <ele>1576</ele>
        <time>2019-02-25T15:43:23Z</time>
      </trkpt>
      <trkpt lat="42.85763" lon="0.26497">
        <ele>1576</ele>
        <time>2019-02-25T15:43:26Z</time>
      </trkpt>
      <trkpt lat="42.85763" lon="0.265">
        <ele>1576</ele>
        <time>2019-02-25T15:43:29Z</time>
      </trkpt>
      <trkpt lat="42.85762" lon="0.26503">
        <ele>1576</ele>
        <time>2019-02-25T15:43:31Z</time>
      </trkpt>
      <trkpt lat="42.85762" lon="0.26506">
        <ele>1575</ele>
        <time>2019-02-25T15:43:33Z</time>
      </trkpt>
      <trkpt lat="42.85762" lon="0.26509">
        <ele>1575</ele>
        <time>2019-02-25T15:43:36Z</time>
      </trkpt>
      <trkpt lat="42.85761" lon="0.26512">
        <ele>1575</ele>
        <time>2019-02-25T15:43:39Z</time>
      </trkpt>
      <trkpt lat="42.8576" lon="0.26514">
        <ele>1575</ele>
        <time>2019-02-25T15:43:41Z</time>
      </trkpt>
      <trkpt lat="42.8576" lon="0.26517">
        <ele>1574</ele>
        <time>2019-02-25T15:43:44Z</time>
      </trkpt>
      <trkpt lat="42.85759" lon="0.26519">
        <ele>1574</ele>
        <time>2019-02-25T15:43:46Z</time>
      </trkpt>
      <trkpt lat="42.85759" lon="0.26523">
        <ele>1573</ele>
        <time>2019-02-25T15:43:48Z</time>
      </trkpt>
      <trkpt lat="42.85758" lon="0.26528">
        <ele>1572</ele>
        <time>2019-02-25T15:43:52Z</time>
      </trkpt>
      <trkpt lat="42.85758" lon="0.26531">
        <ele>1571</ele>
        <time>2019-02-25T15:43:54Z</time>
      </trkpt>
      <trkpt lat="42.85757" lon="0.26534">
        <ele>1570</ele>
        <time>2019-02-25T15:43:56Z</time>
      </trkpt>
      <trkpt lat="42.85756" lon="0.26537">
        <ele>1570</ele>
        <time>2019-02-25T15:43:58Z</time>
      </trkpt>
      <trkpt lat="42.85755" lon="0.2654">
        <ele>1570</ele>
        <time>2019-02-25T15:44:00Z</time>
      </trkpt>
      <trkpt lat="42.85755" lon="0.26542">
        <ele>1570</ele>
        <time>2019-02-25T15:44:02Z</time>
      </trkpt>
      <trkpt lat="42.85755" lon="0.26545">
        <ele>1570</ele>
        <time>2019-02-25T15:44:04Z</time>
      </trkpt>
      <trkpt lat="42.85755" lon="0.26548">
        <ele>1571</ele>
        <time>2019-02-25T15:44:07Z</time>
      </trkpt>
      <trkpt lat="42.85756" lon="0.26551">
        <ele>1571</ele>
        <time>2019-02-25T15:44:10Z</time>
      </trkpt>
      <trkpt lat="42.85755" lon="0.26555">
        <ele>1571</ele>
        <time>2019-02-25T15:44:13Z</time>
      </trkpt>
      <trkpt lat="42.85755" lon="0.26558">
        <ele>1570</ele>
        <time>2019-02-25T15:44:16Z</time>
      </trkpt>
      <trkpt lat="42.85754" lon="0.2656">
        <ele>1569</ele>
        <time>2019-02-25T15:44:23Z</time>
      </trkpt>
      <trkpt lat="42.85753" lon="0.26563">
        <ele>1569</ele>
        <time>2019-02-25T15:44:26Z</time>
      </trkpt>
      <trkpt lat="42.85752" lon="0.26566">
        <ele>1567</ele>
        <time>2019-02-25T15:44:29Z</time>
      </trkpt>
      <trkpt lat="42.85752" lon="0.26569">
        <ele>1567</ele>
        <time>2019-02-25T15:44:31Z</time>
      </trkpt>
      <trkpt lat="42.85752" lon="0.26573">
        <ele>1568</ele>
        <time>2019-02-25T15:44:34Z</time>
      </trkpt>
      <trkpt lat="42.85751" lon="0.26575">
        <ele>1567</ele>
        <time>2019-02-25T15:44:37Z</time>
      </trkpt>
      <trkpt lat="42.85751" lon="0.26578">
        <ele>1567</ele>
        <time>2019-02-25T15:44:40Z</time>
      </trkpt>
      <trkpt lat="42.8575" lon="0.26581">
        <ele>1567</ele>
        <time>2019-02-25T15:44:44Z</time>
      </trkpt>
      <trkpt lat="42.85749" lon="0.26584">
        <ele>1565</ele>
        <time>2019-02-25T15:44:47Z</time>
      </trkpt>
      <trkpt lat="42.85749" lon="0.26587">
        <ele>1565</ele>
        <time>2019-02-25T15:44:50Z</time>
      </trkpt>
      <trkpt lat="42.85748" lon="0.26591">
        <ele>1564</ele>
        <time>2019-02-25T15:44:53Z</time>
      </trkpt>
      <trkpt lat="42.85747" lon="0.26594">
        <ele>1564</ele>
        <time>2019-02-25T15:44:55Z</time>
      </trkpt>
      <trkpt lat="42.85747" lon="0.26597">
        <ele>1564</ele>
        <time>2019-02-25T15:44:58Z</time>
      </trkpt>
      <trkpt lat="42.85747" lon="0.266">
        <ele>1564</ele>
        <time>2019-02-25T15:45:00Z</time>
      </trkpt>
      <trkpt lat="42.85747" lon="0.26602">
        <ele>1563</ele>
        <time>2019-02-25T15:45:04Z</time>
      </trkpt>
      <trkpt lat="42.85746" lon="0.26605">
        <ele>1563</ele>
        <time>2019-02-25T15:45:06Z</time>
      </trkpt>
      <trkpt lat="42.85745" lon="0.26608">
        <ele>1562</ele>
        <time>2019-02-25T15:45:08Z</time>
      </trkpt>
      <trkpt lat="42.85745" lon="0.26614">
        <ele>1561</ele>
        <time>2019-02-25T15:45:12Z</time>
      </trkpt>
      <trkpt lat="42.85746" lon="0.26617">
        <ele>1561</ele>
        <time>2019-02-25T15:45:15Z</time>
      </trkpt>
      <trkpt lat="42.85746" lon="0.2662">
        <ele>1561</ele>
        <time>2019-02-25T15:45:18Z</time>
      </trkpt>
      <trkpt lat="42.85745" lon="0.26624">
        <ele>1561</ele>
        <time>2019-02-25T15:45:21Z</time>
      </trkpt>
      <trkpt lat="42.85745" lon="0.26627">
        <ele>1561</ele>
        <time>2019-02-25T15:45:23Z</time>
      </trkpt>
      <trkpt lat="42.85746" lon="0.2663">
        <ele>1560</ele>
        <time>2019-02-25T15:45:26Z</time>
      </trkpt>
      <trkpt lat="42.85748" lon="0.26629">
        <ele>1559</ele>
        <time>2019-02-25T15:46:11Z</time>
      </trkpt>
      <trkpt lat="42.85746" lon="0.26628">
        <ele>1560</ele>
        <time>2019-02-25T15:46:18Z</time>
      </trkpt>
      <trkpt lat="42.85748" lon="0.26629">
        <ele>1560</ele>
        <time>2019-02-25T15:47:13Z</time>
      </trkpt>
      <trkpt lat="42.8575" lon="0.26629">
        <ele>1560</ele>
        <time>2019-02-25T15:47:17Z</time>
      </trkpt>
      <trkpt lat="42.85752" lon="0.26628">
        <ele>1560</ele>
        <time>2019-02-25T15:47:26Z</time>
      </trkpt>
      <trkpt lat="42.8575" lon="0.26629">
        <ele>1560</ele>
        <time>2019-02-25T15:47:48Z</time>
      </trkpt>
      <trkpt lat="42.85749" lon="0.2663">
        <ele>1559</ele>
        <time>2019-02-25T15:48:09Z</time>
      </trkpt>
      <trkpt lat="42.85748" lon="0.26632">
        <ele>1559</ele>
        <time>2019-02-25T15:48:11Z</time>
      </trkpt>
      <trkpt lat="42.85747" lon="0.26638">
        <ele>1559</ele>
        <time>2019-02-25T15:48:13Z</time>
      </trkpt>
      <trkpt lat="42.85745" lon="0.26641">
        <ele>1559</ele>
        <time>2019-02-25T15:48:14Z</time>
      </trkpt>
      <trkpt lat="42.85744" lon="0.26646">
        <ele>1558</ele>
        <time>2019-02-25T15:48:15Z</time>
      </trkpt>
      <trkpt lat="42.85742" lon="0.2665">
        <ele>1558</ele>
        <time>2019-02-25T15:48:16Z</time>
      </trkpt>
      <trkpt lat="42.85741" lon="0.26655">
        <ele>1558</ele>
        <time>2019-02-25T15:48:17Z</time>
      </trkpt>
      <trkpt lat="42.8574" lon="0.26659">
        <ele>1558</ele>
        <time>2019-02-25T15:48:18Z</time>
      </trkpt>
      <trkpt lat="42.8574" lon="0.26661">
        <ele>1558</ele>
        <time>2019-02-25T15:48:19Z</time>
      </trkpt>
      <trkpt lat="42.85739" lon="0.26663">
        <ele>1557</ele>
        <time>2019-02-25T15:48:51Z</time>
      </trkpt>
      <trkpt lat="42.85742" lon="0.26668">
        <ele>1557</ele>
        <time>2019-02-25T15:50:21Z</time>
      </trkpt>
      <trkpt lat="42.8574" lon="0.26667">
        <ele>1557</ele>
        <time>2019-02-25T15:50:41Z</time>
      </trkpt>
      <trkpt lat="42.85738" lon="0.26667">
        <ele>1557</ele>
        <time>2019-02-25T15:50:55Z</time>
      </trkpt>
      <trkpt lat="42.85736" lon="0.26666">
        <ele>1557</ele>
        <time>2019-02-25T15:51:02Z</time>
      </trkpt>
      <trkpt lat="42.85738" lon="0.26668">
        <ele>1557</ele>
        <time>2019-02-25T15:53:02Z</time>
      </trkpt>
      <trkpt lat="42.85736" lon="0.2667">
        <ele>1557</ele>
        <time>2019-02-25T15:53:44Z</time>
      </trkpt>
      <trkpt lat="42.85734" lon="0.26672">
        <ele>1557</ele>
        <time>2019-02-25T15:53:49Z</time>
      </trkpt>
      <trkpt lat="42.85732" lon="0.26672">
        <ele>1556</ele>
        <time>2019-02-25T15:53:50Z</time>
      </trkpt>
      <trkpt lat="42.85729" lon="0.26671">
        <ele>1555</ele>
        <time>2019-02-25T15:53:51Z</time>
      </trkpt>
      <trkpt lat="42.85727" lon="0.26668">
        <ele>1555</ele>
        <time>2019-02-25T15:53:52Z</time>
      </trkpt>
      <trkpt lat="42.85726" lon="0.26665">
        <ele>1555</ele>
        <time>2019-02-25T15:53:53Z</time>
      </trkpt>
      <trkpt lat="42.85724" lon="0.26662">
        <ele>1555</ele>
        <time>2019-02-25T15:53:54Z</time>
      </trkpt>
      <trkpt lat="42.85721" lon="0.2666">
        <ele>1555</ele>
        <time>2019-02-25T15:53:55Z</time>
      </trkpt>
      <trkpt lat="42.85716" lon="0.26661">
        <ele>1553</ele>
        <time>2019-02-25T15:53:56Z</time>
      </trkpt>
      <trkpt lat="42.85711" lon="0.26661">
        <ele>1552</ele>
        <time>2019-02-25T15:53:57Z</time>
      </trkpt>
      <trkpt lat="42.85708" lon="0.26658">
        <ele>1551</ele>
        <time>2019-02-25T15:53:58Z</time>
      </trkpt>
      <trkpt lat="42.85705" lon="0.26655">
        <ele>1551</ele>
        <time>2019-02-25T15:53:59Z</time>
      </trkpt>
      <trkpt lat="42.85702" lon="0.26656">
        <ele>1550</ele>
        <time>2019-02-25T15:54:00Z</time>
      </trkpt>
      <trkpt lat="42.85697" lon="0.26657">
        <ele>1548</ele>
        <time>2019-02-25T15:54:01Z</time>
      </trkpt>
      <trkpt lat="42.85693" lon="0.26657">
        <ele>1548</ele>
        <time>2019-02-25T15:54:02Z</time>
      </trkpt>
      <trkpt lat="42.85689" lon="0.26655">
        <ele>1548</ele>
        <time>2019-02-25T15:54:03Z</time>
      </trkpt>
      <trkpt lat="42.85683" lon="0.26654">
        <ele>1545</ele>
        <time>2019-02-25T15:54:04Z</time>
      </trkpt>
      <trkpt lat="42.85677" lon="0.26653">
        <ele>1543</ele>
        <time>2019-02-25T15:54:05Z</time>
      </trkpt>
      <trkpt lat="42.85665" lon="0.26656">
        <ele>1539</ele>
        <time>2019-02-25T15:54:07Z</time>
      </trkpt>
      <trkpt lat="42.85659" lon="0.26658">
        <ele>1538</ele>
        <time>2019-02-25T15:54:08Z</time>
      </trkpt>
      <trkpt lat="42.85654" lon="0.26658">
        <ele>1537</ele>
        <time>2019-02-25T15:54:09Z</time>
      </trkpt>
      <trkpt lat="42.8565" lon="0.26659">
        <ele>1535</ele>
        <time>2019-02-25T15:54:10Z</time>
      </trkpt>
      <trkpt lat="42.85646" lon="0.26665">
        <ele>1533</ele>
        <time>2019-02-25T15:54:11Z</time>
      </trkpt>
      <trkpt lat="42.85642" lon="0.26671">
        <ele>1531</ele>
        <time>2019-02-25T15:54:12Z</time>
      </trkpt>
      <trkpt lat="42.85638" lon="0.26675">
        <ele>1530</ele>
        <time>2019-02-25T15:54:13Z</time>
      </trkpt>
      <trkpt lat="42.85632" lon="0.26676">
        <ele>1530</ele>
        <time>2019-02-25T15:54:14Z</time>
      </trkpt>
      <trkpt lat="42.85627" lon="0.26681">
        <ele>1528</ele>
        <time>2019-02-25T15:54:15Z</time>
      </trkpt>
      <trkpt lat="42.85622" lon="0.26687">
        <ele>1526</ele>
        <time>2019-02-25T15:54:16Z</time>
      </trkpt>
      <trkpt lat="42.85616" lon="0.26691">
        <ele>1525</ele>
        <time>2019-02-25T15:54:17Z</time>
      </trkpt>
      <trkpt lat="42.85612" lon="0.26696">
        <ele>1523</ele>
        <time>2019-02-25T15:54:18Z</time>
      </trkpt>
      <trkpt lat="42.85609" lon="0.26703">
        <ele>1522</ele>
        <time>2019-02-25T15:54:19Z</time>
      </trkpt>
      <trkpt lat="42.85606" lon="0.2671">
        <ele>1521</ele>
        <time>2019-02-25T15:54:20Z</time>
      </trkpt>
      <trkpt lat="42.856" lon="0.26717">
        <ele>1520</ele>
        <time>2019-02-25T15:54:21Z</time>
      </trkpt>
      <trkpt lat="42.85598" lon="0.26719">
        <ele>1519</ele>
        <time>2019-02-25T15:54:22Z</time>
      </trkpt>
      <trkpt lat="42.85594" lon="0.26723">
        <ele>1518</ele>
        <time>2019-02-25T15:54:23Z</time>
      </trkpt>
      <trkpt lat="42.85588" lon="0.26737">
        <ele>1516</ele>
        <time>2019-02-25T15:54:25Z</time>
      </trkpt>
      <trkpt lat="42.85587" lon="0.2674">
        <ele>1515</ele>
        <time>2019-02-25T15:54:26Z</time>
      </trkpt>
      <trkpt lat="42.85585" lon="0.26747">
        <ele>1514</ele>
        <time>2019-02-25T15:54:27Z</time>
      </trkpt>
      <trkpt lat="42.85576" lon="0.2675">
        <ele>1511</ele>
        <time>2019-02-25T15:54:29Z</time>
      </trkpt>
      <trkpt lat="42.85564" lon="0.26744">
        <ele>1508</ele>
        <time>2019-02-25T15:54:31Z</time>
      </trkpt>
      <trkpt lat="42.85562" lon="0.26741">
        <ele>1507</ele>
        <time>2019-02-25T15:54:32Z</time>
      </trkpt>
      <trkpt lat="42.85557" lon="0.26737">
        <ele>1506</ele>
        <time>2019-02-25T15:54:33Z</time>
      </trkpt>
      <trkpt lat="42.85555" lon="0.26739">
        <ele>1505</ele>
        <time>2019-02-25T15:54:34Z</time>
      </trkpt>
      <trkpt lat="42.85554" lon="0.26741">
        <ele>1504</ele>
        <time>2019-02-25T15:54:35Z</time>
      </trkpt>
      <trkpt lat="42.8555" lon="0.26746">
        <ele>1504</ele>
        <time>2019-02-25T15:54:36Z</time>
      </trkpt>
      <trkpt lat="42.85549" lon="0.26759">
        <ele>1502</ele>
        <time>2019-02-25T15:54:38Z</time>
      </trkpt>
      <trkpt lat="42.85545" lon="0.26771">
        <ele>1501</ele>
        <time>2019-02-25T15:54:40Z</time>
      </trkpt>
      <trkpt lat="42.85543" lon="0.26769">
        <ele>1501</ele>
        <time>2019-02-25T15:54:41Z</time>
      </trkpt>
      <trkpt lat="42.85541" lon="0.26768">
        <ele>1500</ele>
        <time>2019-02-25T15:54:42Z</time>
      </trkpt>
      <trkpt lat="42.85535" lon="0.26761">
        <ele>1499</ele>
        <time>2019-02-25T15:54:43Z</time>
      </trkpt>
      <trkpt lat="42.85533" lon="0.26757">
        <ele>1498</ele>
        <time>2019-02-25T15:54:44Z</time>
      </trkpt>
      <trkpt lat="42.8553" lon="0.26751">
        <ele>1497</ele>
        <time>2019-02-25T15:54:45Z</time>
      </trkpt>
      <trkpt lat="42.85526" lon="0.26747">
        <ele>1496</ele>
        <time>2019-02-25T15:54:46Z</time>
      </trkpt>
      <trkpt lat="42.85524" lon="0.26744">
        <ele>1493</ele>
        <time>2019-02-25T15:54:50Z</time>
      </trkpt>
      <trkpt lat="42.85526" lon="0.26744">
        <ele>1492</ele>
        <time>2019-02-25T15:54:57Z</time>
      </trkpt>
      <trkpt lat="42.85524" lon="0.26749">
        <ele>1492</ele>
        <time>2019-02-25T15:55:07Z</time>
      </trkpt>
      <trkpt lat="42.85521" lon="0.26753">
        <ele>1491</ele>
        <time>2019-02-25T15:55:08Z</time>
      </trkpt>
      <trkpt lat="42.85517" lon="0.26755">
        <ele>1490</ele>
        <time>2019-02-25T15:55:09Z</time>
      </trkpt>
      <trkpt lat="42.85512" lon="0.2676">
        <ele>1490</ele>
        <time>2019-02-25T15:55:10Z</time>
      </trkpt>
      <trkpt lat="42.85509" lon="0.26767">
        <ele>1489</ele>
        <time>2019-02-25T15:55:11Z</time>
      </trkpt>
      <trkpt lat="42.85506" lon="0.26776">
        <ele>1488</ele>
        <time>2019-02-25T15:55:12Z</time>
      </trkpt>
      <trkpt lat="42.85504" lon="0.26784">
        <ele>1486</ele>
        <time>2019-02-25T15:55:13Z</time>
      </trkpt>
      <trkpt lat="42.855" lon="0.2679">
        <ele>1485</ele>
        <time>2019-02-25T15:55:14Z</time>
      </trkpt>
      <trkpt lat="42.85496" lon="0.26792">
        <ele>1483</ele>
        <time>2019-02-25T15:55:15Z</time>
      </trkpt>
      <trkpt lat="42.85491" lon="0.26794">
        <ele>1482</ele>
        <time>2019-02-25T15:55:16Z</time>
      </trkpt>
      <trkpt lat="42.85488" lon="0.26798">
        <ele>1481</ele>
        <time>2019-02-25T15:55:17Z</time>
      </trkpt>
      <trkpt lat="42.85485" lon="0.26803">
        <ele>1479</ele>
        <time>2019-02-25T15:55:18Z</time>
      </trkpt>
      <trkpt lat="42.85482" lon="0.26808">
        <ele>1477</ele>
        <time>2019-02-25T15:55:19Z</time>
      </trkpt>
      <trkpt lat="42.85481" lon="0.26815">
        <ele>1476</ele>
        <time>2019-02-25T15:55:20Z</time>
      </trkpt>
      <trkpt lat="42.85477" lon="0.2682">
        <ele>1475</ele>
        <time>2019-02-25T15:55:21Z</time>
      </trkpt>
      <trkpt lat="42.85473" lon="0.2682">
        <ele>1474</ele>
        <time>2019-02-25T15:55:22Z</time>
      </trkpt>
      <trkpt lat="42.8547" lon="0.26819">
        <ele>1473</ele>
        <time>2019-02-25T15:55:23Z</time>
      </trkpt>
      <trkpt lat="42.85465" lon="0.2682">
        <ele>1472</ele>
        <time>2019-02-25T15:55:24Z</time>
      </trkpt>
      <trkpt lat="42.8546" lon="0.26822">
        <ele>1471</ele>
        <time>2019-02-25T15:55:25Z</time>
      </trkpt>
      <trkpt lat="42.85455" lon="0.26823">
        <ele>1470</ele>
        <time>2019-02-25T15:55:26Z</time>
      </trkpt>
      <trkpt lat="42.8545" lon="0.26823">
        <ele>1469</ele>
        <time>2019-02-25T15:55:27Z</time>
      </trkpt>
      <trkpt lat="42.85445" lon="0.26827">
        <ele>1467</ele>
        <time>2019-02-25T15:55:28Z</time>
      </trkpt>
      <trkpt lat="42.85444" lon="0.26832">
        <ele>1466</ele>
        <time>2019-02-25T15:55:29Z</time>
      </trkpt>
      <trkpt lat="42.85445" lon="0.26836">
        <ele>1465</ele>
        <time>2019-02-25T15:55:30Z</time>
      </trkpt>
      <trkpt lat="42.85445" lon="0.26839">
        <ele>1464</ele>
        <time>2019-02-25T15:55:31Z</time>
      </trkpt>
      <trkpt lat="42.85443" lon="0.26843">
        <ele>1464</ele>
        <time>2019-02-25T15:55:32Z</time>
      </trkpt>
      <trkpt lat="42.85441" lon="0.26847">
        <ele>1463</ele>
        <time>2019-02-25T15:55:33Z</time>
      </trkpt>
      <trkpt lat="42.8544" lon="0.2685">
        <ele>1462</ele>
        <time>2019-02-25T15:55:34Z</time>
      </trkpt>
      <trkpt lat="42.8544" lon="0.26854">
        <ele>1461</ele>
        <time>2019-02-25T15:55:35Z</time>
      </trkpt>
      <trkpt lat="42.85439" lon="0.26858">
        <ele>1460</ele>
        <time>2019-02-25T15:55:36Z</time>
      </trkpt>
      <trkpt lat="42.85437" lon="0.26862">
        <ele>1460</ele>
        <time>2019-02-25T15:55:37Z</time>
      </trkpt>
      <trkpt lat="42.85435" lon="0.26868">
        <ele>1460</ele>
        <time>2019-02-25T15:55:38Z</time>
      </trkpt>
      <trkpt lat="42.85435" lon="0.26879">
        <ele>1457</ele>
        <time>2019-02-25T15:55:40Z</time>
      </trkpt>
      <trkpt lat="42.85436" lon="0.26884">
        <ele>1456</ele>
        <time>2019-02-25T15:55:41Z</time>
      </trkpt>
      <trkpt lat="42.85437" lon="0.26888">
        <ele>1455</ele>
        <time>2019-02-25T15:55:42Z</time>
      </trkpt>
      <trkpt lat="42.85437" lon="0.26892">
        <ele>1455</ele>
        <time>2019-02-25T15:55:43Z</time>
      </trkpt>
      <trkpt lat="42.85436" lon="0.26895">
        <ele>1455</ele>
        <time>2019-02-25T15:55:44Z</time>
      </trkpt>
      <trkpt lat="42.85434" lon="0.26899">
        <ele>1455</ele>
        <time>2019-02-25T15:55:45Z</time>
      </trkpt>
      <trkpt lat="42.85431" lon="0.26903">
        <ele>1455</ele>
        <time>2019-02-25T15:55:46Z</time>
      </trkpt>
      <trkpt lat="42.85428" lon="0.26907">
        <ele>1453</ele>
        <time>2019-02-25T15:55:47Z</time>
      </trkpt>
      <trkpt lat="42.85424" lon="0.2691">
        <ele>1452</ele>
        <time>2019-02-25T15:55:48Z</time>
      </trkpt>
      <trkpt lat="42.85423" lon="0.26915">
        <ele>1452</ele>
        <time>2019-02-25T15:55:49Z</time>
      </trkpt>
      <trkpt lat="42.85424" lon="0.26919">
        <ele>1451</ele>
        <time>2019-02-25T15:55:50Z</time>
      </trkpt>
      <trkpt lat="42.85425" lon="0.26921">
        <ele>1450</ele>
        <time>2019-02-25T15:55:51Z</time>
      </trkpt>
      <trkpt lat="42.85427" lon="0.26921">
        <ele>1449</ele>
        <time>2019-02-25T15:55:54Z</time>
      </trkpt>
      <trkpt lat="42.85429" lon="0.2692">
        <ele>1449</ele>
        <time>2019-02-25T15:56:05Z</time>
      </trkpt>
      <trkpt lat="42.85431" lon="0.26922">
        <ele>1449</ele>
        <time>2019-02-25T15:56:10Z</time>
      </trkpt>
      <trkpt lat="42.85431" lon="0.26925">
        <ele>1448</ele>
        <time>2019-02-25T15:56:57Z</time>
      </trkpt>
      <trkpt lat="42.85433" lon="0.26928">
        <ele>1448</ele>
        <time>2019-02-25T15:57:31Z</time>
      </trkpt>
      <trkpt lat="42.85434" lon="0.26932">
        <ele>1447</ele>
        <time>2019-02-25T15:57:50Z</time>
      </trkpt>
      <trkpt lat="42.85435" lon="0.26934">
        <ele>1447</ele>
        <time>2019-02-25T15:57:57Z</time>
      </trkpt>
      <trkpt lat="42.85437" lon="0.26936">
        <ele>1447</ele>
        <time>2019-02-25T15:58:09Z</time>
      </trkpt>
      <trkpt lat="42.85439" lon="0.26935">
        <ele>1448</ele>
        <time>2019-02-25T15:58:18Z</time>
      </trkpt>
      <trkpt lat="42.85441" lon="0.26937">
        <ele>1448</ele>
        <time>2019-02-25T15:58:32Z</time>
      </trkpt>
      <trkpt lat="42.85443" lon="0.26938">
        <ele>1447</ele>
        <time>2019-02-25T15:58:37Z</time>
      </trkpt>
      <trkpt lat="42.85445" lon="0.26939">
        <ele>1447</ele>
        <time>2019-02-25T15:58:43Z</time>
      </trkpt>
      <trkpt lat="42.85445" lon="0.26941">
        <ele>1447</ele>
        <time>2019-02-25T15:58:49Z</time>
      </trkpt>
      <trkpt lat="42.85444" lon="0.26943">
        <ele>1447</ele>
        <time>2019-02-25T15:58:52Z</time>
      </trkpt>
      <trkpt lat="42.85444" lon="0.26946">
        <ele>1447</ele>
        <time>2019-02-25T15:58:54Z</time>
      </trkpt>
      <trkpt lat="42.85443" lon="0.26949">
        <ele>1447</ele>
        <time>2019-02-25T15:58:56Z</time>
      </trkpt>
      <trkpt lat="42.85443" lon="0.26951">
        <ele>1447</ele>
        <time>2019-02-25T15:59:01Z</time>
      </trkpt>
      <trkpt lat="42.85441" lon="0.26954">
        <ele>1447</ele>
        <time>2019-02-25T15:59:06Z</time>
      </trkpt>
      <trkpt lat="42.85442" lon="0.26956">
        <ele>1446</ele>
        <time>2019-02-25T15:59:17Z</time>
      </trkpt>
      <trkpt lat="42.85444" lon="0.26957">
        <ele>1446</ele>
        <time>2019-02-25T15:59:22Z</time>
      </trkpt>
      <trkpt lat="42.85442" lon="0.26957">
        <ele>1447</ele>
        <time>2019-02-25T15:59:37Z</time>
      </trkpt>
      <trkpt lat="42.8544" lon="0.26956">
        <ele>1447</ele>
        <time>2019-02-25T16:00:09Z</time>
      </trkpt>
      <trkpt lat="42.85442" lon="0.26957">
        <ele>1447</ele>
        <time>2019-02-25T16:00:39Z</time>
      </trkpt>
      <trkpt lat="42.85442" lon="0.26962">
        <ele>1447</ele>
        <time>2019-02-25T16:00:43Z</time>
      </trkpt>
      <trkpt lat="42.85441" lon="0.26964">
        <ele>1447</ele>
        <time>2019-02-25T16:00:44Z</time>
      </trkpt>
      <trkpt lat="42.85441" lon="0.26967">
        <ele>1447</ele>
        <time>2019-02-25T16:00:45Z</time>
      </trkpt>
      <trkpt lat="42.85439" lon="0.26972">
        <ele>1447</ele>
        <time>2019-02-25T16:00:46Z</time>
      </trkpt>
      <trkpt lat="42.85438" lon="0.26978">
        <ele>1447</ele>
        <time>2019-02-25T16:00:47Z</time>
      </trkpt>
      <trkpt lat="42.85435" lon="0.26984">
        <ele>1446</ele>
        <time>2019-02-25T16:00:48Z</time>
      </trkpt>
      <trkpt lat="42.85431" lon="0.26987">
        <ele>1445</ele>
        <time>2019-02-25T16:00:49Z</time>
      </trkpt>
      <trkpt lat="42.85429" lon="0.2699">
        <ele>1444</ele>
        <time>2019-02-25T16:00:50Z</time>
      </trkpt>
      <trkpt lat="42.85428" lon="0.26996">
        <ele>1443</ele>
        <time>2019-02-25T16:00:51Z</time>
      </trkpt>
      <trkpt lat="42.85427" lon="0.27002">
        <ele>1442</ele>
        <time>2019-02-25T16:00:52Z</time>
      </trkpt>
      <trkpt lat="42.85423" lon="0.27005">
        <ele>1441</ele>
        <time>2019-02-25T16:00:53Z</time>
      </trkpt>
      <trkpt lat="42.85418" lon="0.27007">
        <ele>1440</ele>
        <time>2019-02-25T16:00:54Z</time>
      </trkpt>
      <trkpt lat="42.85412" lon="0.27009">
        <ele>1439</ele>
        <time>2019-02-25T16:00:55Z</time>
      </trkpt>
      <trkpt lat="42.85408" lon="0.27014">
        <ele>1438</ele>
        <time>2019-02-25T16:00:56Z</time>
      </trkpt>
      <trkpt lat="42.85404" lon="0.27023">
        <ele>1436</ele>
        <time>2019-02-25T16:00:57Z</time>
      </trkpt>
      <trkpt lat="42.854" lon="0.2703">
        <ele>1435</ele>
        <time>2019-02-25T16:00:58Z</time>
      </trkpt>
      <trkpt lat="42.85395" lon="0.27035">
        <ele>1434</ele>
        <time>2019-02-25T16:00:59Z</time>
      </trkpt>
      <trkpt lat="42.85391" lon="0.27041">
        <ele>1433</ele>
        <time>2019-02-25T16:01:00Z</time>
      </trkpt>
      <trkpt lat="42.85388" lon="0.27054">
        <ele>1433</ele>
        <time>2019-02-25T16:01:01Z</time>
      </trkpt>
      <trkpt lat="42.85388" lon="0.27058">
        <ele>1432</ele>
        <time>2019-02-25T16:01:02Z</time>
      </trkpt>
      <trkpt lat="42.85386" lon="0.27066">
        <ele>1431</ele>
        <time>2019-02-25T16:01:03Z</time>
      </trkpt>
      <trkpt lat="42.85384" lon="0.27074">
        <ele>1430</ele>
        <time>2019-02-25T16:01:04Z</time>
      </trkpt>
      <trkpt lat="42.85382" lon="0.27082">
        <ele>1429</ele>
        <time>2019-02-25T16:01:05Z</time>
      </trkpt>
      <trkpt lat="42.8538" lon="0.27089">
        <ele>1429</ele>
        <time>2019-02-25T16:01:06Z</time>
      </trkpt>
      <trkpt lat="42.85377" lon="0.27095">
        <ele>1428</ele>
        <time>2019-02-25T16:01:07Z</time>
      </trkpt>
      <trkpt lat="42.85375" lon="0.27101">
        <ele>1427</ele>
        <time>2019-02-25T16:01:08Z</time>
      </trkpt>
      <trkpt lat="42.85372" lon="0.27107">
        <ele>1426</ele>
        <time>2019-02-25T16:01:09Z</time>
      </trkpt>
      <trkpt lat="42.85369" lon="0.27113">
        <ele>1425</ele>
        <time>2019-02-25T16:01:10Z</time>
      </trkpt>
      <trkpt lat="42.85366" lon="0.27119">
        <ele>1424</ele>
        <time>2019-02-25T16:01:11Z</time>
      </trkpt>
      <trkpt lat="42.85364" lon="0.27127">
        <ele>1422</ele>
        <time>2019-02-25T16:01:12Z</time>
      </trkpt>
      <trkpt lat="42.85361" lon="0.27133">
        <ele>1421</ele>
        <time>2019-02-25T16:01:13Z</time>
      </trkpt>
      <trkpt lat="42.85358" lon="0.27138">
        <ele>1420</ele>
        <time>2019-02-25T16:01:14Z</time>
      </trkpt>
      <trkpt lat="42.85355" lon="0.27144">
        <ele>1419</ele>
        <time>2019-02-25T16:01:15Z</time>
      </trkpt>
      <trkpt lat="42.85352" lon="0.27148">
        <ele>1418</ele>
        <time>2019-02-25T16:01:16Z</time>
      </trkpt>
      <trkpt lat="42.85349" lon="0.27151">
        <ele>1417</ele>
        <time>2019-02-25T16:01:17Z</time>
      </trkpt>
      <trkpt lat="42.85347" lon="0.27156">
        <ele>1417</ele>
        <time>2019-02-25T16:01:18Z</time>
      </trkpt>
      <trkpt lat="42.85345" lon="0.27159">
        <ele>1417</ele>
        <time>2019-02-25T16:01:19Z</time>
      </trkpt>
      <trkpt lat="42.85342" lon="0.2716">
        <ele>1417</ele>
        <time>2019-02-25T16:01:20Z</time>
      </trkpt>
      <trkpt lat="42.85338" lon="0.2716">
        <ele>1416</ele>
        <time>2019-02-25T16:01:21Z</time>
      </trkpt>
      <trkpt lat="42.85333" lon="0.27161">
        <ele>1415</ele>
        <time>2019-02-25T16:01:22Z</time>
      </trkpt>
      <trkpt lat="42.85329" lon="0.27163">
        <ele>1415</ele>
        <time>2019-02-25T16:01:23Z</time>
      </trkpt>
      <trkpt lat="42.85326" lon="0.27162">
        <ele>1414</ele>
        <time>2019-02-25T16:01:24Z</time>
      </trkpt>
      <trkpt lat="42.85324" lon="0.27162">
        <ele>1414</ele>
        <time>2019-02-25T16:01:25Z</time>
      </trkpt>
      <trkpt lat="42.85322" lon="0.27164">
        <ele>1413</ele>
        <time>2019-02-25T16:01:26Z</time>
      </trkpt>
      <trkpt lat="42.85319" lon="0.27167">
        <ele>1413</ele>
        <time>2019-02-25T16:01:27Z</time>
      </trkpt>
      <trkpt lat="42.85316" lon="0.27171">
        <ele>1413</ele>
        <time>2019-02-25T16:01:28Z</time>
      </trkpt>
      <trkpt lat="42.85311" lon="0.27172">
        <ele>1412</ele>
        <time>2019-02-25T16:01:29Z</time>
      </trkpt>
      <trkpt lat="42.85305" lon="0.27173">
        <ele>1411</ele>
        <time>2019-02-25T16:01:30Z</time>
      </trkpt>
      <trkpt lat="42.85299" lon="0.27174">
        <ele>1410</ele>
        <time>2019-02-25T16:01:31Z</time>
      </trkpt>
      <trkpt lat="42.85287" lon="0.27172">
        <ele>1408</ele>
        <time>2019-02-25T16:01:33Z</time>
      </trkpt>
      <trkpt lat="42.85283" lon="0.27168">
        <ele>1408</ele>
        <time>2019-02-25T16:01:34Z</time>
      </trkpt>
      <trkpt lat="42.85282" lon="0.27162">
        <ele>1408</ele>
        <time>2019-02-25T16:01:35Z</time>
      </trkpt>
      <trkpt lat="42.85281" lon="0.27158">
        <ele>1408</ele>
        <time>2019-02-25T16:01:36Z</time>
      </trkpt>
      <trkpt lat="42.8528" lon="0.27155">
        <ele>1408</ele>
        <time>2019-02-25T16:01:37Z</time>
      </trkpt>
      <trkpt lat="42.85277" lon="0.27151">
        <ele>1408</ele>
        <time>2019-02-25T16:01:38Z</time>
      </trkpt>
      <trkpt lat="42.85274" lon="0.27147">
        <ele>1406</ele>
        <time>2019-02-25T16:01:39Z</time>
      </trkpt>
      <trkpt lat="42.8527" lon="0.27144">
        <ele>1405</ele>
        <time>2019-02-25T16:01:40Z</time>
      </trkpt>
      <trkpt lat="42.85265" lon="0.27145">
        <ele>1405</ele>
        <time>2019-02-25T16:01:41Z</time>
      </trkpt>
      <trkpt lat="42.85259" lon="0.27147">
        <ele>1404</ele>
        <time>2019-02-25T16:01:42Z</time>
      </trkpt>
      <trkpt lat="42.85254" lon="0.27145">
        <ele>1403</ele>
        <time>2019-02-25T16:01:43Z</time>
      </trkpt>
      <trkpt lat="42.85249" lon="0.27143">
        <ele>1402</ele>
        <time>2019-02-25T16:01:44Z</time>
      </trkpt>
      <trkpt lat="42.85237" lon="0.27143">
        <ele>1399</ele>
        <time>2019-02-25T16:01:46Z</time>
      </trkpt>
      <trkpt lat="42.85231" lon="0.27142">
        <ele>1398</ele>
        <time>2019-02-25T16:01:47Z</time>
      </trkpt>
      <trkpt lat="42.85226" lon="0.27145">
        <ele>1397</ele>
        <time>2019-02-25T16:01:48Z</time>
      </trkpt>
      <trkpt lat="42.85222" lon="0.27152">
        <ele>1396</ele>
        <time>2019-02-25T16:01:49Z</time>
      </trkpt>
      <trkpt lat="42.85218" lon="0.2716">
        <ele>1395</ele>
        <time>2019-02-25T16:01:50Z</time>
      </trkpt>
      <trkpt lat="42.85214" lon="0.27169">
        <ele>1393</ele>
        <time>2019-02-25T16:01:51Z</time>
      </trkpt>
      <trkpt lat="42.85209" lon="0.27176">
        <ele>1392</ele>
        <time>2019-02-25T16:01:52Z</time>
      </trkpt>
      <trkpt lat="42.85204" lon="0.27182">
        <ele>1391</ele>
        <time>2019-02-25T16:01:53Z</time>
      </trkpt>
      <trkpt lat="42.85199" lon="0.27189">
        <ele>1390</ele>
        <time>2019-02-25T16:01:54Z</time>
      </trkpt>
      <trkpt lat="42.85194" lon="0.27195">
        <ele>1389</ele>
        <time>2019-02-25T16:01:55Z</time>
      </trkpt>
      <trkpt lat="42.85188" lon="0.27201">
        <ele>1388</ele>
        <time>2019-02-25T16:01:56Z</time>
      </trkpt>
      <trkpt lat="42.85182" lon="0.27208">
        <ele>1387</ele>
        <time>2019-02-25T16:01:57Z</time>
      </trkpt>
      <trkpt lat="42.85177" lon="0.27211">
        <ele>1387</ele>
        <time>2019-02-25T16:01:58Z</time>
      </trkpt>
      <trkpt lat="42.85172" lon="0.27222">
        <ele>1385</ele>
        <time>2019-02-25T16:02:00Z</time>
      </trkpt>
      <trkpt lat="42.85168" lon="0.27236">
        <ele>1384</ele>
        <time>2019-02-25T16:02:01Z</time>
      </trkpt>
      <trkpt lat="42.85166" lon="0.27241">
        <ele>1384</ele>
        <time>2019-02-25T16:02:02Z</time>
      </trkpt>
      <trkpt lat="42.85159" lon="0.27253">
        <ele>1383</ele>
        <time>2019-02-25T16:02:03Z</time>
      </trkpt>
      <trkpt lat="42.85156" lon="0.27255">
        <ele>1382</ele>
        <time>2019-02-25T16:02:04Z</time>
      </trkpt>
      <trkpt lat="42.8515" lon="0.27261">
        <ele>1382</ele>
        <time>2019-02-25T16:02:05Z</time>
      </trkpt>
      <trkpt lat="42.85151" lon="0.27272">
        <ele>1379</ele>
        <time>2019-02-25T16:02:08Z</time>
      </trkpt>
      <trkpt lat="42.85152" lon="0.27278">
        <ele>1378</ele>
        <time>2019-02-25T16:02:09Z</time>
      </trkpt>
      <trkpt lat="42.85152" lon="0.27285">
        <ele>1377</ele>
        <time>2019-02-25T16:02:10Z</time>
      </trkpt>
      <trkpt lat="42.85149" lon="0.27291">
        <ele>1377</ele>
        <time>2019-02-25T16:02:11Z</time>
      </trkpt>
      <trkpt lat="42.85146" lon="0.27293">
        <ele>1376</ele>
        <time>2019-02-25T16:02:12Z</time>
      </trkpt>
      <trkpt lat="42.85144" lon="0.27294">
        <ele>1375</ele>
        <time>2019-02-25T16:02:13Z</time>
      </trkpt>
      <trkpt lat="42.85142" lon="0.27295">
        <ele>1374</ele>
        <time>2019-02-25T16:02:14Z</time>
      </trkpt>
      <trkpt lat="42.8514" lon="0.27296">
        <ele>1374</ele>
        <time>2019-02-25T16:02:16Z</time>
      </trkpt>
      <trkpt lat="42.85138" lon="0.273">
        <ele>1373</ele>
        <time>2019-02-25T16:02:20Z</time>
      </trkpt>
      <trkpt lat="42.85136" lon="0.27301">
        <ele>1373</ele>
        <time>2019-02-25T16:02:21Z</time>
      </trkpt>
      <trkpt lat="42.85134" lon="0.27302">
        <ele>1372</ele>
        <time>2019-02-25T16:02:57Z</time>
      </trkpt>
      <trkpt lat="42.85132" lon="0.27303">
        <ele>1371</ele>
        <time>2019-02-25T16:03:00Z</time>
      </trkpt>
      <trkpt lat="42.8513" lon="0.27305">
        <ele>1371</ele>
        <time>2019-02-25T16:03:02Z</time>
      </trkpt>
      <trkpt lat="42.85128" lon="0.27308">
        <ele>1371</ele>
        <time>2019-02-25T16:03:04Z</time>
      </trkpt>
      <trkpt lat="42.85126" lon="0.2731">
        <ele>1371</ele>
        <time>2019-02-25T16:03:05Z</time>
      </trkpt>
      <trkpt lat="42.85124" lon="0.27312">
        <ele>1370</ele>
        <time>2019-02-25T16:03:06Z</time>
      </trkpt>
      <trkpt lat="42.85122" lon="0.27314">
        <ele>1370</ele>
        <time>2019-02-25T16:03:07Z</time>
      </trkpt>
      <trkpt lat="42.85119" lon="0.27316">
        <ele>1370</ele>
        <time>2019-02-25T16:03:08Z</time>
      </trkpt>
      <trkpt lat="42.85117" lon="0.27318">
        <ele>1370</ele>
        <time>2019-02-25T16:03:09Z</time>
      </trkpt>
      <trkpt lat="42.85113" lon="0.2732">
        <ele>1370</ele>
        <time>2019-02-25T16:03:10Z</time>
      </trkpt>
      <trkpt lat="42.8511" lon="0.27322">
        <ele>1370</ele>
        <time>2019-02-25T16:03:11Z</time>
      </trkpt>
      <trkpt lat="42.85105" lon="0.27325">
        <ele>1370</ele>
        <time>2019-02-25T16:03:12Z</time>
      </trkpt>
      <trkpt lat="42.85103" lon="0.27326">
        <ele>1370</ele>
        <time>2019-02-25T16:03:13Z</time>
      </trkpt>
      <trkpt lat="42.85101" lon="0.27331">
        <ele>1370</ele>
        <time>2019-02-25T16:03:14Z</time>
      </trkpt>
      <trkpt lat="42.85099" lon="0.27335">
        <ele>1370</ele>
        <time>2019-02-25T16:03:15Z</time>
      </trkpt>
      <trkpt lat="42.85097" lon="0.27338">
        <ele>1369</ele>
        <time>2019-02-25T16:03:16Z</time>
      </trkpt>
      <trkpt lat="42.85095" lon="0.2734">
        <ele>1368</ele>
        <time>2019-02-25T16:03:17Z</time>
      </trkpt>
      <trkpt lat="42.85094" lon="0.27343">
        <ele>1367</ele>
        <time>2019-02-25T16:03:18Z</time>
      </trkpt>
      <trkpt lat="42.85092" lon="0.27347">
        <ele>1366</ele>
        <time>2019-02-25T16:03:19Z</time>
      </trkpt>
      <trkpt lat="42.8509" lon="0.2735">
        <ele>1365</ele>
        <time>2019-02-25T16:03:20Z</time>
      </trkpt>
      <trkpt lat="42.85091" lon="0.27352">
        <ele>1364</ele>
        <time>2019-02-25T16:03:22Z</time>
      </trkpt>
      <trkpt lat="42.85092" lon="0.27353">
        <ele>1364</ele>
        <time>2019-02-25T16:03:23Z</time>
      </trkpt>
      <trkpt lat="42.85093" lon="0.27353">
        <ele>1363</ele>
        <time>2019-02-25T16:03:24Z</time>
      </trkpt>
      <trkpt lat="42.85095" lon="0.27354">
        <ele>1363</ele>
        <time>2019-02-25T16:03:25Z</time>
      </trkpt>
      <trkpt lat="42.85097" lon="0.27355">
        <ele>1362</ele>
        <time>2019-02-25T16:03:27Z</time>
      </trkpt>
      <trkpt lat="42.85099" lon="0.27355">
        <ele>1362</ele>
        <time>2019-02-25T16:03:32Z</time>
      </trkpt>
      <trkpt lat="42.85099" lon="0.27358">
        <ele>1362</ele>
        <time>2019-02-25T16:03:37Z</time>
      </trkpt>
      <trkpt lat="42.85099" lon="0.2736">
        <ele>1362</ele>
        <time>2019-02-25T16:03:39Z</time>
      </trkpt>
      <trkpt lat="42.85098" lon="0.27363">
        <ele>1362</ele>
        <time>2019-02-25T16:03:41Z</time>
      </trkpt>
      <trkpt lat="42.85096" lon="0.27365">
        <ele>1362</ele>
        <time>2019-02-25T16:03:43Z</time>
      </trkpt>
      <trkpt lat="42.85094" lon="0.27367">
        <ele>1362</ele>
        <time>2019-02-25T16:03:45Z</time>
      </trkpt>
      <trkpt lat="42.85094" lon="0.27369">
        <ele>1361</ele>
        <time>2019-02-25T16:03:49Z</time>
      </trkpt>
      <trkpt lat="42.85094" lon="0.27373">
        <ele>1361</ele>
        <time>2019-02-25T16:03:52Z</time>
      </trkpt>
      <trkpt lat="42.85092" lon="0.27375">
        <ele>1361</ele>
        <time>2019-02-25T16:03:55Z</time>
      </trkpt>
      <trkpt lat="42.85091" lon="0.27377">
        <ele>1360</ele>
        <time>2019-02-25T16:03:58Z</time>
      </trkpt>
      <trkpt lat="42.8509" lon="0.27379">
        <ele>1360</ele>
        <time>2019-02-25T16:04:08Z</time>
      </trkpt>
      <trkpt lat="42.8509" lon="0.27382">
        <ele>1360</ele>
        <time>2019-02-25T16:04:14Z</time>
      </trkpt>
      <trkpt lat="42.85088" lon="0.27385">
        <ele>1360</ele>
        <time>2019-02-25T16:04:17Z</time>
      </trkpt>
      <trkpt lat="42.85087" lon="0.27388">
        <ele>1360</ele>
        <time>2019-02-25T16:04:19Z</time>
      </trkpt>
      <trkpt lat="42.85085" lon="0.27391">
        <ele>1360</ele>
        <time>2019-02-25T16:04:20Z</time>
      </trkpt>
      <trkpt lat="42.85082" lon="0.27393">
        <ele>1359</ele>
        <time>2019-02-25T16:04:21Z</time>
      </trkpt>
      <trkpt lat="42.85078" lon="0.27395">
        <ele>1359</ele>
        <time>2019-02-25T16:04:22Z</time>
      </trkpt>
      <trkpt lat="42.85074" lon="0.27397">
        <ele>1359</ele>
        <time>2019-02-25T16:04:23Z</time>
      </trkpt>
      <trkpt lat="42.85069" lon="0.27399">
        <ele>1358</ele>
        <time>2019-02-25T16:04:24Z</time>
      </trkpt>
      <trkpt lat="42.85063" lon="0.274">
        <ele>1358</ele>
        <time>2019-02-25T16:04:25Z</time>
      </trkpt>
      <trkpt lat="42.85057" lon="0.27401">
        <ele>1357</ele>
        <time>2019-02-25T16:04:26Z</time>
      </trkpt>
      <trkpt lat="42.85051" lon="0.27401">
        <ele>1356</ele>
        <time>2019-02-25T16:04:27Z</time>
      </trkpt>
      <trkpt lat="42.85044" lon="0.27402">
        <ele>1356</ele>
        <time>2019-02-25T16:04:28Z</time>
      </trkpt>
      <trkpt lat="42.85039" lon="0.27403">
        <ele>1355</ele>
        <time>2019-02-25T16:04:29Z</time>
      </trkpt>
      <trkpt lat="42.85033" lon="0.27404">
        <ele>1355</ele>
        <time>2019-02-25T16:04:30Z</time>
      </trkpt>
      <trkpt lat="42.85029" lon="0.27406">
        <ele>1355</ele>
        <time>2019-02-25T16:04:31Z</time>
      </trkpt>
      <trkpt lat="42.85024" lon="0.27409">
        <ele>1355</ele>
        <time>2019-02-25T16:04:32Z</time>
      </trkpt>
      <trkpt lat="42.8502" lon="0.27414">
        <ele>1355</ele>
        <time>2019-02-25T16:04:33Z</time>
      </trkpt>
      <trkpt lat="42.85017" lon="0.27421">
        <ele>1354</ele>
        <time>2019-02-25T16:04:34Z</time>
      </trkpt>
      <trkpt lat="42.85014" lon="0.27429">
        <ele>1354</ele>
        <time>2019-02-25T16:04:35Z</time>
      </trkpt>
      <trkpt lat="42.85011" lon="0.27438">
        <ele>1353</ele>
        <time>2019-02-25T16:04:36Z</time>
      </trkpt>
      <trkpt lat="42.85007" lon="0.27446">
        <ele>1352</ele>
        <time>2019-02-25T16:04:37Z</time>
      </trkpt>
      <trkpt lat="42.85002" lon="0.27452">
        <ele>1351</ele>
        <time>2019-02-25T16:04:38Z</time>
      </trkpt>
      <trkpt lat="42.84997" lon="0.27459">
        <ele>1351</ele>
        <time>2019-02-25T16:04:39Z</time>
      </trkpt>
      <trkpt lat="42.84994" lon="0.27464">
        <ele>1350</ele>
        <time>2019-02-25T16:04:40Z</time>
      </trkpt>
      <trkpt lat="42.84991" lon="0.27469">
        <ele>1349</ele>
        <time>2019-02-25T16:04:41Z</time>
      </trkpt>
      <trkpt lat="42.84988" lon="0.27475">
        <ele>1348</ele>
        <time>2019-02-25T16:04:42Z</time>
      </trkpt>
      <trkpt lat="42.84987" lon="0.27482">
        <ele>1347</ele>
        <time>2019-02-25T16:04:43Z</time>
      </trkpt>
      <trkpt lat="42.84986" lon="0.27489">
        <ele>1346</ele>
        <time>2019-02-25T16:04:44Z</time>
      </trkpt>
      <trkpt lat="42.84984" lon="0.27494">
        <ele>1345</ele>
        <time>2019-02-25T16:04:45Z</time>
      </trkpt>
      <trkpt lat="42.84982" lon="0.27497">
        <ele>1345</ele>
        <time>2019-02-25T16:04:46Z</time>
      </trkpt>
      <trkpt lat="42.8498" lon="0.275">
        <ele>1345</ele>
        <time>2019-02-25T16:04:47Z</time>
      </trkpt>
      <trkpt lat="42.84979" lon="0.27502">
        <ele>1345</ele>
        <time>2019-02-25T16:04:48Z</time>
      </trkpt>
      <trkpt lat="42.84977" lon="0.27502">
        <ele>1345</ele>
        <time>2019-02-25T16:06:41Z</time>
      </trkpt>
      <trkpt lat="42.84975" lon="0.27504">
        <ele>1345</ele>
        <time>2019-02-25T16:06:43Z</time>
      </trkpt>
      <trkpt lat="42.84973" lon="0.27506">
        <ele>1345</ele>
        <time>2019-02-25T16:06:44Z</time>
      </trkpt>
      <trkpt lat="42.84971" lon="0.27508">
        <ele>1345</ele>
        <time>2019-02-25T16:06:45Z</time>
      </trkpt>
      <trkpt lat="42.84968" lon="0.27511">
        <ele>1345</ele>
        <time>2019-02-25T16:06:46Z</time>
      </trkpt>
      <trkpt lat="42.84966" lon="0.27515">
        <ele>1344</ele>
        <time>2019-02-25T16:06:47Z</time>
      </trkpt>
      <trkpt lat="42.84963" lon="0.2752">
        <ele>1344</ele>
        <time>2019-02-25T16:06:48Z</time>
      </trkpt>
      <trkpt lat="42.84962" lon="0.27527">
        <ele>1343</ele>
        <time>2019-02-25T16:06:49Z</time>
      </trkpt>
      <trkpt lat="42.8496" lon="0.27535">
        <ele>1343</ele>
        <time>2019-02-25T16:06:50Z</time>
      </trkpt>
      <trkpt lat="42.84958" lon="0.27543">
        <ele>1342</ele>
        <time>2019-02-25T16:06:51Z</time>
      </trkpt>
      <trkpt lat="42.84957" lon="0.27552">
        <ele>1341</ele>
        <time>2019-02-25T16:06:52Z</time>
      </trkpt>
      <trkpt lat="42.84955" lon="0.27561">
        <ele>1341</ele>
        <time>2019-02-25T16:06:53Z</time>
      </trkpt>
      <trkpt lat="42.84954" lon="0.2757">
        <ele>1340</ele>
        <time>2019-02-25T16:06:54Z</time>
      </trkpt>
      <trkpt lat="42.84952" lon="0.2758">
        <ele>1340</ele>
        <time>2019-02-25T16:06:55Z</time>
      </trkpt>
      <trkpt lat="42.84951" lon="0.27589">
        <ele>1339</ele>
        <time>2019-02-25T16:06:56Z</time>
      </trkpt>
      <trkpt lat="42.84951" lon="0.27597">
        <ele>1338</ele>
        <time>2019-02-25T16:06:57Z</time>
      </trkpt>
      <trkpt lat="42.84951" lon="0.27604">
        <ele>1338</ele>
        <time>2019-02-25T16:06:58Z</time>
      </trkpt>
      <trkpt lat="42.84952" lon="0.27609">
        <ele>1338</ele>
        <time>2019-02-25T16:06:59Z</time>
      </trkpt>
      <trkpt lat="42.84952" lon="0.27612">
        <ele>1338</ele>
        <time>2019-02-25T16:07:00Z</time>
      </trkpt>
      <trkpt lat="42.84952" lon="0.27616">
        <ele>1338</ele>
        <time>2019-02-25T16:07:02Z</time>
      </trkpt>
      <trkpt lat="42.84952" lon="0.27619">
        <ele>1338</ele>
        <time>2019-02-25T16:07:04Z</time>
      </trkpt>
      <trkpt lat="42.84952" lon="0.27622">
        <ele>1338</ele>
        <time>2019-02-25T16:07:06Z</time>
      </trkpt>
      <trkpt lat="42.84952" lon="0.27625">
        <ele>1338</ele>
        <time>2019-02-25T16:07:08Z</time>
      </trkpt>
      <trkpt lat="42.84944" lon="0.27636">
        <ele>1337</ele>
        <time>2019-02-25T16:07:16Z</time>
      </trkpt>
      <trkpt lat="42.84942" lon="0.27637">
        <ele>1337</ele>
        <time>2019-02-25T16:07:17Z</time>
      </trkpt>
      <trkpt lat="42.84939" lon="0.27637">
        <ele>1337</ele>
        <time>2019-02-25T16:07:19Z</time>
      </trkpt>
      <trkpt lat="42.84937" lon="0.27636">
        <ele>1337</ele>
        <time>2019-02-25T16:07:21Z</time>
      </trkpt>
      <trkpt lat="42.84935" lon="0.27638">
        <ele>1337</ele>
        <time>2019-02-25T16:07:23Z</time>
      </trkpt>
      <trkpt lat="42.84933" lon="0.27639">
        <ele>1337</ele>
        <time>2019-02-25T16:07:25Z</time>
      </trkpt>
      <trkpt lat="42.8493" lon="0.27643">
        <ele>1337</ele>
        <time>2019-02-25T16:07:27Z</time>
      </trkpt>
      <trkpt lat="42.84929" lon="0.27646">
        <ele>1337</ele>
        <time>2019-02-25T16:07:28Z</time>
      </trkpt>
      <trkpt lat="42.84927" lon="0.27651">
        <ele>1337</ele>
        <time>2019-02-25T16:07:29Z</time>
      </trkpt>
      <trkpt lat="42.84927" lon="0.27657">
        <ele>1336</ele>
        <time>2019-02-25T16:07:30Z</time>
      </trkpt>
      <trkpt lat="42.84926" lon="0.27663">
        <ele>1336</ele>
        <time>2019-02-25T16:07:31Z</time>
      </trkpt>
      <trkpt lat="42.84927" lon="0.27669">
        <ele>1336</ele>
        <time>2019-02-25T16:07:32Z</time>
      </trkpt>
      <trkpt lat="42.84926" lon="0.2768">
        <ele>1335</ele>
        <time>2019-02-25T16:07:34Z</time>
      </trkpt>
      <trkpt lat="42.84924" lon="0.27686">
        <ele>1335</ele>
        <time>2019-02-25T16:07:35Z</time>
      </trkpt>
      <trkpt lat="42.84922" lon="0.27693">
        <ele>1334</ele>
        <time>2019-02-25T16:07:36Z</time>
      </trkpt>
      <trkpt lat="42.8492" lon="0.27698">
        <ele>1334</ele>
        <time>2019-02-25T16:07:37Z</time>
      </trkpt>
      <trkpt lat="42.8492" lon="0.27703">
        <ele>1334</ele>
        <time>2019-02-25T16:07:38Z</time>
      </trkpt>
      <trkpt lat="42.84921" lon="0.27706">
        <ele>1334</ele>
        <time>2019-02-25T16:07:39Z</time>
      </trkpt>
      <trkpt lat="42.84922" lon="0.27709">
        <ele>1333</ele>
        <time>2019-02-25T16:07:41Z</time>
      </trkpt>
      <trkpt lat="42.84922" lon="0.27712">
        <ele>1334</ele>
        <time>2019-02-25T16:07:54Z</time>
      </trkpt>
      <trkpt lat="42.8492" lon="0.27713">
        <ele>1333</ele>
        <time>2019-02-25T16:07:57Z</time>
      </trkpt>
      <trkpt lat="42.84918" lon="0.27714">
        <ele>1333</ele>
        <time>2019-02-25T16:07:59Z</time>
      </trkpt>
      <trkpt lat="42.84916" lon="0.27714">
        <ele>1333</ele>
        <time>2019-02-25T16:08:02Z</time>
      </trkpt>
      <trkpt lat="42.84914" lon="0.27716">
        <ele>1332</ele>
        <time>2019-02-25T16:08:06Z</time>
      </trkpt>
      <trkpt lat="42.84913" lon="0.27722">
        <ele>1331</ele>
        <time>2019-02-25T16:08:11Z</time>
      </trkpt>
      <trkpt lat="42.84913" lon="0.27727">
        <ele>1330</ele>
        <time>2019-02-25T16:08:12Z</time>
      </trkpt>
      <trkpt lat="42.84911" lon="0.27733">
        <ele>1330</ele>
        <time>2019-02-25T16:08:13Z</time>
      </trkpt>
      <trkpt lat="42.84908" lon="0.27739">
        <ele>1330</ele>
        <time>2019-02-25T16:08:14Z</time>
      </trkpt>
      <trkpt lat="42.84904" lon="0.27744">
        <ele>1329</ele>
        <time>2019-02-25T16:08:15Z</time>
      </trkpt>
      <trkpt lat="42.849" lon="0.27747">
        <ele>1328</ele>
        <time>2019-02-25T16:08:16Z</time>
      </trkpt>
      <trkpt lat="42.84896" lon="0.27752">
        <ele>1328</ele>
        <time>2019-02-25T16:08:17Z</time>
      </trkpt>
      <trkpt lat="42.84894" lon="0.27758">
        <ele>1328</ele>
        <time>2019-02-25T16:08:18Z</time>
      </trkpt>
      <trkpt lat="42.84892" lon="0.27765">
        <ele>1328</ele>
        <time>2019-02-25T16:08:19Z</time>
      </trkpt>
      <trkpt lat="42.84888" lon="0.27771">
        <ele>1327</ele>
        <time>2019-02-25T16:08:20Z</time>
      </trkpt>
      <trkpt lat="42.84884" lon="0.27774">
        <ele>1326</ele>
        <time>2019-02-25T16:08:21Z</time>
      </trkpt>
      <trkpt lat="42.8488" lon="0.27776">
        <ele>1325</ele>
        <time>2019-02-25T16:08:22Z</time>
      </trkpt>
      <trkpt lat="42.84877" lon="0.27779">
        <ele>1324</ele>
        <time>2019-02-25T16:08:23Z</time>
      </trkpt>
      <trkpt lat="42.84873" lon="0.2778">
        <ele>1323</ele>
        <time>2019-02-25T16:08:24Z</time>
      </trkpt>
      <trkpt lat="42.8487" lon="0.27784">
        <ele>1323</ele>
        <time>2019-02-25T16:08:25Z</time>
      </trkpt>
      <trkpt lat="42.84868" lon="0.27792">
        <ele>1321</ele>
        <time>2019-02-25T16:08:26Z</time>
      </trkpt>
      <trkpt lat="42.84868" lon="0.27801">
        <ele>1320</ele>
        <time>2019-02-25T16:08:27Z</time>
      </trkpt>
      <trkpt lat="42.84866" lon="0.2781">
        <ele>1318</ele>
        <time>2019-02-25T16:08:28Z</time>
      </trkpt>
      <trkpt lat="42.84862" lon="0.27817">
        <ele>1317</ele>
        <time>2019-02-25T16:08:29Z</time>
      </trkpt>
      <trkpt lat="42.84857" lon="0.27823">
        <ele>1315</ele>
        <time>2019-02-25T16:08:30Z</time>
      </trkpt>
      <trkpt lat="42.84854" lon="0.2783">
        <ele>1313</ele>
        <time>2019-02-25T16:08:31Z</time>
      </trkpt>
      <trkpt lat="42.84854" lon="0.27835">
        <ele>1312</ele>
        <time>2019-02-25T16:08:32Z</time>
      </trkpt>
      <trkpt lat="42.84855" lon="0.27841">
        <ele>1312</ele>
        <time>2019-02-25T16:08:33Z</time>
      </trkpt>
      <trkpt lat="42.84856" lon="0.27848">
        <ele>1312</ele>
        <time>2019-02-25T16:08:34Z</time>
      </trkpt>
      <trkpt lat="42.84857" lon="0.27855">
        <ele>1311</ele>
        <time>2019-02-25T16:08:35Z</time>
      </trkpt>
      <trkpt lat="42.84858" lon="0.27863">
        <ele>1311</ele>
        <time>2019-02-25T16:08:36Z</time>
      </trkpt>
      <trkpt lat="42.84856" lon="0.27876">
        <ele>1311</ele>
        <time>2019-02-25T16:08:38Z</time>
      </trkpt>
      <trkpt lat="42.84856" lon="0.27882">
        <ele>1310</ele>
        <time>2019-02-25T16:08:39Z</time>
      </trkpt>
      <trkpt lat="42.84855" lon="0.27889">
        <ele>1309</ele>
        <time>2019-02-25T16:08:40Z</time>
      </trkpt>
      <trkpt lat="42.84855" lon="0.27895">
        <ele>1308</ele>
        <time>2019-02-25T16:08:41Z</time>
      </trkpt>
      <trkpt lat="42.84855" lon="0.27899">
        <ele>1307</ele>
        <time>2019-02-25T16:08:42Z</time>
      </trkpt>
      <trkpt lat="42.84856" lon="0.27904">
        <ele>1307</ele>
        <time>2019-02-25T16:08:43Z</time>
      </trkpt>
      <trkpt lat="42.84856" lon="0.27909">
        <ele>1307</ele>
        <time>2019-02-25T16:08:44Z</time>
      </trkpt>
      <trkpt lat="42.84856" lon="0.27915">
        <ele>1307</ele>
        <time>2019-02-25T16:08:45Z</time>
      </trkpt>
      <trkpt lat="42.84856" lon="0.27928">
        <ele>1307</ele>
        <time>2019-02-25T16:08:47Z</time>
      </trkpt>
      <trkpt lat="42.84857" lon="0.27934">
        <ele>1307</ele>
        <time>2019-02-25T16:08:48Z</time>
      </trkpt>
      <trkpt lat="42.84857" lon="0.27943">
        <ele>1306</ele>
        <time>2019-02-25T16:08:50Z</time>
      </trkpt>
      <trkpt lat="42.84858" lon="0.27945">
        <ele>1306</ele>
        <time>2019-02-25T16:08:54Z</time>
      </trkpt>
      <trkpt lat="42.84858" lon="0.27947">
        <ele>1306</ele>
        <time>2019-02-25T16:09:00Z</time>
      </trkpt>
      <trkpt lat="42.84859" lon="0.2795">
        <ele>1307</ele>
        <time>2019-02-25T16:09:08Z</time>
      </trkpt>
      <trkpt lat="42.84859" lon="0.27952">
        <ele>1307</ele>
        <time>2019-02-25T16:09:14Z</time>
      </trkpt>
      <trkpt lat="42.84858" lon="0.27954">
        <ele>1307</ele>
        <time>2019-02-25T16:09:17Z</time>
      </trkpt>
      <trkpt lat="42.84857" lon="0.27957">
        <ele>1307</ele>
        <time>2019-02-25T16:09:19Z</time>
      </trkpt>
      <trkpt lat="42.84855" lon="0.27962">
        <ele>1307</ele>
        <time>2019-02-25T16:09:21Z</time>
      </trkpt>
      <trkpt lat="42.84853" lon="0.27964">
        <ele>1307</ele>
        <time>2019-02-25T16:09:22Z</time>
      </trkpt>
      <trkpt lat="42.84852" lon="0.27966">
        <ele>1307</ele>
        <time>2019-02-25T16:09:23Z</time>
      </trkpt>
      <trkpt lat="42.84851" lon="0.27971">
        <ele>1307</ele>
        <time>2019-02-25T16:09:25Z</time>
      </trkpt>
      <trkpt lat="42.84849" lon="0.27974">
        <ele>1307</ele>
        <time>2019-02-25T16:09:27Z</time>
      </trkpt>
      <trkpt lat="42.84846" lon="0.27979">
        <ele>1306</ele>
        <time>2019-02-25T16:09:29Z</time>
      </trkpt>
      <trkpt lat="42.84845" lon="0.27982">
        <ele>1306</ele>
        <time>2019-02-25T16:09:30Z</time>
      </trkpt>
      <trkpt lat="42.84844" lon="0.27984">
        <ele>1306</ele>
        <time>2019-02-25T16:09:31Z</time>
      </trkpt>
      <trkpt lat="42.84843" lon="0.27986">
        <ele>1306</ele>
        <time>2019-02-25T16:09:32Z</time>
      </trkpt>
      <trkpt lat="42.84843" lon="0.27989">
        <ele>1306</ele>
        <time>2019-02-25T16:09:33Z</time>
      </trkpt>
      <trkpt lat="42.84841" lon="0.27993">
        <ele>1306</ele>
        <time>2019-02-25T16:09:35Z</time>
      </trkpt>
      <trkpt lat="42.84839" lon="0.27996">
        <ele>1306</ele>
        <time>2019-02-25T16:09:37Z</time>
      </trkpt>
      <trkpt lat="42.84839" lon="0.27998">
        <ele>1306</ele>
        <time>2019-02-25T16:09:39Z</time>
      </trkpt>
      <trkpt lat="42.84836" lon="0.28007">
        <ele>1306</ele>
        <time>2019-02-25T16:09:44Z</time>
      </trkpt>
      <trkpt lat="42.84835" lon="0.28011">
        <ele>1306</ele>
        <time>2019-02-25T16:09:46Z</time>
      </trkpt>
      <trkpt lat="42.84834" lon="0.28013">
        <ele>1306</ele>
        <time>2019-02-25T16:09:47Z</time>
      </trkpt>
      <trkpt lat="42.84833" lon="0.28015">
        <ele>1306</ele>
        <time>2019-02-25T16:09:48Z</time>
      </trkpt>
      <trkpt lat="42.84832" lon="0.28018">
        <ele>1305</ele>
        <time>2019-02-25T16:09:50Z</time>
      </trkpt>
      <trkpt lat="42.84831" lon="0.2802">
        <ele>1305</ele>
        <time>2019-02-25T16:09:52Z</time>
      </trkpt>
      <trkpt lat="42.8483" lon="0.28023">
        <ele>1306</ele>
        <time>2019-02-25T16:09:55Z</time>
      </trkpt>
      <trkpt lat="42.84829" lon="0.28026">
        <ele>1306</ele>
        <time>2019-02-25T16:09:57Z</time>
      </trkpt>
      <trkpt lat="42.84828" lon="0.28029">
        <ele>1306</ele>
        <time>2019-02-25T16:09:59Z</time>
      </trkpt>
      <trkpt lat="42.84827" lon="0.28032">
        <ele>1306</ele>
        <time>2019-02-25T16:10:01Z</time>
      </trkpt>
      <trkpt lat="42.84827" lon="0.28036">
        <ele>1306</ele>
        <time>2019-02-25T16:10:03Z</time>
      </trkpt>
      <trkpt lat="42.84826" lon="0.28039">
        <ele>1306</ele>
        <time>2019-02-25T16:10:05Z</time>
      </trkpt>
      <trkpt lat="42.84825" lon="0.28042">
        <ele>1306</ele>
        <time>2019-02-25T16:10:07Z</time>
      </trkpt>
      <trkpt lat="42.84825" lon="0.28045">
        <ele>1305</ele>
        <time>2019-02-25T16:10:09Z</time>
      </trkpt>
      <trkpt lat="42.84824" lon="0.28048">
        <ele>1306</ele>
        <time>2019-02-25T16:10:11Z</time>
      </trkpt>
      <trkpt lat="42.84823" lon="0.28051">
        <ele>1306</ele>
        <time>2019-02-25T16:10:13Z</time>
      </trkpt>
      <trkpt lat="42.84823" lon="0.28055">
        <ele>1306</ele>
        <time>2019-02-25T16:10:16Z</time>
      </trkpt>
      <trkpt lat="42.84822" lon="0.2806">
        <ele>1306</ele>
        <time>2019-02-25T16:10:18Z</time>
      </trkpt>
      <trkpt lat="42.84822" lon="0.28063">
        <ele>1306</ele>
        <time>2019-02-25T16:10:20Z</time>
      </trkpt>
      <trkpt lat="42.84822" lon="0.28065">
        <ele>1306</ele>
        <time>2019-02-25T16:10:25Z</time>
      </trkpt>
      <trkpt lat="42.84822" lon="0.28069">
        <ele>1306</ele>
        <time>2019-02-25T16:10:33Z</time>
      </trkpt>
      <trkpt lat="42.84822" lon="0.28072">
        <ele>1306</ele>
        <time>2019-02-25T16:10:35Z</time>
      </trkpt>
      <trkpt lat="42.84821" lon="0.28075">
        <ele>1306</ele>
        <time>2019-02-25T16:10:37Z</time>
      </trkpt>
      <trkpt lat="42.84822" lon="0.28077">
        <ele>1305</ele>
        <time>2019-02-25T16:10:39Z</time>
      </trkpt>
      <trkpt lat="42.84821" lon="0.2808">
        <ele>1306</ele>
        <time>2019-02-25T16:10:41Z</time>
      </trkpt>
      <trkpt lat="42.84821" lon="0.28083">
        <ele>1306</ele>
        <time>2019-02-25T16:10:44Z</time>
      </trkpt>
      <trkpt lat="42.8482" lon="0.28086">
        <ele>1305</ele>
        <time>2019-02-25T16:10:46Z</time>
      </trkpt>
      <trkpt lat="42.84819" lon="0.28088">
        <ele>1305</ele>
        <time>2019-02-25T16:10:47Z</time>
      </trkpt>
      <trkpt lat="42.84818" lon="0.28091">
        <ele>1305</ele>
        <time>2019-02-25T16:10:48Z</time>
      </trkpt>
      <trkpt lat="42.84817" lon="0.28095">
        <ele>1305</ele>
        <time>2019-02-25T16:10:50Z</time>
      </trkpt>
      <trkpt lat="42.84816" lon="0.28099">
        <ele>1305</ele>
        <time>2019-02-25T16:10:51Z</time>
      </trkpt>
      <trkpt lat="42.84816" lon="0.28103">
        <ele>1305</ele>
        <time>2019-02-25T16:10:52Z</time>
      </trkpt>
      <trkpt lat="42.84815" lon="0.28106">
        <ele>1304</ele>
        <time>2019-02-25T16:10:53Z</time>
      </trkpt>
      <trkpt lat="42.84815" lon="0.28109">
        <ele>1304</ele>
        <time>2019-02-25T16:10:54Z</time>
      </trkpt>
      <trkpt lat="42.84815" lon="0.28113">
        <ele>1304</ele>
        <time>2019-02-25T16:10:55Z</time>
      </trkpt>
      <trkpt lat="42.84814" lon="0.28117">
        <ele>1303</ele>
        <time>2019-02-25T16:10:56Z</time>
      </trkpt>
      <trkpt lat="42.84813" lon="0.28121">
        <ele>1303</ele>
        <time>2019-02-25T16:10:57Z</time>
      </trkpt>
      <trkpt lat="42.84812" lon="0.28125">
        <ele>1303</ele>
        <time>2019-02-25T16:10:58Z</time>
      </trkpt>
      <trkpt lat="42.84811" lon="0.28127">
        <ele>1303</ele>
        <time>2019-02-25T16:10:59Z</time>
      </trkpt>
      <trkpt lat="42.8481" lon="0.2813">
        <ele>1302</ele>
        <time>2019-02-25T16:11:00Z</time>
      </trkpt>
      <trkpt lat="42.8481" lon="0.28132">
        <ele>1301</ele>
        <time>2019-02-25T16:11:01Z</time>
      </trkpt>
      <trkpt lat="42.84809" lon="0.28135">
        <ele>1301</ele>
        <time>2019-02-25T16:11:02Z</time>
      </trkpt>
      <trkpt lat="42.84808" lon="0.28138">
        <ele>1300</ele>
        <time>2019-02-25T16:11:03Z</time>
      </trkpt>
      <trkpt lat="42.84808" lon="0.28141">
        <ele>1300</ele>
        <time>2019-02-25T16:11:04Z</time>
      </trkpt>
      <trkpt lat="42.84807" lon="0.28145">
        <ele>1300</ele>
        <time>2019-02-25T16:11:05Z</time>
      </trkpt>
      <trkpt lat="42.84807" lon="0.28149">
        <ele>1300</ele>
        <time>2019-02-25T16:11:06Z</time>
      </trkpt>
      <trkpt lat="42.84806" lon="0.28152">
        <ele>1300</ele>
        <time>2019-02-25T16:11:07Z</time>
      </trkpt>
      <trkpt lat="42.84803" lon="0.28155">
        <ele>1300</ele>
        <time>2019-02-25T16:11:08Z</time>
      </trkpt>
      <trkpt lat="42.84802" lon="0.2816">
        <ele>1300</ele>
        <time>2019-02-25T16:11:09Z</time>
      </trkpt>
      <trkpt lat="42.84802" lon="0.28164">
        <ele>1300</ele>
        <time>2019-02-25T16:11:10Z</time>
      </trkpt>
      <trkpt lat="42.84801" lon="0.28168">
        <ele>1299</ele>
        <time>2019-02-25T16:11:11Z</time>
      </trkpt>
      <trkpt lat="42.848" lon="0.28173">
        <ele>1299</ele>
        <time>2019-02-25T16:11:12Z</time>
      </trkpt>
      <trkpt lat="42.84799" lon="0.28178">
        <ele>1299</ele>
        <time>2019-02-25T16:11:13Z</time>
      </trkpt>
      <trkpt lat="42.84798" lon="0.28182">
        <ele>1298</ele>
        <time>2019-02-25T16:11:14Z</time>
      </trkpt>
      <trkpt lat="42.84796" lon="0.28186">
        <ele>1298</ele>
        <time>2019-02-25T16:11:15Z</time>
      </trkpt>
      <trkpt lat="42.84795" lon="0.2819">
        <ele>1297</ele>
        <time>2019-02-25T16:11:16Z</time>
      </trkpt>
      <trkpt lat="42.84794" lon="0.28194">
        <ele>1297</ele>
        <time>2019-02-25T16:11:17Z</time>
      </trkpt>
      <trkpt lat="42.84793" lon="0.28198">
        <ele>1296</ele>
        <time>2019-02-25T16:11:18Z</time>
      </trkpt>
      <trkpt lat="42.84792" lon="0.28202">
        <ele>1296</ele>
        <time>2019-02-25T16:11:19Z</time>
      </trkpt>
      <trkpt lat="42.84792" lon="0.28207">
        <ele>1295</ele>
        <time>2019-02-25T16:11:20Z</time>
      </trkpt>
      <trkpt lat="42.84791" lon="0.28211">
        <ele>1295</ele>
        <time>2019-02-25T16:11:21Z</time>
      </trkpt>
      <trkpt lat="42.84791" lon="0.28218">
        <ele>1294</ele>
        <time>2019-02-25T16:11:22Z</time>
      </trkpt>
      <trkpt lat="42.84791" lon="0.2822">
        <ele>1294</ele>
        <time>2019-02-25T16:11:23Z</time>
      </trkpt>
      <trkpt lat="42.84791" lon="0.2823">
        <ele>1293</ele>
        <time>2019-02-25T16:11:25Z</time>
      </trkpt>
      <trkpt lat="42.8479" lon="0.28237">
        <ele>1292</ele>
        <time>2019-02-25T16:11:26Z</time>
      </trkpt>
      <trkpt lat="42.8479" lon="0.28243">
        <ele>1291</ele>
        <time>2019-02-25T16:11:27Z</time>
      </trkpt>
      <trkpt lat="42.84788" lon="0.28249">
        <ele>1291</ele>
        <time>2019-02-25T16:11:28Z</time>
      </trkpt>
      <trkpt lat="42.84787" lon="0.28255">
        <ele>1290</ele>
        <time>2019-02-25T16:11:29Z</time>
      </trkpt>
      <trkpt lat="42.84787" lon="0.28261">
        <ele>1289</ele>
        <time>2019-02-25T16:11:30Z</time>
      </trkpt>
      <trkpt lat="42.84786" lon="0.28266">
        <ele>1289</ele>
        <time>2019-02-25T16:11:31Z</time>
      </trkpt>
      <trkpt lat="42.84786" lon="0.28271">
        <ele>1289</ele>
        <time>2019-02-25T16:11:32Z</time>
      </trkpt>
      <trkpt lat="42.84785" lon="0.28275">
        <ele>1288</ele>
        <time>2019-02-25T16:11:33Z</time>
      </trkpt>
      <trkpt lat="42.84785" lon="0.2828">
        <ele>1288</ele>
        <time>2019-02-25T16:11:34Z</time>
      </trkpt>
      <trkpt lat="42.84784" lon="0.28286">
        <ele>1287</ele>
        <time>2019-02-25T16:11:35Z</time>
      </trkpt>
      <trkpt lat="42.84784" lon="0.28291">
        <ele>1287</ele>
        <time>2019-02-25T16:11:36Z</time>
      </trkpt>
      <trkpt lat="42.84783" lon="0.28296">
        <ele>1287</ele>
        <time>2019-02-25T16:11:37Z</time>
      </trkpt>
      <trkpt lat="42.84783" lon="0.28302">
        <ele>1286</ele>
        <time>2019-02-25T16:11:38Z</time>
      </trkpt>
      <trkpt lat="42.84783" lon="0.28307">
        <ele>1285</ele>
        <time>2019-02-25T16:11:39Z</time>
      </trkpt>
      <trkpt lat="42.84782" lon="0.28312">
        <ele>1285</ele>
        <time>2019-02-25T16:11:40Z</time>
      </trkpt>
      <trkpt lat="42.84782" lon="0.28318">
        <ele>1285</ele>
        <time>2019-02-25T16:11:41Z</time>
      </trkpt>
      <trkpt lat="42.84782" lon="0.28323">
        <ele>1285</ele>
        <time>2019-02-25T16:11:42Z</time>
      </trkpt>
      <trkpt lat="42.84781" lon="0.28329">
        <ele>1284</ele>
        <time>2019-02-25T16:11:43Z</time>
      </trkpt>
      <trkpt lat="42.84781" lon="0.2834">
        <ele>1283</ele>
        <time>2019-02-25T16:11:45Z</time>
      </trkpt>
      <trkpt lat="42.84782" lon="0.28355">
        <ele>1282</ele>
        <time>2019-02-25T16:11:48Z</time>
      </trkpt>
      <trkpt lat="42.84782" lon="0.2836">
        <ele>1281</ele>
        <time>2019-02-25T16:11:49Z</time>
      </trkpt>
      <trkpt lat="42.84783" lon="0.28365">
        <ele>1280</ele>
        <time>2019-02-25T16:11:50Z</time>
      </trkpt>
      <trkpt lat="42.84783" lon="0.2837">
        <ele>1279</ele>
        <time>2019-02-25T16:11:51Z</time>
      </trkpt>
      <trkpt lat="42.84784" lon="0.28374">
        <ele>1279</ele>
        <time>2019-02-25T16:11:52Z</time>
      </trkpt>
      <trkpt lat="42.84785" lon="0.28378">
        <ele>1278</ele>
        <time>2019-02-25T16:11:53Z</time>
      </trkpt>
      <trkpt lat="42.84786" lon="0.28382">
        <ele>1278</ele>
        <time>2019-02-25T16:11:55Z</time>
      </trkpt>
      <trkpt lat="42.84787" lon="0.28384">
        <ele>1277</ele>
        <time>2019-02-25T16:11:56Z</time>
      </trkpt>
      <trkpt lat="42.84789" lon="0.28387">
        <ele>1277</ele>
        <time>2019-02-25T16:11:57Z</time>
      </trkpt>
      <trkpt lat="42.8479" lon="0.28389">
        <ele>1276</ele>
        <time>2019-02-25T16:11:58Z</time>
      </trkpt>
      <trkpt lat="42.84792" lon="0.28392">
        <ele>1276</ele>
        <time>2019-02-25T16:12:00Z</time>
      </trkpt>
      <trkpt lat="42.84793" lon="0.28394">
        <ele>1276</ele>
        <time>2019-02-25T16:12:02Z</time>
      </trkpt>
      <trkpt lat="42.84794" lon="0.28397">
        <ele>1276</ele>
        <time>2019-02-25T16:12:04Z</time>
      </trkpt>
      <trkpt lat="42.84795" lon="0.28401">
        <ele>1276</ele>
        <time>2019-02-25T16:12:06Z</time>
      </trkpt>
      <trkpt lat="42.84796" lon="0.28398">
        <ele>1276</ele>
        <time>2019-02-25T16:12:26Z</time>
      </trkpt>
      <trkpt lat="42.84797" lon="0.28396">
        <ele>1276</ele>
        <time>2019-02-25T16:12:32Z</time>
      </trkpt>
      <trkpt lat="42.84799" lon="0.28397">
        <ele>1276</ele>
        <time>2019-02-25T16:12:43Z</time>
      </trkpt>
      <trkpt lat="42.84799" lon="0.284">
        <ele>1276</ele>
        <time>2019-02-25T16:12:46Z</time>
      </trkpt>
      <trkpt lat="42.84801" lon="0.28402">
        <ele>1276</ele>
        <time>2019-02-25T16:12:48Z</time>
      </trkpt>
      <trkpt lat="42.84803" lon="0.28404">
        <ele>1276</ele>
        <time>2019-02-25T16:12:49Z</time>
      </trkpt>
      <trkpt lat="42.84804" lon="0.28406">
        <ele>1276</ele>
        <time>2019-02-25T16:12:50Z</time>
      </trkpt>
      <trkpt lat="42.84806" lon="0.28407">
        <ele>1275</ele>
        <time>2019-02-25T16:12:51Z</time>
      </trkpt>
      <trkpt lat="42.84808" lon="0.28409">
        <ele>1275</ele>
        <time>2019-02-25T16:12:52Z</time>
      </trkpt>
      <trkpt lat="42.8481" lon="0.28411">
        <ele>1275</ele>
        <time>2019-02-25T16:12:53Z</time>
      </trkpt>
      <trkpt lat="42.84812" lon="0.28412">
        <ele>1275</ele>
        <time>2019-02-25T16:12:54Z</time>
      </trkpt>
      <trkpt lat="42.84814" lon="0.28414">
        <ele>1275</ele>
        <time>2019-02-25T16:12:55Z</time>
      </trkpt>
      <trkpt lat="42.84816" lon="0.28415">
        <ele>1274</ele>
        <time>2019-02-25T16:12:56Z</time>
      </trkpt>
      <trkpt lat="42.84819" lon="0.28417">
        <ele>1273</ele>
        <time>2019-02-25T16:12:58Z</time>
      </trkpt>
      <trkpt lat="42.84821" lon="0.28419">
        <ele>1273</ele>
        <time>2019-02-25T16:13:00Z</time>
      </trkpt>
      <trkpt lat="42.84823" lon="0.2842">
        <ele>1273</ele>
        <time>2019-02-25T16:13:02Z</time>
      </trkpt>
      <trkpt lat="42.84825" lon="0.28421">
        <ele>1273</ele>
        <time>2019-02-25T16:13:03Z</time>
      </trkpt>
      <trkpt lat="42.84826" lon="0.28424">
        <ele>1273</ele>
        <time>2019-02-25T16:13:05Z</time>
      </trkpt>
      <trkpt lat="42.84828" lon="0.28426">
        <ele>1272</ele>
        <time>2019-02-25T16:13:12Z</time>
      </trkpt>
      <trkpt lat="42.84829" lon="0.28428">
        <ele>1272</ele>
        <time>2019-02-25T16:13:16Z</time>
      </trkpt>
      <trkpt lat="42.8483" lon="0.28432">
        <ele>1272</ele>
        <time>2019-02-25T16:13:26Z</time>
      </trkpt>
      <trkpt lat="42.84833" lon="0.28435">
        <ele>1271</ele>
        <time>2019-02-25T16:13:28Z</time>
      </trkpt>
      <trkpt lat="42.84835" lon="0.28438">
        <ele>1271</ele>
        <time>2019-02-25T16:13:29Z</time>
      </trkpt>
      <trkpt lat="42.84837" lon="0.28441">
        <ele>1270</ele>
        <time>2019-02-25T16:13:30Z</time>
      </trkpt>
      <trkpt lat="42.84835" lon="0.28447">
        <ele>1268</ele>
        <time>2019-02-25T16:13:32Z</time>
      </trkpt>
      <trkpt lat="42.84832" lon="0.28451">
        <ele>1267</ele>
        <time>2019-02-25T16:13:33Z</time>
      </trkpt>
      <trkpt lat="42.8483" lon="0.28453">
        <ele>1267</ele>
        <time>2019-02-25T16:13:34Z</time>
      </trkpt>
      <trkpt lat="42.84829" lon="0.28456">
        <ele>1266</ele>
        <time>2019-02-25T16:13:35Z</time>
      </trkpt>
      <trkpt lat="42.84829" lon="0.2846">
        <ele>1265</ele>
        <time>2019-02-25T16:13:36Z</time>
      </trkpt>
      <trkpt lat="42.84831" lon="0.28466">
        <ele>1264</ele>
        <time>2019-02-25T16:13:37Z</time>
      </trkpt>
      <trkpt lat="42.84836" lon="0.28471">
        <ele>1264</ele>
        <time>2019-02-25T16:13:38Z</time>
      </trkpt>
      <trkpt lat="42.84839" lon="0.28476">
        <ele>1263</ele>
        <time>2019-02-25T16:13:39Z</time>
      </trkpt>
      <trkpt lat="42.84841" lon="0.28481">
        <ele>1262</ele>
        <time>2019-02-25T16:13:40Z</time>
      </trkpt>
      <trkpt lat="42.84843" lon="0.28486">
        <ele>1261</ele>
        <time>2019-02-25T16:13:41Z</time>
      </trkpt>
      <trkpt lat="42.84844" lon="0.28493">
        <ele>1260</ele>
        <time>2019-02-25T16:13:42Z</time>
      </trkpt>
      <trkpt lat="42.84844" lon="0.28501">
        <ele>1259</ele>
        <time>2019-02-25T16:13:43Z</time>
      </trkpt>
      <trkpt lat="42.84846" lon="0.2851">
        <ele>1258</ele>
        <time>2019-02-25T16:13:44Z</time>
      </trkpt>
      <trkpt lat="42.84851" lon="0.28516">
        <ele>1257</ele>
        <time>2019-02-25T16:13:45Z</time>
      </trkpt>
      <trkpt lat="42.84856" lon="0.28522">
        <ele>1256</ele>
        <time>2019-02-25T16:13:46Z</time>
      </trkpt>
      <trkpt lat="42.84861" lon="0.28524">
        <ele>1254</ele>
        <time>2019-02-25T16:13:47Z</time>
      </trkpt>
      <trkpt lat="42.84872" lon="0.28525">
        <ele>1252</ele>
        <time>2019-02-25T16:13:50Z</time>
      </trkpt>
      <trkpt lat="42.84875" lon="0.28526">
        <ele>1252</ele>
        <time>2019-02-25T16:13:51Z</time>
      </trkpt>
      <trkpt lat="42.84877" lon="0.28532">
        <ele>1251</ele>
        <time>2019-02-25T16:14:11Z</time>
      </trkpt>
      <trkpt lat="42.84875" lon="0.28535">
        <ele>1251</ele>
        <time>2019-02-25T16:14:12Z</time>
      </trkpt>
      <trkpt lat="42.84874" lon="0.28538">
        <ele>1250</ele>
        <time>2019-02-25T16:14:13Z</time>
      </trkpt>
      <trkpt lat="42.84874" lon="0.28543">
        <ele>1248</ele>
        <time>2019-02-25T16:14:14Z</time>
      </trkpt>
      <trkpt lat="42.84878" lon="0.28547">
        <ele>1248</ele>
        <time>2019-02-25T16:14:15Z</time>
      </trkpt>
      <trkpt lat="42.84881" lon="0.2855">
        <ele>1247</ele>
        <time>2019-02-25T16:14:16Z</time>
      </trkpt>
      <trkpt lat="42.84885" lon="0.28551">
        <ele>1246</ele>
        <time>2019-02-25T16:14:17Z</time>
      </trkpt>
      <trkpt lat="42.84887" lon="0.28551">
        <ele>1245</ele>
        <time>2019-02-25T16:14:18Z</time>
      </trkpt>
      <trkpt lat="42.84889" lon="0.2855">
        <ele>1245</ele>
        <time>2019-02-25T16:14:20Z</time>
      </trkpt>
      <trkpt lat="42.84891" lon="0.28552">
        <ele>1245</ele>
        <time>2019-02-25T16:14:29Z</time>
      </trkpt>
      <trkpt lat="42.84891" lon="0.28555">
        <ele>1244</ele>
        <time>2019-02-25T16:14:38Z</time>
      </trkpt>
      <trkpt lat="42.84892" lon="0.28557">
        <ele>1243</ele>
        <time>2019-02-25T16:14:48Z</time>
      </trkpt>
      <trkpt lat="42.84891" lon="0.28556">
        <ele>1245</ele>
        <time>2019-02-25T16:15:07Z</time>
      </trkpt>
      <trkpt lat="42.84889" lon="0.28555">
        <ele>1245</ele>
        <time>2019-02-25T16:15:10Z</time>
      </trkpt>
      <trkpt lat="42.8489" lon="0.28558">
        <ele>1244</ele>
        <time>2019-02-25T16:15:14Z</time>
      </trkpt>
      <trkpt lat="42.84891" lon="0.28558">
        <ele>1244</ele>
        <time>2019-02-25T16:15:25Z</time>
      </trkpt>
      <trkpt lat="42.84893" lon="0.28561">
        <ele>1244</ele>
        <time>2019-02-25T16:15:28Z</time>
      </trkpt>
      <trkpt lat="42.84894" lon="0.28563">
        <ele>1243</ele>
        <time>2019-02-25T16:15:37Z</time>
      </trkpt>
      <trkpt lat="42.84896" lon="0.28565">
        <ele>1243</ele>
        <time>2019-02-25T16:15:43Z</time>
      </trkpt>
      <trkpt lat="42.84898" lon="0.28566">
        <ele>1243</ele>
        <time>2019-02-25T16:15:52Z</time>
      </trkpt>
      <trkpt lat="42.84899" lon="0.28567">
        <ele>1243</ele>
        <time>2019-02-25T16:15:58Z</time>
      </trkpt>
      <trkpt lat="42.84899" lon="0.2857">
        <ele>1243</ele>
        <time>2019-02-25T16:16:08Z</time>
      </trkpt>
      <trkpt lat="42.84899" lon="0.28573">
        <ele>1242</ele>
        <time>2019-02-25T16:16:18Z</time>
      </trkpt>
      <trkpt lat="42.84899" lon="0.28576">
        <ele>1242</ele>
        <time>2019-02-25T16:16:24Z</time>
      </trkpt>
      <trkpt lat="42.84898" lon="0.28579">
        <ele>1242</ele>
        <time>2019-02-25T16:16:27Z</time>
      </trkpt>
      <trkpt lat="42.849" lon="0.28582">
        <ele>1242</ele>
        <time>2019-02-25T16:16:40Z</time>
      </trkpt>
      <trkpt lat="42.84902" lon="0.28581">
        <ele>1242</ele>
        <time>2019-02-25T16:16:43Z</time>
      </trkpt>
      <trkpt lat="42.84901" lon="0.28575">
        <ele>1241</ele>
        <time>2019-02-25T16:16:57Z</time>
      </trkpt>
      <trkpt lat="42.84901" lon="0.28578">
        <ele>1242</ele>
        <time>2019-02-25T16:17:11Z</time>
      </trkpt>
      <trkpt lat="42.84905" lon="0.28582">
        <ele>1243</ele>
        <time>2019-02-25T16:17:16Z</time>
      </trkpt>
      <trkpt lat="42.84907" lon="0.28584">
        <ele>1243</ele>
        <time>2019-02-25T16:17:18Z</time>
      </trkpt>
      <trkpt lat="42.84908" lon="0.28586">
        <ele>1243</ele>
        <time>2019-02-25T16:17:20Z</time>
      </trkpt>
      <trkpt lat="42.8491" lon="0.28588">
        <ele>1243</ele>
        <time>2019-02-25T16:17:23Z</time>
      </trkpt>
      <trkpt lat="42.84911" lon="0.28589">
        <ele>1243</ele>
        <time>2019-02-25T16:17:28Z</time>
      </trkpt>
      <trkpt lat="42.84913" lon="0.2859">
        <ele>1243</ele>
        <time>2019-02-25T16:17:32Z</time>
      </trkpt>
      <trkpt lat="42.84915" lon="0.28592">
        <ele>1242</ele>
        <time>2019-02-25T16:17:36Z</time>
      </trkpt>
      <trkpt lat="42.84916" lon="0.28595">
        <ele>1242</ele>
        <time>2019-02-25T16:17:39Z</time>
      </trkpt>
      <trkpt lat="42.84917" lon="0.28598">
        <ele>1241</ele>
        <time>2019-02-25T16:17:41Z</time>
      </trkpt>
      <trkpt lat="42.84918" lon="0.286">
        <ele>1241</ele>
        <time>2019-02-25T16:17:43Z</time>
      </trkpt>
      <trkpt lat="42.84918" lon="0.28603">
        <ele>1241</ele>
        <time>2019-02-25T16:17:45Z</time>
      </trkpt>
      <trkpt lat="42.84919" lon="0.28606">
        <ele>1241</ele>
        <time>2019-02-25T16:17:47Z</time>
      </trkpt>
      <trkpt lat="42.8492" lon="0.28609">
        <ele>1240</ele>
        <time>2019-02-25T16:17:49Z</time>
      </trkpt>
      <trkpt lat="42.84921" lon="0.28611">
        <ele>1240</ele>
        <time>2019-02-25T16:17:52Z</time>
      </trkpt>
      <trkpt lat="42.84922" lon="0.28613">
        <ele>1240</ele>
        <time>2019-02-25T16:17:55Z</time>
      </trkpt>
      <trkpt lat="42.84923" lon="0.28615">
        <ele>1240</ele>
        <time>2019-02-25T16:18:00Z</time>
      </trkpt>
      <trkpt lat="42.84923" lon="0.28612">
        <ele>1240</ele>
        <time>2019-02-25T16:18:35Z</time>
      </trkpt>
      <trkpt lat="42.84925" lon="0.28613">
        <ele>1240</ele>
        <time>2019-02-25T16:18:41Z</time>
      </trkpt>
      <trkpt lat="42.84927" lon="0.28616">
        <ele>1240</ele>
        <time>2019-02-25T16:18:45Z</time>
      </trkpt>
      <trkpt lat="42.84929" lon="0.28619">
        <ele>1240</ele>
        <time>2019-02-25T16:18:47Z</time>
      </trkpt>
      <trkpt lat="42.84933" lon="0.28622">
        <ele>1240</ele>
        <time>2019-02-25T16:18:49Z</time>
      </trkpt>
      <trkpt lat="42.84935" lon="0.28625">
        <ele>1240</ele>
        <time>2019-02-25T16:18:50Z</time>
      </trkpt>
      <trkpt lat="42.84936" lon="0.28628">
        <ele>1240</ele>
        <time>2019-02-25T16:18:51Z</time>
      </trkpt>
      <trkpt lat="42.84938" lon="0.2863">
        <ele>1240</ele>
        <time>2019-02-25T16:18:52Z</time>
      </trkpt>
      <trkpt lat="42.84938" lon="0.28633">
        <ele>1240</ele>
        <time>2019-02-25T16:18:53Z</time>
      </trkpt>
      <trkpt lat="42.84939" lon="0.28637">
        <ele>1240</ele>
        <time>2019-02-25T16:18:54Z</time>
      </trkpt>
      <trkpt lat="42.8494" lon="0.28641">
        <ele>1240</ele>
        <time>2019-02-25T16:18:55Z</time>
      </trkpt>
      <trkpt lat="42.84941" lon="0.28645">
        <ele>1239</ele>
        <time>2019-02-25T16:18:56Z</time>
      </trkpt>
      <trkpt lat="42.84941" lon="0.28651">
        <ele>1238</ele>
        <time>2019-02-25T16:18:57Z</time>
      </trkpt>
      <trkpt lat="42.84942" lon="0.28656">
        <ele>1238</ele>
        <time>2019-02-25T16:18:58Z</time>
      </trkpt>
      <trkpt lat="42.84943" lon="0.28663">
        <ele>1238</ele>
        <time>2019-02-25T16:18:59Z</time>
      </trkpt>
      <trkpt lat="42.84944" lon="0.28669">
        <ele>1237</ele>
        <time>2019-02-25T16:19:00Z</time>
      </trkpt>
      <trkpt lat="42.84944" lon="0.28675">
        <ele>1235</ele>
        <time>2019-02-25T16:19:01Z</time>
      </trkpt>
      <trkpt lat="42.84944" lon="0.28681">
        <ele>1235</ele>
        <time>2019-02-25T16:19:02Z</time>
      </trkpt>
      <trkpt lat="42.84944" lon="0.28692">
        <ele>1235</ele>
        <time>2019-02-25T16:19:04Z</time>
      </trkpt>
      <trkpt lat="42.84945" lon="0.28698">
        <ele>1235</ele>
        <time>2019-02-25T16:19:06Z</time>
      </trkpt>
      <trkpt lat="42.84946" lon="0.28701">
        <ele>1234</ele>
        <time>2019-02-25T16:19:08Z</time>
      </trkpt>
      <trkpt lat="42.84947" lon="0.28704">
        <ele>1234</ele>
        <time>2019-02-25T16:19:11Z</time>
      </trkpt>
      <trkpt lat="42.84946" lon="0.28706">
        <ele>1233</ele>
        <time>2019-02-25T16:19:20Z</time>
      </trkpt>
      <trkpt lat="42.84946" lon="0.28709">
        <ele>1234</ele>
        <time>2019-02-25T16:19:33Z</time>
      </trkpt>
      <trkpt lat="42.84946" lon="0.28711">
        <ele>1234</ele>
        <time>2019-02-25T16:19:36Z</time>
      </trkpt>
      <trkpt lat="42.84947" lon="0.28715">
        <ele>1233</ele>
        <time>2019-02-25T16:19:38Z</time>
      </trkpt>
      <trkpt lat="42.84948" lon="0.28718">
        <ele>1233</ele>
        <time>2019-02-25T16:19:39Z</time>
      </trkpt>
      <trkpt lat="42.84948" lon="0.28721">
        <ele>1232</ele>
        <time>2019-02-25T16:19:40Z</time>
      </trkpt>
      <trkpt lat="42.84949" lon="0.28725">
        <ele>1231</ele>
        <time>2019-02-25T16:19:41Z</time>
      </trkpt>
      <trkpt lat="42.8495" lon="0.2873">
        <ele>1231</ele>
        <time>2019-02-25T16:19:42Z</time>
      </trkpt>
      <trkpt lat="42.84951" lon="0.28735">
        <ele>1231</ele>
        <time>2019-02-25T16:19:43Z</time>
      </trkpt>
      <trkpt lat="42.84952" lon="0.28741">
        <ele>1230</ele>
        <time>2019-02-25T16:19:44Z</time>
      </trkpt>
      <trkpt lat="42.84952" lon="0.28746">
        <ele>1230</ele>
        <time>2019-02-25T16:19:45Z</time>
      </trkpt>
      <trkpt lat="42.84951" lon="0.2875">
        <ele>1230</ele>
        <time>2019-02-25T16:19:46Z</time>
      </trkpt>
      <trkpt lat="42.8495" lon="0.28753">
        <ele>1230</ele>
        <time>2019-02-25T16:19:47Z</time>
      </trkpt>
      <trkpt lat="42.84949" lon="0.28755">
        <ele>1230</ele>
        <time>2019-02-25T16:19:50Z</time>
      </trkpt>
      <trkpt lat="42.84948" lon="0.28758">
        <ele>1230</ele>
        <time>2019-02-25T16:20:04Z</time>
      </trkpt>
      <trkpt lat="42.84945" lon="0.28759">
        <ele>1230</ele>
        <time>2019-02-25T16:20:06Z</time>
      </trkpt>
      <trkpt lat="42.84944" lon="0.2876">
        <ele>1230</ele>
        <time>2019-02-25T16:20:09Z</time>
      </trkpt>
      <trkpt lat="42.84942" lon="0.28763">
        <ele>1229</ele>
        <time>2019-02-25T16:20:14Z</time>
      </trkpt>
      <trkpt lat="42.84943" lon="0.28765">
        <ele>1228</ele>
        <time>2019-02-25T16:20:23Z</time>
      </trkpt>
      <trkpt lat="42.84944" lon="0.28768">
        <ele>1229</ele>
        <time>2019-02-25T16:20:28Z</time>
      </trkpt>
      <trkpt lat="42.84946" lon="0.28772">
        <ele>1229</ele>
        <time>2019-02-25T16:20:30Z</time>
      </trkpt>
      <trkpt lat="42.84948" lon="0.28776">
        <ele>1228</ele>
        <time>2019-02-25T16:20:32Z</time>
      </trkpt>
      <trkpt lat="42.84951" lon="0.2878">
        <ele>1228</ele>
        <time>2019-02-25T16:20:34Z</time>
      </trkpt>
      <trkpt lat="42.84952" lon="0.28782">
        <ele>1228</ele>
        <time>2019-02-25T16:20:35Z</time>
      </trkpt>
      <trkpt lat="42.84953" lon="0.28786">
        <ele>1228</ele>
        <time>2019-02-25T16:20:37Z</time>
      </trkpt>
      <trkpt lat="42.84954" lon="0.28788">
        <ele>1228</ele>
        <time>2019-02-25T16:20:38Z</time>
      </trkpt>
      <trkpt lat="42.84955" lon="0.2879">
        <ele>1228</ele>
        <time>2019-02-25T16:20:39Z</time>
      </trkpt>
      <trkpt lat="42.84956" lon="0.28793">
        <ele>1228</ele>
        <time>2019-02-25T16:20:40Z</time>
      </trkpt>
      <trkpt lat="42.84957" lon="0.28795">
        <ele>1228</ele>
        <time>2019-02-25T16:20:42Z</time>
      </trkpt>
      <trkpt lat="42.84958" lon="0.28798">
        <ele>1229</ele>
        <time>2019-02-25T16:20:46Z</time>
      </trkpt>
      <trkpt lat="42.84959" lon="0.288">
        <ele>1229</ele>
        <time>2019-02-25T16:20:49Z</time>
      </trkpt>
      <trkpt lat="42.8496" lon="0.28802">
        <ele>1229</ele>
        <time>2019-02-25T16:20:51Z</time>
      </trkpt>
      <trkpt lat="42.84962" lon="0.28804">
        <ele>1229</ele>
        <time>2019-02-25T16:21:20Z</time>
      </trkpt>
      <trkpt lat="42.84964" lon="0.28806">
        <ele>1229</ele>
        <time>2019-02-25T16:21:25Z</time>
      </trkpt>
      <trkpt lat="42.84964" lon="0.2881">
        <ele>1229</ele>
        <time>2019-02-25T16:21:28Z</time>
      </trkpt>
      <trkpt lat="42.84962" lon="0.2883">
        <ele>1229</ele>
        <time>2019-02-25T16:21:40Z</time>
      </trkpt>
      <trkpt lat="42.84962" lon="0.28835">
        <ele>1227</ele>
        <time>2019-02-25T16:21:42Z</time>
      </trkpt>
      <trkpt lat="42.84962" lon="0.28839">
        <ele>1226</ele>
        <time>2019-02-25T16:21:44Z</time>
      </trkpt>
      <trkpt lat="42.84962" lon="0.28843">
        <ele>1226</ele>
        <time>2019-02-25T16:21:46Z</time>
      </trkpt>
      <trkpt lat="42.8496" lon="0.28845">
        <ele>1226</ele>
        <time>2019-02-25T16:21:48Z</time>
      </trkpt>
      <trkpt lat="42.84959" lon="0.28848">
        <ele>1226</ele>
        <time>2019-02-25T16:21:53Z</time>
      </trkpt>
      <trkpt lat="42.84958" lon="0.28851">
        <ele>1226</ele>
        <time>2019-02-25T16:21:56Z</time>
      </trkpt>
      <trkpt lat="42.84955" lon="0.2885">
        <ele>1225</ele>
        <time>2019-02-25T16:22:02Z</time>
      </trkpt>
      <trkpt lat="42.84953" lon="0.28851">
        <ele>1225</ele>
        <time>2019-02-25T16:22:04Z</time>
      </trkpt>
      <trkpt lat="42.84952" lon="0.28855">
        <ele>1224</ele>
        <time>2019-02-25T16:22:06Z</time>
      </trkpt>
      <trkpt lat="42.84952" lon="0.2886">
        <ele>1223</ele>
        <time>2019-02-25T16:22:08Z</time>
      </trkpt>
      <trkpt lat="42.84951" lon="0.28866">
        <ele>1222</ele>
        <time>2019-02-25T16:22:10Z</time>
      </trkpt>
      <trkpt lat="42.8495" lon="0.28869">
        <ele>1222</ele>
        <time>2019-02-25T16:22:12Z</time>
      </trkpt>
      <trkpt lat="42.84951" lon="0.28872">
        <ele>1222</ele>
        <time>2019-02-25T16:22:19Z</time>
      </trkpt>
      <trkpt lat="42.8495" lon="0.28874">
        <ele>1223</ele>
        <time>2019-02-25T16:22:22Z</time>
      </trkpt>
      <trkpt lat="42.8495" lon="0.28878">
        <ele>1223</ele>
        <time>2019-02-25T16:22:24Z</time>
      </trkpt>
      <trkpt lat="42.8495" lon="0.28883">
        <ele>1223</ele>
        <time>2019-02-25T16:22:26Z</time>
      </trkpt>
      <trkpt lat="42.84949" lon="0.28886">
        <ele>1223</ele>
        <time>2019-02-25T16:22:27Z</time>
      </trkpt>
      <trkpt lat="42.8495" lon="0.2889">
        <ele>1223</ele>
        <time>2019-02-25T16:22:28Z</time>
      </trkpt>
      <trkpt lat="42.8495" lon="0.28893">
        <ele>1222</ele>
        <time>2019-02-25T16:22:29Z</time>
      </trkpt>
      <trkpt lat="42.8495" lon="0.28901">
        <ele>1222</ele>
        <time>2019-02-25T16:22:31Z</time>
      </trkpt>
      <trkpt lat="42.8495" lon="0.28906">
        <ele>1221</ele>
        <time>2019-02-25T16:22:32Z</time>
      </trkpt>
      <trkpt lat="42.84949" lon="0.2891">
        <ele>1221</ele>
        <time>2019-02-25T16:22:33Z</time>
      </trkpt>
      <trkpt lat="42.84949" lon="0.28915">
        <ele>1221</ele>
        <time>2019-02-25T16:22:34Z</time>
      </trkpt>
      <trkpt lat="42.84948" lon="0.28919">
        <ele>1221</ele>
        <time>2019-02-25T16:22:35Z</time>
      </trkpt>
      <trkpt lat="42.84948" lon="0.28924">
        <ele>1221</ele>
        <time>2019-02-25T16:22:36Z</time>
      </trkpt>
      <trkpt lat="42.84948" lon="0.28934">
        <ele>1221</ele>
        <time>2019-02-25T16:22:38Z</time>
      </trkpt>
      <trkpt lat="42.84948" lon="0.2894">
        <ele>1220</ele>
        <time>2019-02-25T16:22:39Z</time>
      </trkpt>
      <trkpt lat="42.84949" lon="0.28945">
        <ele>1220</ele>
        <time>2019-02-25T16:22:40Z</time>
      </trkpt>
      <trkpt lat="42.8495" lon="0.28951">
        <ele>1220</ele>
        <time>2019-02-25T16:22:41Z</time>
      </trkpt>
      <trkpt lat="42.8495" lon="0.28956">
        <ele>1219</ele>
        <time>2019-02-25T16:22:42Z</time>
      </trkpt>
      <trkpt lat="42.84951" lon="0.28962">
        <ele>1219</ele>
        <time>2019-02-25T16:22:43Z</time>
      </trkpt>
      <trkpt lat="42.84952" lon="0.28967">
        <ele>1219</ele>
        <time>2019-02-25T16:22:44Z</time>
      </trkpt>
      <trkpt lat="42.84953" lon="0.28973">
        <ele>1218</ele>
        <time>2019-02-25T16:22:45Z</time>
      </trkpt>
      <trkpt lat="42.84954" lon="0.28978">
        <ele>1218</ele>
        <time>2019-02-25T16:22:46Z</time>
      </trkpt>
      <trkpt lat="42.84955" lon="0.28983">
        <ele>1218</ele>
        <time>2019-02-25T16:22:47Z</time>
      </trkpt>
      <trkpt lat="42.84956" lon="0.28987">
        <ele>1218</ele>
        <time>2019-02-25T16:22:48Z</time>
      </trkpt>
      <trkpt lat="42.84957" lon="0.28991">
        <ele>1217</ele>
        <time>2019-02-25T16:22:49Z</time>
      </trkpt>
      <trkpt lat="42.84959" lon="0.28995">
        <ele>1217</ele>
        <time>2019-02-25T16:22:50Z</time>
      </trkpt>
      <trkpt lat="42.8496" lon="0.28999">
        <ele>1217</ele>
        <time>2019-02-25T16:22:51Z</time>
      </trkpt>
      <trkpt lat="42.84961" lon="0.29003">
        <ele>1217</ele>
        <time>2019-02-25T16:22:52Z</time>
      </trkpt>
      <trkpt lat="42.84962" lon="0.29008">
        <ele>1216</ele>
        <time>2019-02-25T16:22:53Z</time>
      </trkpt>
      <trkpt lat="42.84962" lon="0.29013">
        <ele>1216</ele>
        <time>2019-02-25T16:22:54Z</time>
      </trkpt>
      <trkpt lat="42.84963" lon="0.29018">
        <ele>1215</ele>
        <time>2019-02-25T16:22:55Z</time>
      </trkpt>
      <trkpt lat="42.84963" lon="0.29024">
        <ele>1215</ele>
        <time>2019-02-25T16:22:56Z</time>
      </trkpt>
      <trkpt lat="42.84963" lon="0.29032">
        <ele>1214</ele>
        <time>2019-02-25T16:22:57Z</time>
      </trkpt>
      <trkpt lat="42.84963" lon="0.29051">
        <ele>1212</ele>
        <time>2019-02-25T16:22:59Z</time>
      </trkpt>
      <trkpt lat="42.84963" lon="0.29061">
        <ele>1211</ele>
        <time>2019-02-25T16:23:00Z</time>
      </trkpt>
      <trkpt lat="42.84966" lon="0.29069">
        <ele>1208</ele>
        <time>2019-02-25T16:23:01Z</time>
      </trkpt>
      <trkpt lat="42.84968" lon="0.29076">
        <ele>1208</ele>
        <time>2019-02-25T16:23:02Z</time>
      </trkpt>
      <trkpt lat="42.8497" lon="0.29081">
        <ele>1208</ele>
        <time>2019-02-25T16:23:03Z</time>
      </trkpt>
      <trkpt lat="42.84972" lon="0.29086">
        <ele>1207</ele>
        <time>2019-02-25T16:23:04Z</time>
      </trkpt>
      <trkpt lat="42.84974" lon="0.2909">
        <ele>1206</ele>
        <time>2019-02-25T16:23:05Z</time>
      </trkpt>
      <trkpt lat="42.84975" lon="0.29096">
        <ele>1206</ele>
        <time>2019-02-25T16:23:06Z</time>
      </trkpt>
      <trkpt lat="42.84976" lon="0.29102">
        <ele>1205</ele>
        <time>2019-02-25T16:23:07Z</time>
      </trkpt>
      <trkpt lat="42.84976" lon="0.29109">
        <ele>1205</ele>
        <time>2019-02-25T16:23:08Z</time>
      </trkpt>
      <trkpt lat="42.84976" lon="0.29116">
        <ele>1204</ele>
        <time>2019-02-25T16:23:09Z</time>
      </trkpt>
      <trkpt lat="42.84978" lon="0.29121">
        <ele>1203</ele>
        <time>2019-02-25T16:23:10Z</time>
      </trkpt>
      <trkpt lat="42.84979" lon="0.29126">
        <ele>1202</ele>
        <time>2019-02-25T16:23:11Z</time>
      </trkpt>
      <trkpt lat="42.84979" lon="0.29131">
        <ele>1202</ele>
        <time>2019-02-25T16:23:12Z</time>
      </trkpt>
      <trkpt lat="42.8498" lon="0.29135">
        <ele>1202</ele>
        <time>2019-02-25T16:23:13Z</time>
      </trkpt>
      <trkpt lat="42.84982" lon="0.29137">
        <ele>1201</ele>
        <time>2019-02-25T16:23:14Z</time>
      </trkpt>
      <trkpt lat="42.84983" lon="0.29141">
        <ele>1201</ele>
        <time>2019-02-25T16:23:15Z</time>
      </trkpt>
      <trkpt lat="42.84984" lon="0.29145">
        <ele>1200</ele>
        <time>2019-02-25T16:23:16Z</time>
      </trkpt>
      <trkpt lat="42.84982" lon="0.29149">
        <ele>1199</ele>
        <time>2019-02-25T16:23:17Z</time>
      </trkpt>
      <trkpt lat="42.8498" lon="0.29151">
        <ele>1198</ele>
        <time>2019-02-25T16:23:18Z</time>
      </trkpt>
      <trkpt lat="42.84978" lon="0.29152">
        <ele>1198</ele>
        <time>2019-02-25T16:23:24Z</time>
      </trkpt>
      <trkpt lat="42.8498" lon="0.29152">
        <ele>1198</ele>
        <time>2019-02-25T16:23:34Z</time>
      </trkpt>
      <trkpt lat="42.84982" lon="0.29151">
        <ele>1197</ele>
        <time>2019-02-25T16:23:36Z</time>
      </trkpt>
      <trkpt lat="42.84981" lon="0.29153">
        <ele>1196</ele>
        <time>2019-02-25T16:23:40Z</time>
      </trkpt>
      <trkpt lat="42.84983" lon="0.29152">
        <ele>1197</ele>
        <time>2019-02-25T16:23:47Z</time>
      </trkpt>
      <trkpt lat="42.84981" lon="0.29152">
        <ele>1198</ele>
        <time>2019-02-25T16:24:03Z</time>
      </trkpt>
      <trkpt lat="42.84981" lon="0.29155">
        <ele>1196</ele>
        <time>2019-02-25T16:24:12Z</time>
      </trkpt>
      <trkpt lat="42.8498" lon="0.29158">
        <ele>1196</ele>
        <time>2019-02-25T16:24:20Z</time>
      </trkpt>
      <trkpt lat="42.84979" lon="0.29155">
        <ele>1195</ele>
        <time>2019-02-25T16:25:08Z</time>
      </trkpt>
      <trkpt lat="42.84977" lon="0.29154">
        <ele>1195</ele>
        <time>2019-02-25T16:25:10Z</time>
      </trkpt>
      <trkpt lat="42.84978" lon="0.29156">
        <ele>1195</ele>
        <time>2019-02-25T16:25:20Z</time>
      </trkpt>
      <trkpt lat="42.84979" lon="0.29157">
        <ele>1196</ele>
        <time>2019-02-25T16:26:38Z</time>
      </trkpt>
      <trkpt lat="42.8498" lon="0.29155">
        <ele>1197</ele>
        <time>2019-02-25T16:27:02Z</time>
      </trkpt>
      <trkpt lat="42.84981" lon="0.29157">
        <ele>1196</ele>
        <time>2019-02-25T16:27:10Z</time>
      </trkpt>
      <trkpt lat="42.84982" lon="0.29157">
        <ele>1196</ele>
        <time>2019-02-25T16:27:25Z</time>
      </trkpt>
      <trkpt lat="42.84985" lon="0.29158">
        <ele>1196</ele>
        <time>2019-02-25T16:27:31Z</time>
      </trkpt>
      <trkpt lat="42.84987" lon="0.29158">
        <ele>1196</ele>
        <time>2019-02-25T16:27:35Z</time>
      </trkpt>
      <trkpt lat="42.84988" lon="0.29155">
        <ele>1196</ele>
        <time>2019-02-25T16:28:35Z</time>
      </trkpt>
      <trkpt lat="42.8499" lon="0.29154">
        <ele>1195</ele>
        <time>2019-02-25T16:28:37Z</time>
      </trkpt>
      <trkpt lat="42.84988" lon="0.29155">
        <ele>1196</ele>
        <time>2019-02-25T16:29:44Z</time>
      </trkpt>
      <trkpt lat="42.84986" lon="0.29157">
        <ele>1197</ele>
        <time>2019-02-25T16:29:56Z</time>
      </trkpt>
      <trkpt lat="42.84985" lon="0.29158">
        <ele>1197</ele>
        <time>2019-02-25T16:30:30Z</time>
      </trkpt>
    </trkseg>
  </trk>
</gpx>